<?xml version="1.0" encoding="UTF-8" standalone="no" ?>
<gpx xmlns="http://www.topografix.com/GPX/1/1" xmlns:xsi="http://www.w3.org/2001/XMLSchema-instance" xsi:schemaLocation="http://www.topografix.com/GPX/1/1 http://www.topografix.com/GPX/1/1/gpx.xsd" version="1.1" creator="VisuGPX - https://www.visugpx.com">
  <metadata>
    <name>solarplanet</name>
    <desc><![CDATA[aller voir le solarplanete et revenir]]></desc>
  </metadata>
  <trk>
    <name><![CDATA[solarplanet]]></name>
    <trkseg>
      <trkpt lat="48.90914" lon="2.38766">
        <ele>45</ele>
        <time>2013-09-12T17:34:16Z</time>
      </trkpt>
      <trkpt lat="48.90896" lon="2.38777">
        <ele>44</ele>
        <time>2013-09-12T17:39:33Z</time>
      </trkpt>
      <trkpt lat="48.90891" lon="2.38765">
        <ele>55</ele>
        <time>2013-09-12T17:39:34Z</time>
      </trkpt>
      <trkpt lat="48.90884" lon="2.38758">
        <ele>49</ele>
        <time>2013-09-12T17:39:36Z</time>
      </trkpt>
      <trkpt lat="48.90872" lon="2.38743">
        <ele>47</ele>
        <time>2013-09-12T17:39:40Z</time>
      </trkpt>
      <trkpt lat="48.9087" lon="2.38737">
        <ele>45</ele>
        <time>2013-09-12T17:39:49Z</time>
      </trkpt>
      <trkpt lat="48.9087" lon="2.38731">
        <ele>40</ele>
        <time>2013-09-12T17:39:52Z</time>
      </trkpt>
      <trkpt lat="48.90873" lon="2.3873">
        <ele>30</ele>
        <time>2013-09-12T17:39:55Z</time>
      </trkpt>
      <trkpt lat="48.90876" lon="2.38727">
        <ele>32</ele>
        <time>2013-09-12T17:39:57Z</time>
      </trkpt>
      <trkpt lat="48.90886" lon="2.38717">
        <ele>29</ele>
        <time>2013-09-12T17:40:01Z</time>
      </trkpt>
      <trkpt lat="48.90889" lon="2.38714">
        <ele>30</ele>
        <time>2013-09-12T17:40:02Z</time>
      </trkpt>
      <trkpt lat="48.90898" lon="2.38707">
        <ele>32</ele>
        <time>2013-09-12T17:40:05Z</time>
      </trkpt>
      <trkpt lat="48.90901" lon="2.38704">
        <ele>31</ele>
        <time>2013-09-12T17:40:06Z</time>
      </trkpt>
      <trkpt lat="48.90922" lon="2.38681">
        <ele>31</ele>
        <time>2013-09-12T17:40:13Z</time>
      </trkpt>
      <trkpt lat="48.90925" lon="2.38678">
        <ele>28</ele>
        <time>2013-09-12T17:40:14Z</time>
      </trkpt>
      <trkpt lat="48.90926" lon="2.38674">
        <ele>26</ele>
        <time>2013-09-12T17:40:15Z</time>
      </trkpt>
      <trkpt lat="48.90927" lon="2.38671">
        <ele>26</ele>
        <time>2013-09-12T17:40:16Z</time>
      </trkpt>
      <trkpt lat="48.90932" lon="2.3867">
        <ele>29</ele>
        <time>2013-09-12T17:40:21Z</time>
      </trkpt>
      <trkpt lat="48.90937" lon="2.38665">
        <ele>35</ele>
        <time>2013-09-12T17:40:25Z</time>
      </trkpt>
      <trkpt lat="48.91002" lon="2.38602">
        <ele>36</ele>
        <time>2013-09-12T17:40:46Z</time>
      </trkpt>
      <trkpt lat="48.91019" lon="2.38584">
        <ele>33</ele>
        <time>2013-09-12T17:40:51Z</time>
      </trkpt>
      <trkpt lat="48.91024" lon="2.38576">
        <ele>31</ele>
        <time>2013-09-12T17:40:53Z</time>
      </trkpt>
      <trkpt lat="48.91027" lon="2.38569">
        <ele>32</ele>
        <time>2013-09-12T17:40:54Z</time>
      </trkpt>
      <trkpt lat="48.9103" lon="2.38563">
        <ele>32</ele>
        <time>2013-09-12T17:40:55Z</time>
      </trkpt>
      <trkpt lat="48.91038" lon="2.38555">
        <ele>34</ele>
        <time>2013-09-12T17:40:57Z</time>
      </trkpt>
      <trkpt lat="48.9105" lon="2.3854">
        <ele>25</ele>
        <time>2013-09-12T17:41:02Z</time>
      </trkpt>
      <trkpt lat="48.91064" lon="2.38527">
        <ele>26</ele>
        <time>2013-09-12T17:41:09Z</time>
      </trkpt>
      <trkpt lat="48.91068" lon="2.3852">
        <ele>35</ele>
        <time>2013-09-12T17:41:18Z</time>
      </trkpt>
      <trkpt lat="48.91068" lon="2.3851">
        <ele>36</ele>
        <time>2013-09-12T17:41:23Z</time>
      </trkpt>
      <trkpt lat="48.91067" lon="2.38502">
        <ele>34</ele>
        <time>2013-09-12T17:41:24Z</time>
      </trkpt>
      <trkpt lat="48.91066" lon="2.38494">
        <ele>37</ele>
        <time>2013-09-12T17:41:27Z</time>
      </trkpt>
      <trkpt lat="48.91065" lon="2.3849">
        <ele>42</ele>
        <time>2013-09-12T17:41:28Z</time>
      </trkpt>
      <trkpt lat="48.91064" lon="2.38486">
        <ele>45</ele>
        <time>2013-09-12T17:41:29Z</time>
      </trkpt>
      <trkpt lat="48.91064" lon="2.38482">
        <ele>44</ele>
        <time>2013-09-12T17:41:30Z</time>
      </trkpt>
      <trkpt lat="48.91064" lon="2.38469">
        <ele>51</ele>
        <time>2013-09-12T17:41:33Z</time>
      </trkpt>
      <trkpt lat="48.91065" lon="2.38457">
        <ele>51</ele>
        <time>2013-09-12T17:41:35Z</time>
      </trkpt>
      <trkpt lat="48.91067" lon="2.38447">
        <ele>47</ele>
        <time>2013-09-12T17:41:37Z</time>
      </trkpt>
      <trkpt lat="48.9107" lon="2.3843">
        <ele>52</ele>
        <time>2013-09-12T17:41:40Z</time>
      </trkpt>
      <trkpt lat="48.91075" lon="2.38408">
        <ele>49</ele>
        <time>2013-09-12T17:41:44Z</time>
      </trkpt>
      <trkpt lat="48.91078" lon="2.384">
        <ele>49</ele>
        <time>2013-09-12T17:41:46Z</time>
      </trkpt>
      <trkpt lat="48.91078" lon="2.3839">
        <ele>44</ele>
        <time>2013-09-12T17:41:48Z</time>
      </trkpt>
      <trkpt lat="48.91077" lon="2.38382">
        <ele>39</ele>
        <time>2013-09-12T17:41:50Z</time>
      </trkpt>
      <trkpt lat="48.91077" lon="2.38372">
        <ele>42</ele>
        <time>2013-09-12T17:41:53Z</time>
      </trkpt>
      <trkpt lat="48.91079" lon="2.38358">
        <ele>39</ele>
        <time>2013-09-12T17:41:57Z</time>
      </trkpt>
      <trkpt lat="48.91082" lon="2.38351">
        <ele>40</ele>
        <time>2013-09-12T17:41:59Z</time>
      </trkpt>
      <trkpt lat="48.91085" lon="2.38342">
        <ele>43</ele>
        <time>2013-09-12T17:42:01Z</time>
      </trkpt>
      <trkpt lat="48.91085" lon="2.38331">
        <ele>38</ele>
        <time>2013-09-12T17:42:03Z</time>
      </trkpt>
      <trkpt lat="48.91086" lon="2.38307">
        <ele>44</ele>
        <time>2013-09-12T17:42:08Z</time>
      </trkpt>
      <trkpt lat="48.91088" lon="2.38293">
        <ele>39</ele>
        <time>2013-09-12T17:42:11Z</time>
      </trkpt>
      <trkpt lat="48.91087" lon="2.38285">
        <ele>34</ele>
        <time>2013-09-12T17:42:14Z</time>
      </trkpt>
      <trkpt lat="48.91089" lon="2.38277">
        <ele>30</ele>
        <time>2013-09-12T17:42:16Z</time>
      </trkpt>
      <trkpt lat="48.91094" lon="2.38246">
        <ele>30</ele>
        <time>2013-09-12T17:42:26Z</time>
      </trkpt>
      <trkpt lat="48.91095" lon="2.38236">
        <ele>32</ele>
        <time>2013-09-12T17:42:30Z</time>
      </trkpt>
      <trkpt lat="48.91095" lon="2.38228">
        <ele>31</ele>
        <time>2013-09-12T17:42:33Z</time>
      </trkpt>
      <trkpt lat="48.91095" lon="2.38217">
        <ele>27</ele>
        <time>2013-09-12T17:42:36Z</time>
      </trkpt>
      <trkpt lat="48.91096" lon="2.38214">
        <ele>26</ele>
        <time>2013-09-12T17:42:37Z</time>
      </trkpt>
      <trkpt lat="48.91097" lon="2.3821">
        <ele>26</ele>
        <time>2013-09-12T17:42:38Z</time>
      </trkpt>
      <trkpt lat="48.91098" lon="2.38206">
        <ele>29</ele>
        <time>2013-09-12T17:42:39Z</time>
      </trkpt>
      <trkpt lat="48.91109" lon="2.38151">
        <ele>38</ele>
        <time>2013-09-12T17:42:54Z</time>
      </trkpt>
      <trkpt lat="48.91114" lon="2.38125">
        <ele>32</ele>
        <time>2013-09-12T17:42:58Z</time>
      </trkpt>
      <trkpt lat="48.91117" lon="2.38097">
        <ele>33</ele>
        <time>2013-09-12T17:43:03Z</time>
      </trkpt>
      <trkpt lat="48.91118" lon="2.38084">
        <ele>31</ele>
        <time>2013-09-12T17:43:05Z</time>
      </trkpt>
      <trkpt lat="48.9112" lon="2.38071">
        <ele>34</ele>
        <time>2013-09-12T17:43:07Z</time>
      </trkpt>
      <trkpt lat="48.91122" lon="2.38041">
        <ele>29</ele>
        <time>2013-09-12T17:43:16Z</time>
      </trkpt>
      <trkpt lat="48.91122" lon="2.38032">
        <ele>28</ele>
        <time>2013-09-12T17:43:19Z</time>
      </trkpt>
      <trkpt lat="48.91124" lon="2.38022">
        <ele>22</ele>
        <time>2013-09-12T17:43:22Z</time>
      </trkpt>
      <trkpt lat="48.91127" lon="2.37998">
        <ele>30</ele>
        <time>2013-09-12T17:43:27Z</time>
      </trkpt>
      <trkpt lat="48.91131" lon="2.37968">
        <ele>28</ele>
        <time>2013-09-12T17:43:32Z</time>
      </trkpt>
      <trkpt lat="48.91134" lon="2.3796">
        <ele>23</ele>
        <time>2013-09-12T17:43:34Z</time>
      </trkpt>
      <trkpt lat="48.91133" lon="2.37948">
        <ele>36</ele>
        <time>2013-09-12T17:43:38Z</time>
      </trkpt>
      <trkpt lat="48.91129" lon="2.37943">
        <ele>42</ele>
        <time>2013-09-12T17:43:41Z</time>
      </trkpt>
      <trkpt lat="48.91124" lon="2.3794">
        <ele>43</ele>
        <time>2013-09-12T17:43:44Z</time>
      </trkpt>
      <trkpt lat="48.91116" lon="2.37935">
        <ele>41</ele>
        <time>2013-09-12T17:43:46Z</time>
      </trkpt>
      <trkpt lat="48.9111" lon="2.37933">
        <ele>45</ele>
        <time>2013-09-12T17:43:48Z</time>
      </trkpt>
      <trkpt lat="48.91104" lon="2.37931">
        <ele>42</ele>
        <time>2013-09-12T17:43:50Z</time>
      </trkpt>
      <trkpt lat="48.91098" lon="2.37926">
        <ele>46</ele>
        <time>2013-09-12T17:43:52Z</time>
      </trkpt>
      <trkpt lat="48.91079" lon="2.37912">
        <ele>47</ele>
        <time>2013-09-12T17:43:57Z</time>
      </trkpt>
      <trkpt lat="48.91072" lon="2.3791">
        <ele>48</ele>
        <time>2013-09-12T17:43:59Z</time>
      </trkpt>
      <trkpt lat="48.91063" lon="2.37906">
        <ele>46</ele>
        <time>2013-09-12T17:44:01Z</time>
      </trkpt>
      <trkpt lat="48.91056" lon="2.379">
        <ele>40</ele>
        <time>2013-09-12T17:44:03Z</time>
      </trkpt>
      <trkpt lat="48.91038" lon="2.37886">
        <ele>47</ele>
        <time>2013-09-12T17:44:08Z</time>
      </trkpt>
      <trkpt lat="48.91031" lon="2.37879">
        <ele>48</ele>
        <time>2013-09-12T17:44:12Z</time>
      </trkpt>
      <trkpt lat="48.91026" lon="2.37875">
        <ele>50</ele>
        <time>2013-09-12T17:44:15Z</time>
      </trkpt>
      <trkpt lat="48.91008" lon="2.37864">
        <ele>59</ele>
        <time>2013-09-12T17:44:23Z</time>
      </trkpt>
      <trkpt lat="48.90998" lon="2.37859">
        <ele>56</ele>
        <time>2013-09-12T17:44:28Z</time>
      </trkpt>
      <trkpt lat="48.90987" lon="2.3785">
        <ele>45</ele>
        <time>2013-09-12T17:44:32Z</time>
      </trkpt>
      <trkpt lat="48.90986" lon="2.37862">
        <ele>31</ele>
        <time>2013-09-12T17:44:44Z</time>
      </trkpt>
      <trkpt lat="48.90982" lon="2.37853">
        <ele>36</ele>
        <time>2013-09-12T17:44:49Z</time>
      </trkpt>
      <trkpt lat="48.90974" lon="2.37845">
        <ele>35</ele>
        <time>2013-09-12T17:44:51Z</time>
      </trkpt>
      <trkpt lat="48.9096" lon="2.37832">
        <ele>36</ele>
        <time>2013-09-12T17:44:54Z</time>
      </trkpt>
      <trkpt lat="48.90955" lon="2.3783">
        <ele>38</ele>
        <time>2013-09-12T17:44:55Z</time>
      </trkpt>
      <trkpt lat="48.9095" lon="2.37828">
        <ele>44</ele>
        <time>2013-09-12T17:44:56Z</time>
      </trkpt>
      <trkpt lat="48.90914" lon="2.37814">
        <ele>49</ele>
        <time>2013-09-12T17:45:06Z</time>
      </trkpt>
      <trkpt lat="48.90909" lon="2.3781">
        <ele>48</ele>
        <time>2013-09-12T17:45:08Z</time>
      </trkpt>
      <trkpt lat="48.90903" lon="2.37808">
        <ele>46</ele>
        <time>2013-09-12T17:45:10Z</time>
      </trkpt>
      <trkpt lat="48.90897" lon="2.37803">
        <ele>39</ele>
        <time>2013-09-12T17:45:12Z</time>
      </trkpt>
      <trkpt lat="48.90895" lon="2.378">
        <ele>38</ele>
        <time>2013-09-12T17:45:14Z</time>
      </trkpt>
      <trkpt lat="48.90888" lon="2.37795">
        <ele>38</ele>
        <time>2013-09-12T17:45:18Z</time>
      </trkpt>
      <trkpt lat="48.90882" lon="2.37789">
        <ele>38</ele>
        <time>2013-09-12T17:45:21Z</time>
      </trkpt>
      <trkpt lat="48.90873" lon="2.37784">
        <ele>50</ele>
        <time>2013-09-12T17:45:25Z</time>
      </trkpt>
      <trkpt lat="48.90871" lon="2.37784">
        <ele>52</ele>
        <time>2013-09-12T17:45:26Z</time>
      </trkpt>
      <trkpt lat="48.90865" lon="2.37782">
        <ele>51</ele>
        <time>2013-09-12T17:45:28Z</time>
      </trkpt>
      <trkpt lat="48.90852" lon="2.37775">
        <ele>49</ele>
        <time>2013-09-12T17:45:33Z</time>
      </trkpt>
      <trkpt lat="48.9085" lon="2.37772">
        <ele>50</ele>
        <time>2013-09-12T17:45:35Z</time>
      </trkpt>
      <trkpt lat="48.90845" lon="2.37768">
        <ele>47</ele>
        <time>2013-09-12T17:45:38Z</time>
      </trkpt>
      <trkpt lat="48.90841" lon="2.37766">
        <ele>45</ele>
        <time>2013-09-12T17:45:40Z</time>
      </trkpt>
      <trkpt lat="48.90838" lon="2.37764">
        <ele>48</ele>
        <time>2013-09-12T17:45:42Z</time>
      </trkpt>
      <trkpt lat="48.90834" lon="2.37762">
        <ele>41</ele>
        <time>2013-09-12T17:45:47Z</time>
      </trkpt>
      <trkpt lat="48.90829" lon="2.37758">
        <ele>43</ele>
        <time>2013-09-12T17:45:55Z</time>
      </trkpt>
      <trkpt lat="48.90826" lon="2.37755">
        <ele>41</ele>
        <time>2013-09-12T17:45:59Z</time>
      </trkpt>
      <trkpt lat="48.90823" lon="2.37754">
        <ele>45</ele>
        <time>2013-09-12T17:46:01Z</time>
      </trkpt>
      <trkpt lat="48.90821" lon="2.37753">
        <ele>44</ele>
        <time>2013-09-12T17:46:03Z</time>
      </trkpt>
      <trkpt lat="48.90819" lon="2.3775">
        <ele>40</ele>
        <time>2013-09-12T17:46:06Z</time>
      </trkpt>
      <trkpt lat="48.90815" lon="2.37746">
        <ele>44</ele>
        <time>2013-09-12T17:46:10Z</time>
      </trkpt>
      <trkpt lat="48.90811" lon="2.37744">
        <ele>46</ele>
        <time>2013-09-12T17:46:14Z</time>
      </trkpt>
      <trkpt lat="48.90808" lon="2.3774">
        <ele>44</ele>
        <time>2013-09-12T17:46:16Z</time>
      </trkpt>
      <trkpt lat="48.90807" lon="2.37736">
        <ele>49</ele>
        <time>2013-09-12T17:46:19Z</time>
      </trkpt>
      <trkpt lat="48.90805" lon="2.37731">
        <ele>50</ele>
        <time>2013-09-12T17:46:21Z</time>
      </trkpt>
      <trkpt lat="48.90801" lon="2.37727">
        <ele>42</ele>
        <time>2013-09-12T17:46:23Z</time>
      </trkpt>
      <trkpt lat="48.90791" lon="2.37719">
        <ele>39</ele>
        <time>2013-09-12T17:46:27Z</time>
      </trkpt>
      <trkpt lat="48.90789" lon="2.37718">
        <ele>39</ele>
        <time>2013-09-12T17:46:28Z</time>
      </trkpt>
      <trkpt lat="48.90784" lon="2.37714">
        <ele>43</ele>
        <time>2013-09-12T17:46:30Z</time>
      </trkpt>
      <trkpt lat="48.90779" lon="2.37711">
        <ele>44</ele>
        <time>2013-09-12T17:46:32Z</time>
      </trkpt>
      <trkpt lat="48.90774" lon="2.37708">
        <ele>42</ele>
        <time>2013-09-12T17:46:34Z</time>
      </trkpt>
      <trkpt lat="48.9077" lon="2.37703">
        <ele>42</ele>
        <time>2013-09-12T17:46:36Z</time>
      </trkpt>
      <trkpt lat="48.90768" lon="2.37701">
        <ele>43</ele>
        <time>2013-09-12T17:46:37Z</time>
      </trkpt>
      <trkpt lat="48.90766" lon="2.37696">
        <ele>37</ele>
        <time>2013-09-12T17:46:39Z</time>
      </trkpt>
      <trkpt lat="48.90766" lon="2.3769">
        <ele>36</ele>
        <time>2013-09-12T17:46:41Z</time>
      </trkpt>
      <trkpt lat="48.90764" lon="2.37684">
        <ele>38</ele>
        <time>2013-09-12T17:46:43Z</time>
      </trkpt>
      <trkpt lat="48.90761" lon="2.3768">
        <ele>40</ele>
        <time>2013-09-12T17:46:45Z</time>
      </trkpt>
      <trkpt lat="48.90752" lon="2.37668">
        <ele>37</ele>
        <time>2013-09-12T17:46:50Z</time>
      </trkpt>
      <trkpt lat="48.90749" lon="2.37665">
        <ele>37</ele>
        <time>2013-09-12T17:46:51Z</time>
      </trkpt>
      <trkpt lat="48.90741" lon="2.37654">
        <ele>37</ele>
        <time>2013-09-12T17:46:54Z</time>
      </trkpt>
      <trkpt lat="48.90738" lon="2.37651">
        <ele>39</ele>
        <time>2013-09-12T17:46:55Z</time>
      </trkpt>
      <trkpt lat="48.90729" lon="2.37642">
        <ele>42</ele>
        <time>2013-09-12T17:46:59Z</time>
      </trkpt>
      <trkpt lat="48.90727" lon="2.37637">
        <ele>43</ele>
        <time>2013-09-12T17:47:01Z</time>
      </trkpt>
      <trkpt lat="48.90721" lon="2.37624">
        <ele>42</ele>
        <time>2013-09-12T17:47:04Z</time>
      </trkpt>
      <trkpt lat="48.90719" lon="2.37616">
        <ele>42</ele>
        <time>2013-09-12T17:47:06Z</time>
      </trkpt>
      <trkpt lat="48.90714" lon="2.37604">
        <ele>42</ele>
        <time>2013-09-12T17:47:09Z</time>
      </trkpt>
      <trkpt lat="48.90709" lon="2.37594">
        <ele>40</ele>
        <time>2013-09-12T17:47:11Z</time>
      </trkpt>
      <trkpt lat="48.90702" lon="2.37587">
        <ele>40</ele>
        <time>2013-09-12T17:47:13Z</time>
      </trkpt>
      <trkpt lat="48.90697" lon="2.37577">
        <ele>45</ele>
        <time>2013-09-12T17:47:15Z</time>
      </trkpt>
      <trkpt lat="48.90683" lon="2.37553">
        <ele>47</ele>
        <time>2013-09-12T17:47:19Z</time>
      </trkpt>
      <trkpt lat="48.90679" lon="2.37548">
        <ele>51</ele>
        <time>2013-09-12T17:47:20Z</time>
      </trkpt>
      <trkpt lat="48.90675" lon="2.37543">
        <ele>51</ele>
        <time>2013-09-12T17:47:21Z</time>
      </trkpt>
      <trkpt lat="48.90668" lon="2.37535">
        <ele>46</ele>
        <time>2013-09-12T17:47:23Z</time>
      </trkpt>
      <trkpt lat="48.9066" lon="2.37528">
        <ele>54</ele>
        <time>2013-09-12T17:47:25Z</time>
      </trkpt>
      <trkpt lat="48.90645" lon="2.37513">
        <ele>44</ele>
        <time>2013-09-12T17:47:29Z</time>
      </trkpt>
      <trkpt lat="48.9064" lon="2.37509">
        <ele>43</ele>
        <time>2013-09-12T17:47:30Z</time>
      </trkpt>
      <trkpt lat="48.90633" lon="2.37507">
        <ele>43</ele>
        <time>2013-09-12T17:47:31Z</time>
      </trkpt>
      <trkpt lat="48.90626" lon="2.37503">
        <ele>43</ele>
        <time>2013-09-12T17:47:32Z</time>
      </trkpt>
      <trkpt lat="48.9062" lon="2.37497">
        <ele>40</ele>
        <time>2013-09-12T17:47:33Z</time>
      </trkpt>
      <trkpt lat="48.90606" lon="2.37483">
        <ele>37</ele>
        <time>2013-09-12T17:47:36Z</time>
      </trkpt>
      <trkpt lat="48.90601" lon="2.37477">
        <ele>37</ele>
        <time>2013-09-12T17:47:37Z</time>
      </trkpt>
      <trkpt lat="48.9058" lon="2.37451">
        <ele>36</ele>
        <time>2013-09-12T17:47:42Z</time>
      </trkpt>
      <trkpt lat="48.90569" lon="2.37441">
        <ele>41</ele>
        <time>2013-09-12T17:47:44Z</time>
      </trkpt>
      <trkpt lat="48.90558" lon="2.37431">
        <ele>38</ele>
        <time>2013-09-12T17:47:46Z</time>
      </trkpt>
      <trkpt lat="48.90553" lon="2.37428">
        <ele>38</ele>
        <time>2013-09-12T17:47:47Z</time>
      </trkpt>
      <trkpt lat="48.90548" lon="2.37424">
        <ele>39</ele>
        <time>2013-09-12T17:47:48Z</time>
      </trkpt>
      <trkpt lat="48.90538" lon="2.37418">
        <ele>40</ele>
        <time>2013-09-12T17:47:50Z</time>
      </trkpt>
      <trkpt lat="48.90529" lon="2.37407">
        <ele>40</ele>
        <time>2013-09-12T17:47:52Z</time>
      </trkpt>
      <trkpt lat="48.90525" lon="2.37402">
        <ele>39</ele>
        <time>2013-09-12T17:47:53Z</time>
      </trkpt>
      <trkpt lat="48.90522" lon="2.37396">
        <ele>39</ele>
        <time>2013-09-12T17:47:54Z</time>
      </trkpt>
      <trkpt lat="48.90516" lon="2.37385">
        <ele>39</ele>
        <time>2013-09-12T17:47:56Z</time>
      </trkpt>
      <trkpt lat="48.90511" lon="2.3738">
        <ele>39</ele>
        <time>2013-09-12T17:47:57Z</time>
      </trkpt>
      <trkpt lat="48.90478" lon="2.37336">
        <ele>37</ele>
        <time>2013-09-12T17:48:06Z</time>
      </trkpt>
      <trkpt lat="48.90474" lon="2.3733">
        <ele>35</ele>
        <time>2013-09-12T17:48:07Z</time>
      </trkpt>
      <trkpt lat="48.90471" lon="2.37326">
        <ele>36</ele>
        <time>2013-09-12T17:48:08Z</time>
      </trkpt>
      <trkpt lat="48.90451" lon="2.37301">
        <ele>24</ele>
        <time>2013-09-12T17:48:14Z</time>
      </trkpt>
      <trkpt lat="48.90447" lon="2.37298">
        <ele>28</ele>
        <time>2013-09-12T17:48:15Z</time>
      </trkpt>
      <trkpt lat="48.90444" lon="2.37294">
        <ele>31</ele>
        <time>2013-09-12T17:48:16Z</time>
      </trkpt>
      <trkpt lat="48.90441" lon="2.37291">
        <ele>30</ele>
        <time>2013-09-12T17:48:17Z</time>
      </trkpt>
      <trkpt lat="48.90434" lon="2.37287">
        <ele>44</ele>
        <time>2013-09-12T17:48:29Z</time>
      </trkpt>
      <trkpt lat="48.90428" lon="2.37291">
        <ele>51</ele>
        <time>2013-09-12T17:48:52Z</time>
      </trkpt>
      <trkpt lat="48.90426" lon="2.37303">
        <ele>53</ele>
        <time>2013-09-12T17:48:54Z</time>
      </trkpt>
      <trkpt lat="48.90427" lon="2.37313">
        <ele>57</ele>
        <time>2013-09-12T17:48:57Z</time>
      </trkpt>
      <trkpt lat="48.90425" lon="2.37325">
        <ele>49</ele>
        <time>2013-09-12T17:48:59Z</time>
      </trkpt>
      <trkpt lat="48.90419" lon="2.37358">
        <ele>42</ele>
        <time>2013-09-12T17:49:05Z</time>
      </trkpt>
      <trkpt lat="48.90417" lon="2.37371">
        <ele>41</ele>
        <time>2013-09-12T17:49:07Z</time>
      </trkpt>
      <trkpt lat="48.90414" lon="2.37384">
        <ele>40</ele>
        <time>2013-09-12T17:49:09Z</time>
      </trkpt>
      <trkpt lat="48.90409" lon="2.37408">
        <ele>39</ele>
        <time>2013-09-12T17:49:13Z</time>
      </trkpt>
      <trkpt lat="48.90407" lon="2.37411">
        <ele>39</ele>
        <time>2013-09-12T17:49:14Z</time>
      </trkpt>
      <trkpt lat="48.90407" lon="2.37417">
        <ele>40</ele>
        <time>2013-09-12T17:49:15Z</time>
      </trkpt>
      <trkpt lat="48.90404" lon="2.37429">
        <ele>39</ele>
        <time>2013-09-12T17:49:17Z</time>
      </trkpt>
      <trkpt lat="48.90401" lon="2.3745">
        <ele>44</ele>
        <time>2013-09-12T17:49:20Z</time>
      </trkpt>
      <trkpt lat="48.90399" lon="2.37457">
        <ele>45</ele>
        <time>2013-09-12T17:49:21Z</time>
      </trkpt>
      <trkpt lat="48.90398" lon="2.37462">
        <ele>46</ele>
        <time>2013-09-12T17:49:22Z</time>
      </trkpt>
      <trkpt lat="48.90394" lon="2.37485">
        <ele>39</ele>
        <time>2013-09-12T17:49:27Z</time>
      </trkpt>
      <trkpt lat="48.90386" lon="2.37484">
        <ele>38</ele>
        <time>2013-09-12T17:49:29Z</time>
      </trkpt>
      <trkpt lat="48.9038" lon="2.37478">
        <ele>42</ele>
        <time>2013-09-12T17:49:31Z</time>
      </trkpt>
      <trkpt lat="48.90369" lon="2.37466">
        <ele>44</ele>
        <time>2013-09-12T17:49:34Z</time>
      </trkpt>
      <trkpt lat="48.90366" lon="2.37462">
        <ele>44</ele>
        <time>2013-09-12T17:49:35Z</time>
      </trkpt>
      <trkpt lat="48.90364" lon="2.37458">
        <ele>41</ele>
        <time>2013-09-12T17:49:36Z</time>
      </trkpt>
      <trkpt lat="48.9036" lon="2.37454">
        <ele>38</ele>
        <time>2013-09-12T17:49:37Z</time>
      </trkpt>
      <trkpt lat="48.90356" lon="2.3745">
        <ele>37</ele>
        <time>2013-09-12T17:49:38Z</time>
      </trkpt>
      <trkpt lat="48.90352" lon="2.37446">
        <ele>42</ele>
        <time>2013-09-12T17:49:39Z</time>
      </trkpt>
      <trkpt lat="48.90343" lon="2.37439">
        <ele>44</ele>
        <time>2013-09-12T17:49:41Z</time>
      </trkpt>
      <trkpt lat="48.9034" lon="2.37435">
        <ele>42</ele>
        <time>2013-09-12T17:49:42Z</time>
      </trkpt>
      <trkpt lat="48.90315" lon="2.37406">
        <ele>42</ele>
        <time>2013-09-12T17:49:49Z</time>
      </trkpt>
      <trkpt lat="48.90309" lon="2.37401">
        <ele>46</ele>
        <time>2013-09-12T17:49:51Z</time>
      </trkpt>
      <trkpt lat="48.90295" lon="2.37387">
        <ele>44</ele>
        <time>2013-09-12T17:49:55Z</time>
      </trkpt>
      <trkpt lat="48.90292" lon="2.37383">
        <ele>41</ele>
        <time>2013-09-12T17:49:56Z</time>
      </trkpt>
      <trkpt lat="48.90282" lon="2.37372">
        <ele>37</ele>
        <time>2013-09-12T17:49:59Z</time>
      </trkpt>
      <trkpt lat="48.90278" lon="2.37366">
        <ele>34</ele>
        <time>2013-09-12T17:50:01Z</time>
      </trkpt>
      <trkpt lat="48.90269" lon="2.37354">
        <ele>37</ele>
        <time>2013-09-12T17:50:05Z</time>
      </trkpt>
      <trkpt lat="48.90266" lon="2.37351">
        <ele>38</ele>
        <time>2013-09-12T17:50:06Z</time>
      </trkpt>
      <trkpt lat="48.90263" lon="2.37347">
        <ele>38</ele>
        <time>2013-09-12T17:50:07Z</time>
      </trkpt>
      <trkpt lat="48.90254" lon="2.37338">
        <ele>41</ele>
        <time>2013-09-12T17:50:10Z</time>
      </trkpt>
      <trkpt lat="48.9025" lon="2.37334">
        <ele>39</ele>
        <time>2013-09-12T17:50:11Z</time>
      </trkpt>
      <trkpt lat="48.90241" lon="2.37324">
        <ele>38</ele>
        <time>2013-09-12T17:50:14Z</time>
      </trkpt>
      <trkpt lat="48.90238" lon="2.3732">
        <ele>38</ele>
        <time>2013-09-12T17:50:15Z</time>
      </trkpt>
      <trkpt lat="48.90234" lon="2.3731">
        <ele>43</ele>
        <time>2013-09-12T17:50:18Z</time>
      </trkpt>
      <trkpt lat="48.90234" lon="2.37308">
        <ele>43</ele>
        <time>2013-09-12T17:50:19Z</time>
      </trkpt>
      <trkpt lat="48.90232" lon="2.37307">
        <ele>45</ele>
        <time>2013-09-12T17:50:20Z</time>
      </trkpt>
      <trkpt lat="48.90229" lon="2.37306">
        <ele>45</ele>
        <time>2013-09-12T17:50:21Z</time>
      </trkpt>
      <trkpt lat="48.90221" lon="2.37303">
        <ele>43</ele>
        <time>2013-09-12T17:50:24Z</time>
      </trkpt>
      <trkpt lat="48.90219" lon="2.37301">
        <ele>42</ele>
        <time>2013-09-12T17:50:25Z</time>
      </trkpt>
      <trkpt lat="48.90215" lon="2.37297">
        <ele>39</ele>
        <time>2013-09-12T17:50:27Z</time>
      </trkpt>
      <trkpt lat="48.90211" lon="2.37292">
        <ele>40</ele>
        <time>2013-09-12T17:50:29Z</time>
      </trkpt>
      <trkpt lat="48.90206" lon="2.37288">
        <ele>40</ele>
        <time>2013-09-12T17:50:31Z</time>
      </trkpt>
      <trkpt lat="48.90203" lon="2.37288">
        <ele>40</ele>
        <time>2013-09-12T17:50:32Z</time>
      </trkpt>
      <trkpt lat="48.90192" lon="2.37285">
        <ele>39</ele>
        <time>2013-09-12T17:50:37Z</time>
      </trkpt>
      <trkpt lat="48.90189" lon="2.37282">
        <ele>40</ele>
        <time>2013-09-12T17:50:38Z</time>
      </trkpt>
      <trkpt lat="48.90187" lon="2.3728">
        <ele>40</ele>
        <time>2013-09-12T17:50:39Z</time>
      </trkpt>
      <trkpt lat="48.90184" lon="2.37278">
        <ele>39</ele>
        <time>2013-09-12T17:50:40Z</time>
      </trkpt>
      <trkpt lat="48.90182" lon="2.37275">
        <ele>37</ele>
        <time>2013-09-12T17:50:41Z</time>
      </trkpt>
      <trkpt lat="48.90173" lon="2.37267">
        <ele>37</ele>
        <time>2013-09-12T17:50:44Z</time>
      </trkpt>
      <trkpt lat="48.9017" lon="2.37264">
        <ele>36</ele>
        <time>2013-09-12T17:50:45Z</time>
      </trkpt>
      <trkpt lat="48.90161" lon="2.37252">
        <ele>39</ele>
        <time>2013-09-12T17:50:48Z</time>
      </trkpt>
      <trkpt lat="48.90159" lon="2.37247">
        <ele>33</ele>
        <time>2013-09-12T17:50:49Z</time>
      </trkpt>
      <trkpt lat="48.90149" lon="2.37231">
        <ele>34</ele>
        <time>2013-09-12T17:50:53Z</time>
      </trkpt>
      <trkpt lat="48.90146" lon="2.37227">
        <ele>33</ele>
        <time>2013-09-12T17:50:54Z</time>
      </trkpt>
      <trkpt lat="48.90136" lon="2.37217">
        <ele>35</ele>
        <time>2013-09-12T17:50:57Z</time>
      </trkpt>
      <trkpt lat="48.90129" lon="2.37212">
        <ele>38</ele>
        <time>2013-09-12T17:50:59Z</time>
      </trkpt>
      <trkpt lat="48.90123" lon="2.37206">
        <ele>36</ele>
        <time>2013-09-12T17:51:01Z</time>
      </trkpt>
      <trkpt lat="48.90113" lon="2.37197">
        <ele>40</ele>
        <time>2013-09-12T17:51:04Z</time>
      </trkpt>
      <trkpt lat="48.90107" lon="2.37193">
        <ele>42</ele>
        <time>2013-09-12T17:51:06Z</time>
      </trkpt>
      <trkpt lat="48.90104" lon="2.3719">
        <ele>44</ele>
        <time>2013-09-12T17:51:08Z</time>
      </trkpt>
      <trkpt lat="48.90102" lon="2.37187">
        <ele>42</ele>
        <time>2013-09-12T17:51:09Z</time>
      </trkpt>
      <trkpt lat="48.901" lon="2.37185">
        <ele>41</ele>
        <time>2013-09-12T17:51:10Z</time>
      </trkpt>
      <trkpt lat="48.90091" lon="2.37177">
        <ele>43</ele>
        <time>2013-09-12T17:51:14Z</time>
      </trkpt>
      <trkpt lat="48.90089" lon="2.37176">
        <ele>44</ele>
        <time>2013-09-12T17:51:15Z</time>
      </trkpt>
      <trkpt lat="48.90086" lon="2.37173">
        <ele>45</ele>
        <time>2013-09-12T17:51:16Z</time>
      </trkpt>
      <trkpt lat="48.90083" lon="2.37174">
        <ele>50</ele>
        <time>2013-09-12T17:51:17Z</time>
      </trkpt>
      <trkpt lat="48.9008" lon="2.37173">
        <ele>49</ele>
        <time>2013-09-12T17:51:19Z</time>
      </trkpt>
      <trkpt lat="48.90069" lon="2.37169">
        <ele>45</ele>
        <time>2013-09-12T17:51:23Z</time>
      </trkpt>
      <trkpt lat="48.90065" lon="2.37169">
        <ele>45</ele>
        <time>2013-09-12T17:51:24Z</time>
      </trkpt>
      <trkpt lat="48.90059" lon="2.37167">
        <ele>41</ele>
        <time>2013-09-12T17:51:27Z</time>
      </trkpt>
      <trkpt lat="48.90053" lon="2.37164">
        <ele>38</ele>
        <time>2013-09-12T17:51:30Z</time>
      </trkpt>
      <trkpt lat="48.90045" lon="2.37159">
        <ele>42</ele>
        <time>2013-09-12T17:51:33Z</time>
      </trkpt>
      <trkpt lat="48.90041" lon="2.37159">
        <ele>42</ele>
        <time>2013-09-12T17:51:35Z</time>
      </trkpt>
      <trkpt lat="48.90036" lon="2.3716">
        <ele>40</ele>
        <time>2013-09-12T17:51:37Z</time>
      </trkpt>
      <trkpt lat="48.9003" lon="2.37156">
        <ele>39</ele>
        <time>2013-09-12T17:51:40Z</time>
      </trkpt>
      <trkpt lat="48.90028" lon="2.3715">
        <ele>39</ele>
        <time>2013-09-12T17:51:42Z</time>
      </trkpt>
      <trkpt lat="48.90026" lon="2.37148">
        <ele>35</ele>
        <time>2013-09-12T17:51:43Z</time>
      </trkpt>
      <trkpt lat="48.90022" lon="2.37141">
        <ele>33</ele>
        <time>2013-09-12T17:51:45Z</time>
      </trkpt>
      <trkpt lat="48.90017" lon="2.37134">
        <ele>39</ele>
        <time>2013-09-12T17:51:48Z</time>
      </trkpt>
      <trkpt lat="48.90012" lon="2.37131">
        <ele>44</ele>
        <time>2013-09-12T17:51:51Z</time>
      </trkpt>
      <trkpt lat="48.90006" lon="2.3713">
        <ele>40</ele>
        <time>2013-09-12T17:51:53Z</time>
      </trkpt>
      <trkpt lat="48.89986" lon="2.37131">
        <ele>33</ele>
        <time>2013-09-12T17:52:00Z</time>
      </trkpt>
      <trkpt lat="48.8998" lon="2.37129">
        <ele>33</ele>
        <time>2013-09-12T17:52:02Z</time>
      </trkpt>
      <trkpt lat="48.89975" lon="2.37129">
        <ele>37</ele>
        <time>2013-09-12T17:52:04Z</time>
      </trkpt>
      <trkpt lat="48.89968" lon="2.3713">
        <ele>41</ele>
        <time>2013-09-12T17:52:07Z</time>
      </trkpt>
      <trkpt lat="48.89966" lon="2.37129">
        <ele>42</ele>
        <time>2013-09-12T17:52:08Z</time>
      </trkpt>
      <trkpt lat="48.8996" lon="2.37128">
        <ele>41</ele>
        <time>2013-09-12T17:52:10Z</time>
      </trkpt>
      <trkpt lat="48.89954" lon="2.37129">
        <ele>39</ele>
        <time>2013-09-12T17:52:12Z</time>
      </trkpt>
      <trkpt lat="48.89948" lon="2.3713">
        <ele>43</ele>
        <time>2013-09-12T17:52:14Z</time>
      </trkpt>
      <trkpt lat="48.89942" lon="2.37133">
        <ele>47</ele>
        <time>2013-09-12T17:52:17Z</time>
      </trkpt>
      <trkpt lat="48.89936" lon="2.37134">
        <ele>49</ele>
        <time>2013-09-12T17:52:19Z</time>
      </trkpt>
      <trkpt lat="48.8993" lon="2.37137">
        <ele>49</ele>
        <time>2013-09-12T17:52:21Z</time>
      </trkpt>
      <trkpt lat="48.89922" lon="2.37136">
        <ele>44</ele>
        <time>2013-09-12T17:52:23Z</time>
      </trkpt>
      <trkpt lat="48.89872" lon="2.37132">
        <ele>42</ele>
        <time>2013-09-12T17:52:39Z</time>
      </trkpt>
      <trkpt lat="48.89869" lon="2.37138">
        <ele>42</ele>
        <time>2013-09-12T17:52:41Z</time>
      </trkpt>
      <trkpt lat="48.89866" lon="2.37133">
        <ele>42</ele>
        <time>2013-09-12T17:52:47Z</time>
      </trkpt>
      <trkpt lat="48.89857" lon="2.37121">
        <ele>45</ele>
        <time>2013-09-12T17:52:52Z</time>
      </trkpt>
      <trkpt lat="48.89855" lon="2.37118">
        <ele>42</ele>
        <time>2013-09-12T17:52:54Z</time>
      </trkpt>
      <trkpt lat="48.89852" lon="2.37116">
        <ele>45</ele>
        <time>2013-09-12T17:52:56Z</time>
      </trkpt>
      <trkpt lat="48.8985" lon="2.37104">
        <ele>45</ele>
        <time>2013-09-12T17:54:21Z</time>
      </trkpt>
      <trkpt lat="48.89853" lon="2.37097">
        <ele>44</ele>
        <time>2013-09-12T17:54:25Z</time>
      </trkpt>
      <trkpt lat="48.89855" lon="2.37087">
        <ele>49</ele>
        <time>2013-09-12T17:54:28Z</time>
      </trkpt>
      <trkpt lat="48.89857" lon="2.3708">
        <ele>49</ele>
        <time>2013-09-12T17:54:30Z</time>
      </trkpt>
      <trkpt lat="48.89858" lon="2.37072">
        <ele>47</ele>
        <time>2013-09-12T17:54:32Z</time>
      </trkpt>
      <trkpt lat="48.89863" lon="2.37022">
        <ele>48</ele>
        <time>2013-09-12T17:54:46Z</time>
      </trkpt>
      <trkpt lat="48.89861" lon="2.37015">
        <ele>51</ele>
        <time>2013-09-12T17:54:49Z</time>
      </trkpt>
      <trkpt lat="48.8986" lon="2.37007">
        <ele>47</ele>
        <time>2013-09-12T17:54:52Z</time>
      </trkpt>
      <trkpt lat="48.8986" lon="2.36998">
        <ele>48</ele>
        <time>2013-09-12T17:54:55Z</time>
      </trkpt>
      <trkpt lat="48.8986" lon="2.36988">
        <ele>50</ele>
        <time>2013-09-12T17:54:57Z</time>
      </trkpt>
      <trkpt lat="48.89861" lon="2.36975">
        <ele>60</ele>
        <time>2013-09-12T17:54:59Z</time>
      </trkpt>
      <trkpt lat="48.8986" lon="2.36968">
        <ele>62</ele>
        <time>2013-09-12T17:55:00Z</time>
      </trkpt>
      <trkpt lat="48.8986" lon="2.36951">
        <ele>59</ele>
        <time>2013-09-12T17:55:02Z</time>
      </trkpt>
      <trkpt lat="48.89859" lon="2.36933">
        <ele>56</ele>
        <time>2013-09-12T17:55:04Z</time>
      </trkpt>
      <trkpt lat="48.89859" lon="2.36925">
        <ele>49</ele>
        <time>2013-09-12T17:55:05Z</time>
      </trkpt>
      <trkpt lat="48.89858" lon="2.36891">
        <ele>51</ele>
        <time>2013-09-12T17:55:09Z</time>
      </trkpt>
      <trkpt lat="48.89857" lon="2.36883">
        <ele>50</ele>
        <time>2013-09-12T17:55:10Z</time>
      </trkpt>
      <trkpt lat="48.89854" lon="2.36852">
        <ele>46</ele>
        <time>2013-09-12T17:55:14Z</time>
      </trkpt>
      <trkpt lat="48.89854" lon="2.36844">
        <ele>47</ele>
        <time>2013-09-12T17:55:15Z</time>
      </trkpt>
      <trkpt lat="48.89854" lon="2.36814">
        <ele>41</ele>
        <time>2013-09-12T17:55:19Z</time>
      </trkpt>
      <trkpt lat="48.89856" lon="2.368">
        <ele>41</ele>
        <time>2013-09-12T17:55:21Z</time>
      </trkpt>
      <trkpt lat="48.89859" lon="2.36771">
        <ele>42</ele>
        <time>2013-09-12T17:55:25Z</time>
      </trkpt>
      <trkpt lat="48.89859" lon="2.36763">
        <ele>38</ele>
        <time>2013-09-12T17:55:26Z</time>
      </trkpt>
      <trkpt lat="48.8986" lon="2.36733">
        <ele>39</ele>
        <time>2013-09-12T17:55:30Z</time>
      </trkpt>
      <trkpt lat="48.89858" lon="2.36718">
        <ele>42</ele>
        <time>2013-09-12T17:55:32Z</time>
      </trkpt>
      <trkpt lat="48.89858" lon="2.3671">
        <ele>40</ele>
        <time>2013-09-12T17:55:33Z</time>
      </trkpt>
      <trkpt lat="48.89853" lon="2.3661">
        <ele>40</ele>
        <time>2013-09-12T17:55:47Z</time>
      </trkpt>
      <trkpt lat="48.89854" lon="2.36597">
        <ele>38</ele>
        <time>2013-09-12T17:55:49Z</time>
      </trkpt>
      <trkpt lat="48.89854" lon="2.36578">
        <ele>35</ele>
        <time>2013-09-12T17:55:52Z</time>
      </trkpt>
      <trkpt lat="48.89852" lon="2.36549">
        <ele>36</ele>
        <time>2013-09-12T17:55:56Z</time>
      </trkpt>
      <trkpt lat="48.89848" lon="2.36489">
        <ele>33</ele>
        <time>2013-09-12T17:56:05Z</time>
      </trkpt>
      <trkpt lat="48.89846" lon="2.36475">
        <ele>33</ele>
        <time>2013-09-12T17:56:07Z</time>
      </trkpt>
      <trkpt lat="48.89845" lon="2.36464">
        <ele>32</ele>
        <time>2013-09-12T17:56:09Z</time>
      </trkpt>
      <trkpt lat="48.89846" lon="2.36451">
        <ele>33</ele>
        <time>2013-09-12T17:56:12Z</time>
      </trkpt>
      <trkpt lat="48.89849" lon="2.36441">
        <ele>35</ele>
        <time>2013-09-12T17:56:14Z</time>
      </trkpt>
      <trkpt lat="48.89851" lon="2.36433">
        <ele>35</ele>
        <time>2013-09-12T17:56:16Z</time>
      </trkpt>
      <trkpt lat="48.8985" lon="2.3642">
        <ele>37</ele>
        <time>2013-09-12T17:56:18Z</time>
      </trkpt>
      <trkpt lat="48.89849" lon="2.36408">
        <ele>38</ele>
        <time>2013-09-12T17:56:20Z</time>
      </trkpt>
      <trkpt lat="48.89848" lon="2.36395">
        <ele>34</ele>
        <time>2013-09-12T17:56:22Z</time>
      </trkpt>
      <trkpt lat="48.89843" lon="2.36333">
        <ele>35</ele>
        <time>2013-09-12T17:56:32Z</time>
      </trkpt>
      <trkpt lat="48.89844" lon="2.36323">
        <ele>34</ele>
        <time>2013-09-12T17:56:34Z</time>
      </trkpt>
      <trkpt lat="48.89843" lon="2.36313">
        <ele>35</ele>
        <time>2013-09-12T17:56:36Z</time>
      </trkpt>
      <trkpt lat="48.89839" lon="2.36248">
        <ele>35</ele>
        <time>2013-09-12T17:56:50Z</time>
      </trkpt>
      <trkpt lat="48.8984" lon="2.36236">
        <ele>32</ele>
        <time>2013-09-12T17:56:52Z</time>
      </trkpt>
      <trkpt lat="48.8984" lon="2.36225">
        <ele>38</ele>
        <time>2013-09-12T17:56:54Z</time>
      </trkpt>
      <trkpt lat="48.89837" lon="2.36149">
        <ele>30</ele>
        <time>2013-09-12T17:57:09Z</time>
      </trkpt>
      <trkpt lat="48.89835" lon="2.36142">
        <ele>24</ele>
        <time>2013-09-12T17:57:11Z</time>
      </trkpt>
      <trkpt lat="48.89833" lon="2.3613">
        <ele>35</ele>
        <time>2013-09-12T17:57:14Z</time>
      </trkpt>
      <trkpt lat="48.89832" lon="2.36123">
        <ele>33</ele>
        <time>2013-09-12T17:57:16Z</time>
      </trkpt>
      <trkpt lat="48.89833" lon="2.36104">
        <ele>31</ele>
        <time>2013-09-12T17:57:21Z</time>
      </trkpt>
      <trkpt lat="48.89837" lon="2.36098">
        <ele>32</ele>
        <time>2013-09-12T17:57:23Z</time>
      </trkpt>
      <trkpt lat="48.89838" lon="2.36089">
        <ele>31</ele>
        <time>2013-09-12T17:57:26Z</time>
      </trkpt>
      <trkpt lat="48.89838" lon="2.36078">
        <ele>31</ele>
        <time>2013-09-12T17:57:29Z</time>
      </trkpt>
      <trkpt lat="48.89837" lon="2.3607">
        <ele>30</ele>
        <time>2013-09-12T17:57:31Z</time>
      </trkpt>
      <trkpt lat="48.89836" lon="2.36061">
        <ele>34</ele>
        <time>2013-09-12T17:57:33Z</time>
      </trkpt>
      <trkpt lat="48.89836" lon="2.3605">
        <ele>36</ele>
        <time>2013-09-12T17:57:35Z</time>
      </trkpt>
      <trkpt lat="48.89838" lon="2.36042">
        <ele>32</ele>
        <time>2013-09-12T17:57:38Z</time>
      </trkpt>
      <trkpt lat="48.8984" lon="2.36034">
        <ele>39</ele>
        <time>2013-09-12T17:57:40Z</time>
      </trkpt>
      <trkpt lat="48.89842" lon="2.36024">
        <ele>40</ele>
        <time>2013-09-12T17:57:42Z</time>
      </trkpt>
      <trkpt lat="48.89845" lon="2.36006">
        <ele>46</ele>
        <time>2013-09-12T17:57:47Z</time>
      </trkpt>
      <trkpt lat="48.89845" lon="2.36003">
        <ele>45</ele>
        <time>2013-09-12T17:57:48Z</time>
      </trkpt>
      <trkpt lat="48.89844" lon="2.35999">
        <ele>43</ele>
        <time>2013-09-12T17:57:49Z</time>
      </trkpt>
      <trkpt lat="48.89843" lon="2.35993">
        <ele>41</ele>
        <time>2013-09-12T17:57:51Z</time>
      </trkpt>
      <trkpt lat="48.89842" lon="2.35987">
        <ele>43</ele>
        <time>2013-09-12T17:57:53Z</time>
      </trkpt>
      <trkpt lat="48.8984" lon="2.35972">
        <ele>45</ele>
        <time>2013-09-12T17:57:57Z</time>
      </trkpt>
      <trkpt lat="48.8984" lon="2.35961">
        <ele>44</ele>
        <time>2013-09-12T17:58:00Z</time>
      </trkpt>
      <trkpt lat="48.8984" lon="2.35959">
        <ele>47</ele>
        <time>2013-09-12T17:58:01Z</time>
      </trkpt>
      <trkpt lat="48.89839" lon="2.35954">
        <ele>45</ele>
        <time>2013-09-12T17:58:04Z</time>
      </trkpt>
      <trkpt lat="48.89838" lon="2.35951">
        <ele>43</ele>
        <time>2013-09-12T17:58:10Z</time>
      </trkpt>
      <trkpt lat="48.89833" lon="2.35949">
        <ele>47</ele>
        <time>2013-09-12T17:58:16Z</time>
      </trkpt>
      <trkpt lat="48.89831" lon="2.35953">
        <ele>59</ele>
        <time>2013-09-12T17:59:19Z</time>
      </trkpt>
      <trkpt lat="48.89835" lon="2.35943">
        <ele>48</ele>
        <time>2013-09-12T17:59:27Z</time>
      </trkpt>
      <trkpt lat="48.89835" lon="2.35939">
        <ele>43</ele>
        <time>2013-09-12T17:59:28Z</time>
      </trkpt>
      <trkpt lat="48.89836" lon="2.35935">
        <ele>47</ele>
        <time>2013-09-12T17:59:29Z</time>
      </trkpt>
      <trkpt lat="48.89836" lon="2.35931">
        <ele>45</ele>
        <time>2013-09-12T17:59:30Z</time>
      </trkpt>
      <trkpt lat="48.89835" lon="2.35921">
        <ele>41</ele>
        <time>2013-09-12T17:59:33Z</time>
      </trkpt>
      <trkpt lat="48.89836" lon="2.35918">
        <ele>40</ele>
        <time>2013-09-12T17:59:34Z</time>
      </trkpt>
      <trkpt lat="48.89837" lon="2.3591">
        <ele>37</ele>
        <time>2013-09-12T17:59:37Z</time>
      </trkpt>
      <trkpt lat="48.89837" lon="2.35907">
        <ele>38</ele>
        <time>2013-09-12T17:59:38Z</time>
      </trkpt>
      <trkpt lat="48.89836" lon="2.35903">
        <ele>40</ele>
        <time>2013-09-12T17:59:40Z</time>
      </trkpt>
      <trkpt lat="48.89837" lon="2.35894">
        <ele>47</ele>
        <time>2013-09-12T17:59:43Z</time>
      </trkpt>
      <trkpt lat="48.89837" lon="2.35886">
        <ele>49</ele>
        <time>2013-09-12T17:59:46Z</time>
      </trkpt>
      <trkpt lat="48.89836" lon="2.35872">
        <ele>55</ele>
        <time>2013-09-12T18:00:01Z</time>
      </trkpt>
      <trkpt lat="48.89836" lon="2.35869">
        <ele>53</ele>
        <time>2013-09-12T18:00:02Z</time>
      </trkpt>
      <trkpt lat="48.89837" lon="2.35863">
        <ele>51</ele>
        <time>2013-09-12T18:00:04Z</time>
      </trkpt>
      <trkpt lat="48.89837" lon="2.35848">
        <ele>46</ele>
        <time>2013-09-12T18:00:08Z</time>
      </trkpt>
      <trkpt lat="48.89839" lon="2.35834">
        <ele>47</ele>
        <time>2013-09-12T18:00:12Z</time>
      </trkpt>
      <trkpt lat="48.8984" lon="2.35831">
        <ele>45</ele>
        <time>2013-09-12T18:00:13Z</time>
      </trkpt>
      <trkpt lat="48.89841" lon="2.35826">
        <ele>51</ele>
        <time>2013-09-12T18:00:14Z</time>
      </trkpt>
      <trkpt lat="48.8984" lon="2.35822">
        <ele>51</ele>
        <time>2013-09-12T18:00:15Z</time>
      </trkpt>
      <trkpt lat="48.8984" lon="2.35816">
        <ele>52</ele>
        <time>2013-09-12T18:00:17Z</time>
      </trkpt>
      <trkpt lat="48.89841" lon="2.35808">
        <ele>48</ele>
        <time>2013-09-12T18:00:19Z</time>
      </trkpt>
      <trkpt lat="48.89841" lon="2.358">
        <ele>45</ele>
        <time>2013-09-12T18:00:21Z</time>
      </trkpt>
      <trkpt lat="48.89838" lon="2.35792">
        <ele>50</ele>
        <time>2013-09-12T18:00:23Z</time>
      </trkpt>
      <trkpt lat="48.89836" lon="2.35787">
        <ele>44</ele>
        <time>2013-09-12T18:00:25Z</time>
      </trkpt>
      <trkpt lat="48.89833" lon="2.35779">
        <ele>52</ele>
        <time>2013-09-12T18:00:28Z</time>
      </trkpt>
      <trkpt lat="48.89833" lon="2.35773">
        <ele>50</ele>
        <time>2013-09-12T18:00:30Z</time>
      </trkpt>
      <trkpt lat="48.89832" lon="2.35764">
        <ele>48</ele>
        <time>2013-09-12T18:00:32Z</time>
      </trkpt>
      <trkpt lat="48.89831" lon="2.35744">
        <ele>46</ele>
        <time>2013-09-12T18:00:36Z</time>
      </trkpt>
      <trkpt lat="48.89832" lon="2.35734">
        <ele>41</ele>
        <time>2013-09-12T18:00:38Z</time>
      </trkpt>
      <trkpt lat="48.89833" lon="2.35727">
        <ele>39</ele>
        <time>2013-09-12T18:00:39Z</time>
      </trkpt>
      <trkpt lat="48.89835" lon="2.35717">
        <ele>41</ele>
        <time>2013-09-12T18:00:41Z</time>
      </trkpt>
      <trkpt lat="48.89833" lon="2.35705">
        <ele>43</ele>
        <time>2013-09-12T18:00:43Z</time>
      </trkpt>
      <trkpt lat="48.89832" lon="2.35698">
        <ele>43</ele>
        <time>2013-09-12T18:00:44Z</time>
      </trkpt>
      <trkpt lat="48.89832" lon="2.3568">
        <ele>40</ele>
        <time>2013-09-12T18:00:47Z</time>
      </trkpt>
      <trkpt lat="48.89832" lon="2.35672">
        <ele>41</ele>
        <time>2013-09-12T18:00:48Z</time>
      </trkpt>
      <trkpt lat="48.89832" lon="2.35652">
        <ele>44</ele>
        <time>2013-09-12T18:00:51Z</time>
      </trkpt>
      <trkpt lat="48.8983" lon="2.3563">
        <ele>43</ele>
        <time>2013-09-12T18:00:54Z</time>
      </trkpt>
      <trkpt lat="48.89829" lon="2.356">
        <ele>44</ele>
        <time>2013-09-12T18:00:58Z</time>
      </trkpt>
      <trkpt lat="48.89829" lon="2.35592">
        <ele>44</ele>
        <time>2013-09-12T18:00:59Z</time>
      </trkpt>
      <trkpt lat="48.89829" lon="2.35569">
        <ele>42</ele>
        <time>2013-09-12T18:01:02Z</time>
      </trkpt>
      <trkpt lat="48.89829" lon="2.35537">
        <ele>39</ele>
        <time>2013-09-12T18:01:06Z</time>
      </trkpt>
      <trkpt lat="48.8983" lon="2.35524">
        <ele>38</ele>
        <time>2013-09-12T18:01:08Z</time>
      </trkpt>
      <trkpt lat="48.89832" lon="2.35428">
        <ele>44</ele>
        <time>2013-09-12T18:01:23Z</time>
      </trkpt>
      <trkpt lat="48.89843" lon="2.35387">
        <ele>50</ele>
        <time>2013-09-12T18:01:36Z</time>
      </trkpt>
      <trkpt lat="48.89849" lon="2.35378">
        <ele>62</ele>
        <time>2013-09-12T18:01:39Z</time>
      </trkpt>
      <trkpt lat="48.89852" lon="2.35359">
        <ele>61</ele>
        <time>2013-09-12T18:01:43Z</time>
      </trkpt>
      <trkpt lat="48.89852" lon="2.3535">
        <ele>64</ele>
        <time>2013-09-12T18:01:45Z</time>
      </trkpt>
      <trkpt lat="48.89853" lon="2.3534">
        <ele>68</ele>
        <time>2013-09-12T18:01:48Z</time>
      </trkpt>
      <trkpt lat="48.89853" lon="2.35333">
        <ele>67</ele>
        <time>2013-09-12T18:01:50Z</time>
      </trkpt>
      <trkpt lat="48.89852" lon="2.35313">
        <ele>64</ele>
        <time>2013-09-12T18:01:54Z</time>
      </trkpt>
      <trkpt lat="48.8985" lon="2.35305">
        <ele>63</ele>
        <time>2013-09-12T18:01:56Z</time>
      </trkpt>
      <trkpt lat="48.89848" lon="2.35294">
        <ele>64</ele>
        <time>2013-09-12T18:01:59Z</time>
      </trkpt>
      <trkpt lat="48.89845" lon="2.35287">
        <ele>63</ele>
        <time>2013-09-12T18:02:06Z</time>
      </trkpt>
      <trkpt lat="48.89844" lon="2.35283">
        <ele>58</ele>
        <time>2013-09-12T18:02:08Z</time>
      </trkpt>
      <trkpt lat="48.89847" lon="2.35274">
        <ele>77</ele>
        <time>2013-09-12T18:02:13Z</time>
      </trkpt>
      <trkpt lat="48.89854" lon="2.35269">
        <ele>98</ele>
        <time>2013-09-12T18:02:28Z</time>
      </trkpt>
      <trkpt lat="48.89858" lon="2.35264">
        <ele>107</ele>
        <time>2013-09-12T18:02:31Z</time>
      </trkpt>
      <trkpt lat="48.89851" lon="2.35264">
        <ele>100</ele>
        <time>2013-09-12T18:02:34Z</time>
      </trkpt>
      <trkpt lat="48.89843" lon="2.35266">
        <ele>95</ele>
        <time>2013-09-12T18:02:37Z</time>
      </trkpt>
      <trkpt lat="48.89835" lon="2.35264">
        <ele>94</ele>
        <time>2013-09-12T18:02:39Z</time>
      </trkpt>
      <trkpt lat="48.89829" lon="2.3526">
        <ele>82</ele>
        <time>2013-09-12T18:02:41Z</time>
      </trkpt>
      <trkpt lat="48.89823" lon="2.35256">
        <ele>74</ele>
        <time>2013-09-12T18:02:43Z</time>
      </trkpt>
      <trkpt lat="48.89809" lon="2.35245">
        <ele>68</ele>
        <time>2013-09-12T18:02:52Z</time>
      </trkpt>
      <trkpt lat="48.89806" lon="2.35237">
        <ele>60</ele>
        <time>2013-09-12T18:02:56Z</time>
      </trkpt>
      <trkpt lat="48.89812" lon="2.35231">
        <ele>61</ele>
        <time>2013-09-12T18:02:58Z</time>
      </trkpt>
      <trkpt lat="48.89817" lon="2.35221">
        <ele>60</ele>
        <time>2013-09-12T18:03:01Z</time>
      </trkpt>
      <trkpt lat="48.89817" lon="2.35213">
        <ele>62</ele>
        <time>2013-09-12T18:03:03Z</time>
      </trkpt>
      <trkpt lat="48.89816" lon="2.35202">
        <ele>65</ele>
        <time>2013-09-12T18:03:06Z</time>
      </trkpt>
      <trkpt lat="48.89814" lon="2.35193">
        <ele>66</ele>
        <time>2013-09-12T18:03:09Z</time>
      </trkpt>
      <trkpt lat="48.89811" lon="2.35185">
        <ele>63</ele>
        <time>2013-09-12T18:03:11Z</time>
      </trkpt>
      <trkpt lat="48.8981" lon="2.35176">
        <ele>63</ele>
        <time>2013-09-12T18:03:13Z</time>
      </trkpt>
      <trkpt lat="48.89808" lon="2.3516">
        <ele>61</ele>
        <time>2013-09-12T18:03:16Z</time>
      </trkpt>
      <trkpt lat="48.89804" lon="2.35129">
        <ele>52</ele>
        <time>2013-09-12T18:03:22Z</time>
      </trkpt>
      <trkpt lat="48.89803" lon="2.3512">
        <ele>52</ele>
        <time>2013-09-12T18:03:24Z</time>
      </trkpt>
      <trkpt lat="48.89798" lon="2.35091">
        <ele>41</ele>
        <time>2013-09-12T18:03:30Z</time>
      </trkpt>
      <trkpt lat="48.89793" lon="2.35068">
        <ele>41</ele>
        <time>2013-09-12T18:03:38Z</time>
      </trkpt>
      <trkpt lat="48.89792" lon="2.35058">
        <ele>42</ele>
        <time>2013-09-12T18:03:41Z</time>
      </trkpt>
      <trkpt lat="48.8979" lon="2.35048">
        <ele>39</ele>
        <time>2013-09-12T18:03:43Z</time>
      </trkpt>
      <trkpt lat="48.89788" lon="2.3504">
        <ele>40</ele>
        <time>2013-09-12T18:03:45Z</time>
      </trkpt>
      <trkpt lat="48.89788" lon="2.3503">
        <ele>45</ele>
        <time>2013-09-12T18:03:47Z</time>
      </trkpt>
      <trkpt lat="48.89786" lon="2.35019">
        <ele>43</ele>
        <time>2013-09-12T18:03:49Z</time>
      </trkpt>
      <trkpt lat="48.89786" lon="2.35008">
        <ele>44</ele>
        <time>2013-09-12T18:03:51Z</time>
      </trkpt>
      <trkpt lat="48.89786" lon="2.34981">
        <ele>41</ele>
        <time>2013-09-12T18:03:57Z</time>
      </trkpt>
      <trkpt lat="48.89785" lon="2.34949">
        <ele>43</ele>
        <time>2013-09-12T18:04:04Z</time>
      </trkpt>
      <trkpt lat="48.89786" lon="2.34941">
        <ele>44</ele>
        <time>2013-09-12T18:04:06Z</time>
      </trkpt>
      <trkpt lat="48.89787" lon="2.34926">
        <ele>44</ele>
        <time>2013-09-12T18:04:09Z</time>
      </trkpt>
      <trkpt lat="48.89787" lon="2.34908">
        <ele>43</ele>
        <time>2013-09-12T18:04:13Z</time>
      </trkpt>
      <trkpt lat="48.89786" lon="2.34901">
        <ele>37</ele>
        <time>2013-09-12T18:04:15Z</time>
      </trkpt>
      <trkpt lat="48.89786" lon="2.34885">
        <ele>40</ele>
        <time>2013-09-12T18:04:19Z</time>
      </trkpt>
      <trkpt lat="48.89786" lon="2.34877">
        <ele>42</ele>
        <time>2013-09-12T18:04:21Z</time>
      </trkpt>
      <trkpt lat="48.89785" lon="2.34869">
        <ele>44</ele>
        <time>2013-09-12T18:04:24Z</time>
      </trkpt>
      <trkpt lat="48.89784" lon="2.3486">
        <ele>44</ele>
        <time>2013-09-12T18:04:28Z</time>
      </trkpt>
      <trkpt lat="48.89783" lon="2.34852">
        <ele>41</ele>
        <time>2013-09-12T18:04:32Z</time>
      </trkpt>
      <trkpt lat="48.89782" lon="2.34843">
        <ele>47</ele>
        <time>2013-09-12T18:04:35Z</time>
      </trkpt>
      <trkpt lat="48.89781" lon="2.34832">
        <ele>44</ele>
        <time>2013-09-12T18:04:39Z</time>
      </trkpt>
      <trkpt lat="48.89781" lon="2.348">
        <ele>50</ele>
        <time>2013-09-12T18:04:47Z</time>
      </trkpt>
      <trkpt lat="48.89781" lon="2.34793">
        <ele>49</ele>
        <time>2013-09-12T18:04:49Z</time>
      </trkpt>
      <trkpt lat="48.8978" lon="2.34785">
        <ele>55</ele>
        <time>2013-09-12T18:04:53Z</time>
      </trkpt>
      <trkpt lat="48.89778" lon="2.34776">
        <ele>56</ele>
        <time>2013-09-12T18:04:57Z</time>
      </trkpt>
      <trkpt lat="48.89778" lon="2.34767">
        <ele>53</ele>
        <time>2013-09-12T18:04:59Z</time>
      </trkpt>
      <trkpt lat="48.8978" lon="2.34756">
        <ele>50</ele>
        <time>2013-09-12T18:05:02Z</time>
      </trkpt>
      <trkpt lat="48.8978" lon="2.34747">
        <ele>50</ele>
        <time>2013-09-12T18:05:05Z</time>
      </trkpt>
      <trkpt lat="48.89779" lon="2.34737">
        <ele>46</ele>
        <time>2013-09-12T18:05:09Z</time>
      </trkpt>
      <trkpt lat="48.89776" lon="2.34727">
        <ele>49</ele>
        <time>2013-09-12T18:05:14Z</time>
      </trkpt>
      <trkpt lat="48.8977" lon="2.34724">
        <ele>52</ele>
        <time>2013-09-12T18:05:19Z</time>
      </trkpt>
      <trkpt lat="48.89765" lon="2.34723">
        <ele>55</ele>
        <time>2013-09-12T18:05:22Z</time>
      </trkpt>
      <trkpt lat="48.8976" lon="2.34719">
        <ele>55</ele>
        <time>2013-09-12T18:05:24Z</time>
      </trkpt>
      <trkpt lat="48.89755" lon="2.34716">
        <ele>57</ele>
        <time>2013-09-12T18:05:26Z</time>
      </trkpt>
      <trkpt lat="48.89747" lon="2.34714">
        <ele>57</ele>
        <time>2013-09-12T18:05:29Z</time>
      </trkpt>
      <trkpt lat="48.89736" lon="2.34708">
        <ele>60</ele>
        <time>2013-09-12T18:05:34Z</time>
      </trkpt>
      <trkpt lat="48.89732" lon="2.34703">
        <ele>65</ele>
        <time>2013-09-12T18:05:37Z</time>
      </trkpt>
      <trkpt lat="48.89726" lon="2.34692">
        <ele>72</ele>
        <time>2013-09-12T18:05:43Z</time>
      </trkpt>
      <trkpt lat="48.89719" lon="2.34685">
        <ele>73</ele>
        <time>2013-09-12T18:05:46Z</time>
      </trkpt>
      <trkpt lat="48.89714" lon="2.3468">
        <ele>73</ele>
        <time>2013-09-12T18:05:48Z</time>
      </trkpt>
      <trkpt lat="48.89696" lon="2.34666">
        <ele>82</ele>
        <time>2013-09-12T18:05:55Z</time>
      </trkpt>
      <trkpt lat="48.8969" lon="2.34662">
        <ele>84</ele>
        <time>2013-09-12T18:05:57Z</time>
      </trkpt>
      <trkpt lat="48.89684" lon="2.34656">
        <ele>79</ele>
        <time>2013-09-12T18:05:59Z</time>
      </trkpt>
      <trkpt lat="48.8968" lon="2.3465">
        <ele>74</ele>
        <time>2013-09-12T18:06:01Z</time>
      </trkpt>
      <trkpt lat="48.89673" lon="2.34644">
        <ele>72</ele>
        <time>2013-09-12T18:06:06Z</time>
      </trkpt>
      <trkpt lat="48.89666" lon="2.34643">
        <ele>73</ele>
        <time>2013-09-12T18:06:10Z</time>
      </trkpt>
      <trkpt lat="48.89661" lon="2.34644">
        <ele>65</ele>
        <time>2013-09-12T18:06:13Z</time>
      </trkpt>
      <trkpt lat="48.89653" lon="2.34644">
        <ele>63</ele>
        <time>2013-09-12T18:06:18Z</time>
      </trkpt>
      <trkpt lat="48.89647" lon="2.34645">
        <ele>68</ele>
        <time>2013-09-12T18:06:21Z</time>
      </trkpt>
      <trkpt lat="48.8964" lon="2.34642">
        <ele>72</ele>
        <time>2013-09-12T18:06:24Z</time>
      </trkpt>
      <trkpt lat="48.89632" lon="2.34641">
        <ele>66</ele>
        <time>2013-09-12T18:06:27Z</time>
      </trkpt>
      <trkpt lat="48.89618" lon="2.34635">
        <ele>64</ele>
        <time>2013-09-12T18:06:35Z</time>
      </trkpt>
      <trkpt lat="48.89613" lon="2.3463">
        <ele>59</ele>
        <time>2013-09-12T18:06:39Z</time>
      </trkpt>
      <trkpt lat="48.89607" lon="2.34629">
        <ele>58</ele>
        <time>2013-09-12T18:06:45Z</time>
      </trkpt>
      <trkpt lat="48.89602" lon="2.34631">
        <ele>58</ele>
        <time>2013-09-12T18:06:47Z</time>
      </trkpt>
      <trkpt lat="48.89597" lon="2.34637">
        <ele>51</ele>
        <time>2013-09-12T18:06:51Z</time>
      </trkpt>
      <trkpt lat="48.89588" lon="2.34647">
        <ele>46</ele>
        <time>2013-09-12T18:06:58Z</time>
      </trkpt>
      <trkpt lat="48.89583" lon="2.34651">
        <ele>54</ele>
        <time>2013-09-12T18:07:02Z</time>
      </trkpt>
      <trkpt lat="48.89582" lon="2.34651">
        <ele>56</ele>
        <time>2013-09-12T18:07:11Z</time>
      </trkpt>
      <trkpt lat="48.89587" lon="2.34639">
        <ele>53</ele>
        <time>2013-09-12T18:07:42Z</time>
      </trkpt>
      <trkpt lat="48.89591" lon="2.34634">
        <ele>58</ele>
        <time>2013-09-12T18:07:46Z</time>
      </trkpt>
      <trkpt lat="48.89597" lon="2.34634">
        <ele>57</ele>
        <time>2013-09-12T18:07:49Z</time>
      </trkpt>
      <trkpt lat="48.89602" lon="2.34631">
        <ele>52</ele>
        <time>2013-09-12T18:07:53Z</time>
      </trkpt>
      <trkpt lat="48.89604" lon="2.34623">
        <ele>63</ele>
        <time>2013-09-12T18:07:58Z</time>
      </trkpt>
      <trkpt lat="48.89603" lon="2.34622">
        <ele>61</ele>
        <time>2013-09-12T18:08:05Z</time>
      </trkpt>
      <trkpt lat="48.89603" lon="2.34614">
        <ele>60</ele>
        <time>2013-09-12T18:08:08Z</time>
      </trkpt>
      <trkpt lat="48.896" lon="2.34597">
        <ele>57</ele>
        <time>2013-09-12T18:08:21Z</time>
      </trkpt>
      <trkpt lat="48.89596" lon="2.34587">
        <ele>59</ele>
        <time>2013-09-12T18:08:25Z</time>
      </trkpt>
      <trkpt lat="48.89595" lon="2.34576">
        <ele>61</ele>
        <time>2013-09-12T18:08:27Z</time>
      </trkpt>
      <trkpt lat="48.89595" lon="2.34565">
        <ele>62</ele>
        <time>2013-09-12T18:08:29Z</time>
      </trkpt>
      <trkpt lat="48.89596" lon="2.34536">
        <ele>61</ele>
        <time>2013-09-12T18:08:34Z</time>
      </trkpt>
      <trkpt lat="48.89595" lon="2.34526">
        <ele>58</ele>
        <time>2013-09-12T18:08:36Z</time>
      </trkpt>
      <trkpt lat="48.89594" lon="2.34517">
        <ele>55</ele>
        <time>2013-09-12T18:08:38Z</time>
      </trkpt>
      <trkpt lat="48.89594" lon="2.34507">
        <ele>53</ele>
        <time>2013-09-12T18:08:40Z</time>
      </trkpt>
      <trkpt lat="48.89594" lon="2.34444">
        <ele>59</ele>
        <time>2013-09-12T18:08:52Z</time>
      </trkpt>
      <trkpt lat="48.89594" lon="2.34432">
        <ele>61</ele>
        <time>2013-09-12T18:08:54Z</time>
      </trkpt>
      <trkpt lat="48.89596" lon="2.34421">
        <ele>62</ele>
        <time>2013-09-12T18:08:56Z</time>
      </trkpt>
      <trkpt lat="48.89595" lon="2.3441">
        <ele>59</ele>
        <time>2013-09-12T18:08:58Z</time>
      </trkpt>
      <trkpt lat="48.89595" lon="2.34401">
        <ele>59</ele>
        <time>2013-09-12T18:09:00Z</time>
      </trkpt>
      <trkpt lat="48.89592" lon="2.34377">
        <ele>61</ele>
        <time>2013-09-12T18:09:05Z</time>
      </trkpt>
      <trkpt lat="48.8959" lon="2.34363">
        <ele>56</ele>
        <time>2013-09-12T18:09:08Z</time>
      </trkpt>
      <trkpt lat="48.8959" lon="2.34354">
        <ele>60</ele>
        <time>2013-09-12T18:09:10Z</time>
      </trkpt>
      <trkpt lat="48.89592" lon="2.34346">
        <ele>62</ele>
        <time>2013-09-12T18:09:12Z</time>
      </trkpt>
      <trkpt lat="48.89593" lon="2.3432">
        <ele>64</ele>
        <time>2013-09-12T18:09:18Z</time>
      </trkpt>
      <trkpt lat="48.89594" lon="2.3431">
        <ele>65</ele>
        <time>2013-09-12T18:09:20Z</time>
      </trkpt>
      <trkpt lat="48.89592" lon="2.343">
        <ele>63</ele>
        <time>2013-09-12T18:09:22Z</time>
      </trkpt>
      <trkpt lat="48.89592" lon="2.34289">
        <ele>64</ele>
        <time>2013-09-12T18:09:24Z</time>
      </trkpt>
      <trkpt lat="48.8959" lon="2.34277">
        <ele>63</ele>
        <time>2013-09-12T18:09:26Z</time>
      </trkpt>
      <trkpt lat="48.89583" lon="2.34216">
        <ele>69</ele>
        <time>2013-09-12T18:09:38Z</time>
      </trkpt>
      <trkpt lat="48.89582" lon="2.34205">
        <ele>69</ele>
        <time>2013-09-12T18:09:40Z</time>
      </trkpt>
      <trkpt lat="48.89583" lon="2.34194">
        <ele>67</ele>
        <time>2013-09-12T18:09:42Z</time>
      </trkpt>
      <trkpt lat="48.89583" lon="2.34183">
        <ele>68</ele>
        <time>2013-09-12T18:09:44Z</time>
      </trkpt>
      <trkpt lat="48.8958" lon="2.34158">
        <ele>49</ele>
        <time>2013-09-12T18:09:48Z</time>
      </trkpt>
      <trkpt lat="48.8958" lon="2.34146">
        <ele>56</ele>
        <time>2013-09-12T18:09:51Z</time>
      </trkpt>
      <trkpt lat="48.89581" lon="2.34138">
        <ele>53</ele>
        <time>2013-09-12T18:09:54Z</time>
      </trkpt>
      <trkpt lat="48.89581" lon="2.34129">
        <ele>55</ele>
        <time>2013-09-12T18:09:57Z</time>
      </trkpt>
      <trkpt lat="48.89581" lon="2.34121">
        <ele>51</ele>
        <time>2013-09-12T18:10:01Z</time>
      </trkpt>
      <trkpt lat="48.89581" lon="2.34112">
        <ele>49</ele>
        <time>2013-09-12T18:10:04Z</time>
      </trkpt>
      <trkpt lat="48.89581" lon="2.34104">
        <ele>59</ele>
        <time>2013-09-12T18:10:07Z</time>
      </trkpt>
      <trkpt lat="48.89579" lon="2.34077">
        <ele>57</ele>
        <time>2013-09-12T18:10:16Z</time>
      </trkpt>
      <trkpt lat="48.89579" lon="2.34065">
        <ele>60</ele>
        <time>2013-09-12T18:10:19Z</time>
      </trkpt>
      <trkpt lat="48.8958" lon="2.34055">
        <ele>62</ele>
        <time>2013-09-12T18:10:22Z</time>
      </trkpt>
      <trkpt lat="48.89583" lon="2.34024">
        <ele>56</ele>
        <time>2013-09-12T18:10:31Z</time>
      </trkpt>
      <trkpt lat="48.89582" lon="2.34012">
        <ele>49</ele>
        <time>2013-09-12T18:10:34Z</time>
      </trkpt>
      <trkpt lat="48.89583" lon="2.33969">
        <ele>61</ele>
        <time>2013-09-12T18:10:45Z</time>
      </trkpt>
      <trkpt lat="48.89584" lon="2.33958">
        <ele>56</ele>
        <time>2013-09-12T18:10:48Z</time>
      </trkpt>
      <trkpt lat="48.89585" lon="2.33946">
        <ele>59</ele>
        <time>2013-09-12T18:10:52Z</time>
      </trkpt>
      <trkpt lat="48.89584" lon="2.33933">
        <ele>67</ele>
        <time>2013-09-12T18:10:57Z</time>
      </trkpt>
      <trkpt lat="48.89582" lon="2.33924">
        <ele>63</ele>
        <time>2013-09-12T18:11:01Z</time>
      </trkpt>
      <trkpt lat="48.89579" lon="2.33908">
        <ele>66</ele>
        <time>2013-09-12T18:11:07Z</time>
      </trkpt>
      <trkpt lat="48.89575" lon="2.33899">
        <ele>68</ele>
        <time>2013-09-12T18:11:10Z</time>
      </trkpt>
      <trkpt lat="48.89568" lon="2.33885">
        <ele>79</ele>
        <time>2013-09-12T18:11:16Z</time>
      </trkpt>
      <trkpt lat="48.89554" lon="2.33863">
        <ele>62</ele>
        <time>2013-09-12T18:11:28Z</time>
      </trkpt>
      <trkpt lat="48.89548" lon="2.33858">
        <ele>58</ele>
        <time>2013-09-12T18:11:31Z</time>
      </trkpt>
      <trkpt lat="48.89545" lon="2.3385">
        <ele>58</ele>
        <time>2013-09-12T18:11:34Z</time>
      </trkpt>
      <trkpt lat="48.89541" lon="2.3384">
        <ele>61</ele>
        <time>2013-09-12T18:11:38Z</time>
      </trkpt>
      <trkpt lat="48.89537" lon="2.33835">
        <ele>58</ele>
        <time>2013-09-12T18:11:41Z</time>
      </trkpt>
      <trkpt lat="48.89533" lon="2.33827">
        <ele>60</ele>
        <time>2013-09-12T18:11:44Z</time>
      </trkpt>
      <trkpt lat="48.89532" lon="2.3382">
        <ele>61</ele>
        <time>2013-09-12T18:11:46Z</time>
      </trkpt>
      <trkpt lat="48.89531" lon="2.33812">
        <ele>59</ele>
        <time>2013-09-12T18:11:48Z</time>
      </trkpt>
      <trkpt lat="48.89527" lon="2.33803">
        <ele>61</ele>
        <time>2013-09-12T18:11:51Z</time>
      </trkpt>
      <trkpt lat="48.89524" lon="2.33793">
        <ele>62</ele>
        <time>2013-09-12T18:11:55Z</time>
      </trkpt>
      <trkpt lat="48.89525" lon="2.33784">
        <ele>63</ele>
        <time>2013-09-12T18:11:59Z</time>
      </trkpt>
      <trkpt lat="48.89522" lon="2.33772">
        <ele>62</ele>
        <time>2013-09-12T18:12:05Z</time>
      </trkpt>
      <trkpt lat="48.89519" lon="2.33763">
        <ele>67</ele>
        <time>2013-09-12T18:12:08Z</time>
      </trkpt>
      <trkpt lat="48.89518" lon="2.33755">
        <ele>62</ele>
        <time>2013-09-12T18:12:12Z</time>
      </trkpt>
      <trkpt lat="48.89513" lon="2.33748">
        <ele>66</ele>
        <time>2013-09-12T18:12:15Z</time>
      </trkpt>
      <trkpt lat="48.89511" lon="2.3374">
        <ele>63</ele>
        <time>2013-09-12T18:12:18Z</time>
      </trkpt>
      <trkpt lat="48.8951" lon="2.33732">
        <ele>68</ele>
        <time>2013-09-12T18:12:21Z</time>
      </trkpt>
      <trkpt lat="48.89512" lon="2.33722">
        <ele>63</ele>
        <time>2013-09-12T18:12:24Z</time>
      </trkpt>
      <trkpt lat="48.89514" lon="2.33707">
        <ele>64</ele>
        <time>2013-09-12T18:12:28Z</time>
      </trkpt>
      <trkpt lat="48.89514" lon="2.33696">
        <ele>67</ele>
        <time>2013-09-12T18:12:31Z</time>
      </trkpt>
      <trkpt lat="48.89513" lon="2.33685">
        <ele>60</ele>
        <time>2013-09-12T18:12:34Z</time>
      </trkpt>
      <trkpt lat="48.8951" lon="2.33671">
        <ele>66</ele>
        <time>2013-09-12T18:12:38Z</time>
      </trkpt>
      <trkpt lat="48.8951" lon="2.33663">
        <ele>65</ele>
        <time>2013-09-12T18:12:42Z</time>
      </trkpt>
      <trkpt lat="48.89508" lon="2.33654">
        <ele>69</ele>
        <time>2013-09-12T18:12:45Z</time>
      </trkpt>
      <trkpt lat="48.89505" lon="2.33647">
        <ele>63</ele>
        <time>2013-09-12T18:12:47Z</time>
      </trkpt>
      <trkpt lat="48.89498" lon="2.3362">
        <ele>73</ele>
        <time>2013-09-12T18:12:54Z</time>
      </trkpt>
      <trkpt lat="48.89496" lon="2.33609">
        <ele>73</ele>
        <time>2013-09-12T18:12:56Z</time>
      </trkpt>
      <trkpt lat="48.89495" lon="2.33599">
        <ele>78</ele>
        <time>2013-09-12T18:12:58Z</time>
      </trkpt>
      <trkpt lat="48.89494" lon="2.33588">
        <ele>81</ele>
        <time>2013-09-12T18:13:00Z</time>
      </trkpt>
      <trkpt lat="48.89492" lon="2.33575">
        <ele>79</ele>
        <time>2013-09-12T18:13:03Z</time>
      </trkpt>
      <trkpt lat="48.89491" lon="2.33565">
        <ele>68</ele>
        <time>2013-09-12T18:13:06Z</time>
      </trkpt>
      <trkpt lat="48.89487" lon="2.33537">
        <ele>54</ele>
        <time>2013-09-12T18:13:13Z</time>
      </trkpt>
      <trkpt lat="48.89486" lon="2.33529">
        <ele>53</ele>
        <time>2013-09-12T18:13:15Z</time>
      </trkpt>
      <trkpt lat="48.89482" lon="2.33505">
        <ele>57</ele>
        <time>2013-09-12T18:13:23Z</time>
      </trkpt>
      <trkpt lat="48.89479" lon="2.33496">
        <ele>59</ele>
        <time>2013-09-12T18:13:26Z</time>
      </trkpt>
      <trkpt lat="48.89477" lon="2.33486">
        <ele>61</ele>
        <time>2013-09-12T18:13:29Z</time>
      </trkpt>
      <trkpt lat="48.89474" lon="2.33477">
        <ele>58</ele>
        <time>2013-09-12T18:13:32Z</time>
      </trkpt>
      <trkpt lat="48.89473" lon="2.33468">
        <ele>48</ele>
        <time>2013-09-12T18:13:35Z</time>
      </trkpt>
      <trkpt lat="48.89463" lon="2.33409">
        <ele>53</ele>
        <time>2013-09-12T18:13:55Z</time>
      </trkpt>
      <trkpt lat="48.89462" lon="2.33397">
        <ele>49</ele>
        <time>2013-09-12T18:13:59Z</time>
      </trkpt>
      <trkpt lat="48.89462" lon="2.33316">
        <ele>2</ele>
        <time>2013-09-12T18:14:31Z</time>
      </trkpt>
      <trkpt lat="48.89477" lon="2.3329">
        <ele>55.3</ele>
        <time>2013-09-12T18:14:33Z</time>
      </trkpt>
      <trkpt lat="48.89472" lon="2.33258">
        <ele>2</ele>
        <time>2013-09-12T18:14:36Z</time>
      </trkpt>
      <trkpt lat="48.89468" lon="2.33251">
        <ele>21</ele>
        <time>2013-09-12T18:14:38Z</time>
      </trkpt>
      <trkpt lat="48.89459" lon="2.33253">
        <ele>39</ele>
        <time>2013-09-12T18:14:44Z</time>
      </trkpt>
      <trkpt lat="48.89445" lon="2.33254">
        <ele>50</ele>
        <time>2013-09-12T18:14:54Z</time>
      </trkpt>
      <trkpt lat="48.8944" lon="2.33256">
        <ele>47</ele>
        <time>2013-09-12T18:14:57Z</time>
      </trkpt>
      <trkpt lat="48.89435" lon="2.33261">
        <ele>45</ele>
        <time>2013-09-12T18:15:01Z</time>
      </trkpt>
      <trkpt lat="48.89434" lon="2.33263">
        <ele>52</ele>
        <time>2013-09-12T18:15:14Z</time>
      </trkpt>
      <trkpt lat="48.89427" lon="2.33258">
        <ele>53</ele>
        <time>2013-09-12T18:15:22Z</time>
      </trkpt>
      <trkpt lat="48.89423" lon="2.33252">
        <ele>55</ele>
        <time>2013-09-12T18:15:24Z</time>
      </trkpt>
      <trkpt lat="48.89414" lon="2.33237">
        <ele>59</ele>
        <time>2013-09-12T18:15:29Z</time>
      </trkpt>
      <trkpt lat="48.8941" lon="2.33227">
        <ele>62</ele>
        <time>2013-09-12T18:15:31Z</time>
      </trkpt>
      <trkpt lat="48.89408" lon="2.33217">
        <ele>62</ele>
        <time>2013-09-12T18:15:33Z</time>
      </trkpt>
      <trkpt lat="48.89403" lon="2.33184">
        <ele>57</ele>
        <time>2013-09-12T18:15:40Z</time>
      </trkpt>
      <trkpt lat="48.89405" lon="2.33172">
        <ele>56</ele>
        <time>2013-09-12T18:15:42Z</time>
      </trkpt>
      <trkpt lat="48.89402" lon="2.33165">
        <ele>53</ele>
        <time>2013-09-12T18:15:43Z</time>
      </trkpt>
      <trkpt lat="48.894" lon="2.33156">
        <ele>53</ele>
        <time>2013-09-12T18:15:44Z</time>
      </trkpt>
      <trkpt lat="48.89394" lon="2.33135">
        <ele>55</ele>
        <time>2013-09-12T18:15:47Z</time>
      </trkpt>
      <trkpt lat="48.89377" lon="2.33077">
        <ele>46</ele>
        <time>2013-09-12T18:15:57Z</time>
      </trkpt>
      <trkpt lat="48.89372" lon="2.33066">
        <ele>44</ele>
        <time>2013-09-12T18:15:59Z</time>
      </trkpt>
      <trkpt lat="48.8937" lon="2.33054">
        <ele>50</ele>
        <time>2013-09-12T18:16:01Z</time>
      </trkpt>
      <trkpt lat="48.89364" lon="2.33026">
        <ele>50</ele>
        <time>2013-09-12T18:16:06Z</time>
      </trkpt>
      <trkpt lat="48.89357" lon="2.32998">
        <ele>59</ele>
        <time>2013-09-12T18:16:10Z</time>
      </trkpt>
      <trkpt lat="48.89354" lon="2.32976">
        <ele>59</ele>
        <time>2013-09-12T18:16:13Z</time>
      </trkpt>
      <trkpt lat="48.89354" lon="2.32968">
        <ele>63</ele>
        <time>2013-09-12T18:16:14Z</time>
      </trkpt>
      <trkpt lat="48.89353" lon="2.3296">
        <ele>62</ele>
        <time>2013-09-12T18:16:15Z</time>
      </trkpt>
      <trkpt lat="48.89348" lon="2.32927">
        <ele>61</ele>
        <time>2013-09-12T18:16:19Z</time>
      </trkpt>
      <trkpt lat="48.89346" lon="2.3292">
        <ele>63</ele>
        <time>2013-09-12T18:16:20Z</time>
      </trkpt>
      <trkpt lat="48.89343" lon="2.32905">
        <ele>58</ele>
        <time>2013-09-12T18:16:22Z</time>
      </trkpt>
      <trkpt lat="48.89339" lon="2.32878">
        <ele>65</ele>
        <time>2013-09-12T18:16:26Z</time>
      </trkpt>
      <trkpt lat="48.89338" lon="2.32869">
        <ele>69</ele>
        <time>2013-09-12T18:16:27Z</time>
      </trkpt>
      <trkpt lat="48.89327" lon="2.32777">
        <ele>32</ele>
        <time>2013-09-12T18:16:37Z</time>
      </trkpt>
      <trkpt lat="48.89324" lon="2.32767">
        <ele>30</ele>
        <time>2013-09-12T18:16:39Z</time>
      </trkpt>
      <trkpt lat="48.89323" lon="2.32754">
        <ele>30</ele>
        <time>2013-09-12T18:16:43Z</time>
      </trkpt>
      <trkpt lat="48.8932" lon="2.32761">
        <ele>47</ele>
        <time>2013-09-12T18:16:57Z</time>
      </trkpt>
      <trkpt lat="48.89315" lon="2.3277">
        <ele>75</ele>
        <time>2013-09-12T18:17:20Z</time>
      </trkpt>
      <trkpt lat="48.89312" lon="2.32764">
        <ele>86</ele>
        <time>2013-09-12T18:17:36Z</time>
      </trkpt>
      <trkpt lat="48.8931" lon="2.32751">
        <ele>83</ele>
        <time>2013-09-12T18:17:37Z</time>
      </trkpt>
      <trkpt lat="48.89305" lon="2.32721">
        <ele>49</ele>
        <time>2013-09-12T18:17:42Z</time>
      </trkpt>
      <trkpt lat="48.89302" lon="2.32714">
        <ele>50</ele>
        <time>2013-09-12T18:18:01Z</time>
      </trkpt>
      <trkpt lat="48.89298" lon="2.32709">
        <ele>45</ele>
        <time>2013-09-12T18:18:05Z</time>
      </trkpt>
      <trkpt lat="48.89295" lon="2.32702">
        <ele>44</ele>
        <time>2013-09-12T18:18:08Z</time>
      </trkpt>
      <trkpt lat="48.89293" lon="2.32692">
        <ele>44</ele>
        <time>2013-09-12T18:18:11Z</time>
      </trkpt>
      <trkpt lat="48.8929" lon="2.32683">
        <ele>47</ele>
        <time>2013-09-12T18:18:14Z</time>
      </trkpt>
      <trkpt lat="48.89289" lon="2.32674">
        <ele>42</ele>
        <time>2013-09-12T18:18:17Z</time>
      </trkpt>
      <trkpt lat="48.89284" lon="2.32667">
        <ele>42</ele>
        <time>2013-09-12T18:18:20Z</time>
      </trkpt>
      <trkpt lat="48.89282" lon="2.32659">
        <ele>44</ele>
        <time>2013-09-12T18:18:22Z</time>
      </trkpt>
      <trkpt lat="48.8928" lon="2.32642">
        <ele>45</ele>
        <time>2013-09-12T18:18:27Z</time>
      </trkpt>
      <trkpt lat="48.89277" lon="2.32625">
        <ele>45</ele>
        <time>2013-09-12T18:18:33Z</time>
      </trkpt>
      <trkpt lat="48.89274" lon="2.32619">
        <ele>43</ele>
        <time>2013-09-12T18:18:36Z</time>
      </trkpt>
      <trkpt lat="48.89269" lon="2.32603">
        <ele>45</ele>
        <time>2013-09-12T18:18:41Z</time>
      </trkpt>
      <trkpt lat="48.89266" lon="2.32595">
        <ele>45</ele>
        <time>2013-09-12T18:18:43Z</time>
      </trkpt>
      <trkpt lat="48.89262" lon="2.32581">
        <ele>43</ele>
        <time>2013-09-12T18:18:47Z</time>
      </trkpt>
      <trkpt lat="48.89261" lon="2.32572">
        <ele>43</ele>
        <time>2013-09-12T18:18:49Z</time>
      </trkpt>
      <trkpt lat="48.89262" lon="2.32564">
        <ele>44</ele>
        <time>2013-09-12T18:18:51Z</time>
      </trkpt>
      <trkpt lat="48.8926" lon="2.32556">
        <ele>40</ele>
        <time>2013-09-12T18:18:53Z</time>
      </trkpt>
      <trkpt lat="48.89259" lon="2.32548">
        <ele>38</ele>
        <time>2013-09-12T18:18:55Z</time>
      </trkpt>
      <trkpt lat="48.89255" lon="2.32518">
        <ele>30</ele>
        <time>2013-09-12T18:19:04Z</time>
      </trkpt>
      <trkpt lat="48.89256" lon="2.32507">
        <ele>33</ele>
        <time>2013-09-12T18:19:07Z</time>
      </trkpt>
      <trkpt lat="48.89253" lon="2.32493">
        <ele>35</ele>
        <time>2013-09-12T18:19:15Z</time>
      </trkpt>
      <trkpt lat="48.89248" lon="2.32487">
        <ele>35</ele>
        <time>2013-09-12T18:19:18Z</time>
      </trkpt>
      <trkpt lat="48.89246" lon="2.32479">
        <ele>34</ele>
        <time>2013-09-12T18:19:20Z</time>
      </trkpt>
      <trkpt lat="48.89241" lon="2.32471">
        <ele>32</ele>
        <time>2013-09-12T18:19:22Z</time>
      </trkpt>
      <trkpt lat="48.8924" lon="2.32461">
        <ele>34</ele>
        <time>2013-09-12T18:19:24Z</time>
      </trkpt>
      <trkpt lat="48.89239" lon="2.32453">
        <ele>34</ele>
        <time>2013-09-12T18:19:26Z</time>
      </trkpt>
      <trkpt lat="48.89235" lon="2.32447">
        <ele>41</ele>
        <time>2013-09-12T18:19:28Z</time>
      </trkpt>
      <trkpt lat="48.8923" lon="2.32439">
        <ele>41</ele>
        <time>2013-09-12T18:19:30Z</time>
      </trkpt>
      <trkpt lat="48.89227" lon="2.32432">
        <ele>41</ele>
        <time>2013-09-12T18:19:32Z</time>
      </trkpt>
      <trkpt lat="48.89224" lon="2.32423">
        <ele>42</ele>
        <time>2013-09-12T18:19:34Z</time>
      </trkpt>
      <trkpt lat="48.89221" lon="2.32416">
        <ele>41</ele>
        <time>2013-09-12T18:19:36Z</time>
      </trkpt>
      <trkpt lat="48.89217" lon="2.32411">
        <ele>43</ele>
        <time>2013-09-12T18:19:38Z</time>
      </trkpt>
      <trkpt lat="48.89216" lon="2.32402">
        <ele>43</ele>
        <time>2013-09-12T18:19:40Z</time>
      </trkpt>
      <trkpt lat="48.89214" lon="2.32393">
        <ele>39</ele>
        <time>2013-09-12T18:19:42Z</time>
      </trkpt>
      <trkpt lat="48.8921" lon="2.32378">
        <ele>40</ele>
        <time>2013-09-12T18:19:45Z</time>
      </trkpt>
      <trkpt lat="48.89204" lon="2.3235">
        <ele>44</ele>
        <time>2013-09-12T18:19:51Z</time>
      </trkpt>
      <trkpt lat="48.89199" lon="2.32321">
        <ele>41</ele>
        <time>2013-09-12T18:19:57Z</time>
      </trkpt>
      <trkpt lat="48.89199" lon="2.32313">
        <ele>45</ele>
        <time>2013-09-12T18:19:59Z</time>
      </trkpt>
      <trkpt lat="48.892" lon="2.32304">
        <ele>42</ele>
        <time>2013-09-12T18:20:01Z</time>
      </trkpt>
      <trkpt lat="48.892" lon="2.32295">
        <ele>40</ele>
        <time>2013-09-12T18:20:03Z</time>
      </trkpt>
      <trkpt lat="48.892" lon="2.32283">
        <ele>43</ele>
        <time>2013-09-12T18:20:06Z</time>
      </trkpt>
      <trkpt lat="48.89199" lon="2.32272">
        <ele>44</ele>
        <time>2013-09-12T18:20:09Z</time>
      </trkpt>
      <trkpt lat="48.89197" lon="2.32262">
        <ele>44</ele>
        <time>2013-09-12T18:20:12Z</time>
      </trkpt>
      <trkpt lat="48.89194" lon="2.32239">
        <ele>41</ele>
        <time>2013-09-12T18:20:18Z</time>
      </trkpt>
      <trkpt lat="48.89195" lon="2.32226">
        <ele>52</ele>
        <time>2013-09-12T18:20:22Z</time>
      </trkpt>
      <trkpt lat="48.89196" lon="2.32217">
        <ele>53</ele>
        <time>2013-09-12T18:20:25Z</time>
      </trkpt>
      <trkpt lat="48.89194" lon="2.32205">
        <ele>47</ele>
        <time>2013-09-12T18:20:30Z</time>
      </trkpt>
      <trkpt lat="48.89187" lon="2.32203">
        <ele>52</ele>
        <time>2013-09-12T18:20:33Z</time>
      </trkpt>
      <trkpt lat="48.89182" lon="2.32203">
        <ele>47</ele>
        <time>2013-09-12T18:20:37Z</time>
      </trkpt>
      <trkpt lat="48.89175" lon="2.32196">
        <ele>47</ele>
        <time>2013-09-12T18:20:42Z</time>
      </trkpt>
      <trkpt lat="48.89171" lon="2.3219">
        <ele>47</ele>
        <time>2013-09-12T18:20:45Z</time>
      </trkpt>
      <trkpt lat="48.89158" lon="2.32169">
        <ele>45</ele>
        <time>2013-09-12T18:20:52Z</time>
      </trkpt>
      <trkpt lat="48.89154" lon="2.32161">
        <ele>45</ele>
        <time>2013-09-12T18:20:54Z</time>
      </trkpt>
      <trkpt lat="48.8915" lon="2.32154">
        <ele>49</ele>
        <time>2013-09-12T18:20:57Z</time>
      </trkpt>
      <trkpt lat="48.89153" lon="2.32147">
        <ele>45</ele>
        <time>2013-09-12T18:20:59Z</time>
      </trkpt>
      <trkpt lat="48.89157" lon="2.32138">
        <ele>50</ele>
        <time>2013-09-12T18:21:01Z</time>
      </trkpt>
      <trkpt lat="48.89159" lon="2.32129">
        <ele>49</ele>
        <time>2013-09-12T18:21:04Z</time>
      </trkpt>
      <trkpt lat="48.8916" lon="2.3212">
        <ele>50</ele>
        <time>2013-09-12T18:21:10Z</time>
      </trkpt>
      <trkpt lat="48.89162" lon="2.3211">
        <ele>56</ele>
        <time>2013-09-12T18:21:14Z</time>
      </trkpt>
      <trkpt lat="48.89161" lon="2.32103">
        <ele>52</ele>
        <time>2013-09-12T18:21:16Z</time>
      </trkpt>
      <trkpt lat="48.89158" lon="2.32093">
        <ele>49</ele>
        <time>2013-09-12T18:21:18Z</time>
      </trkpt>
      <trkpt lat="48.89153" lon="2.32084">
        <ele>48</ele>
        <time>2013-09-12T18:21:21Z</time>
      </trkpt>
      <trkpt lat="48.89151" lon="2.32075">
        <ele>48</ele>
        <time>2013-09-12T18:21:23Z</time>
      </trkpt>
      <trkpt lat="48.89149" lon="2.32064">
        <ele>48</ele>
        <time>2013-09-12T18:21:25Z</time>
      </trkpt>
      <trkpt lat="48.89149" lon="2.32053">
        <ele>50</ele>
        <time>2013-09-12T18:21:29Z</time>
      </trkpt>
      <trkpt lat="48.89145" lon="2.32046">
        <ele>55</ele>
        <time>2013-09-12T18:21:33Z</time>
      </trkpt>
      <trkpt lat="48.8914" lon="2.32041">
        <ele>57</ele>
        <time>2013-09-12T18:21:37Z</time>
      </trkpt>
      <trkpt lat="48.89138" lon="2.32029">
        <ele>55</ele>
        <time>2013-09-12T18:21:42Z</time>
      </trkpt>
      <trkpt lat="48.89138" lon="2.32021">
        <ele>53</ele>
        <time>2013-09-12T18:21:44Z</time>
      </trkpt>
      <trkpt lat="48.89136" lon="2.32004">
        <ele>40</ele>
        <time>2013-09-12T18:21:47Z</time>
      </trkpt>
      <trkpt lat="48.89134" lon="2.31996">
        <ele>40</ele>
        <time>2013-09-12T18:21:48Z</time>
      </trkpt>
      <trkpt lat="48.89133" lon="2.31988">
        <ele>46</ele>
        <time>2013-09-12T18:21:49Z</time>
      </trkpt>
      <trkpt lat="48.89133" lon="2.31974">
        <ele>49</ele>
        <time>2013-09-12T18:21:51Z</time>
      </trkpt>
      <trkpt lat="48.8913" lon="2.31964">
        <ele>48</ele>
        <time>2013-09-12T18:21:53Z</time>
      </trkpt>
      <trkpt lat="48.89121" lon="2.31938">
        <ele>44</ele>
        <time>2013-09-12T18:21:58Z</time>
      </trkpt>
      <trkpt lat="48.8912" lon="2.3193">
        <ele>44</ele>
        <time>2013-09-12T18:22:00Z</time>
      </trkpt>
      <trkpt lat="48.89123" lon="2.31918">
        <ele>39</ele>
        <time>2013-09-12T18:22:02Z</time>
      </trkpt>
      <trkpt lat="48.89128" lon="2.31903">
        <ele>48</ele>
        <time>2013-09-12T18:22:14Z</time>
      </trkpt>
      <trkpt lat="48.89127" lon="2.31895">
        <ele>60</ele>
        <time>2013-09-12T18:22:36Z</time>
      </trkpt>
      <trkpt lat="48.89131" lon="2.31903">
        <ele>44</ele>
        <time>2013-09-12T18:22:59Z</time>
      </trkpt>
      <trkpt lat="48.89137" lon="2.31894">
        <ele>35</ele>
        <time>2013-09-12T18:23:06Z</time>
      </trkpt>
      <trkpt lat="48.89152" lon="2.31877">
        <ele>42</ele>
        <time>2013-09-12T18:23:17Z</time>
      </trkpt>
      <trkpt lat="48.89151" lon="2.31867">
        <ele>42</ele>
        <time>2013-09-12T18:23:21Z</time>
      </trkpt>
      <trkpt lat="48.89149" lon="2.3186">
        <ele>45</ele>
        <time>2013-09-12T18:23:23Z</time>
      </trkpt>
      <trkpt lat="48.89138" lon="2.31836">
        <ele>41</ele>
        <time>2013-09-12T18:23:32Z</time>
      </trkpt>
      <trkpt lat="48.89134" lon="2.31832">
        <ele>36</ele>
        <time>2013-09-12T18:23:35Z</time>
      </trkpt>
      <trkpt lat="48.89119" lon="2.31814">
        <ele>42</ele>
        <time>2013-09-12T18:23:43Z</time>
      </trkpt>
      <trkpt lat="48.89115" lon="2.31808">
        <ele>41</ele>
        <time>2013-09-12T18:23:45Z</time>
      </trkpt>
      <trkpt lat="48.89111" lon="2.31803">
        <ele>43</ele>
        <time>2013-09-12T18:23:47Z</time>
      </trkpt>
      <trkpt lat="48.89106" lon="2.31799">
        <ele>44</ele>
        <time>2013-09-12T18:23:49Z</time>
      </trkpt>
      <trkpt lat="48.89101" lon="2.31795">
        <ele>40</ele>
        <time>2013-09-12T18:23:51Z</time>
      </trkpt>
      <trkpt lat="48.89098" lon="2.31787">
        <ele>36</ele>
        <time>2013-09-12T18:23:54Z</time>
      </trkpt>
      <trkpt lat="48.89092" lon="2.31778">
        <ele>42</ele>
        <time>2013-09-12T18:23:57Z</time>
      </trkpt>
      <trkpt lat="48.89084" lon="2.3177">
        <ele>44</ele>
        <time>2013-09-12T18:24:00Z</time>
      </trkpt>
      <trkpt lat="48.8908" lon="2.31764">
        <ele>42</ele>
        <time>2013-09-12T18:24:02Z</time>
      </trkpt>
      <trkpt lat="48.89066" lon="2.31744">
        <ele>48</ele>
        <time>2013-09-12T18:24:07Z</time>
      </trkpt>
      <trkpt lat="48.89062" lon="2.31734">
        <ele>48</ele>
        <time>2013-09-12T18:24:09Z</time>
      </trkpt>
      <trkpt lat="48.89053" lon="2.31718">
        <ele>46</ele>
        <time>2013-09-12T18:24:13Z</time>
      </trkpt>
      <trkpt lat="48.89047" lon="2.31711">
        <ele>47</ele>
        <time>2013-09-12T18:24:15Z</time>
      </trkpt>
      <trkpt lat="48.89043" lon="2.31702">
        <ele>46</ele>
        <time>2013-09-12T18:24:17Z</time>
      </trkpt>
      <trkpt lat="48.89037" lon="2.31698">
        <ele>49</ele>
        <time>2013-09-12T18:24:19Z</time>
      </trkpt>
      <trkpt lat="48.89027" lon="2.31692">
        <ele>58</ele>
        <time>2013-09-12T18:24:22Z</time>
      </trkpt>
      <trkpt lat="48.89021" lon="2.31693">
        <ele>55</ele>
        <time>2013-09-12T18:24:24Z</time>
      </trkpt>
      <trkpt lat="48.89016" lon="2.31694">
        <ele>47</ele>
        <time>2013-09-12T18:24:29Z</time>
      </trkpt>
      <trkpt lat="48.8901" lon="2.31695">
        <ele>47</ele>
        <time>2013-09-12T18:24:33Z</time>
      </trkpt>
      <trkpt lat="48.89004" lon="2.31691">
        <ele>47</ele>
        <time>2013-09-12T18:24:36Z</time>
      </trkpt>
      <trkpt lat="48.88998" lon="2.31689">
        <ele>44</ele>
        <time>2013-09-12T18:24:39Z</time>
      </trkpt>
      <trkpt lat="48.88992" lon="2.31683">
        <ele>43</ele>
        <time>2013-09-12T18:24:43Z</time>
      </trkpt>
      <trkpt lat="48.88986" lon="2.3168">
        <ele>43</ele>
        <time>2013-09-12T18:24:48Z</time>
      </trkpt>
      <trkpt lat="48.88981" lon="2.31675">
        <ele>41</ele>
        <time>2013-09-12T18:24:51Z</time>
      </trkpt>
      <trkpt lat="48.88971" lon="2.31664">
        <ele>35</ele>
        <time>2013-09-12T18:24:55Z</time>
      </trkpt>
      <trkpt lat="48.88956" lon="2.31649">
        <ele>40</ele>
        <time>2013-09-12T18:25:08Z</time>
      </trkpt>
      <trkpt lat="48.8895" lon="2.31643">
        <ele>43</ele>
        <time>2013-09-12T18:25:12Z</time>
      </trkpt>
      <trkpt lat="48.88943" lon="2.31641">
        <ele>39</ele>
        <time>2013-09-12T18:25:15Z</time>
      </trkpt>
      <trkpt lat="48.88938" lon="2.31635">
        <ele>35</ele>
        <time>2013-09-12T18:25:18Z</time>
      </trkpt>
      <trkpt lat="48.88933" lon="2.31631">
        <ele>43</ele>
        <time>2013-09-12T18:25:21Z</time>
      </trkpt>
      <trkpt lat="48.88919" lon="2.31622">
        <ele>35</ele>
        <time>2013-09-12T18:25:27Z</time>
      </trkpt>
      <trkpt lat="48.88903" lon="2.31608">
        <ele>32</ele>
        <time>2013-09-12T18:25:36Z</time>
      </trkpt>
      <trkpt lat="48.88892" lon="2.31595">
        <ele>39</ele>
        <time>2013-09-12T18:25:45Z</time>
      </trkpt>
      <trkpt lat="48.88881" lon="2.31581">
        <ele>38</ele>
        <time>2013-09-12T18:25:53Z</time>
      </trkpt>
      <trkpt lat="48.88878" lon="2.31577">
        <ele>40</ele>
        <time>2013-09-12T18:25:55Z</time>
      </trkpt>
      <trkpt lat="48.88872" lon="2.31574">
        <ele>40</ele>
        <time>2013-09-12T18:25:58Z</time>
      </trkpt>
      <trkpt lat="48.88866" lon="2.31573">
        <ele>36</ele>
        <time>2013-09-12T18:26:02Z</time>
      </trkpt>
      <trkpt lat="48.8886" lon="2.3157">
        <ele>39</ele>
        <time>2013-09-12T18:26:12Z</time>
      </trkpt>
      <trkpt lat="48.88855" lon="2.31565">
        <ele>36</ele>
        <time>2013-09-12T18:26:17Z</time>
      </trkpt>
      <trkpt lat="48.88852" lon="2.3156">
        <ele>37</ele>
        <time>2013-09-12T18:26:23Z</time>
      </trkpt>
      <trkpt lat="48.88843" lon="2.3155">
        <ele>34</ele>
        <time>2013-09-12T18:26:31Z</time>
      </trkpt>
      <trkpt lat="48.8883" lon="2.31537">
        <ele>32</ele>
        <time>2013-09-12T18:26:38Z</time>
      </trkpt>
      <trkpt lat="48.88824" lon="2.31533">
        <ele>34</ele>
        <time>2013-09-12T18:26:41Z</time>
      </trkpt>
      <trkpt lat="48.88817" lon="2.31526">
        <ele>38</ele>
        <time>2013-09-12T18:26:45Z</time>
      </trkpt>
      <trkpt lat="48.88811" lon="2.31519">
        <ele>38</ele>
        <time>2013-09-12T18:26:48Z</time>
      </trkpt>
      <trkpt lat="48.88797" lon="2.31497">
        <ele>48</ele>
        <time>2013-09-12T18:26:56Z</time>
      </trkpt>
      <trkpt lat="48.88789" lon="2.31489">
        <ele>51</ele>
        <time>2013-09-12T18:27:01Z</time>
      </trkpt>
      <trkpt lat="48.88784" lon="2.31486">
        <ele>48</ele>
        <time>2013-09-12T18:27:04Z</time>
      </trkpt>
      <trkpt lat="48.88779" lon="2.31481">
        <ele>42</ele>
        <time>2013-09-12T18:27:09Z</time>
      </trkpt>
      <trkpt lat="48.88774" lon="2.3148">
        <ele>40</ele>
        <time>2013-09-12T18:27:14Z</time>
      </trkpt>
      <trkpt lat="48.88769" lon="2.31475">
        <ele>41</ele>
        <time>2013-09-12T18:27:20Z</time>
      </trkpt>
      <trkpt lat="48.88761" lon="2.31467">
        <ele>45</ele>
        <time>2013-09-12T18:27:26Z</time>
      </trkpt>
      <trkpt lat="48.8876" lon="2.31464">
        <ele>39</ele>
        <time>2013-09-12T18:27:29Z</time>
      </trkpt>
      <trkpt lat="48.88758" lon="2.31459">
        <ele>42</ele>
        <time>2013-09-12T18:27:33Z</time>
      </trkpt>
      <trkpt lat="48.88753" lon="2.31451">
        <ele>48</ele>
        <time>2013-09-12T18:27:40Z</time>
      </trkpt>
      <trkpt lat="48.88746" lon="2.3144">
        <ele>43</ele>
        <time>2013-09-12T18:27:49Z</time>
      </trkpt>
      <trkpt lat="48.8874" lon="2.31438">
        <ele>40</ele>
        <time>2013-09-12T18:27:57Z</time>
      </trkpt>
      <trkpt lat="48.88736" lon="2.31441">
        <ele>40</ele>
        <time>2013-09-12T18:28:01Z</time>
      </trkpt>
      <trkpt lat="48.88734" lon="2.31445">
        <ele>40</ele>
        <time>2013-09-12T18:28:03Z</time>
      </trkpt>
      <trkpt lat="48.88729" lon="2.31452">
        <ele>55</ele>
        <time>2013-09-12T18:28:07Z</time>
      </trkpt>
      <trkpt lat="48.88725" lon="2.3146">
        <ele>56</ele>
        <time>2013-09-12T18:28:10Z</time>
      </trkpt>
      <trkpt lat="48.88712" lon="2.31481">
        <ele>48</ele>
        <time>2013-09-12T18:28:18Z</time>
      </trkpt>
      <trkpt lat="48.88707" lon="2.31488">
        <ele>46</ele>
        <time>2013-09-12T18:28:21Z</time>
      </trkpt>
      <trkpt lat="48.88702" lon="2.31496">
        <ele>45</ele>
        <time>2013-09-12T18:28:24Z</time>
      </trkpt>
      <trkpt lat="48.8869" lon="2.31518">
        <ele>39</ele>
        <time>2013-09-12T18:28:32Z</time>
      </trkpt>
      <trkpt lat="48.88687" lon="2.31527">
        <ele>38</ele>
        <time>2013-09-12T18:28:34Z</time>
      </trkpt>
      <trkpt lat="48.88683" lon="2.31534">
        <ele>43</ele>
        <time>2013-09-12T18:28:36Z</time>
      </trkpt>
      <trkpt lat="48.88656" lon="2.31579">
        <ele>42</ele>
        <time>2013-09-12T18:28:47Z</time>
      </trkpt>
      <trkpt lat="48.88649" lon="2.31588">
        <ele>41</ele>
        <time>2013-09-12T18:28:49Z</time>
      </trkpt>
      <trkpt lat="48.88643" lon="2.31595">
        <ele>42</ele>
        <time>2013-09-12T18:28:51Z</time>
      </trkpt>
      <trkpt lat="48.88609" lon="2.31628">
        <ele>42</ele>
        <time>2013-09-12T18:29:03Z</time>
      </trkpt>
      <trkpt lat="48.88593" lon="2.31648">
        <ele>42</ele>
        <time>2013-09-12T18:29:10Z</time>
      </trkpt>
      <trkpt lat="48.88578" lon="2.31667">
        <ele>43</ele>
        <time>2013-09-12T18:29:19Z</time>
      </trkpt>
      <trkpt lat="48.88572" lon="2.31677">
        <ele>40</ele>
        <time>2013-09-12T18:29:29Z</time>
      </trkpt>
      <trkpt lat="48.88567" lon="2.31683">
        <ele>38</ele>
        <time>2013-09-12T18:29:34Z</time>
      </trkpt>
      <trkpt lat="48.88566" lon="2.31687">
        <ele>48</ele>
        <time>2013-09-12T18:29:43Z</time>
      </trkpt>
      <trkpt lat="48.88561" lon="2.31683">
        <ele>45</ele>
        <time>2013-09-12T18:29:54Z</time>
      </trkpt>
      <trkpt lat="48.88561" lon="2.31684">
        <ele>39</ele>
        <time>2013-09-12T18:30:08Z</time>
      </trkpt>
      <trkpt lat="48.8856" lon="2.31675">
        <ele>51</ele>
        <time>2013-09-12T18:30:19Z</time>
      </trkpt>
      <trkpt lat="48.88556" lon="2.31656">
        <ele>37</ele>
        <time>2013-09-12T18:30:28Z</time>
      </trkpt>
      <trkpt lat="48.88549" lon="2.31629">
        <ele>35</ele>
        <time>2013-09-12T18:30:37Z</time>
      </trkpt>
      <trkpt lat="48.88545" lon="2.31619">
        <ele>32</ele>
        <time>2013-09-12T18:30:40Z</time>
      </trkpt>
      <trkpt lat="48.8854" lon="2.31614">
        <ele>43</ele>
        <time>2013-09-12T18:30:45Z</time>
      </trkpt>
      <trkpt lat="48.88533" lon="2.31613">
        <ele>39</ele>
        <time>2013-09-12T18:30:48Z</time>
      </trkpt>
      <trkpt lat="48.88528" lon="2.3161">
        <ele>46</ele>
        <time>2013-09-12T18:30:51Z</time>
      </trkpt>
      <trkpt lat="48.88522" lon="2.31604">
        <ele>50</ele>
        <time>2013-09-12T18:30:55Z</time>
      </trkpt>
      <trkpt lat="48.88507" lon="2.31585">
        <ele>43</ele>
        <time>2013-09-12T18:31:04Z</time>
      </trkpt>
      <trkpt lat="48.88504" lon="2.31577">
        <ele>46</ele>
        <time>2013-09-12T18:31:07Z</time>
      </trkpt>
      <trkpt lat="48.885" lon="2.3157">
        <ele>48</ele>
        <time>2013-09-12T18:31:11Z</time>
      </trkpt>
      <trkpt lat="48.88496" lon="2.31561">
        <ele>47</ele>
        <time>2013-09-12T18:31:14Z</time>
      </trkpt>
      <trkpt lat="48.88493" lon="2.31553">
        <ele>46</ele>
        <time>2013-09-12T18:31:16Z</time>
      </trkpt>
      <trkpt lat="48.8849" lon="2.31546">
        <ele>43</ele>
        <time>2013-09-12T18:31:18Z</time>
      </trkpt>
      <trkpt lat="48.88484" lon="2.31539">
        <ele>45</ele>
        <time>2013-09-12T18:31:27Z</time>
      </trkpt>
      <trkpt lat="48.8848" lon="2.31531">
        <ele>48</ele>
        <time>2013-09-12T18:31:30Z</time>
      </trkpt>
      <trkpt lat="48.88478" lon="2.31523">
        <ele>51</ele>
        <time>2013-09-12T18:31:33Z</time>
      </trkpt>
      <trkpt lat="48.8847" lon="2.31503">
        <ele>53</ele>
        <time>2013-09-12T18:31:40Z</time>
      </trkpt>
      <trkpt lat="48.88464" lon="2.31499">
        <ele>50</ele>
        <time>2013-09-12T18:31:43Z</time>
      </trkpt>
      <trkpt lat="48.88459" lon="2.31494">
        <ele>49</ele>
        <time>2013-09-12T18:31:47Z</time>
      </trkpt>
      <trkpt lat="48.88456" lon="2.31486">
        <ele>44</ele>
        <time>2013-09-12T18:31:52Z</time>
      </trkpt>
      <trkpt lat="48.88453" lon="2.3148">
        <ele>43</ele>
        <time>2013-09-12T18:31:54Z</time>
      </trkpt>
      <trkpt lat="48.88447" lon="2.3147">
        <ele>45</ele>
        <time>2013-09-12T18:31:59Z</time>
      </trkpt>
      <trkpt lat="48.88443" lon="2.31462">
        <ele>37</ele>
        <time>2013-09-12T18:32:02Z</time>
      </trkpt>
      <trkpt lat="48.88439" lon="2.31456">
        <ele>43</ele>
        <time>2013-09-12T18:32:06Z</time>
      </trkpt>
      <trkpt lat="48.88426" lon="2.31434">
        <ele>41</ele>
        <time>2013-09-12T18:32:17Z</time>
      </trkpt>
      <trkpt lat="48.88412" lon="2.31416">
        <ele>42</ele>
        <time>2013-09-12T18:32:28Z</time>
      </trkpt>
      <trkpt lat="48.88402" lon="2.31399">
        <ele>38</ele>
        <time>2013-09-12T18:32:36Z</time>
      </trkpt>
      <trkpt lat="48.88389" lon="2.31376">
        <ele>34</ele>
        <time>2013-09-12T18:32:47Z</time>
      </trkpt>
      <trkpt lat="48.88384" lon="2.31375">
        <ele>37</ele>
        <time>2013-09-12T18:32:50Z</time>
      </trkpt>
      <trkpt lat="48.8838" lon="2.3137">
        <ele>42</ele>
        <time>2013-09-12T18:32:54Z</time>
      </trkpt>
      <trkpt lat="48.88373" lon="2.31372">
        <ele>42</ele>
        <time>2013-09-12T18:32:57Z</time>
      </trkpt>
      <trkpt lat="48.88369" lon="2.3137">
        <ele>42</ele>
        <time>2013-09-12T18:33:00Z</time>
      </trkpt>
      <trkpt lat="48.88363" lon="2.31366">
        <ele>42</ele>
        <time>2013-09-12T18:33:03Z</time>
      </trkpt>
      <trkpt lat="48.88359" lon="2.3136">
        <ele>42</ele>
        <time>2013-09-12T18:33:06Z</time>
      </trkpt>
      <trkpt lat="48.88352" lon="2.31345">
        <ele>50</ele>
        <time>2013-09-12T18:33:13Z</time>
      </trkpt>
      <trkpt lat="48.88351" lon="2.31337">
        <ele>48</ele>
        <time>2013-09-12T18:33:15Z</time>
      </trkpt>
      <trkpt lat="48.88347" lon="2.31322">
        <ele>47</ele>
        <time>2013-09-12T18:33:17Z</time>
      </trkpt>
      <trkpt lat="48.88341" lon="2.31313">
        <ele>50</ele>
        <time>2013-09-12T18:33:19Z</time>
      </trkpt>
      <trkpt lat="48.88334" lon="2.31308">
        <ele>47</ele>
        <time>2013-09-12T18:33:21Z</time>
      </trkpt>
      <trkpt lat="48.88329" lon="2.31302">
        <ele>45</ele>
        <time>2013-09-12T18:33:23Z</time>
      </trkpt>
      <trkpt lat="48.88325" lon="2.31295">
        <ele>40</ele>
        <time>2013-09-12T18:33:25Z</time>
      </trkpt>
      <trkpt lat="48.88327" lon="2.31283">
        <ele>52</ele>
        <time>2013-09-12T18:33:39Z</time>
      </trkpt>
      <trkpt lat="48.88321" lon="2.31286">
        <ele>42</ele>
        <time>2013-09-12T18:33:57Z</time>
      </trkpt>
      <trkpt lat="48.88318" lon="2.31279">
        <ele>39</ele>
        <time>2013-09-12T18:34:03Z</time>
      </trkpt>
      <trkpt lat="48.88313" lon="2.31271">
        <ele>42</ele>
        <time>2013-09-12T18:34:09Z</time>
      </trkpt>
      <trkpt lat="48.88301" lon="2.3126">
        <ele>37</ele>
        <time>2013-09-12T18:34:14Z</time>
      </trkpt>
      <trkpt lat="48.88286" lon="2.31254">
        <ele>44</ele>
        <time>2013-09-12T18:34:18Z</time>
      </trkpt>
      <trkpt lat="48.88281" lon="2.31247">
        <ele>40</ele>
        <time>2013-09-12T18:34:20Z</time>
      </trkpt>
      <trkpt lat="48.8825" lon="2.31207">
        <ele>45</ele>
        <time>2013-09-12T18:34:33Z</time>
      </trkpt>
      <trkpt lat="48.88245" lon="2.312">
        <ele>49</ele>
        <time>2013-09-12T18:34:35Z</time>
      </trkpt>
      <trkpt lat="48.88242" lon="2.31192">
        <ele>47</ele>
        <time>2013-09-12T18:34:38Z</time>
      </trkpt>
      <trkpt lat="48.88238" lon="2.31187">
        <ele>47</ele>
        <time>2013-09-12T18:34:47Z</time>
      </trkpt>
      <trkpt lat="48.88231" lon="2.31188">
        <ele>49</ele>
        <time>2013-09-12T18:34:54Z</time>
      </trkpt>
      <trkpt lat="48.88238" lon="2.31188">
        <ele>48</ele>
        <time>2013-09-12T18:35:25Z</time>
      </trkpt>
      <trkpt lat="48.88241" lon="2.31196">
        <ele>46</ele>
        <time>2013-09-12T18:35:50Z</time>
      </trkpt>
      <trkpt lat="48.88228" lon="2.31183">
        <ele>39</ele>
        <time>2013-09-12T18:36:37Z</time>
      </trkpt>
      <trkpt lat="48.88222" lon="2.31182">
        <ele>36</ele>
        <time>2013-09-12T18:36:41Z</time>
      </trkpt>
      <trkpt lat="48.88217" lon="2.3118">
        <ele>32</ele>
        <time>2013-09-12T18:36:43Z</time>
      </trkpt>
      <trkpt lat="48.88213" lon="2.31174">
        <ele>35</ele>
        <time>2013-09-12T18:36:45Z</time>
      </trkpt>
      <trkpt lat="48.88199" lon="2.31155">
        <ele>34</ele>
        <time>2013-09-12T18:36:51Z</time>
      </trkpt>
      <trkpt lat="48.88194" lon="2.31152">
        <ele>38</ele>
        <time>2013-09-12T18:36:53Z</time>
      </trkpt>
      <trkpt lat="48.88184" lon="2.31142">
        <ele>37</ele>
        <time>2013-09-12T18:36:57Z</time>
      </trkpt>
      <trkpt lat="48.8818" lon="2.31136">
        <ele>33</ele>
        <time>2013-09-12T18:36:59Z</time>
      </trkpt>
      <trkpt lat="48.88176" lon="2.31129">
        <ele>33</ele>
        <time>2013-09-12T18:37:02Z</time>
      </trkpt>
      <trkpt lat="48.88162" lon="2.31105">
        <ele>45</ele>
        <time>2013-09-12T18:37:10Z</time>
      </trkpt>
      <trkpt lat="48.88147" lon="2.31086">
        <ele>45</ele>
        <time>2013-09-12T18:37:16Z</time>
      </trkpt>
      <trkpt lat="48.88142" lon="2.31078">
        <ele>45</ele>
        <time>2013-09-12T18:37:18Z</time>
      </trkpt>
      <trkpt lat="48.88128" lon="2.31056">
        <ele>45</ele>
        <time>2013-09-12T18:37:24Z</time>
      </trkpt>
      <trkpt lat="48.8812" lon="2.31044">
        <ele>45</ele>
        <time>2013-09-12T18:37:27Z</time>
      </trkpt>
      <trkpt lat="48.88106" lon="2.31022">
        <ele>46</ele>
        <time>2013-09-12T18:37:32Z</time>
      </trkpt>
      <trkpt lat="48.88103" lon="2.31014">
        <ele>46</ele>
        <time>2013-09-12T18:37:34Z</time>
      </trkpt>
      <trkpt lat="48.88101" lon="2.31005">
        <ele>44</ele>
        <time>2013-09-12T18:37:36Z</time>
      </trkpt>
      <trkpt lat="48.88098" lon="2.30997">
        <ele>45</ele>
        <time>2013-09-12T18:37:38Z</time>
      </trkpt>
      <trkpt lat="48.88093" lon="2.30988">
        <ele>43</ele>
        <time>2013-09-12T18:37:40Z</time>
      </trkpt>
      <trkpt lat="48.8808" lon="2.30966">
        <ele>46</ele>
        <time>2013-09-12T18:37:45Z</time>
      </trkpt>
      <trkpt lat="48.88076" lon="2.30961">
        <ele>46</ele>
        <time>2013-09-12T18:37:47Z</time>
      </trkpt>
      <trkpt lat="48.88071" lon="2.30955">
        <ele>44</ele>
        <time>2013-09-12T18:37:50Z</time>
      </trkpt>
      <trkpt lat="48.88064" lon="2.30947">
        <ele>45</ele>
        <time>2013-09-12T18:37:58Z</time>
      </trkpt>
      <trkpt lat="48.88066" lon="2.3094">
        <ele>44</ele>
        <time>2013-09-12T18:38:03Z</time>
      </trkpt>
      <trkpt lat="48.8807" lon="2.30929">
        <ele>42</ele>
        <time>2013-09-12T18:38:09Z</time>
      </trkpt>
      <trkpt lat="48.8807" lon="2.3092">
        <ele>42</ele>
        <time>2013-09-12T18:38:12Z</time>
      </trkpt>
      <trkpt lat="48.88068" lon="2.30912">
        <ele>37</ele>
        <time>2013-09-12T18:38:14Z</time>
      </trkpt>
      <trkpt lat="48.88066" lon="2.30901">
        <ele>39</ele>
        <time>2013-09-12T18:38:17Z</time>
      </trkpt>
      <trkpt lat="48.8806" lon="2.30873">
        <ele>41</ele>
        <time>2013-09-12T18:38:23Z</time>
      </trkpt>
      <trkpt lat="48.88057" lon="2.30863">
        <ele>44</ele>
        <time>2013-09-12T18:38:25Z</time>
      </trkpt>
      <trkpt lat="48.88053" lon="2.30854">
        <ele>43</ele>
        <time>2013-09-12T18:38:27Z</time>
      </trkpt>
      <trkpt lat="48.88043" lon="2.3083">
        <ele>42</ele>
        <time>2013-09-12T18:38:34Z</time>
      </trkpt>
      <trkpt lat="48.88041" lon="2.30822">
        <ele>41</ele>
        <time>2013-09-12T18:38:37Z</time>
      </trkpt>
      <trkpt lat="48.88034" lon="2.30794">
        <ele>35</ele>
        <time>2013-09-12T18:38:45Z</time>
      </trkpt>
      <trkpt lat="48.88029" lon="2.30782">
        <ele>34</ele>
        <time>2013-09-12T18:38:48Z</time>
      </trkpt>
      <trkpt lat="48.88027" lon="2.30772">
        <ele>41</ele>
        <time>2013-09-12T18:38:50Z</time>
      </trkpt>
      <trkpt lat="48.88025" lon="2.30761">
        <ele>42</ele>
        <time>2013-09-12T18:38:52Z</time>
      </trkpt>
      <trkpt lat="48.8801" lon="2.30664">
        <ele>26</ele>
        <time>2013-09-12T18:39:07Z</time>
      </trkpt>
      <trkpt lat="48.88005" lon="2.30641">
        <ele>28</ele>
        <time>2013-09-12T18:39:11Z</time>
      </trkpt>
      <trkpt lat="48.87979" lon="2.30526">
        <ele>45</ele>
        <time>2013-09-12T18:39:33Z</time>
      </trkpt>
      <trkpt lat="48.87972" lon="2.30507">
        <ele>44</ele>
        <time>2013-09-12T18:39:40Z</time>
      </trkpt>
      <trkpt lat="48.87969" lon="2.30497">
        <ele>43</ele>
        <time>2013-09-12T18:39:46Z</time>
      </trkpt>
      <trkpt lat="48.87967" lon="2.3049">
        <ele>42</ele>
        <time>2013-09-12T18:39:50Z</time>
      </trkpt>
      <trkpt lat="48.87966" lon="2.30482">
        <ele>43</ele>
        <time>2013-09-12T18:39:54Z</time>
      </trkpt>
      <trkpt lat="48.87963" lon="2.30472">
        <ele>43</ele>
        <time>2013-09-12T18:39:57Z</time>
      </trkpt>
      <trkpt lat="48.87948" lon="2.30413">
        <ele>45</ele>
        <time>2013-09-12T18:40:19Z</time>
      </trkpt>
      <trkpt lat="48.87947" lon="2.30405">
        <ele>45</ele>
        <time>2013-09-12T18:40:23Z</time>
      </trkpt>
      <trkpt lat="48.87942" lon="2.30373">
        <ele>44</ele>
        <time>2013-09-12T18:40:31Z</time>
      </trkpt>
      <trkpt lat="48.87941" lon="2.30365">
        <ele>45</ele>
        <time>2013-09-12T18:40:33Z</time>
      </trkpt>
      <trkpt lat="48.87941" lon="2.30345">
        <ele>42</ele>
        <time>2013-09-12T18:40:38Z</time>
      </trkpt>
      <trkpt lat="48.87943" lon="2.30338">
        <ele>42</ele>
        <time>2013-09-12T18:40:40Z</time>
      </trkpt>
      <trkpt lat="48.87943" lon="2.30328">
        <ele>40</ele>
        <time>2013-09-12T18:40:44Z</time>
      </trkpt>
      <trkpt lat="48.87941" lon="2.30303">
        <ele>42</ele>
        <time>2013-09-12T18:40:50Z</time>
      </trkpt>
      <trkpt lat="48.87937" lon="2.30297">
        <ele>48</ele>
        <time>2013-09-12T18:40:53Z</time>
      </trkpt>
      <trkpt lat="48.87933" lon="2.30292">
        <ele>47</ele>
        <time>2013-09-12T18:40:56Z</time>
      </trkpt>
      <trkpt lat="48.87926" lon="2.30285">
        <ele>41</ele>
        <time>2013-09-12T18:41:02Z</time>
      </trkpt>
      <trkpt lat="48.87903" lon="2.30299">
        <ele>47</ele>
        <time>2013-09-12T18:41:16Z</time>
      </trkpt>
      <trkpt lat="48.8788" lon="2.30318">
        <ele>52</ele>
        <time>2013-09-12T18:41:24Z</time>
      </trkpt>
      <trkpt lat="48.87878" lon="2.30326">
        <ele>37</ele>
        <time>2013-09-12T18:41:31Z</time>
      </trkpt>
      <trkpt lat="48.87845" lon="2.30385">
        <ele>44</ele>
        <time>2013-09-12T18:42:15Z</time>
      </trkpt>
      <trkpt lat="48.87777" lon="2.30396">
        <ele>57</ele>
        <time>2013-09-12T18:42:26Z</time>
      </trkpt>
      <trkpt lat="48.87789" lon="2.30452">
        <ele>36</ele>
        <time>2013-09-12T18:42:29Z</time>
      </trkpt>
      <trkpt lat="48.87797" lon="2.30479">
        <ele>46</ele>
        <time>2013-09-12T18:42:31Z</time>
      </trkpt>
      <trkpt lat="48.878" lon="2.30486">
        <ele>44</ele>
        <time>2013-09-12T18:42:32Z</time>
      </trkpt>
      <trkpt lat="48.87797" lon="2.30501">
        <ele>39</ele>
        <time>2013-09-12T18:42:36Z</time>
      </trkpt>
      <trkpt lat="48.87773" lon="2.30617">
        <ele>53</ele>
        <time>2013-09-12T18:43:23Z</time>
      </trkpt>
      <trkpt lat="48.87733" lon="2.30615">
        <ele>39</ele>
        <time>2013-09-12T18:43:26Z</time>
      </trkpt>
      <trkpt lat="48.8772" lon="2.3063">
        <ele>42</ele>
        <time>2013-09-12T18:43:30Z</time>
      </trkpt>
      <trkpt lat="48.87716" lon="2.30636">
        <ele>44</ele>
        <time>2013-09-12T18:43:32Z</time>
      </trkpt>
      <trkpt lat="48.87712" lon="2.30644">
        <ele>43</ele>
        <time>2013-09-12T18:43:35Z</time>
      </trkpt>
      <trkpt lat="48.87708" lon="2.30651">
        <ele>41</ele>
        <time>2013-09-12T18:43:38Z</time>
      </trkpt>
      <trkpt lat="48.87691" lon="2.30685">
        <ele>48</ele>
        <time>2013-09-12T18:43:47Z</time>
      </trkpt>
      <trkpt lat="48.87665" lon="2.30758">
        <ele>58</ele>
        <time>2013-09-12T18:44:02Z</time>
      </trkpt>
      <trkpt lat="48.8767" lon="2.30765">
        <ele>62</ele>
        <time>2013-09-12T18:44:05Z</time>
      </trkpt>
      <trkpt lat="48.87669" lon="2.30772">
        <ele>62</ele>
        <time>2013-09-12T18:44:07Z</time>
      </trkpt>
      <trkpt lat="48.87666" lon="2.3078">
        <ele>61</ele>
        <time>2013-09-12T18:44:09Z</time>
      </trkpt>
      <trkpt lat="48.87662" lon="2.30789">
        <ele>63</ele>
        <time>2013-09-12T18:44:12Z</time>
      </trkpt>
      <trkpt lat="48.87655" lon="2.30801">
        <ele>55</ele>
        <time>2013-09-12T18:44:17Z</time>
      </trkpt>
      <trkpt lat="48.87647" lon="2.30802">
        <ele>55</ele>
        <time>2013-09-12T18:44:21Z</time>
      </trkpt>
      <trkpt lat="48.87633" lon="2.30806">
        <ele>48</ele>
        <time>2013-09-12T18:44:30Z</time>
      </trkpt>
      <trkpt lat="48.87628" lon="2.3081">
        <ele>58</ele>
        <time>2013-09-12T18:44:35Z</time>
      </trkpt>
      <trkpt lat="48.87622" lon="2.30808">
        <ele>60</ele>
        <time>2013-09-12T18:44:45Z</time>
      </trkpt>
      <trkpt lat="48.87616" lon="2.3081">
        <ele>50</ele>
        <time>2013-09-12T18:44:52Z</time>
      </trkpt>
      <trkpt lat="48.87598" lon="2.30814">
        <ele>43</ele>
        <time>2013-09-12T18:45:01Z</time>
      </trkpt>
      <trkpt lat="48.87595" lon="2.30814">
        <ele>44</ele>
        <time>2013-09-12T18:45:02Z</time>
      </trkpt>
      <trkpt lat="48.87589" lon="2.30812">
        <ele>44</ele>
        <time>2013-09-12T18:45:04Z</time>
      </trkpt>
      <trkpt lat="48.87583" lon="2.30791">
        <ele>42</ele>
        <time>2013-09-12T18:45:08Z</time>
      </trkpt>
      <trkpt lat="48.87585" lon="2.30783">
        <ele>43</ele>
        <time>2013-09-12T18:45:09Z</time>
      </trkpt>
      <trkpt lat="48.87589" lon="2.30755">
        <ele>44</ele>
        <time>2013-09-12T18:45:14Z</time>
      </trkpt>
      <trkpt lat="48.87589" lon="2.30743">
        <ele>48</ele>
        <time>2013-09-12T18:45:17Z</time>
      </trkpt>
      <trkpt lat="48.87586" lon="2.30733">
        <ele>46</ele>
        <time>2013-09-12T18:45:20Z</time>
      </trkpt>
      <trkpt lat="48.87583" lon="2.30723">
        <ele>45</ele>
        <time>2013-09-12T18:45:23Z</time>
      </trkpt>
      <trkpt lat="48.87575" lon="2.30711">
        <ele>44</ele>
        <time>2013-09-12T18:45:27Z</time>
      </trkpt>
      <trkpt lat="48.87574" lon="2.307">
        <ele>43</ele>
        <time>2013-09-12T18:45:29Z</time>
      </trkpt>
      <trkpt lat="48.87571" lon="2.30691">
        <ele>43</ele>
        <time>2013-09-12T18:45:31Z</time>
      </trkpt>
      <trkpt lat="48.87568" lon="2.30684">
        <ele>41</ele>
        <time>2013-09-12T18:45:33Z</time>
      </trkpt>
      <trkpt lat="48.87562" lon="2.30676">
        <ele>45</ele>
        <time>2013-09-12T18:45:36Z</time>
      </trkpt>
      <trkpt lat="48.87555" lon="2.30668">
        <ele>44</ele>
        <time>2013-09-12T18:45:39Z</time>
      </trkpt>
      <trkpt lat="48.87521" lon="2.3063">
        <ele>43</ele>
        <time>2013-09-12T18:45:55Z</time>
      </trkpt>
      <trkpt lat="48.87519" lon="2.3062">
        <ele>43</ele>
        <time>2013-09-12T18:45:57Z</time>
      </trkpt>
      <trkpt lat="48.87516" lon="2.30599">
        <ele>46</ele>
        <time>2013-09-12T18:46:02Z</time>
      </trkpt>
      <trkpt lat="48.8751" lon="2.30604">
        <ele>49</ele>
        <time>2013-09-12T18:46:12Z</time>
      </trkpt>
      <trkpt lat="48.87503" lon="2.30605">
        <ele>51</ele>
        <time>2013-09-12T18:46:16Z</time>
      </trkpt>
      <trkpt lat="48.87499" lon="2.30609">
        <ele>58</ele>
        <time>2013-09-12T18:46:18Z</time>
      </trkpt>
      <trkpt lat="48.87497" lon="2.30609">
        <ele>65</ele>
        <time>2013-09-12T18:46:50Z</time>
      </trkpt>
      <trkpt lat="48.87502" lon="2.30598">
        <ele>76</ele>
        <time>2013-09-12T18:46:55Z</time>
      </trkpt>
      <trkpt lat="48.87506" lon="2.30593">
        <ele>63</ele>
        <time>2013-09-12T18:47:00Z</time>
      </trkpt>
      <trkpt lat="48.87506" lon="2.30585">
        <ele>50</ele>
        <time>2013-09-12T18:47:09Z</time>
      </trkpt>
      <trkpt lat="48.87503" lon="2.30575">
        <ele>46</ele>
        <time>2013-09-12T18:47:12Z</time>
      </trkpt>
      <trkpt lat="48.87503" lon="2.30565">
        <ele>43</ele>
        <time>2013-09-12T18:47:15Z</time>
      </trkpt>
      <trkpt lat="48.87503" lon="2.30552">
        <ele>37</ele>
        <time>2013-09-12T18:47:18Z</time>
      </trkpt>
      <trkpt lat="48.87504" lon="2.30544">
        <ele>34</ele>
        <time>2013-09-12T18:47:20Z</time>
      </trkpt>
      <trkpt lat="48.87506" lon="2.30537">
        <ele>33</ele>
        <time>2013-09-12T18:47:23Z</time>
      </trkpt>
      <trkpt lat="48.87507" lon="2.30526">
        <ele>38</ele>
        <time>2013-09-12T18:47:30Z</time>
      </trkpt>
      <trkpt lat="48.87504" lon="2.30516">
        <ele>36</ele>
        <time>2013-09-12T18:47:34Z</time>
      </trkpt>
      <trkpt lat="48.87501" lon="2.30509">
        <ele>39</ele>
        <time>2013-09-12T18:47:37Z</time>
      </trkpt>
      <trkpt lat="48.87497" lon="2.30504">
        <ele>49</ele>
        <time>2013-09-12T18:47:40Z</time>
      </trkpt>
      <trkpt lat="48.8749" lon="2.30505">
        <ele>45</ele>
        <time>2013-09-12T18:47:43Z</time>
      </trkpt>
      <trkpt lat="48.87485" lon="2.30507">
        <ele>38</ele>
        <time>2013-09-12T18:47:46Z</time>
      </trkpt>
      <trkpt lat="48.87483" lon="2.30507">
        <ele>35</ele>
        <time>2013-09-12T18:47:47Z</time>
      </trkpt>
      <trkpt lat="48.87481" lon="2.30506">
        <ele>36</ele>
        <time>2013-09-12T18:47:49Z</time>
      </trkpt>
      <trkpt lat="48.87476" lon="2.30506">
        <ele>37</ele>
        <time>2013-09-12T18:47:52Z</time>
      </trkpt>
      <trkpt lat="48.87469" lon="2.30508">
        <ele>43</ele>
        <time>2013-09-12T18:47:55Z</time>
      </trkpt>
      <trkpt lat="48.87451" lon="2.30514">
        <ele>47</ele>
        <time>2013-09-12T18:48:04Z</time>
      </trkpt>
      <trkpt lat="48.87445" lon="2.30514">
        <ele>48</ele>
        <time>2013-09-12T18:48:16Z</time>
      </trkpt>
      <trkpt lat="48.8744" lon="2.30507">
        <ele>47</ele>
        <time>2013-09-12T18:48:22Z</time>
      </trkpt>
      <trkpt lat="48.87432" lon="2.30457">
        <ele>45</ele>
        <time>2013-09-12T18:49:46Z</time>
      </trkpt>
      <trkpt lat="48.87406" lon="2.30358">
        <ele>42</ele>
        <time>2013-09-12T18:50:18Z</time>
      </trkpt>
      <trkpt lat="48.87395" lon="2.30355">
        <ele>43</ele>
        <time>2013-09-12T18:50:22Z</time>
      </trkpt>
      <trkpt lat="48.87377" lon="2.30363">
        <ele>48</ele>
        <time>2013-09-12T18:50:29Z</time>
      </trkpt>
      <trkpt lat="48.87368" lon="2.30369">
        <ele>44</ele>
        <time>2013-09-12T18:50:31Z</time>
      </trkpt>
      <trkpt lat="48.87356" lon="2.30372">
        <ele>47</ele>
        <time>2013-09-12T18:50:35Z</time>
      </trkpt>
      <trkpt lat="48.8735" lon="2.30368">
        <ele>45</ele>
        <time>2013-09-12T18:50:38Z</time>
      </trkpt>
      <trkpt lat="48.87347" lon="2.30358">
        <ele>41</ele>
        <time>2013-09-12T18:50:44Z</time>
      </trkpt>
      <trkpt lat="48.87346" lon="2.30351">
        <ele>46</ele>
        <time>2013-09-12T18:50:47Z</time>
      </trkpt>
      <trkpt lat="48.87342" lon="2.30345">
        <ele>48</ele>
        <time>2013-09-12T18:50:50Z</time>
      </trkpt>
      <trkpt lat="48.87337" lon="2.30339">
        <ele>50</ele>
        <time>2013-09-12T18:50:53Z</time>
      </trkpt>
      <trkpt lat="48.8733" lon="2.30339">
        <ele>59</ele>
        <time>2013-09-12T18:50:59Z</time>
      </trkpt>
      <trkpt lat="48.87324" lon="2.30341">
        <ele>61</ele>
        <time>2013-09-12T18:51:02Z</time>
      </trkpt>
      <trkpt lat="48.87316" lon="2.3034">
        <ele>61</ele>
        <time>2013-09-12T18:51:06Z</time>
      </trkpt>
      <trkpt lat="48.87311" lon="2.30338">
        <ele>59</ele>
        <time>2013-09-12T18:51:09Z</time>
      </trkpt>
      <trkpt lat="48.87302" lon="2.30332">
        <ele>49</ele>
        <time>2013-09-12T18:51:15Z</time>
      </trkpt>
      <trkpt lat="48.87298" lon="2.30321">
        <ele>48</ele>
        <time>2013-09-12T18:51:20Z</time>
      </trkpt>
      <trkpt lat="48.87294" lon="2.30312">
        <ele>47</ele>
        <time>2013-09-12T18:51:24Z</time>
      </trkpt>
      <trkpt lat="48.87289" lon="2.30293">
        <ele>44</ele>
        <time>2013-09-12T18:51:30Z</time>
      </trkpt>
      <trkpt lat="48.8729" lon="2.30283">
        <ele>41</ele>
        <time>2013-09-12T18:51:32Z</time>
      </trkpt>
      <trkpt lat="48.87289" lon="2.30275">
        <ele>43</ele>
        <time>2013-09-12T18:51:34Z</time>
      </trkpt>
      <trkpt lat="48.87287" lon="2.30267">
        <ele>43</ele>
        <time>2013-09-12T18:51:36Z</time>
      </trkpt>
      <trkpt lat="48.87283" lon="2.3026">
        <ele>44</ele>
        <time>2013-09-12T18:51:38Z</time>
      </trkpt>
      <trkpt lat="48.87272" lon="2.30242">
        <ele>46</ele>
        <time>2013-09-12T18:51:44Z</time>
      </trkpt>
      <trkpt lat="48.87258" lon="2.3022">
        <ele>44</ele>
        <time>2013-09-12T18:51:53Z</time>
      </trkpt>
      <trkpt lat="48.87253" lon="2.30217">
        <ele>44</ele>
        <time>2013-09-12T18:51:55Z</time>
      </trkpt>
      <trkpt lat="48.87249" lon="2.30211">
        <ele>45</ele>
        <time>2013-09-12T18:52:00Z</time>
      </trkpt>
      <trkpt lat="48.87247" lon="2.30204">
        <ele>45</ele>
        <time>2013-09-12T18:52:04Z</time>
      </trkpt>
      <trkpt lat="48.87243" lon="2.30199">
        <ele>45</ele>
        <time>2013-09-12T18:52:07Z</time>
      </trkpt>
      <trkpt lat="48.87239" lon="2.30191">
        <ele>48</ele>
        <time>2013-09-12T18:52:11Z</time>
      </trkpt>
      <trkpt lat="48.87234" lon="2.30186">
        <ele>46</ele>
        <time>2013-09-12T18:52:15Z</time>
      </trkpt>
      <trkpt lat="48.87225" lon="2.30174">
        <ele>47</ele>
        <time>2013-09-12T18:52:21Z</time>
      </trkpt>
      <trkpt lat="48.87221" lon="2.30167">
        <ele>44</ele>
        <time>2013-09-12T18:52:24Z</time>
      </trkpt>
      <trkpt lat="48.87216" lon="2.30162">
        <ele>44</ele>
        <time>2013-09-12T18:52:27Z</time>
      </trkpt>
      <trkpt lat="48.87212" lon="2.30155">
        <ele>45</ele>
        <time>2013-09-12T18:52:31Z</time>
      </trkpt>
      <trkpt lat="48.87209" lon="2.30149">
        <ele>44</ele>
        <time>2013-09-12T18:52:34Z</time>
      </trkpt>
      <trkpt lat="48.87205" lon="2.30143">
        <ele>46</ele>
        <time>2013-09-12T18:52:38Z</time>
      </trkpt>
      <trkpt lat="48.87196" lon="2.30124">
        <ele>47</ele>
        <time>2013-09-12T18:52:45Z</time>
      </trkpt>
      <trkpt lat="48.87192" lon="2.30118">
        <ele>50</ele>
        <time>2013-09-12T18:52:47Z</time>
      </trkpt>
      <trkpt lat="48.8719" lon="2.30126">
        <ele>45</ele>
        <time>2013-09-12T18:52:51Z</time>
      </trkpt>
      <trkpt lat="48.87185" lon="2.3013">
        <ele>41</ele>
        <time>2013-09-12T18:53:06Z</time>
      </trkpt>
      <trkpt lat="48.8718" lon="2.30125">
        <ele>45</ele>
        <time>2013-09-12T18:53:13Z</time>
      </trkpt>
      <trkpt lat="48.87178" lon="2.30125">
        <ele>46</ele>
        <time>2013-09-12T18:53:15Z</time>
      </trkpt>
      <trkpt lat="48.87174" lon="2.30122">
        <ele>43</ele>
        <time>2013-09-12T18:53:18Z</time>
      </trkpt>
      <trkpt lat="48.87171" lon="2.30118">
        <ele>42</ele>
        <time>2013-09-12T18:53:21Z</time>
      </trkpt>
      <trkpt lat="48.87167" lon="2.30111">
        <ele>41</ele>
        <time>2013-09-12T18:53:24Z</time>
      </trkpt>
      <trkpt lat="48.87163" lon="2.30107">
        <ele>39</ele>
        <time>2013-09-12T18:53:26Z</time>
      </trkpt>
      <trkpt lat="48.87153" lon="2.30099">
        <ele>46</ele>
        <time>2013-09-12T18:53:30Z</time>
      </trkpt>
      <trkpt lat="48.87148" lon="2.30098">
        <ele>42</ele>
        <time>2013-09-12T18:53:33Z</time>
      </trkpt>
      <trkpt lat="48.87141" lon="2.30098">
        <ele>46</ele>
        <time>2013-09-12T18:53:36Z</time>
      </trkpt>
      <trkpt lat="48.87136" lon="2.30099">
        <ele>50</ele>
        <time>2013-09-12T18:53:38Z</time>
      </trkpt>
      <trkpt lat="48.87116" lon="2.30106">
        <ele>34</ele>
        <time>2013-09-12T18:53:43Z</time>
      </trkpt>
      <trkpt lat="48.87111" lon="2.30111">
        <ele>38</ele>
        <time>2013-09-12T18:53:45Z</time>
      </trkpt>
      <trkpt lat="48.87104" lon="2.30107">
        <ele>45</ele>
        <time>2013-09-12T18:53:47Z</time>
      </trkpt>
      <trkpt lat="48.87097" lon="2.30107">
        <ele>49</ele>
        <time>2013-09-12T18:53:52Z</time>
      </trkpt>
      <trkpt lat="48.87091" lon="2.3011">
        <ele>52</ele>
        <time>2013-09-12T18:53:54Z</time>
      </trkpt>
      <trkpt lat="48.87082" lon="2.30106">
        <ele>64</ele>
        <time>2013-09-12T18:53:58Z</time>
      </trkpt>
      <trkpt lat="48.87078" lon="2.30103">
        <ele>69</ele>
        <time>2013-09-12T18:54:01Z</time>
      </trkpt>
      <trkpt lat="48.87059" lon="2.3009">
        <ele>65</ele>
        <time>2013-09-12T18:54:08Z</time>
      </trkpt>
      <trkpt lat="48.87054" lon="2.30089">
        <ele>60</ele>
        <time>2013-09-12T18:54:11Z</time>
      </trkpt>
      <trkpt lat="48.87046" lon="2.30093">
        <ele>52</ele>
        <time>2013-09-12T18:54:13Z</time>
      </trkpt>
      <trkpt lat="48.8704" lon="2.30098">
        <ele>50</ele>
        <time>2013-09-12T18:54:14Z</time>
      </trkpt>
      <trkpt lat="48.87021" lon="2.3011">
        <ele>44</ele>
        <time>2013-09-12T18:54:19Z</time>
      </trkpt>
      <trkpt lat="48.87016" lon="2.30111">
        <ele>44</ele>
        <time>2013-09-12T18:54:23Z</time>
      </trkpt>
      <trkpt lat="48.8701" lon="2.30112">
        <ele>46</ele>
        <time>2013-09-12T18:54:26Z</time>
      </trkpt>
      <trkpt lat="48.87003" lon="2.30114">
        <ele>49</ele>
        <time>2013-09-12T18:54:29Z</time>
      </trkpt>
      <trkpt lat="48.86988" lon="2.30116">
        <ele>53</ele>
        <time>2013-09-12T18:54:34Z</time>
      </trkpt>
      <trkpt lat="48.86979" lon="2.30114">
        <ele>53</ele>
        <time>2013-09-12T18:54:36Z</time>
      </trkpt>
      <trkpt lat="48.86971" lon="2.30116">
        <ele>53</ele>
        <time>2013-09-12T18:54:38Z</time>
      </trkpt>
      <trkpt lat="48.86966" lon="2.30115">
        <ele>56</ele>
        <time>2013-09-12T18:54:40Z</time>
      </trkpt>
      <trkpt lat="48.86946" lon="2.30112">
        <ele>49</ele>
        <time>2013-09-12T18:54:46Z</time>
      </trkpt>
      <trkpt lat="48.86942" lon="2.30107">
        <ele>48</ele>
        <time>2013-09-12T18:54:48Z</time>
      </trkpt>
      <trkpt lat="48.86935" lon="2.30106">
        <ele>47</ele>
        <time>2013-09-12T18:54:50Z</time>
      </trkpt>
      <trkpt lat="48.8693" lon="2.30104">
        <ele>48</ele>
        <time>2013-09-12T18:54:52Z</time>
      </trkpt>
      <trkpt lat="48.86925" lon="2.30106">
        <ele>47</ele>
        <time>2013-09-12T18:54:54Z</time>
      </trkpt>
      <trkpt lat="48.86905" lon="2.30113">
        <ele>44</ele>
        <time>2013-09-12T18:55:00Z</time>
      </trkpt>
      <trkpt lat="48.86898" lon="2.30114">
        <ele>44</ele>
        <time>2013-09-12T18:55:02Z</time>
      </trkpt>
      <trkpt lat="48.8689" lon="2.30119">
        <ele>44</ele>
        <time>2013-09-12T18:55:04Z</time>
      </trkpt>
      <trkpt lat="48.86868" lon="2.30128">
        <ele>43</ele>
        <time>2013-09-12T18:55:16Z</time>
      </trkpt>
      <trkpt lat="48.86855" lon="2.3014">
        <ele>46</ele>
        <time>2013-09-12T18:55:43Z</time>
      </trkpt>
      <trkpt lat="48.86849" lon="2.30138">
        <ele>45</ele>
        <time>2013-09-12T18:55:50Z</time>
      </trkpt>
      <trkpt lat="48.86841" lon="2.30138">
        <ele>44</ele>
        <time>2013-09-12T18:55:54Z</time>
      </trkpt>
      <trkpt lat="48.86836" lon="2.3014">
        <ele>48</ele>
        <time>2013-09-12T18:55:57Z</time>
      </trkpt>
      <trkpt lat="48.8683" lon="2.30141">
        <ele>46</ele>
        <time>2013-09-12T18:55:59Z</time>
      </trkpt>
      <trkpt lat="48.86812" lon="2.30142">
        <ele>41</ele>
        <time>2013-09-12T18:56:06Z</time>
      </trkpt>
      <trkpt lat="48.86806" lon="2.30142">
        <ele>43</ele>
        <time>2013-09-12T18:56:08Z</time>
      </trkpt>
      <trkpt lat="48.86795" lon="2.30139">
        <ele>48</ele>
        <time>2013-09-12T18:56:12Z</time>
      </trkpt>
      <trkpt lat="48.86787" lon="2.30139">
        <ele>35</ele>
        <time>2013-09-12T18:56:16Z</time>
      </trkpt>
      <trkpt lat="48.86781" lon="2.3014">
        <ele>34</ele>
        <time>2013-09-12T18:56:17Z</time>
      </trkpt>
      <trkpt lat="48.86772" lon="2.30143">
        <ele>36</ele>
        <time>2013-09-12T18:56:19Z</time>
      </trkpt>
      <trkpt lat="48.86754" lon="2.30145">
        <ele>31</ele>
        <time>2013-09-12T18:56:24Z</time>
      </trkpt>
      <trkpt lat="48.86749" lon="2.30144">
        <ele>30</ele>
        <time>2013-09-12T18:56:26Z</time>
      </trkpt>
      <trkpt lat="48.86743" lon="2.30142">
        <ele>30</ele>
        <time>2013-09-12T18:56:28Z</time>
      </trkpt>
      <trkpt lat="48.86738" lon="2.30142">
        <ele>32</ele>
        <time>2013-09-12T18:56:30Z</time>
      </trkpt>
      <trkpt lat="48.86717" lon="2.30144">
        <ele>46</ele>
        <time>2013-09-12T18:56:37Z</time>
      </trkpt>
      <trkpt lat="48.86699" lon="2.30142">
        <ele>48</ele>
        <time>2013-09-12T18:56:42Z</time>
      </trkpt>
      <trkpt lat="48.86692" lon="2.3014">
        <ele>45</ele>
        <time>2013-09-12T18:56:44Z</time>
      </trkpt>
      <trkpt lat="48.86685" lon="2.30139">
        <ele>43</ele>
        <time>2013-09-12T18:56:46Z</time>
      </trkpt>
      <trkpt lat="48.86664" lon="2.30137">
        <ele>39</ele>
        <time>2013-09-12T18:56:53Z</time>
      </trkpt>
      <trkpt lat="48.86656" lon="2.30141">
        <ele>38</ele>
        <time>2013-09-12T18:56:55Z</time>
      </trkpt>
      <trkpt lat="48.86638" lon="2.30152">
        <ele>39</ele>
        <time>2013-09-12T18:57:03Z</time>
      </trkpt>
      <trkpt lat="48.86632" lon="2.30152">
        <ele>39</ele>
        <time>2013-09-12T18:57:05Z</time>
      </trkpt>
      <trkpt lat="48.86625" lon="2.3015">
        <ele>39</ele>
        <time>2013-09-12T18:57:08Z</time>
      </trkpt>
      <trkpt lat="48.86619" lon="2.30149">
        <ele>44</ele>
        <time>2013-09-12T18:57:11Z</time>
      </trkpt>
      <trkpt lat="48.86615" lon="2.30144">
        <ele>43</ele>
        <time>2013-09-12T18:57:14Z</time>
      </trkpt>
      <trkpt lat="48.86611" lon="2.30139">
        <ele>44</ele>
        <time>2013-09-12T18:57:17Z</time>
      </trkpt>
      <trkpt lat="48.86605" lon="2.30136">
        <ele>40</ele>
        <time>2013-09-12T18:57:21Z</time>
      </trkpt>
      <trkpt lat="48.866" lon="2.30139">
        <ele>42</ele>
        <time>2013-09-12T18:57:23Z</time>
      </trkpt>
      <trkpt lat="48.86585" lon="2.30145">
        <ele>30</ele>
        <time>2013-09-12T18:57:30Z</time>
      </trkpt>
      <trkpt lat="48.86578" lon="2.30145">
        <ele>31</ele>
        <time>2013-09-12T18:57:32Z</time>
      </trkpt>
      <trkpt lat="48.86557" lon="2.30145">
        <ele>27</ele>
        <time>2013-09-12T18:57:39Z</time>
      </trkpt>
      <trkpt lat="48.8654" lon="2.30148">
        <ele>33</ele>
        <time>2013-09-12T18:57:46Z</time>
      </trkpt>
      <trkpt lat="48.86519" lon="2.30154">
        <ele>32</ele>
        <time>2013-09-12T18:57:53Z</time>
      </trkpt>
      <trkpt lat="48.86506" lon="2.30154">
        <ele>37</ele>
        <time>2013-09-12T18:57:57Z</time>
      </trkpt>
      <trkpt lat="48.86499" lon="2.30156">
        <ele>25</ele>
        <time>2013-09-12T18:58:01Z</time>
      </trkpt>
      <trkpt lat="48.86493" lon="2.30161">
        <ele>31</ele>
        <time>2013-09-12T18:58:04Z</time>
      </trkpt>
      <trkpt lat="48.86486" lon="2.30162">
        <ele>30</ele>
        <time>2013-09-12T18:58:07Z</time>
      </trkpt>
      <trkpt lat="48.86481" lon="2.3017">
        <ele>38</ele>
        <time>2013-09-12T18:58:16Z</time>
      </trkpt>
      <trkpt lat="48.86475" lon="2.30176">
        <ele>33</ele>
        <time>2013-09-12T18:58:19Z</time>
      </trkpt>
      <trkpt lat="48.86469" lon="2.3018">
        <ele>34</ele>
        <time>2013-09-12T18:58:22Z</time>
      </trkpt>
      <trkpt lat="48.86464" lon="2.30184">
        <ele>32</ele>
        <time>2013-09-12T18:58:25Z</time>
      </trkpt>
      <trkpt lat="48.8646" lon="2.30185">
        <ele>26</ele>
        <time>2013-09-12T18:58:28Z</time>
      </trkpt>
      <trkpt lat="48.86453" lon="2.30187">
        <ele>25</ele>
        <time>2013-09-12T18:58:31Z</time>
      </trkpt>
      <trkpt lat="48.86449" lon="2.30188">
        <ele>26</ele>
        <time>2013-09-12T18:58:36Z</time>
      </trkpt>
      <trkpt lat="48.86447" lon="2.30191">
        <ele>28</ele>
        <time>2013-09-12T18:58:38Z</time>
      </trkpt>
      <trkpt lat="48.86445" lon="2.30193">
        <ele>26</ele>
        <time>2013-09-12T18:58:40Z</time>
      </trkpt>
      <trkpt lat="48.86442" lon="2.30196">
        <ele>26</ele>
        <time>2013-09-12T18:58:42Z</time>
      </trkpt>
      <trkpt lat="48.86444" lon="2.30199">
        <ele>27</ele>
        <time>2013-09-12T18:58:52Z</time>
      </trkpt>
      <trkpt lat="48.86444" lon="2.30195">
        <ele>25</ele>
        <time>2013-09-12T18:59:05Z</time>
      </trkpt>
      <trkpt lat="48.86446" lon="2.30202">
        <ele>34</ele>
        <time>2013-09-12T18:59:12Z</time>
      </trkpt>
      <trkpt lat="48.86446" lon="2.30204">
        <ele>34</ele>
        <time>2013-09-12T18:59:23Z</time>
      </trkpt>
      <trkpt lat="48.86439" lon="2.30203">
        <ele>36</ele>
        <time>2013-09-12T18:59:32Z</time>
      </trkpt>
      <trkpt lat="48.86433" lon="2.30203">
        <ele>32</ele>
        <time>2013-09-12T18:59:36Z</time>
      </trkpt>
      <trkpt lat="48.86427" lon="2.30203">
        <ele>25</ele>
        <time>2013-09-12T18:59:40Z</time>
      </trkpt>
      <trkpt lat="48.86419" lon="2.302">
        <ele>22</ele>
        <time>2013-09-12T18:59:45Z</time>
      </trkpt>
      <trkpt lat="48.86416" lon="2.30191">
        <ele>25</ele>
        <time>2013-09-12T18:59:48Z</time>
      </trkpt>
      <trkpt lat="48.86415" lon="2.30183">
        <ele>22</ele>
        <time>2013-09-12T18:59:50Z</time>
      </trkpt>
      <trkpt lat="48.86417" lon="2.30172">
        <ele>22</ele>
        <time>2013-09-12T18:59:52Z</time>
      </trkpt>
      <trkpt lat="48.86415" lon="2.30165">
        <ele>21</ele>
        <time>2013-09-12T18:59:54Z</time>
      </trkpt>
      <trkpt lat="48.8641" lon="2.30137">
        <ele>25</ele>
        <time>2013-09-12T19:00:03Z</time>
      </trkpt>
      <trkpt lat="48.86408" lon="2.3013">
        <ele>29</ele>
        <time>2013-09-12T19:00:06Z</time>
      </trkpt>
      <trkpt lat="48.86404" lon="2.30113">
        <ele>22</ele>
        <time>2013-09-12T19:00:11Z</time>
      </trkpt>
      <trkpt lat="48.86403" lon="2.30105">
        <ele>21</ele>
        <time>2013-09-12T19:00:13Z</time>
      </trkpt>
      <trkpt lat="48.86401" lon="2.30072">
        <ele>22</ele>
        <time>2013-09-12T19:00:20Z</time>
      </trkpt>
      <trkpt lat="48.864" lon="2.30061">
        <ele>18</ele>
        <time>2013-09-12T19:00:22Z</time>
      </trkpt>
      <trkpt lat="48.86397" lon="2.30051">
        <ele>15</ele>
        <time>2013-09-12T19:00:24Z</time>
      </trkpt>
      <trkpt lat="48.86398" lon="2.30039">
        <ele>21</ele>
        <time>2013-09-12T19:00:27Z</time>
      </trkpt>
      <trkpt lat="48.86399" lon="2.3003">
        <ele>23</ele>
        <time>2013-09-12T19:00:29Z</time>
      </trkpt>
      <trkpt lat="48.86402" lon="2.29998">
        <ele>24</ele>
        <time>2013-09-12T19:00:37Z</time>
      </trkpt>
      <trkpt lat="48.864" lon="2.29987">
        <ele>25</ele>
        <time>2013-09-12T19:00:39Z</time>
      </trkpt>
      <trkpt lat="48.8638" lon="2.29869">
        <ele>18</ele>
        <time>2013-09-12T19:01:00Z</time>
      </trkpt>
      <trkpt lat="48.86376" lon="2.29854">
        <ele>20</ele>
        <time>2013-09-12T19:01:03Z</time>
      </trkpt>
      <trkpt lat="48.86372" lon="2.29832">
        <ele>22</ele>
        <time>2013-09-12T19:01:07Z</time>
      </trkpt>
      <trkpt lat="48.86366" lon="2.29802">
        <ele>31</ele>
        <time>2013-09-12T19:01:13Z</time>
      </trkpt>
      <trkpt lat="48.86364" lon="2.29792">
        <ele>29</ele>
        <time>2013-09-12T19:01:15Z</time>
      </trkpt>
      <trkpt lat="48.86358" lon="2.29727">
        <ele>24</ele>
        <time>2013-09-12T19:01:28Z</time>
      </trkpt>
      <trkpt lat="48.86356" lon="2.29714">
        <ele>24</ele>
        <time>2013-09-12T19:01:31Z</time>
      </trkpt>
      <trkpt lat="48.86353" lon="2.2969">
        <ele>25</ele>
        <time>2013-09-12T19:01:37Z</time>
      </trkpt>
      <trkpt lat="48.8635" lon="2.29674">
        <ele>29</ele>
        <time>2013-09-12T19:01:41Z</time>
      </trkpt>
      <trkpt lat="48.86348" lon="2.29665">
        <ele>29</ele>
        <time>2013-09-12T19:01:44Z</time>
      </trkpt>
      <trkpt lat="48.86344" lon="2.29656">
        <ele>37</ele>
        <time>2013-09-12T19:01:47Z</time>
      </trkpt>
      <trkpt lat="48.86321" lon="2.296">
        <ele>28</ele>
        <time>2013-09-12T19:02:01Z</time>
      </trkpt>
      <trkpt lat="48.86313" lon="2.29573">
        <ele>28</ele>
        <time>2013-09-12T19:02:05Z</time>
      </trkpt>
      <trkpt lat="48.86303" lon="2.29541">
        <ele>26</ele>
        <time>2013-09-12T19:02:09Z</time>
      </trkpt>
      <trkpt lat="48.863" lon="2.29535">
        <ele>31</ele>
        <time>2013-09-12T19:02:10Z</time>
      </trkpt>
      <trkpt lat="48.8629" lon="2.29516">
        <ele>30</ele>
        <time>2013-09-12T19:02:13Z</time>
      </trkpt>
      <trkpt lat="48.86286" lon="2.29504">
        <ele>28</ele>
        <time>2013-09-12T19:02:15Z</time>
      </trkpt>
      <trkpt lat="48.86279" lon="2.29478">
        <ele>23</ele>
        <time>2013-09-12T19:02:21Z</time>
      </trkpt>
      <trkpt lat="48.86274" lon="2.29456">
        <ele>20</ele>
        <time>2013-09-12T19:02:26Z</time>
      </trkpt>
      <trkpt lat="48.86268" lon="2.29428">
        <ele>21</ele>
        <time>2013-09-12T19:02:33Z</time>
      </trkpt>
      <trkpt lat="48.86264" lon="2.29419">
        <ele>20</ele>
        <time>2013-09-12T19:02:35Z</time>
      </trkpt>
      <trkpt lat="48.8626" lon="2.29411">
        <ele>21</ele>
        <time>2013-09-12T19:02:37Z</time>
      </trkpt>
      <trkpt lat="48.86258" lon="2.29403">
        <ele>24</ele>
        <time>2013-09-12T19:02:38Z</time>
      </trkpt>
      <trkpt lat="48.86257" lon="2.29393">
        <ele>27</ele>
        <time>2013-09-12T19:02:39Z</time>
      </trkpt>
      <trkpt lat="48.86255" lon="2.29386">
        <ele>26</ele>
        <time>2013-09-12T19:02:40Z</time>
      </trkpt>
      <trkpt lat="48.86248" lon="2.29359">
        <ele>28</ele>
        <time>2013-09-12T19:02:43Z</time>
      </trkpt>
      <trkpt lat="48.86243" lon="2.2935">
        <ele>29</ele>
        <time>2013-09-12T19:02:45Z</time>
      </trkpt>
      <trkpt lat="48.86238" lon="2.29343">
        <ele>32</ele>
        <time>2013-09-12T19:02:47Z</time>
      </trkpt>
      <trkpt lat="48.86232" lon="2.29337">
        <ele>29</ele>
        <time>2013-09-12T19:02:49Z</time>
      </trkpt>
      <trkpt lat="48.86225" lon="2.29332">
        <ele>24</ele>
        <time>2013-09-12T19:02:51Z</time>
      </trkpt>
      <trkpt lat="48.8622" lon="2.29327">
        <ele>24</ele>
        <time>2013-09-12T19:02:53Z</time>
      </trkpt>
      <trkpt lat="48.8621" lon="2.29319">
        <ele>23</ele>
        <time>2013-09-12T19:02:56Z</time>
      </trkpt>
      <trkpt lat="48.86195" lon="2.29304">
        <ele>15</ele>
        <time>2013-09-12T19:03:01Z</time>
      </trkpt>
      <trkpt lat="48.86185" lon="2.29299">
        <ele>17</ele>
        <time>2013-09-12T19:03:03Z</time>
      </trkpt>
      <trkpt lat="48.86177" lon="2.29293">
        <ele>21</ele>
        <time>2013-09-12T19:03:05Z</time>
      </trkpt>
      <trkpt lat="48.86143" lon="2.29264">
        <ele>34</ele>
        <time>2013-09-12T19:03:15Z</time>
      </trkpt>
      <trkpt lat="48.86137" lon="2.29257">
        <ele>36</ele>
        <time>2013-09-12T19:03:17Z</time>
      </trkpt>
      <trkpt lat="48.8613" lon="2.29247">
        <ele>40</ele>
        <time>2013-09-12T19:03:19Z</time>
      </trkpt>
      <trkpt lat="48.86113" lon="2.29225">
        <ele>32</ele>
        <time>2013-09-12T19:03:23Z</time>
      </trkpt>
      <trkpt lat="48.86068" lon="2.2917">
        <ele>34</ele>
        <time>2013-09-12T19:03:44Z</time>
      </trkpt>
      <trkpt lat="48.8606" lon="2.29162">
        <ele>33</ele>
        <time>2013-09-12T19:03:51Z</time>
      </trkpt>
      <trkpt lat="48.86053" lon="2.29154">
        <ele>38</ele>
        <time>2013-09-12T19:03:56Z</time>
      </trkpt>
      <trkpt lat="48.86051" lon="2.2915">
        <ele>40</ele>
        <time>2013-09-12T19:03:58Z</time>
      </trkpt>
      <trkpt lat="48.86048" lon="2.29143">
        <ele>39</ele>
        <time>2013-09-12T19:04:03Z</time>
      </trkpt>
      <trkpt lat="48.86045" lon="2.29141">
        <ele>34</ele>
        <time>2013-09-12T19:04:05Z</time>
      </trkpt>
      <trkpt lat="48.86043" lon="2.29142">
        <ele>34</ele>
        <time>2013-09-12T19:04:08Z</time>
      </trkpt>
      <trkpt lat="48.86038" lon="2.29148">
        <ele>35</ele>
        <time>2013-09-12T19:04:12Z</time>
      </trkpt>
      <trkpt lat="48.86036" lon="2.29154">
        <ele>36</ele>
        <time>2013-09-12T19:04:15Z</time>
      </trkpt>
      <trkpt lat="48.86034" lon="2.29162">
        <ele>33</ele>
        <time>2013-09-12T19:04:18Z</time>
      </trkpt>
      <trkpt lat="48.8603" lon="2.29169">
        <ele>31</ele>
        <time>2013-09-12T19:04:22Z</time>
      </trkpt>
      <trkpt lat="48.86026" lon="2.29177">
        <ele>30</ele>
        <time>2013-09-12T19:04:25Z</time>
      </trkpt>
      <trkpt lat="48.86022" lon="2.29182">
        <ele>35</ele>
        <time>2013-09-12T19:04:27Z</time>
      </trkpt>
      <trkpt lat="48.86017" lon="2.29187">
        <ele>33</ele>
        <time>2013-09-12T19:04:30Z</time>
      </trkpt>
      <trkpt lat="48.86014" lon="2.29196">
        <ele>27</ele>
        <time>2013-09-12T19:04:34Z</time>
      </trkpt>
      <trkpt lat="48.86009" lon="2.29203">
        <ele>22</ele>
        <time>2013-09-12T19:04:38Z</time>
      </trkpt>
      <trkpt lat="48.86005" lon="2.29207">
        <ele>21</ele>
        <time>2013-09-12T19:04:40Z</time>
      </trkpt>
      <trkpt lat="48.86002" lon="2.29216">
        <ele>25</ele>
        <time>2013-09-12T19:04:42Z</time>
      </trkpt>
      <trkpt lat="48.85995" lon="2.29228">
        <ele>30</ele>
        <time>2013-09-12T19:04:46Z</time>
      </trkpt>
      <trkpt lat="48.8599" lon="2.29234">
        <ele>31</ele>
        <time>2013-09-12T19:04:48Z</time>
      </trkpt>
      <trkpt lat="48.85976" lon="2.29252">
        <ele>30</ele>
        <time>2013-09-12T19:04:53Z</time>
      </trkpt>
      <trkpt lat="48.85969" lon="2.29258">
        <ele>27</ele>
        <time>2013-09-12T19:04:56Z</time>
      </trkpt>
      <trkpt lat="48.85952" lon="2.29274">
        <ele>31</ele>
        <time>2013-09-12T19:05:03Z</time>
      </trkpt>
      <trkpt lat="48.85948" lon="2.29281">
        <ele>32</ele>
        <time>2013-09-12T19:05:05Z</time>
      </trkpt>
      <trkpt lat="48.85935" lon="2.29304">
        <ele>28</ele>
        <time>2013-09-12T19:05:14Z</time>
      </trkpt>
      <trkpt lat="48.85929" lon="2.29316">
        <ele>28</ele>
        <time>2013-09-12T19:05:19Z</time>
      </trkpt>
      <trkpt lat="48.8593" lon="2.29324">
        <ele>24</ele>
        <time>2013-09-12T19:05:22Z</time>
      </trkpt>
      <trkpt lat="48.85928" lon="2.29332">
        <ele>29</ele>
        <time>2013-09-12T19:05:29Z</time>
      </trkpt>
      <trkpt lat="48.85923" lon="2.29323">
        <ele>34</ele>
        <time>2013-09-12T19:06:03Z</time>
      </trkpt>
      <trkpt lat="48.85918" lon="2.29318">
        <ele>38</ele>
        <time>2013-09-12T19:06:06Z</time>
      </trkpt>
      <trkpt lat="48.85914" lon="2.29313">
        <ele>37</ele>
        <time>2013-09-12T19:06:09Z</time>
      </trkpt>
      <trkpt lat="48.85908" lon="2.29314">
        <ele>23</ele>
        <time>2013-09-12T19:06:47Z</time>
      </trkpt>
      <trkpt lat="48.85904" lon="2.29307">
        <ele>21</ele>
        <time>2013-09-12T19:06:50Z</time>
      </trkpt>
      <trkpt lat="48.85904" lon="2.29296">
        <ele>20</ele>
        <time>2013-09-12T19:06:53Z</time>
      </trkpt>
      <trkpt lat="48.85905" lon="2.29288">
        <ele>21</ele>
        <time>2013-09-12T19:06:55Z</time>
      </trkpt>
      <trkpt lat="48.85904" lon="2.29281">
        <ele>25</ele>
        <time>2013-09-12T19:06:58Z</time>
      </trkpt>
      <trkpt lat="48.85899" lon="2.29276">
        <ele>22</ele>
        <time>2013-09-12T19:07:02Z</time>
      </trkpt>
      <trkpt lat="48.85899" lon="2.29264">
        <ele>18</ele>
        <time>2013-09-12T19:07:07Z</time>
      </trkpt>
      <trkpt lat="48.85897" lon="2.29256">
        <ele>21</ele>
        <time>2013-09-12T19:07:10Z</time>
      </trkpt>
      <trkpt lat="48.85894" lon="2.2925">
        <ele>24</ele>
        <time>2013-09-12T19:07:14Z</time>
      </trkpt>
      <trkpt lat="48.85889" lon="2.29249">
        <ele>26</ele>
        <time>2013-09-12T19:07:28Z</time>
      </trkpt>
      <trkpt lat="48.85896" lon="2.29252">
        <ele>21</ele>
        <time>2013-09-12T19:07:43Z</time>
      </trkpt>
      <trkpt lat="48.85901" lon="2.29257">
        <ele>24</ele>
        <time>2013-09-12T19:07:45Z</time>
      </trkpt>
      <trkpt lat="48.85904" lon="2.29264">
        <ele>23</ele>
        <time>2013-09-12T19:07:47Z</time>
      </trkpt>
      <trkpt lat="48.85908" lon="2.29281">
        <ele>21</ele>
        <time>2013-09-12T19:07:52Z</time>
      </trkpt>
      <trkpt lat="48.8591" lon="2.29288">
        <ele>20</ele>
        <time>2013-09-12T19:07:54Z</time>
      </trkpt>
      <trkpt lat="48.85904" lon="2.29294">
        <ele>24</ele>
        <time>2013-09-12T19:07:58Z</time>
      </trkpt>
      <trkpt lat="48.859" lon="2.29297">
        <ele>37</ele>
        <time>2013-09-12T19:08:01Z</time>
      </trkpt>
      <trkpt lat="48.85894" lon="2.29297">
        <ele>35</ele>
        <time>2013-09-12T19:08:04Z</time>
      </trkpt>
      <trkpt lat="48.85887" lon="2.29291">
        <ele>34</ele>
        <time>2013-09-12T19:08:08Z</time>
      </trkpt>
      <trkpt lat="48.85882" lon="2.2928">
        <ele>34</ele>
        <time>2013-09-12T19:08:12Z</time>
      </trkpt>
      <trkpt lat="48.85881" lon="2.29279">
        <ele>35</ele>
        <time>2013-09-12T19:08:13Z</time>
      </trkpt>
      <trkpt lat="48.85879" lon="2.29276">
        <ele>33</ele>
        <time>2013-09-12T19:08:17Z</time>
      </trkpt>
      <trkpt lat="48.85884" lon="2.2928">
        <ele>25</ele>
        <time>2013-09-12T19:08:25Z</time>
      </trkpt>
      <trkpt lat="48.85893" lon="2.29286">
        <ele>26</ele>
        <time>2013-09-12T19:08:32Z</time>
      </trkpt>
      <trkpt lat="48.85895" lon="2.29293">
        <ele>25</ele>
        <time>2013-09-12T19:08:37Z</time>
      </trkpt>
      <trkpt lat="48.85887" lon="2.29302">
        <ele>12</ele>
        <time>2013-09-12T19:08:50Z</time>
      </trkpt>
      <trkpt lat="48.85879" lon="2.29313">
        <ele>33</ele>
        <time>2013-09-12T19:09:07Z</time>
      </trkpt>
      <trkpt lat="48.85883" lon="2.2932">
        <ele>30</ele>
        <time>2013-09-12T19:09:52Z</time>
      </trkpt>
      <trkpt lat="48.85879" lon="2.29326">
        <ele>18</ele>
        <time>2013-09-12T19:09:55Z</time>
      </trkpt>
      <trkpt lat="48.85873" lon="2.2933">
        <ele>24</ele>
        <time>2013-09-12T19:09:59Z</time>
      </trkpt>
      <trkpt lat="48.85868" lon="2.29332">
        <ele>24</ele>
        <time>2013-09-12T19:10:01Z</time>
      </trkpt>
      <trkpt lat="48.85864" lon="2.29325">
        <ele>23</ele>
        <time>2013-09-12T19:10:03Z</time>
      </trkpt>
      <trkpt lat="48.85851" lon="2.29306">
        <ele>17</ele>
        <time>2013-09-12T19:10:10Z</time>
      </trkpt>
      <trkpt lat="48.85837" lon="2.29285">
        <ele>16</ele>
        <time>2013-09-12T19:10:23Z</time>
      </trkpt>
      <trkpt lat="48.85832" lon="2.2928">
        <ele>17</ele>
        <time>2013-09-12T19:10:26Z</time>
      </trkpt>
      <trkpt lat="48.85828" lon="2.29273">
        <ele>18</ele>
        <time>2013-09-12T19:10:29Z</time>
      </trkpt>
      <trkpt lat="48.85825" lon="2.29266">
        <ele>23</ele>
        <time>2013-09-12T19:10:31Z</time>
      </trkpt>
      <trkpt lat="48.85819" lon="2.29253">
        <ele>30</ele>
        <time>2013-09-12T19:10:36Z</time>
      </trkpt>
      <trkpt lat="48.85807" lon="2.29231">
        <ele>29</ele>
        <time>2013-09-12T19:10:45Z</time>
      </trkpt>
      <trkpt lat="48.85801" lon="2.2922">
        <ele>25</ele>
        <time>2013-09-12T19:10:48Z</time>
      </trkpt>
      <trkpt lat="48.85789" lon="2.29198">
        <ele>27</ele>
        <time>2013-09-12T19:10:56Z</time>
      </trkpt>
      <trkpt lat="48.85787" lon="2.2919">
        <ele>27</ele>
        <time>2013-09-12T19:10:59Z</time>
      </trkpt>
      <trkpt lat="48.85783" lon="2.29174">
        <ele>27</ele>
        <time>2013-09-12T19:11:04Z</time>
      </trkpt>
      <trkpt lat="48.85779" lon="2.29165">
        <ele>30</ele>
        <time>2013-09-12T19:11:06Z</time>
      </trkpt>
      <trkpt lat="48.85769" lon="2.29148">
        <ele>36</ele>
        <time>2013-09-12T19:11:10Z</time>
      </trkpt>
      <trkpt lat="48.85763" lon="2.29142">
        <ele>34</ele>
        <time>2013-09-12T19:11:12Z</time>
      </trkpt>
      <trkpt lat="48.85751" lon="2.29126">
        <ele>31</ele>
        <time>2013-09-12T19:11:19Z</time>
      </trkpt>
      <trkpt lat="48.85748" lon="2.29119">
        <ele>24</ele>
        <time>2013-09-12T19:11:24Z</time>
      </trkpt>
      <trkpt lat="48.85744" lon="2.29113">
        <ele>33</ele>
        <time>2013-09-12T19:11:46Z</time>
      </trkpt>
      <trkpt lat="48.85739" lon="2.29111">
        <ele>27</ele>
        <time>2013-09-12T19:11:49Z</time>
      </trkpt>
      <trkpt lat="48.85733" lon="2.29107">
        <ele>23</ele>
        <time>2013-09-12T19:11:54Z</time>
      </trkpt>
      <trkpt lat="48.85731" lon="2.29099">
        <ele>33</ele>
        <time>2013-09-12T19:12:01Z</time>
      </trkpt>
      <trkpt lat="48.85726" lon="2.29091">
        <ele>35</ele>
        <time>2013-09-12T19:12:04Z</time>
      </trkpt>
      <trkpt lat="48.85721" lon="2.29086">
        <ele>34</ele>
        <time>2013-09-12T19:12:06Z</time>
      </trkpt>
      <trkpt lat="48.8571" lon="2.29079">
        <ele>32</ele>
        <time>2013-09-12T19:12:12Z</time>
      </trkpt>
      <trkpt lat="48.85706" lon="2.29074">
        <ele>29</ele>
        <time>2013-09-12T19:12:14Z</time>
      </trkpt>
      <trkpt lat="48.85704" lon="2.29066">
        <ele>31</ele>
        <time>2013-09-12T19:12:17Z</time>
      </trkpt>
      <trkpt lat="48.857" lon="2.29057">
        <ele>42</ele>
        <time>2013-09-12T19:12:21Z</time>
      </trkpt>
      <trkpt lat="48.85696" lon="2.2905">
        <ele>50</ele>
        <time>2013-09-12T19:12:24Z</time>
      </trkpt>
      <trkpt lat="48.85689" lon="2.29043">
        <ele>47</ele>
        <time>2013-09-12T19:12:28Z</time>
      </trkpt>
      <trkpt lat="48.85682" lon="2.29041">
        <ele>47</ele>
        <time>2013-09-12T19:12:31Z</time>
      </trkpt>
      <trkpt lat="48.85675" lon="2.29037">
        <ele>42</ele>
        <time>2013-09-12T19:12:34Z</time>
      </trkpt>
      <trkpt lat="48.85671" lon="2.29034">
        <ele>38</ele>
        <time>2013-09-12T19:12:36Z</time>
      </trkpt>
      <trkpt lat="48.85656" lon="2.29025">
        <ele>35</ele>
        <time>2013-09-12T19:12:42Z</time>
      </trkpt>
      <trkpt lat="48.85651" lon="2.29023">
        <ele>38</ele>
        <time>2013-09-12T19:12:44Z</time>
      </trkpt>
      <trkpt lat="48.85632" lon="2.29021">
        <ele>34</ele>
        <time>2013-09-12T19:12:52Z</time>
      </trkpt>
      <trkpt lat="48.85625" lon="2.29015">
        <ele>36</ele>
        <time>2013-09-12T19:12:56Z</time>
      </trkpt>
      <trkpt lat="48.85619" lon="2.29014">
        <ele>34</ele>
        <time>2013-09-12T19:12:59Z</time>
      </trkpt>
      <trkpt lat="48.85606" lon="2.29012">
        <ele>39</ele>
        <time>2013-09-12T19:13:06Z</time>
      </trkpt>
      <trkpt lat="48.85585" lon="2.29007">
        <ele>36</ele>
        <time>2013-09-12T19:13:15Z</time>
      </trkpt>
      <trkpt lat="48.8558" lon="2.29004">
        <ele>29</ele>
        <time>2013-09-12T19:13:17Z</time>
      </trkpt>
      <trkpt lat="48.85575" lon="2.29001">
        <ele>28</ele>
        <time>2013-09-12T19:13:19Z</time>
      </trkpt>
      <trkpt lat="48.85557" lon="2.28994">
        <ele>35</ele>
        <time>2013-09-12T19:13:30Z</time>
      </trkpt>
      <trkpt lat="48.8555" lon="2.28986">
        <ele>41</ele>
        <time>2013-09-12T19:13:35Z</time>
      </trkpt>
      <trkpt lat="48.85547" lon="2.28979">
        <ele>49</ele>
        <time>2013-09-12T19:13:38Z</time>
      </trkpt>
      <trkpt lat="48.85541" lon="2.28977">
        <ele>46</ele>
        <time>2013-09-12T19:13:41Z</time>
      </trkpt>
      <trkpt lat="48.85527" lon="2.28971">
        <ele>39</ele>
        <time>2013-09-12T19:13:50Z</time>
      </trkpt>
      <trkpt lat="48.85524" lon="2.28964">
        <ele>38</ele>
        <time>2013-09-12T19:13:53Z</time>
      </trkpt>
      <trkpt lat="48.85518" lon="2.28959">
        <ele>42</ele>
        <time>2013-09-12T19:13:59Z</time>
      </trkpt>
      <trkpt lat="48.85513" lon="2.28956">
        <ele>30</ele>
        <time>2013-09-12T19:14:24Z</time>
      </trkpt>
      <trkpt lat="48.85504" lon="2.28949">
        <ele>37</ele>
        <time>2013-09-12T19:14:34Z</time>
      </trkpt>
      <trkpt lat="48.85499" lon="2.28943">
        <ele>34</ele>
        <time>2013-09-12T19:14:37Z</time>
      </trkpt>
      <trkpt lat="48.85494" lon="2.28941">
        <ele>28</ele>
        <time>2013-09-12T19:14:40Z</time>
      </trkpt>
      <trkpt lat="48.85489" lon="2.28936">
        <ele>40</ele>
        <time>2013-09-12T19:14:44Z</time>
      </trkpt>
      <trkpt lat="48.85485" lon="2.28931">
        <ele>37</ele>
        <time>2013-09-12T19:14:47Z</time>
      </trkpt>
      <trkpt lat="48.85477" lon="2.28917">
        <ele>40</ele>
        <time>2013-09-12T19:14:56Z</time>
      </trkpt>
      <trkpt lat="48.85469" lon="2.28907">
        <ele>45</ele>
        <time>2013-09-12T19:15:01Z</time>
      </trkpt>
      <trkpt lat="48.85462" lon="2.28905">
        <ele>43</ele>
        <time>2013-09-12T19:15:04Z</time>
      </trkpt>
      <trkpt lat="48.85443" lon="2.28904">
        <ele>34</ele>
        <time>2013-09-12T19:15:17Z</time>
      </trkpt>
      <trkpt lat="48.85433" lon="2.28894">
        <ele>33</ele>
        <time>2013-09-12T19:15:40Z</time>
      </trkpt>
      <trkpt lat="48.85438" lon="2.28888">
        <ele>27</ele>
        <time>2013-09-12T19:15:43Z</time>
      </trkpt>
      <trkpt lat="48.85435" lon="2.2888">
        <ele>29</ele>
        <time>2013-09-12T19:15:54Z</time>
      </trkpt>
      <trkpt lat="48.8544" lon="2.28873">
        <ele>29</ele>
        <time>2013-09-12T19:15:58Z</time>
      </trkpt>
      <trkpt lat="48.85444" lon="2.28864">
        <ele>32</ele>
        <time>2013-09-12T19:16:01Z</time>
      </trkpt>
      <trkpt lat="48.85446" lon="2.28855">
        <ele>32</ele>
        <time>2013-09-12T19:16:04Z</time>
      </trkpt>
      <trkpt lat="48.85448" lon="2.28847">
        <ele>39</ele>
        <time>2013-09-12T19:16:07Z</time>
      </trkpt>
      <trkpt lat="48.8545" lon="2.28837">
        <ele>43</ele>
        <time>2013-09-12T19:16:16Z</time>
      </trkpt>
      <trkpt lat="48.85454" lon="2.28831">
        <ele>46</ele>
        <time>2013-09-12T19:16:32Z</time>
      </trkpt>
      <trkpt lat="48.85448" lon="2.28835">
        <ele>46</ele>
        <time>2013-09-12T19:16:46Z</time>
      </trkpt>
      <trkpt lat="48.85442" lon="2.28838">
        <ele>36</ele>
        <time>2013-09-12T19:17:10Z</time>
      </trkpt>
      <trkpt lat="48.85435" lon="2.28833">
        <ele>32</ele>
        <time>2013-09-12T19:17:13Z</time>
      </trkpt>
      <trkpt lat="48.85425" lon="2.28821">
        <ele>36</ele>
        <time>2013-09-12T19:17:16Z</time>
      </trkpt>
      <trkpt lat="48.85377" lon="2.28769">
        <ele>42</ele>
        <time>2013-09-12T19:17:34Z</time>
      </trkpt>
      <trkpt lat="48.85371" lon="2.28767">
        <ele>42</ele>
        <time>2013-09-12T19:17:44Z</time>
      </trkpt>
      <trkpt lat="48.8536" lon="2.28761">
        <ele>42</ele>
        <time>2013-09-12T19:17:52Z</time>
      </trkpt>
      <trkpt lat="48.85347" lon="2.28751">
        <ele>40</ele>
        <time>2013-09-12T19:18:00Z</time>
      </trkpt>
      <trkpt lat="48.85334" lon="2.28734">
        <ele>35</ele>
        <time>2013-09-12T19:18:05Z</time>
      </trkpt>
      <trkpt lat="48.85311" lon="2.28701">
        <ele>30</ele>
        <time>2013-09-12T19:18:14Z</time>
      </trkpt>
      <trkpt lat="48.85304" lon="2.28692">
        <ele>40</ele>
        <time>2013-09-12T19:18:19Z</time>
      </trkpt>
      <trkpt lat="48.85301" lon="2.28686">
        <ele>42</ele>
        <time>2013-09-12T19:18:22Z</time>
      </trkpt>
      <trkpt lat="48.85296" lon="2.28679">
        <ele>43</ele>
        <time>2013-09-12T19:18:25Z</time>
      </trkpt>
      <trkpt lat="48.85289" lon="2.28661">
        <ele>35</ele>
        <time>2013-09-12T19:18:33Z</time>
      </trkpt>
      <trkpt lat="48.85286" lon="2.28658">
        <ele>30</ele>
        <time>2013-09-12T19:18:34Z</time>
      </trkpt>
      <trkpt lat="48.85276" lon="2.28639">
        <ele>32</ele>
        <time>2013-09-12T19:18:40Z</time>
      </trkpt>
      <trkpt lat="48.8527" lon="2.28634">
        <ele>35</ele>
        <time>2013-09-12T19:18:44Z</time>
      </trkpt>
      <trkpt lat="48.85257" lon="2.28619">
        <ele>38</ele>
        <time>2013-09-12T19:18:52Z</time>
      </trkpt>
      <trkpt lat="48.85254" lon="2.28613">
        <ele>33</ele>
        <time>2013-09-12T19:18:55Z</time>
      </trkpt>
      <trkpt lat="48.8525" lon="2.28608">
        <ele>37</ele>
        <time>2013-09-12T19:18:58Z</time>
      </trkpt>
      <trkpt lat="48.85245" lon="2.28602">
        <ele>30</ele>
        <time>2013-09-12T19:19:01Z</time>
      </trkpt>
      <trkpt lat="48.8524" lon="2.28597">
        <ele>26</ele>
        <time>2013-09-12T19:19:06Z</time>
      </trkpt>
      <trkpt lat="48.85237" lon="2.28591">
        <ele>32</ele>
        <time>2013-09-12T19:19:12Z</time>
      </trkpt>
      <trkpt lat="48.8523" lon="2.28582">
        <ele>28</ele>
        <time>2013-09-12T19:19:21Z</time>
      </trkpt>
      <trkpt lat="48.85227" lon="2.28576">
        <ele>29</ele>
        <time>2013-09-12T19:19:25Z</time>
      </trkpt>
      <trkpt lat="48.85223" lon="2.2857">
        <ele>27</ele>
        <time>2013-09-12T19:19:29Z</time>
      </trkpt>
      <trkpt lat="48.85218" lon="2.28566">
        <ele>24</ele>
        <time>2013-09-12T19:19:32Z</time>
      </trkpt>
      <trkpt lat="48.85203" lon="2.28548">
        <ele>26</ele>
        <time>2013-09-12T19:19:43Z</time>
      </trkpt>
      <trkpt lat="48.85199" lon="2.28543">
        <ele>25</ele>
        <time>2013-09-12T19:19:46Z</time>
      </trkpt>
      <trkpt lat="48.85193" lon="2.28531">
        <ele>23</ele>
        <time>2013-09-12T19:19:53Z</time>
      </trkpt>
      <trkpt lat="48.85188" lon="2.28525">
        <ele>26</ele>
        <time>2013-09-12T19:19:58Z</time>
      </trkpt>
      <trkpt lat="48.85183" lon="2.28521">
        <ele>30</ele>
        <time>2013-09-12T19:20:06Z</time>
      </trkpt>
      <trkpt lat="48.85177" lon="2.28511">
        <ele>27</ele>
        <time>2013-09-12T19:20:15Z</time>
      </trkpt>
      <trkpt lat="48.85165" lon="2.28488">
        <ele>35</ele>
        <time>2013-09-12T19:20:27Z</time>
      </trkpt>
      <trkpt lat="48.85161" lon="2.28479">
        <ele>36</ele>
        <time>2013-09-12T19:20:32Z</time>
      </trkpt>
      <trkpt lat="48.85156" lon="2.2847">
        <ele>34</ele>
        <time>2013-09-12T19:20:37Z</time>
      </trkpt>
      <trkpt lat="48.85143" lon="2.2845">
        <ele>24</ele>
        <time>2013-09-12T19:20:52Z</time>
      </trkpt>
      <trkpt lat="48.85139" lon="2.28446">
        <ele>22</ele>
        <time>2013-09-12T19:20:55Z</time>
      </trkpt>
      <trkpt lat="48.85133" lon="2.28439">
        <ele>29</ele>
        <time>2013-09-12T19:21:00Z</time>
      </trkpt>
      <trkpt lat="48.85129" lon="2.28432">
        <ele>27</ele>
        <time>2013-09-12T19:21:05Z</time>
      </trkpt>
      <trkpt lat="48.85116" lon="2.28423">
        <ele>25</ele>
        <time>2013-09-12T19:21:14Z</time>
      </trkpt>
      <trkpt lat="48.85103" lon="2.28412">
        <ele>23</ele>
        <time>2013-09-12T19:21:23Z</time>
      </trkpt>
      <trkpt lat="48.85099" lon="2.28405">
        <ele>19</ele>
        <time>2013-09-12T19:21:26Z</time>
      </trkpt>
      <trkpt lat="48.85093" lon="2.28394">
        <ele>18</ele>
        <time>2013-09-12T19:21:33Z</time>
      </trkpt>
      <trkpt lat="48.85085" lon="2.28388">
        <ele>38</ele>
        <time>2013-09-12T19:21:41Z</time>
      </trkpt>
      <trkpt lat="48.85078" lon="2.28392">
        <ele>39</ele>
        <time>2013-09-12T19:22:08Z</time>
      </trkpt>
      <trkpt lat="48.85075" lon="2.28385">
        <ele>31</ele>
        <time>2013-09-12T19:22:12Z</time>
      </trkpt>
      <trkpt lat="48.85079" lon="2.28375">
        <ele>26</ele>
        <time>2013-09-12T19:22:17Z</time>
      </trkpt>
      <trkpt lat="48.8508" lon="2.28362">
        <ele>24</ele>
        <time>2013-09-12T19:22:19Z</time>
      </trkpt>
      <trkpt lat="48.85081" lon="2.28351">
        <ele>29</ele>
        <time>2013-09-12T19:22:21Z</time>
      </trkpt>
      <trkpt lat="48.85079" lon="2.28342">
        <ele>30</ele>
        <time>2013-09-12T19:22:23Z</time>
      </trkpt>
      <trkpt lat="48.85077" lon="2.28335">
        <ele>29</ele>
        <time>2013-09-12T19:22:25Z</time>
      </trkpt>
      <trkpt lat="48.85073" lon="2.28329">
        <ele>27</ele>
        <time>2013-09-12T19:22:30Z</time>
      </trkpt>
      <trkpt lat="48.85066" lon="2.28326">
        <ele>34</ele>
        <time>2013-09-12T19:22:34Z</time>
      </trkpt>
      <trkpt lat="48.85061" lon="2.2832">
        <ele>38</ele>
        <time>2013-09-12T19:22:37Z</time>
      </trkpt>
      <trkpt lat="48.85057" lon="2.28313">
        <ele>37</ele>
        <time>2013-09-12T19:22:40Z</time>
      </trkpt>
      <trkpt lat="48.85052" lon="2.28308">
        <ele>36</ele>
        <time>2013-09-12T19:22:42Z</time>
      </trkpt>
      <trkpt lat="48.85037" lon="2.28287">
        <ele>17</ele>
        <time>2013-09-12T19:22:49Z</time>
      </trkpt>
      <trkpt lat="48.85033" lon="2.28279">
        <ele>19</ele>
        <time>2013-09-12T19:22:52Z</time>
      </trkpt>
      <trkpt lat="48.85027" lon="2.28271">
        <ele>19</ele>
        <time>2013-09-12T19:22:57Z</time>
      </trkpt>
      <trkpt lat="48.85018" lon="2.28256">
        <ele>27</ele>
        <time>2013-09-12T19:23:05Z</time>
      </trkpt>
      <trkpt lat="48.85014" lon="2.28251">
        <ele>28</ele>
        <time>2013-09-12T19:23:08Z</time>
      </trkpt>
      <trkpt lat="48.8501" lon="2.28243">
        <ele>27</ele>
        <time>2013-09-12T19:23:13Z</time>
      </trkpt>
      <trkpt lat="48.85006" lon="2.28237">
        <ele>24</ele>
        <time>2013-09-12T19:23:16Z</time>
      </trkpt>
      <trkpt lat="48.85002" lon="2.28234">
        <ele>25</ele>
        <time>2013-09-12T19:23:19Z</time>
      </trkpt>
      <trkpt lat="48.84998" lon="2.28229">
        <ele>27</ele>
        <time>2013-09-12T19:23:21Z</time>
      </trkpt>
      <trkpt lat="48.84991" lon="2.28221">
        <ele>25</ele>
        <time>2013-09-12T19:23:25Z</time>
      </trkpt>
      <trkpt lat="48.84986" lon="2.28216">
        <ele>20</ele>
        <time>2013-09-12T19:23:28Z</time>
      </trkpt>
      <trkpt lat="48.84972" lon="2.28196">
        <ele>24</ele>
        <time>2013-09-12T19:23:40Z</time>
      </trkpt>
      <trkpt lat="48.84972" lon="2.28185">
        <ele>31</ele>
        <time>2013-09-12T19:23:45Z</time>
      </trkpt>
      <trkpt lat="48.84971" lon="2.28178">
        <ele>29</ele>
        <time>2013-09-12T19:23:48Z</time>
      </trkpt>
      <trkpt lat="48.84966" lon="2.28173">
        <ele>31</ele>
        <time>2013-09-12T19:23:52Z</time>
      </trkpt>
      <trkpt lat="48.84964" lon="2.28165">
        <ele>30</ele>
        <time>2013-09-12T19:24:04Z</time>
      </trkpt>
      <trkpt lat="48.84961" lon="2.28158">
        <ele>19</ele>
        <time>2013-09-12T19:24:12Z</time>
      </trkpt>
      <trkpt lat="48.84957" lon="2.28153">
        <ele>20</ele>
        <time>2013-09-12T19:24:15Z</time>
      </trkpt>
      <trkpt lat="48.84951" lon="2.28148">
        <ele>29</ele>
        <time>2013-09-12T19:24:18Z</time>
      </trkpt>
      <trkpt lat="48.84945" lon="2.28143">
        <ele>32</ele>
        <time>2013-09-12T19:24:21Z</time>
      </trkpt>
      <trkpt lat="48.84941" lon="2.28137">
        <ele>29</ele>
        <time>2013-09-12T19:24:24Z</time>
      </trkpt>
      <trkpt lat="48.84938" lon="2.2813">
        <ele>25</ele>
        <time>2013-09-12T19:24:27Z</time>
      </trkpt>
      <trkpt lat="48.84939" lon="2.28122">
        <ele>31</ele>
        <time>2013-09-12T19:24:32Z</time>
      </trkpt>
      <trkpt lat="48.84945" lon="2.28117">
        <ele>34</ele>
        <time>2013-09-12T19:24:37Z</time>
      </trkpt>
      <trkpt lat="48.84949" lon="2.28112">
        <ele>36</ele>
        <time>2013-09-12T19:24:40Z</time>
      </trkpt>
      <trkpt lat="48.84963" lon="2.28093">
        <ele>27</ele>
        <time>2013-09-12T19:24:50Z</time>
      </trkpt>
      <trkpt lat="48.84972" lon="2.28082">
        <ele>27</ele>
        <time>2013-09-12T19:24:56Z</time>
      </trkpt>
      <trkpt lat="48.84978" lon="2.28074">
        <ele>29</ele>
        <time>2013-09-12T19:25:01Z</time>
      </trkpt>
      <trkpt lat="48.84981" lon="2.28066">
        <ele>35</ele>
        <time>2013-09-12T19:25:04Z</time>
      </trkpt>
      <trkpt lat="48.84986" lon="2.28059">
        <ele>36</ele>
        <time>2013-09-12T19:25:12Z</time>
      </trkpt>
      <trkpt lat="48.84997" lon="2.28043">
        <ele>37</ele>
        <time>2013-09-12T19:25:19Z</time>
      </trkpt>
      <trkpt lat="48.85" lon="2.28037">
        <ele>38</ele>
        <time>2013-09-12T19:25:22Z</time>
      </trkpt>
      <trkpt lat="48.85003" lon="2.2803">
        <ele>39</ele>
        <time>2013-09-12T19:25:27Z</time>
      </trkpt>
      <trkpt lat="48.85002" lon="2.28028">
        <ele>34</ele>
        <time>2013-09-12T19:25:33Z</time>
      </trkpt>
      <trkpt lat="48.85" lon="2.28029">
        <ele>30</ele>
        <time>2013-09-12T19:25:44Z</time>
      </trkpt>
      <trkpt lat="48.84998" lon="2.28036">
        <ele>34</ele>
        <time>2013-09-12T19:26:06Z</time>
      </trkpt>
      <trkpt lat="48.84994" lon="2.28042">
        <ele>34</ele>
        <time>2013-09-12T19:26:09Z</time>
      </trkpt>
      <trkpt lat="48.8499" lon="2.28048">
        <ele>36</ele>
        <time>2013-09-12T19:26:12Z</time>
      </trkpt>
      <trkpt lat="48.84987" lon="2.28054">
        <ele>37</ele>
        <time>2013-09-12T19:26:14Z</time>
      </trkpt>
      <trkpt lat="48.8498" lon="2.28062">
        <ele>39</ele>
        <time>2013-09-12T19:26:17Z</time>
      </trkpt>
      <trkpt lat="48.84975" lon="2.28068">
        <ele>42</ele>
        <time>2013-09-12T19:26:19Z</time>
      </trkpt>
      <trkpt lat="48.84969" lon="2.28075">
        <ele>45</ele>
        <time>2013-09-12T19:26:21Z</time>
      </trkpt>
      <trkpt lat="48.84965" lon="2.28084">
        <ele>40</ele>
        <time>2013-09-12T19:26:23Z</time>
      </trkpt>
      <trkpt lat="48.84959" lon="2.28092">
        <ele>39</ele>
        <time>2013-09-12T19:26:25Z</time>
      </trkpt>
      <trkpt lat="48.84953" lon="2.28098">
        <ele>40</ele>
        <time>2013-09-12T19:26:27Z</time>
      </trkpt>
      <trkpt lat="48.8495" lon="2.28104">
        <ele>39</ele>
        <time>2013-09-12T19:26:30Z</time>
      </trkpt>
      <trkpt lat="48.84946" lon="2.28112">
        <ele>31</ele>
        <time>2013-09-12T19:26:35Z</time>
      </trkpt>
      <trkpt lat="48.84941" lon="2.28116">
        <ele>30</ele>
        <time>2013-09-12T19:26:38Z</time>
      </trkpt>
      <trkpt lat="48.84935" lon="2.28124">
        <ele>24</ele>
        <time>2013-09-12T19:26:42Z</time>
      </trkpt>
      <trkpt lat="48.84931" lon="2.28125">
        <ele>27</ele>
        <time>2013-09-12T19:26:44Z</time>
      </trkpt>
      <trkpt lat="48.84927" lon="2.28122">
        <ele>27</ele>
        <time>2013-09-12T19:26:46Z</time>
      </trkpt>
      <trkpt lat="48.84924" lon="2.2812">
        <ele>29</ele>
        <time>2013-09-12T19:26:48Z</time>
      </trkpt>
      <trkpt lat="48.84921" lon="2.28118">
        <ele>29</ele>
        <time>2013-09-12T19:26:50Z</time>
      </trkpt>
      <trkpt lat="48.84918" lon="2.28115">
        <ele>33</ele>
        <time>2013-09-12T19:26:52Z</time>
      </trkpt>
      <trkpt lat="48.84923" lon="2.28123">
        <ele>34</ele>
        <time>2013-09-12T19:27:08Z</time>
      </trkpt>
      <trkpt lat="48.84927" lon="2.28128">
        <ele>34</ele>
        <time>2013-09-12T19:27:11Z</time>
      </trkpt>
      <trkpt lat="48.84932" lon="2.28127">
        <ele>34</ele>
        <time>2013-09-12T19:27:14Z</time>
      </trkpt>
      <trkpt lat="48.84938" lon="2.28128">
        <ele>31</ele>
        <time>2013-09-12T19:27:18Z</time>
      </trkpt>
      <trkpt lat="48.84943" lon="2.28125">
        <ele>34</ele>
        <time>2013-09-12T19:27:20Z</time>
      </trkpt>
      <trkpt lat="48.84948" lon="2.28119">
        <ele>34</ele>
        <time>2013-09-12T19:27:22Z</time>
      </trkpt>
      <trkpt lat="48.84946" lon="2.28117">
        <ele>25</ele>
        <time>2013-09-12T19:27:42Z</time>
      </trkpt>
      <trkpt lat="48.84945" lon="2.28109">
        <ele>30</ele>
        <time>2013-09-12T19:27:46Z</time>
      </trkpt>
      <trkpt lat="48.84941" lon="2.28103">
        <ele>35</ele>
        <time>2013-09-12T19:27:49Z</time>
      </trkpt>
      <trkpt lat="48.84937" lon="2.28096">
        <ele>36</ele>
        <time>2013-09-12T19:27:51Z</time>
      </trkpt>
      <trkpt lat="48.84925" lon="2.28072">
        <ele>34</ele>
        <time>2013-09-12T19:27:57Z</time>
      </trkpt>
      <trkpt lat="48.84918" lon="2.28061">
        <ele>36</ele>
        <time>2013-09-12T19:27:59Z</time>
      </trkpt>
      <trkpt lat="48.84875" lon="2.27993">
        <ele>34</ele>
        <time>2013-09-12T19:28:13Z</time>
      </trkpt>
      <trkpt lat="48.84868" lon="2.27986">
        <ele>34</ele>
        <time>2013-09-12T19:28:15Z</time>
      </trkpt>
      <trkpt lat="48.84861" lon="2.27977">
        <ele>30</ele>
        <time>2013-09-12T19:28:17Z</time>
      </trkpt>
      <trkpt lat="48.84846" lon="2.27959">
        <ele>32</ele>
        <time>2013-09-12T19:28:22Z</time>
      </trkpt>
      <trkpt lat="48.8484" lon="2.27952">
        <ele>32</ele>
        <time>2013-09-12T19:28:24Z</time>
      </trkpt>
      <trkpt lat="48.84833" lon="2.27942">
        <ele>31</ele>
        <time>2013-09-12T19:28:27Z</time>
      </trkpt>
      <trkpt lat="48.84803" lon="2.27903">
        <ele>27</ele>
        <time>2013-09-12T19:28:42Z</time>
      </trkpt>
      <trkpt lat="48.84798" lon="2.27898">
        <ele>27</ele>
        <time>2013-09-12T19:28:44Z</time>
      </trkpt>
      <trkpt lat="48.84794" lon="2.27892">
        <ele>24</ele>
        <time>2013-09-12T19:28:46Z</time>
      </trkpt>
      <trkpt lat="48.84788" lon="2.27882">
        <ele>31</ele>
        <time>2013-09-12T19:28:49Z</time>
      </trkpt>
      <trkpt lat="48.84784" lon="2.27874">
        <ele>28</ele>
        <time>2013-09-12T19:28:51Z</time>
      </trkpt>
      <trkpt lat="48.84774" lon="2.27856">
        <ele>25</ele>
        <time>2013-09-12T19:28:56Z</time>
      </trkpt>
      <trkpt lat="48.84761" lon="2.27834">
        <ele>24</ele>
        <time>2013-09-12T19:29:02Z</time>
      </trkpt>
      <trkpt lat="48.84755" lon="2.27826">
        <ele>24</ele>
        <time>2013-09-12T19:29:04Z</time>
      </trkpt>
      <trkpt lat="48.84726" lon="2.27788">
        <ele>25</ele>
        <time>2013-09-12T19:29:15Z</time>
      </trkpt>
      <trkpt lat="48.84721" lon="2.27782">
        <ele>25</ele>
        <time>2013-09-12T19:29:17Z</time>
      </trkpt>
      <trkpt lat="48.84717" lon="2.27775">
        <ele>23</ele>
        <time>2013-09-12T19:29:19Z</time>
      </trkpt>
      <trkpt lat="48.84714" lon="2.27766">
        <ele>26</ele>
        <time>2013-09-12T19:29:21Z</time>
      </trkpt>
      <trkpt lat="48.84712" lon="2.27756">
        <ele>29</ele>
        <time>2013-09-12T19:29:23Z</time>
      </trkpt>
      <trkpt lat="48.84709" lon="2.27747">
        <ele>28</ele>
        <time>2013-09-12T19:29:25Z</time>
      </trkpt>
      <trkpt lat="48.84704" lon="2.2774">
        <ele>32</ele>
        <time>2013-09-12T19:29:28Z</time>
      </trkpt>
      <trkpt lat="48.84699" lon="2.27733">
        <ele>36</ele>
        <time>2013-09-12T19:29:31Z</time>
      </trkpt>
      <trkpt lat="48.84695" lon="2.27727">
        <ele>34</ele>
        <time>2013-09-12T19:29:33Z</time>
      </trkpt>
      <trkpt lat="48.84685" lon="2.27713">
        <ele>26</ele>
        <time>2013-09-12T19:29:37Z</time>
      </trkpt>
      <trkpt lat="48.84678" lon="2.27705">
        <ele>32</ele>
        <time>2013-09-12T19:29:39Z</time>
      </trkpt>
      <trkpt lat="48.84662" lon="2.27686">
        <ele>29</ele>
        <time>2013-09-12T19:29:45Z</time>
      </trkpt>
      <trkpt lat="48.84656" lon="2.27679">
        <ele>27</ele>
        <time>2013-09-12T19:29:47Z</time>
      </trkpt>
      <trkpt lat="48.84622" lon="2.27636">
        <ele>40</ele>
        <time>2013-09-12T19:29:59Z</time>
      </trkpt>
      <trkpt lat="48.84614" lon="2.27621">
        <ele>27</ele>
        <time>2013-09-12T19:30:03Z</time>
      </trkpt>
      <trkpt lat="48.8461" lon="2.27615">
        <ele>29</ele>
        <time>2013-09-12T19:30:05Z</time>
      </trkpt>
      <trkpt lat="48.84605" lon="2.2761">
        <ele>31</ele>
        <time>2013-09-12T19:30:07Z</time>
      </trkpt>
      <trkpt lat="48.84557" lon="2.27561">
        <ele>32</ele>
        <time>2013-09-12T19:30:24Z</time>
      </trkpt>
      <trkpt lat="48.84551" lon="2.27556">
        <ele>31</ele>
        <time>2013-09-12T19:30:26Z</time>
      </trkpt>
      <trkpt lat="48.8454" lon="2.27551">
        <ele>29</ele>
        <time>2013-09-12T19:30:30Z</time>
      </trkpt>
      <trkpt lat="48.84538" lon="2.2755">
        <ele>29</ele>
        <time>2013-09-12T19:30:31Z</time>
      </trkpt>
      <trkpt lat="48.84535" lon="2.27549">
        <ele>28</ele>
        <time>2013-09-12T19:30:32Z</time>
      </trkpt>
      <trkpt lat="48.84532" lon="2.27549">
        <ele>28</ele>
        <time>2013-09-12T19:30:33Z</time>
      </trkpt>
      <trkpt lat="48.84528" lon="2.27547">
        <ele>29</ele>
        <time>2013-09-12T19:30:35Z</time>
      </trkpt>
      <trkpt lat="48.84522" lon="2.27546">
        <ele>28</ele>
        <time>2013-09-12T19:30:38Z</time>
      </trkpt>
      <trkpt lat="48.84515" lon="2.27542">
        <ele>28</ele>
        <time>2013-09-12T19:30:42Z</time>
      </trkpt>
      <trkpt lat="48.84509" lon="2.27537">
        <ele>31</ele>
        <time>2013-09-12T19:30:45Z</time>
      </trkpt>
      <trkpt lat="48.84506" lon="2.27532">
        <ele>30</ele>
        <time>2013-09-12T19:30:48Z</time>
      </trkpt>
      <trkpt lat="48.845" lon="2.27527">
        <ele>32</ele>
        <time>2013-09-12T19:30:52Z</time>
      </trkpt>
      <trkpt lat="48.84489" lon="2.27513">
        <ele>32</ele>
        <time>2013-09-12T19:30:58Z</time>
      </trkpt>
      <trkpt lat="48.84476" lon="2.275">
        <ele>31</ele>
        <time>2013-09-12T19:31:05Z</time>
      </trkpt>
      <trkpt lat="48.84468" lon="2.27495">
        <ele>35</ele>
        <time>2013-09-12T19:31:09Z</time>
      </trkpt>
      <trkpt lat="48.84464" lon="2.27486">
        <ele>42</ele>
        <time>2013-09-12T19:31:11Z</time>
      </trkpt>
      <trkpt lat="48.84449" lon="2.27466">
        <ele>37</ele>
        <time>2013-09-12T19:31:17Z</time>
      </trkpt>
      <trkpt lat="48.84442" lon="2.2746">
        <ele>36</ele>
        <time>2013-09-12T19:31:19Z</time>
      </trkpt>
      <trkpt lat="48.84424" lon="2.27443">
        <ele>30</ele>
        <time>2013-09-12T19:31:26Z</time>
      </trkpt>
      <trkpt lat="48.84421" lon="2.27442">
        <ele>32</ele>
        <time>2013-09-12T19:31:27Z</time>
      </trkpt>
      <trkpt lat="48.84416" lon="2.27438">
        <ele>36</ele>
        <time>2013-09-12T19:31:29Z</time>
      </trkpt>
      <trkpt lat="48.84402" lon="2.27426">
        <ele>33</ele>
        <time>2013-09-12T19:31:34Z</time>
      </trkpt>
      <trkpt lat="48.84397" lon="2.27421">
        <ele>35</ele>
        <time>2013-09-12T19:31:36Z</time>
      </trkpt>
      <trkpt lat="48.84385" lon="2.27408">
        <ele>33</ele>
        <time>2013-09-12T19:31:41Z</time>
      </trkpt>
      <trkpt lat="48.84379" lon="2.27404">
        <ele>29</ele>
        <time>2013-09-12T19:31:44Z</time>
      </trkpt>
      <trkpt lat="48.84375" lon="2.274">
        <ele>29</ele>
        <time>2013-09-12T19:31:46Z</time>
      </trkpt>
      <trkpt lat="48.84367" lon="2.27392">
        <ele>31</ele>
        <time>2013-09-12T19:31:49Z</time>
      </trkpt>
      <trkpt lat="48.84358" lon="2.27385">
        <ele>30</ele>
        <time>2013-09-12T19:31:52Z</time>
      </trkpt>
      <trkpt lat="48.84341" lon="2.27372">
        <ele>32</ele>
        <time>2013-09-12T19:31:58Z</time>
      </trkpt>
      <trkpt lat="48.84334" lon="2.27369">
        <ele>31</ele>
        <time>2013-09-12T19:32:00Z</time>
      </trkpt>
      <trkpt lat="48.84325" lon="2.27363">
        <ele>29</ele>
        <time>2013-09-12T19:32:03Z</time>
      </trkpt>
      <trkpt lat="48.8432" lon="2.27357">
        <ele>32</ele>
        <time>2013-09-12T19:32:05Z</time>
      </trkpt>
      <trkpt lat="48.84315" lon="2.27354">
        <ele>32</ele>
        <time>2013-09-12T19:32:07Z</time>
      </trkpt>
      <trkpt lat="48.84297" lon="2.27339">
        <ele>24</ele>
        <time>2013-09-12T19:32:14Z</time>
      </trkpt>
      <trkpt lat="48.84291" lon="2.27335">
        <ele>23</ele>
        <time>2013-09-12T19:32:16Z</time>
      </trkpt>
      <trkpt lat="48.84282" lon="2.27327">
        <ele>30</ele>
        <time>2013-09-12T19:32:20Z</time>
      </trkpt>
      <trkpt lat="48.84275" lon="2.27319">
        <ele>26</ele>
        <time>2013-09-12T19:32:23Z</time>
      </trkpt>
      <trkpt lat="48.84267" lon="2.27313">
        <ele>29</ele>
        <time>2013-09-12T19:32:26Z</time>
      </trkpt>
      <trkpt lat="48.84263" lon="2.27307">
        <ele>32</ele>
        <time>2013-09-12T19:32:28Z</time>
      </trkpt>
      <trkpt lat="48.84258" lon="2.27301">
        <ele>27</ele>
        <time>2013-09-12T19:32:31Z</time>
      </trkpt>
      <trkpt lat="48.84254" lon="2.27296">
        <ele>33</ele>
        <time>2013-09-12T19:32:34Z</time>
      </trkpt>
      <trkpt lat="48.84252" lon="2.27288">
        <ele>34</ele>
        <time>2013-09-12T19:32:37Z</time>
      </trkpt>
      <trkpt lat="48.84246" lon="2.27258">
        <ele>26</ele>
        <time>2013-09-12T19:32:44Z</time>
      </trkpt>
      <trkpt lat="48.84243" lon="2.2725">
        <ele>27</ele>
        <time>2013-09-12T19:32:46Z</time>
      </trkpt>
      <trkpt lat="48.84238" lon="2.27242">
        <ele>29</ele>
        <time>2013-09-12T19:32:48Z</time>
      </trkpt>
      <trkpt lat="48.84237" lon="2.27239">
        <ele>24</ele>
        <time>2013-09-12T19:32:49Z</time>
      </trkpt>
      <trkpt lat="48.84234" lon="2.27237">
        <ele>25</ele>
        <time>2013-09-12T19:32:51Z</time>
      </trkpt>
      <trkpt lat="48.84235" lon="2.27233">
        <ele>29</ele>
        <time>2013-09-12T19:33:09Z</time>
      </trkpt>
      <trkpt lat="48.84236" lon="2.2723">
        <ele>24</ele>
        <time>2013-09-12T19:33:14Z</time>
      </trkpt>
      <trkpt lat="48.84237" lon="2.27226">
        <ele>27</ele>
        <time>2013-09-12T19:33:24Z</time>
      </trkpt>
      <trkpt lat="48.84236" lon="2.27223">
        <ele>30</ele>
        <time>2013-09-12T19:33:30Z</time>
      </trkpt>
      <trkpt lat="48.84231" lon="2.27218">
        <ele>26</ele>
        <time>2013-09-12T19:33:35Z</time>
      </trkpt>
      <trkpt lat="48.84229" lon="2.27217">
        <ele>26</ele>
        <time>2013-09-12T19:33:36Z</time>
      </trkpt>
      <trkpt lat="48.84226" lon="2.27215">
        <ele>25</ele>
        <time>2013-09-12T19:33:38Z</time>
      </trkpt>
      <trkpt lat="48.84223" lon="2.27212">
        <ele>26</ele>
        <time>2013-09-12T19:33:40Z</time>
      </trkpt>
      <trkpt lat="48.84221" lon="2.27209">
        <ele>26</ele>
        <time>2013-09-12T19:33:42Z</time>
      </trkpt>
      <trkpt lat="48.84218" lon="2.27205">
        <ele>27</ele>
        <time>2013-09-12T19:33:46Z</time>
      </trkpt>
      <trkpt lat="48.84216" lon="2.27203">
        <ele>28</ele>
        <time>2013-09-12T19:33:50Z</time>
      </trkpt>
      <trkpt lat="48.84211" lon="2.27199">
        <ele>22</ele>
        <time>2013-09-12T19:34:12Z</time>
      </trkpt>
      <trkpt lat="48.84206" lon="2.27194">
        <ele>30</ele>
        <time>2013-09-12T19:34:28Z</time>
      </trkpt>
      <trkpt lat="48.84205" lon="2.2719">
        <ele>30</ele>
        <time>2013-09-12T19:34:31Z</time>
      </trkpt>
      <trkpt lat="48.84204" lon="2.27188">
        <ele>29</ele>
        <time>2013-09-12T19:34:35Z</time>
      </trkpt>
      <trkpt lat="48.84201" lon="2.27187">
        <ele>26</ele>
        <time>2013-09-12T19:34:42Z</time>
      </trkpt>
      <trkpt lat="48.84198" lon="2.27187">
        <ele>24</ele>
        <time>2013-09-12T19:34:59Z</time>
      </trkpt>
      <trkpt lat="48.84195" lon="2.27185">
        <ele>26</ele>
        <time>2013-09-12T19:35:30Z</time>
      </trkpt>
      <trkpt lat="48.84193" lon="2.27187">
        <ele>25</ele>
        <time>2013-09-12T19:35:32Z</time>
      </trkpt>
      <trkpt lat="48.8419" lon="2.27187">
        <ele>24</ele>
        <time>2013-09-12T19:35:36Z</time>
      </trkpt>
      <trkpt lat="48.84187" lon="2.27188">
        <ele>28</ele>
        <time>2013-09-12T19:35:58Z</time>
      </trkpt>
      <trkpt lat="48.84189" lon="2.27191">
        <ele>27</ele>
        <time>2013-09-12T19:36:03Z</time>
      </trkpt>
      <trkpt lat="48.8419" lon="2.27195">
        <ele>27</ele>
        <time>2013-09-12T19:36:07Z</time>
      </trkpt>
      <trkpt lat="48.84192" lon="2.27198">
        <ele>27</ele>
        <time>2013-09-12T19:36:18Z</time>
      </trkpt>
      <trkpt lat="48.84195" lon="2.272">
        <ele>24</ele>
        <time>2013-09-12T19:36:24Z</time>
      </trkpt>
      <trkpt lat="48.84198" lon="2.27199">
        <ele>23</ele>
        <time>2013-09-12T19:36:29Z</time>
      </trkpt>
      <trkpt lat="48.84197" lon="2.27203">
        <ele>21</ele>
        <time>2013-09-12T19:37:04Z</time>
      </trkpt>
      <trkpt lat="48.84196" lon="2.27206">
        <ele>28</ele>
        <time>2013-09-12T19:37:07Z</time>
      </trkpt>
      <trkpt lat="48.84194" lon="2.27211">
        <ele>30</ele>
        <time>2013-09-12T19:37:10Z</time>
      </trkpt>
      <trkpt lat="48.84193" lon="2.27216">
        <ele>27</ele>
        <time>2013-09-12T19:37:16Z</time>
      </trkpt>
      <trkpt lat="48.84195" lon="2.2721">
        <ele>28</ele>
        <time>2013-09-12T19:38:28Z</time>
      </trkpt>
      <trkpt lat="48.842" lon="2.27207">
        <ele>24</ele>
        <time>2013-09-12T19:39:08Z</time>
      </trkpt>
      <trkpt lat="48.84202" lon="2.27205">
        <ele>25</ele>
        <time>2013-09-12T19:39:10Z</time>
      </trkpt>
      <trkpt lat="48.84202" lon="2.27198">
        <ele>24</ele>
        <time>2013-09-12T19:39:15Z</time>
      </trkpt>
      <trkpt lat="48.84199" lon="2.27195">
        <ele>22</ele>
        <time>2013-09-12T19:39:17Z</time>
      </trkpt>
      <trkpt lat="48.84194" lon="2.2719">
        <ele>24</ele>
        <time>2013-09-12T19:39:44Z</time>
      </trkpt>
      <trkpt lat="48.84191" lon="2.27189">
        <ele>27</ele>
        <time>2013-09-12T19:39:49Z</time>
      </trkpt>
      <trkpt lat="48.84184" lon="2.27187">
        <ele>26</ele>
        <time>2013-09-12T19:39:55Z</time>
      </trkpt>
      <trkpt lat="48.84182" lon="2.27191">
        <ele>25</ele>
        <time>2013-09-12T19:39:57Z</time>
      </trkpt>
      <trkpt lat="48.84181" lon="2.27194">
        <ele>23</ele>
        <time>2013-09-12T19:39:59Z</time>
      </trkpt>
      <trkpt lat="48.84175" lon="2.27207">
        <ele>25</ele>
        <time>2013-09-12T19:40:06Z</time>
      </trkpt>
      <trkpt lat="48.84174" lon="2.2721">
        <ele>24</ele>
        <time>2013-09-12T19:40:08Z</time>
      </trkpt>
      <trkpt lat="48.8417" lon="2.27216">
        <ele>20</ele>
        <time>2013-09-12T19:40:13Z</time>
      </trkpt>
      <trkpt lat="48.84165" lon="2.2722">
        <ele>23</ele>
        <time>2013-09-12T19:40:19Z</time>
      </trkpt>
      <trkpt lat="48.84165" lon="2.2722">
        <ele>23</ele>
        <time>2013-09-12T19:40:23Z</time>
      </trkpt>
      <trkpt lat="48.84166" lon="2.27211">
        <ele>21</ele>
        <time>2013-09-12T19:40:30Z</time>
      </trkpt>
      <trkpt lat="48.84164" lon="2.27203">
        <ele>23</ele>
        <time>2013-09-12T19:40:38Z</time>
      </trkpt>
      <trkpt lat="48.84161" lon="2.27196">
        <ele>25</ele>
        <time>2013-09-12T19:40:52Z</time>
      </trkpt>
      <trkpt lat="48.84156" lon="2.27193">
        <ele>31</ele>
        <time>2013-09-12T19:40:57Z</time>
      </trkpt>
      <trkpt lat="48.84155" lon="2.27193">
        <ele>31</ele>
        <time>2013-09-12T19:40:58Z</time>
      </trkpt>
      <trkpt lat="48.84149" lon="2.27194">
        <ele>28</ele>
        <time>2013-09-12T19:41:02Z</time>
      </trkpt>
      <trkpt lat="48.84147" lon="2.27193">
        <ele>28</ele>
        <time>2013-09-12T19:41:04Z</time>
      </trkpt>
      <trkpt lat="48.84139" lon="2.27193">
        <ele>28</ele>
        <time>2013-09-12T19:41:19Z</time>
      </trkpt>
      <trkpt lat="48.84135" lon="2.27192">
        <ele>27</ele>
        <time>2013-09-12T19:41:22Z</time>
      </trkpt>
      <trkpt lat="48.84132" lon="2.2719">
        <ele>25</ele>
        <time>2013-09-12T19:41:24Z</time>
      </trkpt>
      <trkpt lat="48.8413" lon="2.27188">
        <ele>27</ele>
        <time>2013-09-12T19:41:26Z</time>
      </trkpt>
      <trkpt lat="48.84118" lon="2.27176">
        <ele>19</ele>
        <time>2013-09-12T19:41:36Z</time>
      </trkpt>
      <trkpt lat="48.84103" lon="2.27164">
        <ele>24</ele>
        <time>2013-09-12T19:41:44Z</time>
      </trkpt>
      <trkpt lat="48.8409" lon="2.27152">
        <ele>32</ele>
        <time>2013-09-12T19:41:55Z</time>
      </trkpt>
      <trkpt lat="48.84086" lon="2.27147">
        <ele>33</ele>
        <time>2013-09-12T19:41:59Z</time>
      </trkpt>
      <trkpt lat="48.84071" lon="2.27128">
        <ele>36</ele>
        <time>2013-09-12T19:42:16Z</time>
      </trkpt>
      <trkpt lat="48.84065" lon="2.27127">
        <ele>43</ele>
        <time>2013-09-12T19:42:30Z</time>
      </trkpt>
      <trkpt lat="48.84059" lon="2.27126">
        <ele>36</ele>
        <time>2013-09-12T19:42:38Z</time>
      </trkpt>
      <trkpt lat="48.84057" lon="2.2713">
        <ele>36</ele>
        <time>2013-09-12T19:42:52Z</time>
      </trkpt>
      <trkpt lat="48.84052" lon="2.27129">
        <ele>35</ele>
        <time>2013-09-12T19:43:10Z</time>
      </trkpt>
      <trkpt lat="48.84027" lon="2.27119">
        <ele>32</ele>
        <time>2013-09-12T19:43:27Z</time>
      </trkpt>
      <trkpt lat="48.84021" lon="2.27115">
        <ele>31</ele>
        <time>2013-09-12T19:43:30Z</time>
      </trkpt>
      <trkpt lat="48.84016" lon="2.27112">
        <ele>32</ele>
        <time>2013-09-12T19:43:34Z</time>
      </trkpt>
      <trkpt lat="48.84013" lon="2.27108">
        <ele>32</ele>
        <time>2013-09-12T19:43:41Z</time>
      </trkpt>
      <trkpt lat="48.84008" lon="2.27106">
        <ele>37</ele>
        <time>2013-09-12T19:46:31Z</time>
      </trkpt>
      <trkpt lat="48.84002" lon="2.27101">
        <ele>43</ele>
        <time>2013-09-12T19:46:37Z</time>
      </trkpt>
      <trkpt lat="48.83999" lon="2.27098">
        <ele>44</ele>
        <time>2013-09-12T19:46:44Z</time>
      </trkpt>
      <trkpt lat="48.83994" lon="2.27096">
        <ele>44</ele>
        <time>2013-09-12T19:46:47Z</time>
      </trkpt>
      <trkpt lat="48.83988" lon="2.27093">
        <ele>39</ele>
        <time>2013-09-12T19:46:55Z</time>
      </trkpt>
      <trkpt lat="48.83978" lon="2.27089">
        <ele>39</ele>
        <time>2013-09-12T19:47:04Z</time>
      </trkpt>
      <trkpt lat="48.83975" lon="2.27087">
        <ele>38</ele>
        <time>2013-09-12T19:47:05Z</time>
      </trkpt>
      <trkpt lat="48.83967" lon="2.27077">
        <ele>33</ele>
        <time>2013-09-12T19:47:11Z</time>
      </trkpt>
      <trkpt lat="48.83965" lon="2.27073">
        <ele>33</ele>
        <time>2013-09-12T19:47:13Z</time>
      </trkpt>
      <trkpt lat="48.8396" lon="2.27067">
        <ele>32</ele>
        <time>2013-09-12T19:47:16Z</time>
      </trkpt>
      <trkpt lat="48.83952" lon="2.27057">
        <ele>32</ele>
        <time>2013-09-12T19:47:23Z</time>
      </trkpt>
      <trkpt lat="48.83947" lon="2.27052">
        <ele>32</ele>
        <time>2013-09-12T19:47:28Z</time>
      </trkpt>
      <trkpt lat="48.83938" lon="2.27045">
        <ele>36</ele>
        <time>2013-09-12T19:47:33Z</time>
      </trkpt>
      <trkpt lat="48.83936" lon="2.27044">
        <ele>36</ele>
        <time>2013-09-12T19:47:34Z</time>
      </trkpt>
      <trkpt lat="48.83933" lon="2.27039">
        <ele>35</ele>
        <time>2013-09-12T19:47:36Z</time>
      </trkpt>
      <trkpt lat="48.83931" lon="2.27037">
        <ele>35</ele>
        <time>2013-09-12T19:47:37Z</time>
      </trkpt>
      <trkpt lat="48.83918" lon="2.27027">
        <ele>34</ele>
        <time>2013-09-12T19:47:45Z</time>
      </trkpt>
      <trkpt lat="48.83914" lon="2.27026">
        <ele>34</ele>
        <time>2013-09-12T19:47:47Z</time>
      </trkpt>
      <trkpt lat="48.83911" lon="2.27022">
        <ele>38</ele>
        <time>2013-09-12T19:47:49Z</time>
      </trkpt>
      <trkpt lat="48.83906" lon="2.2702">
        <ele>39</ele>
        <time>2013-09-12T19:47:52Z</time>
      </trkpt>
      <trkpt lat="48.83902" lon="2.27018">
        <ele>39</ele>
        <time>2013-09-12T19:47:55Z</time>
      </trkpt>
      <trkpt lat="48.83898" lon="2.27015">
        <ele>34</ele>
        <time>2013-09-12T19:47:58Z</time>
      </trkpt>
      <trkpt lat="48.83892" lon="2.27015">
        <ele>38</ele>
        <time>2013-09-12T19:48:01Z</time>
      </trkpt>
      <trkpt lat="48.83886" lon="2.27014">
        <ele>33</ele>
        <time>2013-09-12T19:48:05Z</time>
      </trkpt>
      <trkpt lat="48.83881" lon="2.27011">
        <ele>41</ele>
        <time>2013-09-12T19:48:09Z</time>
      </trkpt>
      <trkpt lat="48.8388" lon="2.27011">
        <ele>41</ele>
        <time>2013-09-12T19:48:11Z</time>
      </trkpt>
      <trkpt lat="48.83874" lon="2.27011">
        <ele>41</ele>
        <time>2013-09-12T19:48:22Z</time>
      </trkpt>
      <trkpt lat="48.8387" lon="2.27017">
        <ele>41</ele>
        <time>2013-09-12T19:48:34Z</time>
      </trkpt>
      <trkpt lat="48.83872" lon="2.27024">
        <ele>38</ele>
        <time>2013-09-12T19:48:38Z</time>
      </trkpt>
      <trkpt lat="48.83873" lon="2.27035">
        <ele>44</ele>
        <time>2013-09-12T19:48:44Z</time>
      </trkpt>
      <trkpt lat="48.83869" lon="2.27042">
        <ele>38</ele>
        <time>2013-09-12T19:48:47Z</time>
      </trkpt>
      <trkpt lat="48.83862" lon="2.27055">
        <ele>37</ele>
        <time>2013-09-12T19:48:53Z</time>
      </trkpt>
      <trkpt lat="48.83858" lon="2.27061">
        <ele>40</ele>
        <time>2013-09-12T19:48:57Z</time>
      </trkpt>
      <trkpt lat="48.83855" lon="2.27068">
        <ele>44</ele>
        <time>2013-09-12T19:49:00Z</time>
      </trkpt>
      <trkpt lat="48.83845" lon="2.27095">
        <ele>44</ele>
        <time>2013-09-12T19:49:09Z</time>
      </trkpt>
      <trkpt lat="48.83841" lon="2.27102">
        <ele>40</ele>
        <time>2013-09-12T19:49:12Z</time>
      </trkpt>
      <trkpt lat="48.83831" lon="2.27118">
        <ele>35</ele>
        <time>2013-09-12T19:49:19Z</time>
      </trkpt>
      <trkpt lat="48.83829" lon="2.2712">
        <ele>37</ele>
        <time>2013-09-12T19:49:20Z</time>
      </trkpt>
      <trkpt lat="48.83825" lon="2.27128">
        <ele>38</ele>
        <time>2013-09-12T19:49:23Z</time>
      </trkpt>
      <trkpt lat="48.83813" lon="2.27153">
        <ele>42</ele>
        <time>2013-09-12T19:49:30Z</time>
      </trkpt>
      <trkpt lat="48.8381" lon="2.27164">
        <ele>40</ele>
        <time>2013-09-12T19:49:32Z</time>
      </trkpt>
      <trkpt lat="48.83805" lon="2.27173">
        <ele>41</ele>
        <time>2013-09-12T19:49:34Z</time>
      </trkpt>
      <trkpt lat="48.83801" lon="2.27185">
        <ele>47</ele>
        <time>2013-09-12T19:49:36Z</time>
      </trkpt>
      <trkpt lat="48.83769" lon="2.27265">
        <ele>37</ele>
        <time>2013-09-12T19:49:50Z</time>
      </trkpt>
      <trkpt lat="48.83762" lon="2.27278">
        <ele>32</ele>
        <time>2013-09-12T19:49:52Z</time>
      </trkpt>
      <trkpt lat="48.83752" lon="2.273">
        <ele>31</ele>
        <time>2013-09-12T19:49:55Z</time>
      </trkpt>
      <trkpt lat="48.83745" lon="2.27313">
        <ele>29</ele>
        <time>2013-09-12T19:49:57Z</time>
      </trkpt>
      <trkpt lat="48.83744" lon="2.27322">
        <ele>32</ele>
        <time>2013-09-12T19:49:58Z</time>
      </trkpt>
      <trkpt lat="48.83741" lon="2.27332">
        <ele>34</ele>
        <time>2013-09-12T19:49:59Z</time>
      </trkpt>
      <trkpt lat="48.83732" lon="2.27359">
        <ele>32</ele>
        <time>2013-09-12T19:50:02Z</time>
      </trkpt>
      <trkpt lat="48.83729" lon="2.27367">
        <ele>33</ele>
        <time>2013-09-12T19:50:03Z</time>
      </trkpt>
      <trkpt lat="48.83719" lon="2.27399">
        <ele>33</ele>
        <time>2013-09-12T19:50:07Z</time>
      </trkpt>
      <trkpt lat="48.83714" lon="2.27415">
        <ele>34</ele>
        <time>2013-09-12T19:50:09Z</time>
      </trkpt>
      <trkpt lat="48.83706" lon="2.27444">
        <ele>36</ele>
        <time>2013-09-12T19:50:13Z</time>
      </trkpt>
      <trkpt lat="48.83704" lon="2.27455">
        <ele>33</ele>
        <time>2013-09-12T19:50:15Z</time>
      </trkpt>
      <trkpt lat="48.83702" lon="2.2747">
        <ele>31</ele>
        <time>2013-09-12T19:50:18Z</time>
      </trkpt>
      <trkpt lat="48.83702" lon="2.27478">
        <ele>36</ele>
        <time>2013-09-12T19:50:23Z</time>
      </trkpt>
      <trkpt lat="48.837" lon="2.27487">
        <ele>23</ele>
        <time>2013-09-12T19:50:28Z</time>
      </trkpt>
      <trkpt lat="48.83693" lon="2.27516">
        <ele>22</ele>
        <time>2013-09-12T19:50:36Z</time>
      </trkpt>
      <trkpt lat="48.8369" lon="2.27525">
        <ele>15</ele>
        <time>2013-09-12T19:50:38Z</time>
      </trkpt>
      <trkpt lat="48.83682" lon="2.27554">
        <ele>19</ele>
        <time>2013-09-12T19:50:44Z</time>
      </trkpt>
      <trkpt lat="48.83679" lon="2.27564">
        <ele>18</ele>
        <time>2013-09-12T19:50:46Z</time>
      </trkpt>
      <trkpt lat="48.83672" lon="2.27584">
        <ele>47</ele>
        <time>2013-09-12T19:50:51Z</time>
      </trkpt>
      <trkpt lat="48.83667" lon="2.27587">
        <ele>53</ele>
        <time>2013-09-12T19:50:53Z</time>
      </trkpt>
      <trkpt lat="48.83662" lon="2.27592">
        <ele>55</ele>
        <time>2013-09-12T19:50:55Z</time>
      </trkpt>
      <trkpt lat="48.83658" lon="2.27599">
        <ele>51</ele>
        <time>2013-09-12T19:50:57Z</time>
      </trkpt>
      <trkpt lat="48.83654" lon="2.2761">
        <ele>50</ele>
        <time>2013-09-12T19:50:59Z</time>
      </trkpt>
      <trkpt lat="48.83646" lon="2.2762">
        <ele>53</ele>
        <time>2013-09-12T19:51:01Z</time>
      </trkpt>
      <trkpt lat="48.83641" lon="2.27631">
        <ele>55</ele>
        <time>2013-09-12T19:51:03Z</time>
      </trkpt>
      <trkpt lat="48.83638" lon="2.27642">
        <ele>62</ele>
        <time>2013-09-12T19:51:05Z</time>
      </trkpt>
      <trkpt lat="48.83636" lon="2.27654">
        <ele>65</ele>
        <time>2013-09-12T19:51:07Z</time>
      </trkpt>
      <trkpt lat="48.83628" lon="2.27712">
        <ele>64</ele>
        <time>2013-09-12T19:51:16Z</time>
      </trkpt>
      <trkpt lat="48.83623" lon="2.27736">
        <ele>59</ele>
        <time>2013-09-12T19:51:21Z</time>
      </trkpt>
      <trkpt lat="48.8362" lon="2.27746">
        <ele>56</ele>
        <time>2013-09-12T19:51:23Z</time>
      </trkpt>
      <trkpt lat="48.83618" lon="2.27757">
        <ele>53</ele>
        <time>2013-09-12T19:51:25Z</time>
      </trkpt>
      <trkpt lat="48.83611" lon="2.27779">
        <ele>47</ele>
        <time>2013-09-12T19:51:31Z</time>
      </trkpt>
      <trkpt lat="48.8361" lon="2.27791">
        <ele>57</ele>
        <time>2013-09-12T19:51:34Z</time>
      </trkpt>
      <trkpt lat="48.83611" lon="2.27799">
        <ele>63</ele>
        <time>2013-09-12T19:51:36Z</time>
      </trkpt>
      <trkpt lat="48.83615" lon="2.27797">
        <ele>58</ele>
        <time>2013-09-12T19:52:00Z</time>
      </trkpt>
      <trkpt lat="48.83614" lon="2.27811">
        <ele>52</ele>
        <time>2013-09-12T19:52:17Z</time>
      </trkpt>
      <trkpt lat="48.83608" lon="2.27837">
        <ele>52</ele>
        <time>2013-09-12T19:52:30Z</time>
      </trkpt>
      <trkpt lat="48.83605" lon="2.27843">
        <ele>37</ele>
        <time>2013-09-12T19:52:51Z</time>
      </trkpt>
      <trkpt lat="48.83606" lon="2.27832">
        <ele>57</ele>
        <time>2013-09-12T19:53:58Z</time>
      </trkpt>
      <trkpt lat="48.8361" lon="2.27828">
        <ele>43</ele>
        <time>2013-09-12T19:54:10Z</time>
      </trkpt>
      <trkpt lat="48.83606" lon="2.27831">
        <ele>46</ele>
        <time>2013-09-12T19:54:27Z</time>
      </trkpt>
      <trkpt lat="48.8361" lon="2.27837">
        <ele>60</ele>
        <time>2013-09-12T19:55:39Z</time>
      </trkpt>
      <trkpt lat="48.83617" lon="2.27843">
        <ele>56</ele>
        <time>2013-09-12T19:55:44Z</time>
      </trkpt>
      <trkpt lat="48.83625" lon="2.27853">
        <ele>51</ele>
        <time>2013-09-12T19:55:57Z</time>
      </trkpt>
      <trkpt lat="48.83627" lon="2.27861">
        <ele>49</ele>
        <time>2013-09-12T19:56:07Z</time>
      </trkpt>
      <trkpt lat="48.83623" lon="2.27868">
        <ele>32</ele>
        <time>2013-09-12T19:56:21Z</time>
      </trkpt>
      <trkpt lat="48.83623" lon="2.27875">
        <ele>31</ele>
        <time>2013-09-12T19:56:23Z</time>
      </trkpt>
      <trkpt lat="48.8362" lon="2.27885">
        <ele>37</ele>
        <time>2013-09-12T19:56:26Z</time>
      </trkpt>
      <trkpt lat="48.83616" lon="2.27893">
        <ele>37</ele>
        <time>2013-09-12T19:56:29Z</time>
      </trkpt>
      <trkpt lat="48.83611" lon="2.27898">
        <ele>29</ele>
        <time>2013-09-12T19:56:31Z</time>
      </trkpt>
      <trkpt lat="48.83608" lon="2.27904">
        <ele>27</ele>
        <time>2013-09-12T19:56:33Z</time>
      </trkpt>
      <trkpt lat="48.83605" lon="2.27914">
        <ele>29</ele>
        <time>2013-09-12T19:56:36Z</time>
      </trkpt>
      <trkpt lat="48.83604" lon="2.27922">
        <ele>26</ele>
        <time>2013-09-12T19:56:38Z</time>
      </trkpt>
      <trkpt lat="48.83602" lon="2.27932">
        <ele>27</ele>
        <time>2013-09-12T19:56:40Z</time>
      </trkpt>
      <trkpt lat="48.83595" lon="2.27961">
        <ele>22</ele>
        <time>2013-09-12T19:56:45Z</time>
      </trkpt>
      <trkpt lat="48.83586" lon="2.2799">
        <ele>23</ele>
        <time>2013-09-12T19:56:51Z</time>
      </trkpt>
      <trkpt lat="48.83581" lon="2.28001">
        <ele>27</ele>
        <time>2013-09-12T19:56:54Z</time>
      </trkpt>
      <trkpt lat="48.83577" lon="2.28011">
        <ele>29</ele>
        <time>2013-09-12T19:56:55Z</time>
      </trkpt>
      <trkpt lat="48.83573" lon="2.28021">
        <ele>33</ele>
        <time>2013-09-12T19:56:57Z</time>
      </trkpt>
      <trkpt lat="48.83569" lon="2.28032">
        <ele>34</ele>
        <time>2013-09-12T19:56:59Z</time>
      </trkpt>
      <trkpt lat="48.83551" lon="2.28084">
        <ele>29</ele>
        <time>2013-09-12T19:57:12Z</time>
      </trkpt>
      <trkpt lat="48.8355" lon="2.28093">
        <ele>26</ele>
        <time>2013-09-12T19:57:15Z</time>
      </trkpt>
      <trkpt lat="48.83546" lon="2.28098">
        <ele>29</ele>
        <time>2013-09-12T19:57:25Z</time>
      </trkpt>
      <trkpt lat="48.83543" lon="2.28105">
        <ele>34</ele>
        <time>2013-09-12T19:57:29Z</time>
      </trkpt>
      <trkpt lat="48.83541" lon="2.28112">
        <ele>29</ele>
        <time>2013-09-12T19:57:33Z</time>
      </trkpt>
      <trkpt lat="48.83538" lon="2.2812">
        <ele>35</ele>
        <time>2013-09-12T19:57:37Z</time>
      </trkpt>
      <trkpt lat="48.8352" lon="2.28174">
        <ele>40</ele>
        <time>2013-09-12T19:57:52Z</time>
      </trkpt>
      <trkpt lat="48.83516" lon="2.28189">
        <ele>37</ele>
        <time>2013-09-12T19:57:55Z</time>
      </trkpt>
      <trkpt lat="48.83511" lon="2.28199">
        <ele>36</ele>
        <time>2013-09-12T19:57:57Z</time>
      </trkpt>
      <trkpt lat="48.83509" lon="2.28209">
        <ele>35</ele>
        <time>2013-09-12T19:57:59Z</time>
      </trkpt>
      <trkpt lat="48.83499" lon="2.28239">
        <ele>39</ele>
        <time>2013-09-12T19:58:05Z</time>
      </trkpt>
      <trkpt lat="48.83499" lon="2.2825">
        <ele>34</ele>
        <time>2013-09-12T19:58:07Z</time>
      </trkpt>
      <trkpt lat="48.83497" lon="2.28262">
        <ele>36</ele>
        <time>2013-09-12T19:58:09Z</time>
      </trkpt>
      <trkpt lat="48.83494" lon="2.28272">
        <ele>36</ele>
        <time>2013-09-12T19:58:11Z</time>
      </trkpt>
      <trkpt lat="48.8347" lon="2.28329">
        <ele>32</ele>
        <time>2013-09-12T19:58:21Z</time>
      </trkpt>
      <trkpt lat="48.83469" lon="2.2834">
        <ele>35</ele>
        <time>2013-09-12T19:58:23Z</time>
      </trkpt>
      <trkpt lat="48.83463" lon="2.28362">
        <ele>32</ele>
        <time>2013-09-12T19:58:28Z</time>
      </trkpt>
      <trkpt lat="48.8346" lon="2.28368">
        <ele>31</ele>
        <time>2013-09-12T19:58:30Z</time>
      </trkpt>
      <trkpt lat="48.83456" lon="2.28376">
        <ele>31</ele>
        <time>2013-09-12T19:58:32Z</time>
      </trkpt>
      <trkpt lat="48.83452" lon="2.28386">
        <ele>30</ele>
        <time>2013-09-12T19:58:34Z</time>
      </trkpt>
      <trkpt lat="48.83449" lon="2.28394">
        <ele>39</ele>
        <time>2013-09-12T19:58:36Z</time>
      </trkpt>
      <trkpt lat="48.83446" lon="2.28401">
        <ele>44</ele>
        <time>2013-09-12T19:58:38Z</time>
      </trkpt>
      <trkpt lat="48.83443" lon="2.28407">
        <ele>41</ele>
        <time>2013-09-12T19:58:40Z</time>
      </trkpt>
      <trkpt lat="48.83408" lon="2.28483">
        <ele>41</ele>
        <time>2013-09-12T19:59:00Z</time>
      </trkpt>
      <trkpt lat="48.83406" lon="2.28494">
        <ele>44</ele>
        <time>2013-09-12T19:59:02Z</time>
      </trkpt>
      <trkpt lat="48.83402" lon="2.28505">
        <ele>39</ele>
        <time>2013-09-12T19:59:05Z</time>
      </trkpt>
      <trkpt lat="48.83396" lon="2.28514">
        <ele>37</ele>
        <time>2013-09-12T19:59:08Z</time>
      </trkpt>
      <trkpt lat="48.8339" lon="2.28526">
        <ele>34</ele>
        <time>2013-09-12T19:59:12Z</time>
      </trkpt>
      <trkpt lat="48.83388" lon="2.28534">
        <ele>35</ele>
        <time>2013-09-12T19:59:14Z</time>
      </trkpt>
      <trkpt lat="48.83378" lon="2.28564">
        <ele>34</ele>
        <time>2013-09-12T19:59:19Z</time>
      </trkpt>
      <trkpt lat="48.83374" lon="2.28577">
        <ele>35</ele>
        <time>2013-09-12T19:59:21Z</time>
      </trkpt>
      <trkpt lat="48.83367" lon="2.28606">
        <ele>27</ele>
        <time>2013-09-12T19:59:25Z</time>
      </trkpt>
      <trkpt lat="48.83362" lon="2.28617">
        <ele>27</ele>
        <time>2013-09-12T19:59:27Z</time>
      </trkpt>
      <trkpt lat="48.83359" lon="2.28625">
        <ele>22</ele>
        <time>2013-09-12T19:59:29Z</time>
      </trkpt>
      <trkpt lat="48.83354" lon="2.28644">
        <ele>16</ele>
        <time>2013-09-12T19:59:34Z</time>
      </trkpt>
      <trkpt lat="48.83356" lon="2.28658">
        <ele>23</ele>
        <time>2013-09-12T19:59:52Z</time>
      </trkpt>
      <trkpt lat="48.83355" lon="2.28667">
        <ele>10</ele>
        <time>2013-09-12T20:00:01Z</time>
      </trkpt>
      <trkpt lat="48.8335" lon="2.28665">
        <ele>34</ele>
        <time>2013-09-12T20:00:19Z</time>
      </trkpt>
      <trkpt lat="48.83345" lon="2.28674">
        <ele>34</ele>
        <time>2013-09-12T20:00:22Z</time>
      </trkpt>
      <trkpt lat="48.83342" lon="2.28681">
        <ele>30</ele>
        <time>2013-09-12T20:00:24Z</time>
      </trkpt>
      <trkpt lat="48.83331" lon="2.28705">
        <ele>30</ele>
        <time>2013-09-12T20:00:31Z</time>
      </trkpt>
      <trkpt lat="48.83329" lon="2.28712">
        <ele>32</ele>
        <time>2013-09-12T20:00:33Z</time>
      </trkpt>
      <trkpt lat="48.83322" lon="2.28719">
        <ele>31</ele>
        <time>2013-09-12T20:00:35Z</time>
      </trkpt>
      <trkpt lat="48.83318" lon="2.28727">
        <ele>29</ele>
        <time>2013-09-12T20:00:37Z</time>
      </trkpt>
      <trkpt lat="48.83315" lon="2.28736">
        <ele>29</ele>
        <time>2013-09-12T20:00:39Z</time>
      </trkpt>
      <trkpt lat="48.83296" lon="2.28785">
        <ele>26</ele>
        <time>2013-09-12T20:00:50Z</time>
      </trkpt>
      <trkpt lat="48.8329" lon="2.28805">
        <ele>28</ele>
        <time>2013-09-12T20:00:55Z</time>
      </trkpt>
      <trkpt lat="48.83285" lon="2.28818">
        <ele>22</ele>
        <time>2013-09-12T20:00:59Z</time>
      </trkpt>
      <trkpt lat="48.83281" lon="2.28833">
        <ele>26</ele>
        <time>2013-09-12T20:01:04Z</time>
      </trkpt>
      <trkpt lat="48.83283" lon="2.28841">
        <ele>26</ele>
        <time>2013-09-12T20:01:07Z</time>
      </trkpt>
      <trkpt lat="48.83282" lon="2.28848">
        <ele>37</ele>
        <time>2013-09-12T20:01:16Z</time>
      </trkpt>
      <trkpt lat="48.83283" lon="2.2886">
        <ele>36</ele>
        <time>2013-09-12T20:01:19Z</time>
      </trkpt>
      <trkpt lat="48.83288" lon="2.28867">
        <ele>37</ele>
        <time>2013-09-12T20:01:22Z</time>
      </trkpt>
      <trkpt lat="48.83291" lon="2.28874">
        <ele>35</ele>
        <time>2013-09-12T20:01:24Z</time>
      </trkpt>
      <trkpt lat="48.83299" lon="2.28886">
        <ele>41</ele>
        <time>2013-09-12T20:01:28Z</time>
      </trkpt>
      <trkpt lat="48.83314" lon="2.28906">
        <ele>36</ele>
        <time>2013-09-12T20:01:34Z</time>
      </trkpt>
      <trkpt lat="48.83321" lon="2.28914">
        <ele>41</ele>
        <time>2013-09-12T20:01:37Z</time>
      </trkpt>
      <trkpt lat="48.83337" lon="2.28933">
        <ele>39</ele>
        <time>2013-09-12T20:01:43Z</time>
      </trkpt>
      <trkpt lat="48.83344" lon="2.28942">
        <ele>44</ele>
        <time>2013-09-12T20:01:46Z</time>
      </trkpt>
      <trkpt lat="48.83346" lon="2.28953">
        <ele>42</ele>
        <time>2013-09-12T20:01:49Z</time>
      </trkpt>
      <trkpt lat="48.83349" lon="2.28961">
        <ele>43</ele>
        <time>2013-09-12T20:01:51Z</time>
      </trkpt>
      <trkpt lat="48.83352" lon="2.28972">
        <ele>44</ele>
        <time>2013-09-12T20:01:54Z</time>
      </trkpt>
      <trkpt lat="48.83355" lon="2.28978">
        <ele>44</ele>
        <time>2013-09-12T20:01:56Z</time>
      </trkpt>
      <trkpt lat="48.83361" lon="2.28985">
        <ele>49</ele>
        <time>2013-09-12T20:01:59Z</time>
      </trkpt>
      <trkpt lat="48.83368" lon="2.28997">
        <ele>47</ele>
        <time>2013-09-12T20:02:04Z</time>
      </trkpt>
      <trkpt lat="48.83372" lon="2.29005">
        <ele>41</ele>
        <time>2013-09-12T20:02:06Z</time>
      </trkpt>
      <trkpt lat="48.83381" lon="2.2902">
        <ele>37</ele>
        <time>2013-09-12T20:02:10Z</time>
      </trkpt>
      <trkpt lat="48.83386" lon="2.29026">
        <ele>34</ele>
        <time>2013-09-12T20:02:12Z</time>
      </trkpt>
      <trkpt lat="48.83404" lon="2.29043">
        <ele>44</ele>
        <time>2013-09-12T20:02:17Z</time>
      </trkpt>
      <trkpt lat="48.83411" lon="2.29053">
        <ele>37</ele>
        <time>2013-09-12T20:02:23Z</time>
      </trkpt>
      <trkpt lat="48.83414" lon="2.2906">
        <ele>33</ele>
        <time>2013-09-12T20:02:26Z</time>
      </trkpt>
      <trkpt lat="48.83419" lon="2.29067">
        <ele>30</ele>
        <time>2013-09-12T20:02:28Z</time>
      </trkpt>
      <trkpt lat="48.83468" lon="2.29131">
        <ele>36</ele>
        <time>2013-09-12T20:02:42Z</time>
      </trkpt>
      <trkpt lat="48.83473" lon="2.29137">
        <ele>41</ele>
        <time>2013-09-12T20:02:44Z</time>
      </trkpt>
      <trkpt lat="48.83481" lon="2.29149">
        <ele>42</ele>
        <time>2013-09-12T20:02:47Z</time>
      </trkpt>
      <trkpt lat="48.83489" lon="2.29157">
        <ele>47</ele>
        <time>2013-09-12T20:02:49Z</time>
      </trkpt>
      <trkpt lat="48.83495" lon="2.29165">
        <ele>47</ele>
        <time>2013-09-12T20:02:51Z</time>
      </trkpt>
      <trkpt lat="48.83499" lon="2.29174">
        <ele>42</ele>
        <time>2013-09-12T20:02:53Z</time>
      </trkpt>
      <trkpt lat="48.83502" lon="2.29189">
        <ele>44</ele>
        <time>2013-09-12T20:02:57Z</time>
      </trkpt>
      <trkpt lat="48.83505" lon="2.29198">
        <ele>46</ele>
        <time>2013-09-12T20:03:00Z</time>
      </trkpt>
      <trkpt lat="48.83508" lon="2.29204">
        <ele>47</ele>
        <time>2013-09-12T20:03:02Z</time>
      </trkpt>
      <trkpt lat="48.83513" lon="2.29211">
        <ele>43</ele>
        <time>2013-09-12T20:03:04Z</time>
      </trkpt>
      <trkpt lat="48.83527" lon="2.29231">
        <ele>49</ele>
        <time>2013-09-12T20:03:10Z</time>
      </trkpt>
      <trkpt lat="48.8353" lon="2.29237">
        <ele>50</ele>
        <time>2013-09-12T20:03:12Z</time>
      </trkpt>
      <trkpt lat="48.83533" lon="2.29245">
        <ele>43</ele>
        <time>2013-09-12T20:03:14Z</time>
      </trkpt>
      <trkpt lat="48.83531" lon="2.29255">
        <ele>42</ele>
        <time>2013-09-12T20:03:20Z</time>
      </trkpt>
      <trkpt lat="48.83537" lon="2.29252">
        <ele>47</ele>
        <time>2013-09-12T20:03:23Z</time>
      </trkpt>
      <trkpt lat="48.83541" lon="2.29255">
        <ele>47</ele>
        <time>2013-09-12T20:03:25Z</time>
      </trkpt>
      <trkpt lat="48.83545" lon="2.29261">
        <ele>42</ele>
        <time>2013-09-12T20:03:27Z</time>
      </trkpt>
      <trkpt lat="48.83549" lon="2.2927">
        <ele>43</ele>
        <time>2013-09-12T20:03:30Z</time>
      </trkpt>
      <trkpt lat="48.8356" lon="2.29295">
        <ele>58</ele>
        <time>2013-09-12T20:03:37Z</time>
      </trkpt>
      <trkpt lat="48.83563" lon="2.29301">
        <ele>54</ele>
        <time>2013-09-12T20:03:39Z</time>
      </trkpt>
      <trkpt lat="48.83578" lon="2.29323">
        <ele>49</ele>
        <time>2013-09-12T20:03:47Z</time>
      </trkpt>
      <trkpt lat="48.83582" lon="2.29329">
        <ele>48</ele>
        <time>2013-09-12T20:03:49Z</time>
      </trkpt>
      <trkpt lat="48.83588" lon="2.29341">
        <ele>46</ele>
        <time>2013-09-12T20:03:53Z</time>
      </trkpt>
      <trkpt lat="48.83598" lon="2.29366">
        <ele>50</ele>
        <time>2013-09-12T20:04:03Z</time>
      </trkpt>
      <trkpt lat="48.836" lon="2.29379">
        <ele>49</ele>
        <time>2013-09-12T20:04:07Z</time>
      </trkpt>
      <trkpt lat="48.83602" lon="2.29388">
        <ele>42</ele>
        <time>2013-09-12T20:04:11Z</time>
      </trkpt>
      <trkpt lat="48.83605" lon="2.29394">
        <ele>47</ele>
        <time>2013-09-12T20:04:14Z</time>
      </trkpt>
      <trkpt lat="48.83609" lon="2.29404">
        <ele>48</ele>
        <time>2013-09-12T20:04:16Z</time>
      </trkpt>
      <trkpt lat="48.83614" lon="2.29415">
        <ele>49</ele>
        <time>2013-09-12T20:04:18Z</time>
      </trkpt>
      <trkpt lat="48.83617" lon="2.29427">
        <ele>46</ele>
        <time>2013-09-12T20:04:20Z</time>
      </trkpt>
      <trkpt lat="48.83626" lon="2.29455">
        <ele>46</ele>
        <time>2013-09-12T20:04:24Z</time>
      </trkpt>
      <trkpt lat="48.8363" lon="2.29462">
        <ele>48</ele>
        <time>2013-09-12T20:04:25Z</time>
      </trkpt>
      <trkpt lat="48.83635" lon="2.2947">
        <ele>46</ele>
        <time>2013-09-12T20:04:26Z</time>
      </trkpt>
      <trkpt lat="48.83671" lon="2.29527">
        <ele>46</ele>
        <time>2013-09-12T20:04:32Z</time>
      </trkpt>
      <trkpt lat="48.83679" lon="2.29536">
        <ele>44</ele>
        <time>2013-09-12T20:04:33Z</time>
      </trkpt>
      <trkpt lat="48.83687" lon="2.29543">
        <ele>48</ele>
        <time>2013-09-12T20:04:34Z</time>
      </trkpt>
      <trkpt lat="48.83705" lon="2.29564">
        <ele>49</ele>
        <time>2013-09-12T20:04:37Z</time>
      </trkpt>
      <trkpt lat="48.83711" lon="2.29576">
        <ele>51</ele>
        <time>2013-09-12T20:04:39Z</time>
      </trkpt>
      <trkpt lat="48.83713" lon="2.29585">
        <ele>49</ele>
        <time>2013-09-12T20:04:40Z</time>
      </trkpt>
      <trkpt lat="48.83713" lon="2.29596">
        <ele>47</ele>
        <time>2013-09-12T20:04:41Z</time>
      </trkpt>
      <trkpt lat="48.83716" lon="2.29624">
        <ele>48</ele>
        <time>2013-09-12T20:04:46Z</time>
      </trkpt>
      <trkpt lat="48.83718" lon="2.29632">
        <ele>50</ele>
        <time>2013-09-12T20:04:48Z</time>
      </trkpt>
      <trkpt lat="48.83722" lon="2.29644">
        <ele>48</ele>
        <time>2013-09-12T20:04:52Z</time>
      </trkpt>
      <trkpt lat="48.8372" lon="2.29652">
        <ele>42</ele>
        <time>2013-09-12T20:05:27Z</time>
      </trkpt>
      <trkpt lat="48.83716" lon="2.29657">
        <ele>41</ele>
        <time>2013-09-12T20:05:37Z</time>
      </trkpt>
      <trkpt lat="48.83709" lon="2.29658">
        <ele>43</ele>
        <time>2013-09-12T20:05:45Z</time>
      </trkpt>
      <trkpt lat="48.83713" lon="2.2965">
        <ele>45</ele>
        <time>2013-09-12T20:05:50Z</time>
      </trkpt>
      <trkpt lat="48.83719" lon="2.29655">
        <ele>47</ele>
        <time>2013-09-12T20:05:54Z</time>
      </trkpt>
      <trkpt lat="48.83724" lon="2.29662">
        <ele>45</ele>
        <time>2013-09-12T20:05:58Z</time>
      </trkpt>
      <trkpt lat="48.83728" lon="2.29673">
        <ele>44</ele>
        <time>2013-09-12T20:06:05Z</time>
      </trkpt>
      <trkpt lat="48.83731" lon="2.2968">
        <ele>45</ele>
        <time>2013-09-12T20:06:09Z</time>
      </trkpt>
      <trkpt lat="48.83735" lon="2.29685">
        <ele>45</ele>
        <time>2013-09-12T20:06:11Z</time>
      </trkpt>
      <trkpt lat="48.83739" lon="2.29694">
        <ele>46</ele>
        <time>2013-09-12T20:06:14Z</time>
      </trkpt>
      <trkpt lat="48.8375" lon="2.29711">
        <ele>45</ele>
        <time>2013-09-12T20:06:20Z</time>
      </trkpt>
      <trkpt lat="48.83755" lon="2.29715">
        <ele>44</ele>
        <time>2013-09-12T20:06:22Z</time>
      </trkpt>
      <trkpt lat="48.8376" lon="2.29719">
        <ele>44</ele>
        <time>2013-09-12T20:06:24Z</time>
      </trkpt>
      <trkpt lat="48.83781" lon="2.29734">
        <ele>47</ele>
        <time>2013-09-12T20:06:32Z</time>
      </trkpt>
      <trkpt lat="48.83786" lon="2.2974">
        <ele>47</ele>
        <time>2013-09-12T20:06:36Z</time>
      </trkpt>
      <trkpt lat="48.83786" lon="2.29748">
        <ele>48</ele>
        <time>2013-09-12T20:06:40Z</time>
      </trkpt>
      <trkpt lat="48.8379" lon="2.29755">
        <ele>44</ele>
        <time>2013-09-12T20:06:43Z</time>
      </trkpt>
      <trkpt lat="48.83795" lon="2.29768">
        <ele>47</ele>
        <time>2013-09-12T20:06:48Z</time>
      </trkpt>
      <trkpt lat="48.83796" lon="2.29777">
        <ele>44</ele>
        <time>2013-09-12T20:06:51Z</time>
      </trkpt>
      <trkpt lat="48.83798" lon="2.29784">
        <ele>39</ele>
        <time>2013-09-12T20:06:54Z</time>
      </trkpt>
      <trkpt lat="48.83806" lon="2.29799">
        <ele>45</ele>
        <time>2013-09-12T20:07:02Z</time>
      </trkpt>
      <trkpt lat="48.83832" lon="2.29849">
        <ele>45</ele>
        <time>2013-09-12T20:07:19Z</time>
      </trkpt>
      <trkpt lat="48.8384" lon="2.29863">
        <ele>46</ele>
        <time>2013-09-12T20:07:22Z</time>
      </trkpt>
      <trkpt lat="48.83845" lon="2.29869">
        <ele>46</ele>
        <time>2013-09-12T20:07:24Z</time>
      </trkpt>
      <trkpt lat="48.83857" lon="2.29883">
        <ele>44</ele>
        <time>2013-09-12T20:07:30Z</time>
      </trkpt>
      <trkpt lat="48.83872" lon="2.29899">
        <ele>46</ele>
        <time>2013-09-12T20:07:38Z</time>
      </trkpt>
      <trkpt lat="48.83876" lon="2.29904">
        <ele>46</ele>
        <time>2013-09-12T20:07:40Z</time>
      </trkpt>
      <trkpt lat="48.83885" lon="2.2992">
        <ele>46</ele>
        <time>2013-09-12T20:07:44Z</time>
      </trkpt>
      <trkpt lat="48.83891" lon="2.29934">
        <ele>45</ele>
        <time>2013-09-12T20:07:47Z</time>
      </trkpt>
      <trkpt lat="48.83894" lon="2.29942">
        <ele>47</ele>
        <time>2013-09-12T20:07:49Z</time>
      </trkpt>
      <trkpt lat="48.83905" lon="2.2997">
        <ele>48</ele>
        <time>2013-09-12T20:07:55Z</time>
      </trkpt>
      <trkpt lat="48.8391" lon="2.2998">
        <ele>46</ele>
        <time>2013-09-12T20:07:57Z</time>
      </trkpt>
      <trkpt lat="48.83915" lon="2.29989">
        <ele>44</ele>
        <time>2013-09-12T20:07:59Z</time>
      </trkpt>
      <trkpt lat="48.83922" lon="2.30004">
        <ele>49</ele>
        <time>2013-09-12T20:08:04Z</time>
      </trkpt>
      <trkpt lat="48.83925" lon="2.30013">
        <ele>51</ele>
        <time>2013-09-12T20:08:07Z</time>
      </trkpt>
      <trkpt lat="48.83925" lon="2.30023">
        <ele>53</ele>
        <time>2013-09-12T20:08:10Z</time>
      </trkpt>
      <trkpt lat="48.83926" lon="2.30033">
        <ele>52</ele>
        <time>2013-09-12T20:08:13Z</time>
      </trkpt>
      <trkpt lat="48.83928" lon="2.30045">
        <ele>45</ele>
        <time>2013-09-12T20:08:17Z</time>
      </trkpt>
      <trkpt lat="48.8393" lon="2.30052">
        <ele>46</ele>
        <time>2013-09-12T20:08:19Z</time>
      </trkpt>
      <trkpt lat="48.83938" lon="2.3008">
        <ele>43</ele>
        <time>2013-09-12T20:08:26Z</time>
      </trkpt>
      <trkpt lat="48.83942" lon="2.3009">
        <ele>44</ele>
        <time>2013-09-12T20:08:29Z</time>
      </trkpt>
      <trkpt lat="48.83947" lon="2.30113">
        <ele>50</ele>
        <time>2013-09-12T20:08:49Z</time>
      </trkpt>
      <trkpt lat="48.83948" lon="2.30131">
        <ele>45</ele>
        <time>2013-09-12T20:08:54Z</time>
      </trkpt>
      <trkpt lat="48.8396" lon="2.30155">
        <ele>47</ele>
        <time>2013-09-12T20:09:04Z</time>
      </trkpt>
      <trkpt lat="48.83962" lon="2.30165">
        <ele>51</ele>
        <time>2013-09-12T20:09:10Z</time>
      </trkpt>
      <trkpt lat="48.83961" lon="2.30172">
        <ele>53</ele>
        <time>2013-09-12T20:09:13Z</time>
      </trkpt>
      <trkpt lat="48.83962" lon="2.30194">
        <ele>46</ele>
        <time>2013-09-12T20:09:18Z</time>
      </trkpt>
      <trkpt lat="48.83964" lon="2.30204">
        <ele>45</ele>
        <time>2013-09-12T20:09:20Z</time>
      </trkpt>
      <trkpt lat="48.83966" lon="2.30212">
        <ele>45</ele>
        <time>2013-09-12T20:09:22Z</time>
      </trkpt>
      <trkpt lat="48.83971" lon="2.3024">
        <ele>49</ele>
        <time>2013-09-12T20:09:30Z</time>
      </trkpt>
      <trkpt lat="48.83972" lon="2.30251">
        <ele>45</ele>
        <time>2013-09-12T20:09:33Z</time>
      </trkpt>
      <trkpt lat="48.83976" lon="2.30257">
        <ele>44</ele>
        <time>2013-09-12T20:09:38Z</time>
      </trkpt>
      <trkpt lat="48.8398" lon="2.30264">
        <ele>41</ele>
        <time>2013-09-12T20:09:41Z</time>
      </trkpt>
      <trkpt lat="48.83992" lon="2.30282">
        <ele>46</ele>
        <time>2013-09-12T20:09:47Z</time>
      </trkpt>
      <trkpt lat="48.83997" lon="2.30289">
        <ele>47</ele>
        <time>2013-09-12T20:09:49Z</time>
      </trkpt>
      <trkpt lat="48.84003" lon="2.30304">
        <ele>46</ele>
        <time>2013-09-12T20:09:52Z</time>
      </trkpt>
      <trkpt lat="48.84006" lon="2.30311">
        <ele>47</ele>
        <time>2013-09-12T20:09:53Z</time>
      </trkpt>
      <trkpt lat="48.8401" lon="2.30322">
        <ele>46</ele>
        <time>2013-09-12T20:09:55Z</time>
      </trkpt>
      <trkpt lat="48.84023" lon="2.30344">
        <ele>47</ele>
        <time>2013-09-12T20:10:00Z</time>
      </trkpt>
      <trkpt lat="48.84029" lon="2.30361">
        <ele>49</ele>
        <time>2013-09-12T20:10:03Z</time>
      </trkpt>
      <trkpt lat="48.84031" lon="2.30368">
        <ele>47</ele>
        <time>2013-09-12T20:10:04Z</time>
      </trkpt>
      <trkpt lat="48.84037" lon="2.30397">
        <ele>49</ele>
        <time>2013-09-12T20:10:08Z</time>
      </trkpt>
      <trkpt lat="48.8404" lon="2.30409">
        <ele>48</ele>
        <time>2013-09-12T20:10:10Z</time>
      </trkpt>
      <trkpt lat="48.84041" lon="2.30426">
        <ele>41</ele>
        <time>2013-09-12T20:10:14Z</time>
      </trkpt>
      <trkpt lat="48.84044" lon="2.30439">
        <ele>35</ele>
        <time>2013-09-12T20:10:21Z</time>
      </trkpt>
      <trkpt lat="48.84048" lon="2.30444">
        <ele>36</ele>
        <time>2013-09-12T20:10:23Z</time>
      </trkpt>
      <trkpt lat="48.84065" lon="2.30463">
        <ele>43</ele>
        <time>2013-09-12T20:10:30Z</time>
      </trkpt>
      <trkpt lat="48.84067" lon="2.30474">
        <ele>42</ele>
        <time>2013-09-12T20:10:32Z</time>
      </trkpt>
      <trkpt lat="48.84065" lon="2.30488">
        <ele>44</ele>
        <time>2013-09-12T20:10:35Z</time>
      </trkpt>
      <trkpt lat="48.84066" lon="2.30498">
        <ele>39</ele>
        <time>2013-09-12T20:10:38Z</time>
      </trkpt>
      <trkpt lat="48.84067" lon="2.30509">
        <ele>37</ele>
        <time>2013-09-12T20:10:41Z</time>
      </trkpt>
      <trkpt lat="48.84073" lon="2.30539">
        <ele>45</ele>
        <time>2013-09-12T20:10:47Z</time>
      </trkpt>
      <trkpt lat="48.84077" lon="2.30557">
        <ele>44</ele>
        <time>2013-09-12T20:10:51Z</time>
      </trkpt>
      <trkpt lat="48.84083" lon="2.30587">
        <ele>40</ele>
        <time>2013-09-12T20:10:59Z</time>
      </trkpt>
      <trkpt lat="48.84094" lon="2.30607">
        <ele>44</ele>
        <time>2013-09-12T20:11:03Z</time>
      </trkpt>
      <trkpt lat="48.84115" lon="2.3064">
        <ele>49</ele>
        <time>2013-09-12T20:11:10Z</time>
      </trkpt>
      <trkpt lat="48.84116" lon="2.30652">
        <ele>50</ele>
        <time>2013-09-12T20:11:12Z</time>
      </trkpt>
      <trkpt lat="48.84123" lon="2.30676">
        <ele>42</ele>
        <time>2013-09-12T20:11:17Z</time>
      </trkpt>
      <trkpt lat="48.84129" lon="2.30691">
        <ele>41</ele>
        <time>2013-09-12T20:11:20Z</time>
      </trkpt>
      <trkpt lat="48.84134" lon="2.30706">
        <ele>42</ele>
        <time>2013-09-12T20:11:21Z</time>
      </trkpt>
      <trkpt lat="48.8414" lon="2.30717">
        <ele>44</ele>
        <time>2013-09-12T20:11:23Z</time>
      </trkpt>
      <trkpt lat="48.84143" lon="2.30723">
        <ele>44</ele>
        <time>2013-09-12T20:11:24Z</time>
      </trkpt>
      <trkpt lat="48.84159" lon="2.30749">
        <ele>46</ele>
        <time>2013-09-12T20:11:30Z</time>
      </trkpt>
      <trkpt lat="48.84163" lon="2.3076">
        <ele>44</ele>
        <time>2013-09-12T20:11:31Z</time>
      </trkpt>
      <trkpt lat="48.84169" lon="2.30776">
        <ele>47</ele>
        <time>2013-09-12T20:11:34Z</time>
      </trkpt>
      <trkpt lat="48.84169" lon="2.30786">
        <ele>49</ele>
        <time>2013-09-12T20:11:36Z</time>
      </trkpt>
      <trkpt lat="48.84166" lon="2.30796">
        <ele>50</ele>
        <time>2013-09-12T20:11:38Z</time>
      </trkpt>
      <trkpt lat="48.84158" lon="2.30798">
        <ele>43</ele>
        <time>2013-09-12T20:11:42Z</time>
      </trkpt>
      <trkpt lat="48.84151" lon="2.30807">
        <ele>43</ele>
        <time>2013-09-12T20:11:51Z</time>
      </trkpt>
      <trkpt lat="48.84154" lon="2.30815">
        <ele>43</ele>
        <time>2013-09-12T20:11:55Z</time>
      </trkpt>
      <trkpt lat="48.84159" lon="2.30823">
        <ele>47</ele>
        <time>2013-09-12T20:11:57Z</time>
      </trkpt>
      <trkpt lat="48.84162" lon="2.3083">
        <ele>47</ele>
        <time>2013-09-12T20:11:59Z</time>
      </trkpt>
      <trkpt lat="48.84174" lon="2.30857">
        <ele>44</ele>
        <time>2013-09-12T20:12:06Z</time>
      </trkpt>
      <trkpt lat="48.84178" lon="2.30865">
        <ele>41</ele>
        <time>2013-09-12T20:12:08Z</time>
      </trkpt>
      <trkpt lat="48.84181" lon="2.30872">
        <ele>44</ele>
        <time>2013-09-12T20:12:09Z</time>
      </trkpt>
      <trkpt lat="48.84199" lon="2.30924">
        <ele>44</ele>
        <time>2013-09-12T20:12:17Z</time>
      </trkpt>
      <trkpt lat="48.84205" lon="2.30935">
        <ele>43</ele>
        <time>2013-09-12T20:12:19Z</time>
      </trkpt>
      <trkpt lat="48.84217" lon="2.30964">
        <ele>48</ele>
        <time>2013-09-12T20:12:24Z</time>
      </trkpt>
      <trkpt lat="48.84219" lon="2.30972">
        <ele>53</ele>
        <time>2013-09-12T20:12:25Z</time>
      </trkpt>
      <trkpt lat="48.84221" lon="2.30979">
        <ele>53</ele>
        <time>2013-09-12T20:12:26Z</time>
      </trkpt>
      <trkpt lat="48.8423" lon="2.31006">
        <ele>54</ele>
        <time>2013-09-12T20:12:30Z</time>
      </trkpt>
      <trkpt lat="48.84236" lon="2.31018">
        <ele>55</ele>
        <time>2013-09-12T20:12:32Z</time>
      </trkpt>
      <trkpt lat="48.8424" lon="2.31024">
        <ele>57</ele>
        <time>2013-09-12T20:12:33Z</time>
      </trkpt>
      <trkpt lat="48.84245" lon="2.31035">
        <ele>60</ele>
        <time>2013-09-12T20:12:35Z</time>
      </trkpt>
      <trkpt lat="48.8425" lon="2.31047">
        <ele>56</ele>
        <time>2013-09-12T20:12:37Z</time>
      </trkpt>
      <trkpt lat="48.84254" lon="2.31059">
        <ele>54</ele>
        <time>2013-09-12T20:12:39Z</time>
      </trkpt>
      <trkpt lat="48.84262" lon="2.31089">
        <ele>45</ele>
        <time>2013-09-12T20:12:44Z</time>
      </trkpt>
      <trkpt lat="48.84268" lon="2.31112">
        <ele>45</ele>
        <time>2013-09-12T20:12:49Z</time>
      </trkpt>
      <trkpt lat="48.8427" lon="2.31133">
        <ele>45</ele>
        <time>2013-09-12T20:12:55Z</time>
      </trkpt>
      <trkpt lat="48.84269" lon="2.31154">
        <ele>45</ele>
        <time>2013-09-12T20:13:03Z</time>
      </trkpt>
      <trkpt lat="48.84267" lon="2.31161">
        <ele>45</ele>
        <time>2013-09-12T20:13:05Z</time>
      </trkpt>
      <trkpt lat="48.84262" lon="2.31186">
        <ele>46</ele>
        <time>2013-09-12T20:13:12Z</time>
      </trkpt>
      <trkpt lat="48.84262" lon="2.3121">
        <ele>43</ele>
        <time>2013-09-12T20:13:22Z</time>
      </trkpt>
      <trkpt lat="48.84267" lon="2.31218">
        <ele>47</ele>
        <time>2013-09-12T20:13:27Z</time>
      </trkpt>
      <trkpt lat="48.84269" lon="2.31225">
        <ele>46</ele>
        <time>2013-09-12T20:13:31Z</time>
      </trkpt>
      <trkpt lat="48.84272" lon="2.31236">
        <ele>40</ele>
        <time>2013-09-12T20:13:42Z</time>
      </trkpt>
      <trkpt lat="48.84258" lon="2.31237">
        <ele>48</ele>
        <time>2013-09-12T20:13:46Z</time>
      </trkpt>
      <trkpt lat="48.84237" lon="2.31256">
        <ele>40</ele>
        <time>2013-09-12T20:13:56Z</time>
      </trkpt>
      <trkpt lat="48.84236" lon="2.31257">
        <ele>38</ele>
        <time>2013-09-12T20:13:57Z</time>
      </trkpt>
      <trkpt lat="48.84231" lon="2.31267">
        <ele>42</ele>
        <time>2013-09-12T20:14:00Z</time>
      </trkpt>
      <trkpt lat="48.84225" lon="2.31273">
        <ele>40</ele>
        <time>2013-09-12T20:14:02Z</time>
      </trkpt>
      <trkpt lat="48.8422" lon="2.31277">
        <ele>43</ele>
        <time>2013-09-12T20:14:04Z</time>
      </trkpt>
      <trkpt lat="48.84213" lon="2.3128">
        <ele>48</ele>
        <time>2013-09-12T20:14:07Z</time>
      </trkpt>
      <trkpt lat="48.84207" lon="2.31279">
        <ele>44</ele>
        <time>2013-09-12T20:14:10Z</time>
      </trkpt>
      <trkpt lat="48.84202" lon="2.31283">
        <ele>43</ele>
        <time>2013-09-12T20:14:15Z</time>
      </trkpt>
      <trkpt lat="48.84164" lon="2.31308">
        <ele>47</ele>
        <time>2013-09-12T20:14:32Z</time>
      </trkpt>
      <trkpt lat="48.84144" lon="2.31323">
        <ele>58</ele>
        <time>2013-09-12T20:14:39Z</time>
      </trkpt>
      <trkpt lat="48.84141" lon="2.31326">
        <ele>53</ele>
        <time>2013-09-12T20:14:40Z</time>
      </trkpt>
      <trkpt lat="48.84136" lon="2.31335">
        <ele>49</ele>
        <time>2013-09-12T20:14:42Z</time>
      </trkpt>
      <trkpt lat="48.84133" lon="2.31343">
        <ele>49</ele>
        <time>2013-09-12T20:14:44Z</time>
      </trkpt>
      <trkpt lat="48.8413" lon="2.31357">
        <ele>41</ele>
        <time>2013-09-12T20:14:58Z</time>
      </trkpt>
      <trkpt lat="48.8413" lon="2.31375">
        <ele>46</ele>
        <time>2013-09-12T20:15:16Z</time>
      </trkpt>
      <trkpt lat="48.84133" lon="2.31363">
        <ele>47</ele>
        <time>2013-09-12T20:15:33Z</time>
      </trkpt>
      <trkpt lat="48.84132" lon="2.31371">
        <ele>50</ele>
        <time>2013-09-12T20:15:36Z</time>
      </trkpt>
      <trkpt lat="48.84128" lon="2.31376">
        <ele>37</ele>
        <time>2013-09-12T20:15:40Z</time>
      </trkpt>
      <trkpt lat="48.84121" lon="2.31377">
        <ele>36</ele>
        <time>2013-09-12T20:15:43Z</time>
      </trkpt>
      <trkpt lat="48.84114" lon="2.31377">
        <ele>36</ele>
        <time>2013-09-12T20:15:45Z</time>
      </trkpt>
      <trkpt lat="48.84109" lon="2.31381">
        <ele>35</ele>
        <time>2013-09-12T20:15:47Z</time>
      </trkpt>
      <trkpt lat="48.8409" lon="2.31392">
        <ele>38</ele>
        <time>2013-09-12T20:15:53Z</time>
      </trkpt>
      <trkpt lat="48.84086" lon="2.31399">
        <ele>37</ele>
        <time>2013-09-12T20:15:55Z</time>
      </trkpt>
      <trkpt lat="48.84074" lon="2.31421">
        <ele>38</ele>
        <time>2013-09-12T20:16:00Z</time>
      </trkpt>
      <trkpt lat="48.84064" lon="2.31445">
        <ele>35</ele>
        <time>2013-09-12T20:16:05Z</time>
      </trkpt>
      <trkpt lat="48.84063" lon="2.31455">
        <ele>37</ele>
        <time>2013-09-12T20:16:06Z</time>
      </trkpt>
      <trkpt lat="48.84058" lon="2.31463">
        <ele>35</ele>
        <time>2013-09-12T20:16:08Z</time>
      </trkpt>
      <trkpt lat="48.84047" lon="2.31479">
        <ele>40</ele>
        <time>2013-09-12T20:16:12Z</time>
      </trkpt>
      <trkpt lat="48.8404" lon="2.3148">
        <ele>50</ele>
        <time>2013-09-12T20:16:14Z</time>
      </trkpt>
      <trkpt lat="48.84033" lon="2.31484">
        <ele>55</ele>
        <time>2013-09-12T20:16:16Z</time>
      </trkpt>
      <trkpt lat="48.84027" lon="2.31487">
        <ele>60</ele>
        <time>2013-09-12T20:16:18Z</time>
      </trkpt>
      <trkpt lat="48.84019" lon="2.31488">
        <ele>58</ele>
        <time>2013-09-12T20:16:21Z</time>
      </trkpt>
      <trkpt lat="48.84013" lon="2.3149">
        <ele>66</ele>
        <time>2013-09-12T20:16:24Z</time>
      </trkpt>
      <trkpt lat="48.8401" lon="2.315">
        <ele>55</ele>
        <time>2013-09-12T20:16:30Z</time>
      </trkpt>
      <trkpt lat="48.84006" lon="2.31505">
        <ele>50</ele>
        <time>2013-09-12T20:16:33Z</time>
      </trkpt>
      <trkpt lat="48.84001" lon="2.3151">
        <ele>50</ele>
        <time>2013-09-12T20:16:36Z</time>
      </trkpt>
      <trkpt lat="48.83996" lon="2.31514">
        <ele>47</ele>
        <time>2013-09-12T20:16:38Z</time>
      </trkpt>
      <trkpt lat="48.8399" lon="2.31519">
        <ele>50</ele>
        <time>2013-09-12T20:16:41Z</time>
      </trkpt>
      <trkpt lat="48.83988" lon="2.31527">
        <ele>49</ele>
        <time>2013-09-12T20:16:45Z</time>
      </trkpt>
      <trkpt lat="48.83987" lon="2.31535">
        <ele>49</ele>
        <time>2013-09-12T20:16:47Z</time>
      </trkpt>
      <trkpt lat="48.83985" lon="2.31543">
        <ele>50</ele>
        <time>2013-09-12T20:16:49Z</time>
      </trkpt>
      <trkpt lat="48.83982" lon="2.3155">
        <ele>50</ele>
        <time>2013-09-12T20:16:51Z</time>
      </trkpt>
      <trkpt lat="48.83978" lon="2.31556">
        <ele>48</ele>
        <time>2013-09-12T20:16:53Z</time>
      </trkpt>
      <trkpt lat="48.83975" lon="2.31562">
        <ele>48</ele>
        <time>2013-09-12T20:16:55Z</time>
      </trkpt>
      <trkpt lat="48.8397" lon="2.31573">
        <ele>44</ele>
        <time>2013-09-12T20:16:58Z</time>
      </trkpt>
      <trkpt lat="48.83967" lon="2.31583">
        <ele>44</ele>
        <time>2013-09-12T20:17:00Z</time>
      </trkpt>
      <trkpt lat="48.83963" lon="2.31591">
        <ele>40</ele>
        <time>2013-09-12T20:17:02Z</time>
      </trkpt>
      <trkpt lat="48.83958" lon="2.31596">
        <ele>50</ele>
        <time>2013-09-12T20:17:04Z</time>
      </trkpt>
      <trkpt lat="48.83952" lon="2.31601">
        <ele>50</ele>
        <time>2013-09-12T20:17:07Z</time>
      </trkpt>
      <trkpt lat="48.83949" lon="2.31608">
        <ele>45</ele>
        <time>2013-09-12T20:17:09Z</time>
      </trkpt>
      <trkpt lat="48.83939" lon="2.31624">
        <ele>44</ele>
        <time>2013-09-12T20:17:16Z</time>
      </trkpt>
      <trkpt lat="48.83934" lon="2.31624">
        <ele>50</ele>
        <time>2013-09-12T20:17:22Z</time>
      </trkpt>
      <trkpt lat="48.8393" lon="2.31627">
        <ele>52</ele>
        <time>2013-09-12T20:17:25Z</time>
      </trkpt>
      <trkpt lat="48.83923" lon="2.31627">
        <ele>53</ele>
        <time>2013-09-12T20:17:28Z</time>
      </trkpt>
      <trkpt lat="48.83917" lon="2.31629">
        <ele>53</ele>
        <time>2013-09-12T20:17:30Z</time>
      </trkpt>
      <trkpt lat="48.8391" lon="2.31635">
        <ele>55</ele>
        <time>2013-09-12T20:17:32Z</time>
      </trkpt>
      <trkpt lat="48.83898" lon="2.31643">
        <ele>52</ele>
        <time>2013-09-12T20:17:39Z</time>
      </trkpt>
      <trkpt lat="48.83893" lon="2.31648">
        <ele>52</ele>
        <time>2013-09-12T20:17:42Z</time>
      </trkpt>
      <trkpt lat="48.8388" lon="2.31662">
        <ele>51</ele>
        <time>2013-09-12T20:17:53Z</time>
      </trkpt>
      <trkpt lat="48.83876" lon="2.31669">
        <ele>51</ele>
        <time>2013-09-12T20:17:57Z</time>
      </trkpt>
      <trkpt lat="48.83872" lon="2.31674">
        <ele>47</ele>
        <time>2013-09-12T20:18:00Z</time>
      </trkpt>
      <trkpt lat="48.83865" lon="2.31676">
        <ele>44</ele>
        <time>2013-09-12T20:18:03Z</time>
      </trkpt>
      <trkpt lat="48.83855" lon="2.31675">
        <ele>47</ele>
        <time>2013-09-12T20:18:06Z</time>
      </trkpt>
      <trkpt lat="48.8385" lon="2.31676">
        <ele>50</ele>
        <time>2013-09-12T20:18:09Z</time>
      </trkpt>
      <trkpt lat="48.83845" lon="2.31682">
        <ele>52</ele>
        <time>2013-09-12T20:18:12Z</time>
      </trkpt>
      <trkpt lat="48.83839" lon="2.31687">
        <ele>43</ele>
        <time>2013-09-12T20:18:15Z</time>
      </trkpt>
      <trkpt lat="48.83833" lon="2.31693">
        <ele>48</ele>
        <time>2013-09-12T20:18:18Z</time>
      </trkpt>
      <trkpt lat="48.83827" lon="2.31697">
        <ele>49</ele>
        <time>2013-09-12T20:18:20Z</time>
      </trkpt>
      <trkpt lat="48.83821" lon="2.31702">
        <ele>49</ele>
        <time>2013-09-12T20:18:22Z</time>
      </trkpt>
      <trkpt lat="48.83813" lon="2.31705">
        <ele>60</ele>
        <time>2013-09-12T20:18:24Z</time>
      </trkpt>
      <trkpt lat="48.83805" lon="2.31709">
        <ele>49</ele>
        <time>2013-09-12T20:18:26Z</time>
      </trkpt>
      <trkpt lat="48.838" lon="2.31709">
        <ele>52</ele>
        <time>2013-09-12T20:18:27Z</time>
      </trkpt>
      <trkpt lat="48.8379" lon="2.31711">
        <ele>55</ele>
        <time>2013-09-12T20:18:30Z</time>
      </trkpt>
      <trkpt lat="48.83774" lon="2.31719">
        <ele>47</ele>
        <time>2013-09-12T20:18:37Z</time>
      </trkpt>
      <trkpt lat="48.83771" lon="2.31727">
        <ele>46</ele>
        <time>2013-09-12T20:18:40Z</time>
      </trkpt>
      <trkpt lat="48.83771" lon="2.31737">
        <ele>56</ele>
        <time>2013-09-12T20:18:44Z</time>
      </trkpt>
      <trkpt lat="48.83772" lon="2.31754">
        <ele>68</ele>
        <time>2013-09-12T20:18:46Z</time>
      </trkpt>
      <trkpt lat="48.83772" lon="2.31783">
        <ele>59</ele>
        <time>2013-09-12T20:18:51Z</time>
      </trkpt>
      <trkpt lat="48.8377" lon="2.31792">
        <ele>55</ele>
        <time>2013-09-12T20:18:53Z</time>
      </trkpt>
      <trkpt lat="48.83766" lon="2.31797">
        <ele>49</ele>
        <time>2013-09-12T20:18:56Z</time>
      </trkpt>
      <trkpt lat="48.83761" lon="2.31794">
        <ele>47</ele>
        <time>2013-09-12T20:18:58Z</time>
      </trkpt>
      <trkpt lat="48.83754" lon="2.3179">
        <ele>47</ele>
        <time>2013-09-12T20:19:01Z</time>
      </trkpt>
      <trkpt lat="48.83738" lon="2.31785">
        <ele>51</ele>
        <time>2013-09-12T20:19:12Z</time>
      </trkpt>
      <trkpt lat="48.8373" lon="2.31785">
        <ele>51</ele>
        <time>2013-09-12T20:19:14Z</time>
      </trkpt>
      <trkpt lat="48.83723" lon="2.31783">
        <ele>53</ele>
        <time>2013-09-12T20:19:16Z</time>
      </trkpt>
      <trkpt lat="48.83717" lon="2.31784">
        <ele>54</ele>
        <time>2013-09-12T20:19:18Z</time>
      </trkpt>
      <trkpt lat="48.83702" lon="2.31788">
        <ele>50</ele>
        <time>2013-09-12T20:19:24Z</time>
      </trkpt>
      <trkpt lat="48.83696" lon="2.31794">
        <ele>50</ele>
        <time>2013-09-12T20:19:26Z</time>
      </trkpt>
      <trkpt lat="48.83693" lon="2.31803">
        <ele>52</ele>
        <time>2013-09-12T20:19:28Z</time>
      </trkpt>
      <trkpt lat="48.83684" lon="2.31829">
        <ele>47</ele>
        <time>2013-09-12T20:19:33Z</time>
      </trkpt>
      <trkpt lat="48.83682" lon="2.31836">
        <ele>48</ele>
        <time>2013-09-12T20:19:35Z</time>
      </trkpt>
      <trkpt lat="48.8368" lon="2.31848">
        <ele>49</ele>
        <time>2013-09-12T20:19:38Z</time>
      </trkpt>
      <trkpt lat="48.83681" lon="2.31858">
        <ele>45</ele>
        <time>2013-09-12T20:19:42Z</time>
      </trkpt>
      <trkpt lat="48.83684" lon="2.31866">
        <ele>47</ele>
        <time>2013-09-12T20:19:44Z</time>
      </trkpt>
      <trkpt lat="48.83723" lon="2.31949">
        <ele>46</ele>
        <time>2013-09-12T20:20:14Z</time>
      </trkpt>
      <trkpt lat="48.83718" lon="2.31937">
        <ele>41</ele>
        <time>2013-09-12T20:20:15Z</time>
      </trkpt>
      <trkpt lat="48.83725" lon="2.31944">
        <ele>44</ele>
        <time>2013-09-12T20:20:18Z</time>
      </trkpt>
      <trkpt lat="48.83731" lon="2.31951">
        <ele>44</ele>
        <time>2013-09-12T20:20:20Z</time>
      </trkpt>
      <trkpt lat="48.83737" lon="2.31964">
        <ele>47</ele>
        <time>2013-09-12T20:20:22Z</time>
      </trkpt>
      <trkpt lat="48.83739" lon="2.31979">
        <ele>47</ele>
        <time>2013-09-12T20:20:24Z</time>
      </trkpt>
      <trkpt lat="48.83743" lon="2.32009">
        <ele>52</ele>
        <time>2013-09-12T20:20:31Z</time>
      </trkpt>
      <trkpt lat="48.83742" lon="2.3202">
        <ele>52</ele>
        <time>2013-09-12T20:20:34Z</time>
      </trkpt>
      <trkpt lat="48.83741" lon="2.32027">
        <ele>54</ele>
        <time>2013-09-12T20:20:37Z</time>
      </trkpt>
      <trkpt lat="48.83741" lon="2.32038">
        <ele>57</ele>
        <time>2013-09-12T20:20:40Z</time>
      </trkpt>
      <trkpt lat="48.83742" lon="2.32048">
        <ele>55</ele>
        <time>2013-09-12T20:20:42Z</time>
      </trkpt>
      <trkpt lat="48.83748" lon="2.32126">
        <ele>46</ele>
        <time>2013-09-12T20:20:58Z</time>
      </trkpt>
      <trkpt lat="48.83748" lon="2.32139">
        <ele>48</ele>
        <time>2013-09-12T20:21:01Z</time>
      </trkpt>
      <trkpt lat="48.83746" lon="2.32166">
        <ele>48</ele>
        <time>2013-09-12T20:21:06Z</time>
      </trkpt>
      <trkpt lat="48.83752" lon="2.32175">
        <ele>47</ele>
        <time>2013-09-12T20:21:08Z</time>
      </trkpt>
      <trkpt lat="48.83756" lon="2.3218">
        <ele>49</ele>
        <time>2013-09-12T20:21:09Z</time>
      </trkpt>
      <trkpt lat="48.83759" lon="2.32189">
        <ele>49</ele>
        <time>2013-09-12T20:21:11Z</time>
      </trkpt>
      <trkpt lat="48.8376" lon="2.32197">
        <ele>53</ele>
        <time>2013-09-12T20:21:13Z</time>
      </trkpt>
      <trkpt lat="48.83757" lon="2.32209">
        <ele>54</ele>
        <time>2013-09-12T20:21:15Z</time>
      </trkpt>
      <trkpt lat="48.83753" lon="2.32219">
        <ele>58</ele>
        <time>2013-09-12T20:21:18Z</time>
      </trkpt>
      <trkpt lat="48.83752" lon="2.32226">
        <ele>66</ele>
        <time>2013-09-12T20:21:26Z</time>
      </trkpt>
      <trkpt lat="48.83751" lon="2.32238">
        <ele>68</ele>
        <time>2013-09-12T20:21:30Z</time>
      </trkpt>
      <trkpt lat="48.83752" lon="2.32246">
        <ele>78</ele>
        <time>2013-09-12T20:21:32Z</time>
      </trkpt>
      <trkpt lat="48.8375" lon="2.32256">
        <ele>73</ele>
        <time>2013-09-12T20:21:34Z</time>
      </trkpt>
      <trkpt lat="48.83746" lon="2.32274">
        <ele>65</ele>
        <time>2013-09-12T20:21:38Z</time>
      </trkpt>
      <trkpt lat="48.83746" lon="2.32283">
        <ele>74</ele>
        <time>2013-09-12T20:21:46Z</time>
      </trkpt>
      <trkpt lat="48.83744" lon="2.32298">
        <ele>64</ele>
        <time>2013-09-12T20:21:50Z</time>
      </trkpt>
      <trkpt lat="48.83741" lon="2.32316">
        <ele>55</ele>
        <time>2013-09-12T20:21:57Z</time>
      </trkpt>
      <trkpt lat="48.83737" lon="2.32323">
        <ele>53</ele>
        <time>2013-09-12T20:22:04Z</time>
      </trkpt>
      <trkpt lat="48.83737" lon="2.32333">
        <ele>49</ele>
        <time>2013-09-12T20:22:08Z</time>
      </trkpt>
      <trkpt lat="48.83736" lon="2.3234">
        <ele>50</ele>
        <time>2013-09-12T20:22:10Z</time>
      </trkpt>
      <trkpt lat="48.83729" lon="2.32367">
        <ele>50</ele>
        <time>2013-09-12T20:22:19Z</time>
      </trkpt>
      <trkpt lat="48.83727" lon="2.32376">
        <ele>69</ele>
        <time>2013-09-12T20:22:24Z</time>
      </trkpt>
      <trkpt lat="48.83719" lon="2.32384">
        <ele>79</ele>
        <time>2013-09-12T20:22:26Z</time>
      </trkpt>
      <trkpt lat="48.83716" lon="2.32391">
        <ele>81</ele>
        <time>2013-09-12T20:22:27Z</time>
      </trkpt>
      <trkpt lat="48.83702" lon="2.32416">
        <ele>59</ele>
        <time>2013-09-12T20:22:33Z</time>
      </trkpt>
      <trkpt lat="48.83699" lon="2.32425">
        <ele>55</ele>
        <time>2013-09-12T20:22:35Z</time>
      </trkpt>
      <trkpt lat="48.83697" lon="2.32434">
        <ele>59</ele>
        <time>2013-09-12T20:22:37Z</time>
      </trkpt>
      <trkpt lat="48.83697" lon="2.32442">
        <ele>64</ele>
        <time>2013-09-12T20:22:39Z</time>
      </trkpt>
      <trkpt lat="48.83696" lon="2.32455">
        <ele>53</ele>
        <time>2013-09-12T20:22:42Z</time>
      </trkpt>
      <trkpt lat="48.83695" lon="2.32464">
        <ele>50</ele>
        <time>2013-09-12T20:22:44Z</time>
      </trkpt>
      <trkpt lat="48.83692" lon="2.32479">
        <ele>48</ele>
        <time>2013-09-12T20:22:47Z</time>
      </trkpt>
      <trkpt lat="48.83687" lon="2.32489">
        <ele>47</ele>
        <time>2013-09-12T20:22:49Z</time>
      </trkpt>
      <trkpt lat="48.83683" lon="2.32498">
        <ele>46</ele>
        <time>2013-09-12T20:22:51Z</time>
      </trkpt>
      <trkpt lat="48.83681" lon="2.32506">
        <ele>46</ele>
        <time>2013-09-12T20:22:53Z</time>
      </trkpt>
      <trkpt lat="48.83677" lon="2.32517">
        <ele>46</ele>
        <time>2013-09-12T20:22:56Z</time>
      </trkpt>
      <trkpt lat="48.83666" lon="2.32544">
        <ele>46</ele>
        <time>2013-09-12T20:23:03Z</time>
      </trkpt>
      <trkpt lat="48.83662" lon="2.3255">
        <ele>46</ele>
        <time>2013-09-12T20:23:05Z</time>
      </trkpt>
      <trkpt lat="48.83657" lon="2.32559">
        <ele>48</ele>
        <time>2013-09-12T20:23:08Z</time>
      </trkpt>
      <trkpt lat="48.83656" lon="2.32568">
        <ele>47</ele>
        <time>2013-09-12T20:23:10Z</time>
      </trkpt>
      <trkpt lat="48.83656" lon="2.32576">
        <ele>46</ele>
        <time>2013-09-12T20:23:12Z</time>
      </trkpt>
      <trkpt lat="48.83654" lon="2.32585">
        <ele>54</ele>
        <time>2013-09-12T20:23:15Z</time>
      </trkpt>
      <trkpt lat="48.8365" lon="2.32591">
        <ele>55</ele>
        <time>2013-09-12T20:23:18Z</time>
      </trkpt>
      <trkpt lat="48.83641" lon="2.32612">
        <ele>48</ele>
        <time>2013-09-12T20:23:25Z</time>
      </trkpt>
      <trkpt lat="48.83639" lon="2.32622">
        <ele>51</ele>
        <time>2013-09-12T20:23:27Z</time>
      </trkpt>
      <trkpt lat="48.83639" lon="2.32633">
        <ele>47</ele>
        <time>2013-09-12T20:23:29Z</time>
      </trkpt>
      <trkpt lat="48.83637" lon="2.32646">
        <ele>46</ele>
        <time>2013-09-12T20:23:31Z</time>
      </trkpt>
      <trkpt lat="48.83625" lon="2.32706">
        <ele>45</ele>
        <time>2013-09-12T20:23:41Z</time>
      </trkpt>
      <trkpt lat="48.83622" lon="2.32718">
        <ele>44</ele>
        <time>2013-09-12T20:23:43Z</time>
      </trkpt>
      <trkpt lat="48.83613" lon="2.32738">
        <ele>46</ele>
        <time>2013-09-12T20:23:46Z</time>
      </trkpt>
      <trkpt lat="48.83608" lon="2.32747">
        <ele>47</ele>
        <time>2013-09-12T20:23:48Z</time>
      </trkpt>
      <trkpt lat="48.83604" lon="2.32758">
        <ele>41</ele>
        <time>2013-09-12T20:23:52Z</time>
      </trkpt>
      <trkpt lat="48.83598" lon="2.32774">
        <ele>48</ele>
        <time>2013-09-12T20:24:01Z</time>
      </trkpt>
      <trkpt lat="48.836" lon="2.32766">
        <ele>51</ele>
        <time>2013-09-12T20:24:14Z</time>
      </trkpt>
      <trkpt lat="48.83606" lon="2.32765">
        <ele>60</ele>
        <time>2013-09-12T20:24:18Z</time>
      </trkpt>
      <trkpt lat="48.83611" lon="2.32765">
        <ele>62</ele>
        <time>2013-09-12T20:24:20Z</time>
      </trkpt>
      <trkpt lat="48.83618" lon="2.32767">
        <ele>59</ele>
        <time>2013-09-12T20:24:24Z</time>
      </trkpt>
      <trkpt lat="48.83623" lon="2.32774">
        <ele>55</ele>
        <time>2013-09-12T20:24:27Z</time>
      </trkpt>
      <trkpt lat="48.83635" lon="2.32786">
        <ele>54</ele>
        <time>2013-09-12T20:24:31Z</time>
      </trkpt>
      <trkpt lat="48.83643" lon="2.32791">
        <ele>52</ele>
        <time>2013-09-12T20:24:33Z</time>
      </trkpt>
      <trkpt lat="48.83662" lon="2.32805">
        <ele>51</ele>
        <time>2013-09-12T20:24:37Z</time>
      </trkpt>
      <trkpt lat="48.83671" lon="2.32809">
        <ele>51</ele>
        <time>2013-09-12T20:24:39Z</time>
      </trkpt>
      <trkpt lat="48.8369" lon="2.32822">
        <ele>51</ele>
        <time>2013-09-12T20:24:43Z</time>
      </trkpt>
      <trkpt lat="48.83695" lon="2.32825">
        <ele>49</ele>
        <time>2013-09-12T20:24:44Z</time>
      </trkpt>
      <trkpt lat="48.8377" lon="2.32884">
        <ele>47</ele>
        <time>2013-09-12T20:25:00Z</time>
      </trkpt>
      <trkpt lat="48.83775" lon="2.32887">
        <ele>46</ele>
        <time>2013-09-12T20:25:01Z</time>
      </trkpt>
      <trkpt lat="48.8378" lon="2.3289">
        <ele>46</ele>
        <time>2013-09-12T20:25:02Z</time>
      </trkpt>
      <trkpt lat="48.838" lon="2.32905">
        <ele>50</ele>
        <time>2013-09-12T20:25:07Z</time>
      </trkpt>
      <trkpt lat="48.83807" lon="2.32912">
        <ele>47</ele>
        <time>2013-09-12T20:25:09Z</time>
      </trkpt>
      <trkpt lat="48.83826" lon="2.32931">
        <ele>47</ele>
        <time>2013-09-12T20:25:13Z</time>
      </trkpt>
      <trkpt lat="48.83831" lon="2.32937">
        <ele>47</ele>
        <time>2013-09-12T20:25:14Z</time>
      </trkpt>
      <trkpt lat="48.83835" lon="2.32941">
        <ele>43</ele>
        <time>2013-09-12T20:25:15Z</time>
      </trkpt>
      <trkpt lat="48.83843" lon="2.32946">
        <ele>46</ele>
        <time>2013-09-12T20:25:17Z</time>
      </trkpt>
      <trkpt lat="48.83851" lon="2.32948">
        <ele>47</ele>
        <time>2013-09-12T20:25:19Z</time>
      </trkpt>
      <trkpt lat="48.83858" lon="2.32952">
        <ele>46</ele>
        <time>2013-09-12T20:25:21Z</time>
      </trkpt>
      <trkpt lat="48.83865" lon="2.32959">
        <ele>50</ele>
        <time>2013-09-12T20:25:23Z</time>
      </trkpt>
      <trkpt lat="48.83874" lon="2.32967">
        <ele>44</ele>
        <time>2013-09-12T20:25:26Z</time>
      </trkpt>
      <trkpt lat="48.83884" lon="2.32975">
        <ele>52</ele>
        <time>2013-09-12T20:25:29Z</time>
      </trkpt>
      <trkpt lat="48.8389" lon="2.32977">
        <ele>52</ele>
        <time>2013-09-12T20:25:31Z</time>
      </trkpt>
      <trkpt lat="48.83906" lon="2.32985">
        <ele>53</ele>
        <time>2013-09-12T20:25:36Z</time>
      </trkpt>
      <trkpt lat="48.83914" lon="2.32993">
        <ele>52</ele>
        <time>2013-09-12T20:25:38Z</time>
      </trkpt>
      <trkpt lat="48.83924" lon="2.32999">
        <ele>46</ele>
        <time>2013-09-12T20:25:41Z</time>
      </trkpt>
      <trkpt lat="48.8392" lon="2.33005">
        <ele>49</ele>
        <time>2013-09-12T20:25:49Z</time>
      </trkpt>
      <trkpt lat="48.83911" lon="2.33023">
        <ele>46</ele>
        <time>2013-09-12T20:25:56Z</time>
      </trkpt>
      <trkpt lat="48.83911" lon="2.33032">
        <ele>57</ele>
        <time>2013-09-12T20:26:01Z</time>
      </trkpt>
      <trkpt lat="48.83909" lon="2.3304">
        <ele>63</ele>
        <time>2013-09-12T20:26:07Z</time>
      </trkpt>
      <trkpt lat="48.83909" lon="2.33048">
        <ele>61</ele>
        <time>2013-09-12T20:26:14Z</time>
      </trkpt>
      <trkpt lat="48.83914" lon="2.33052">
        <ele>56</ele>
        <time>2013-09-12T20:26:25Z</time>
      </trkpt>
      <trkpt lat="48.83913" lon="2.33051">
        <ele>63</ele>
        <time>2013-09-12T20:26:56Z</time>
      </trkpt>
      <trkpt lat="48.83908" lon="2.3305">
        <ele>59</ele>
        <time>2013-09-12T20:27:05Z</time>
      </trkpt>
      <trkpt lat="48.83902" lon="2.33055">
        <ele>57</ele>
        <time>2013-09-12T20:27:08Z</time>
      </trkpt>
      <trkpt lat="48.83896" lon="2.33056">
        <ele>59</ele>
        <time>2013-09-12T20:27:10Z</time>
      </trkpt>
      <trkpt lat="48.83876" lon="2.33064">
        <ele>47</ele>
        <time>2013-09-12T20:27:19Z</time>
      </trkpt>
      <trkpt lat="48.8387" lon="2.33067">
        <ele>47</ele>
        <time>2013-09-12T20:27:22Z</time>
      </trkpt>
      <trkpt lat="48.83863" lon="2.33071">
        <ele>48</ele>
        <time>2013-09-12T20:27:25Z</time>
      </trkpt>
      <trkpt lat="48.83844" lon="2.33085">
        <ele>45</ele>
        <time>2013-09-12T20:27:32Z</time>
      </trkpt>
      <trkpt lat="48.83835" lon="2.33087">
        <ele>47</ele>
        <time>2013-09-12T20:27:35Z</time>
      </trkpt>
      <trkpt lat="48.83828" lon="2.33085">
        <ele>45</ele>
        <time>2013-09-12T20:27:37Z</time>
      </trkpt>
      <trkpt lat="48.83807" lon="2.33078">
        <ele>46</ele>
        <time>2013-09-12T20:27:44Z</time>
      </trkpt>
      <trkpt lat="48.83796" lon="2.33076">
        <ele>47</ele>
        <time>2013-09-12T20:27:48Z</time>
      </trkpt>
      <trkpt lat="48.8379" lon="2.33077">
        <ele>45</ele>
        <time>2013-09-12T20:27:50Z</time>
      </trkpt>
      <trkpt lat="48.83779" lon="2.33082">
        <ele>44</ele>
        <time>2013-09-12T20:27:54Z</time>
      </trkpt>
      <trkpt lat="48.83774" lon="2.33092">
        <ele>44</ele>
        <time>2013-09-12T20:27:56Z</time>
      </trkpt>
      <trkpt lat="48.83773" lon="2.33102">
        <ele>47</ele>
        <time>2013-09-12T20:27:59Z</time>
      </trkpt>
      <trkpt lat="48.83775" lon="2.3311">
        <ele>45</ele>
        <time>2013-09-12T20:28:01Z</time>
      </trkpt>
      <trkpt lat="48.83774" lon="2.33121">
        <ele>44</ele>
        <time>2013-09-12T20:28:04Z</time>
      </trkpt>
      <trkpt lat="48.83771" lon="2.33128">
        <ele>43</ele>
        <time>2013-09-12T20:28:06Z</time>
      </trkpt>
      <trkpt lat="48.83766" lon="2.33142">
        <ele>42</ele>
        <time>2013-09-12T20:28:11Z</time>
      </trkpt>
      <trkpt lat="48.8376" lon="2.33145">
        <ele>44</ele>
        <time>2013-09-12T20:28:13Z</time>
      </trkpt>
      <trkpt lat="48.83752" lon="2.33148">
        <ele>42</ele>
        <time>2013-09-12T20:28:16Z</time>
      </trkpt>
      <trkpt lat="48.83746" lon="2.33149">
        <ele>40</ele>
        <time>2013-09-12T20:28:18Z</time>
      </trkpt>
      <trkpt lat="48.83739" lon="2.33147">
        <ele>40</ele>
        <time>2013-09-12T20:28:20Z</time>
      </trkpt>
      <trkpt lat="48.83733" lon="2.33147">
        <ele>51</ele>
        <time>2013-09-12T20:28:23Z</time>
      </trkpt>
      <trkpt lat="48.83726" lon="2.33151">
        <ele>51</ele>
        <time>2013-09-12T20:28:26Z</time>
      </trkpt>
      <trkpt lat="48.83719" lon="2.33152">
        <ele>52</ele>
        <time>2013-09-12T20:28:28Z</time>
      </trkpt>
      <trkpt lat="48.83711" lon="2.33152">
        <ele>56</ele>
        <time>2013-09-12T20:28:30Z</time>
      </trkpt>
      <trkpt lat="48.83705" lon="2.33153">
        <ele>56</ele>
        <time>2013-09-12T20:28:32Z</time>
      </trkpt>
      <trkpt lat="48.83685" lon="2.33161">
        <ele>55</ele>
        <time>2013-09-12T20:28:37Z</time>
      </trkpt>
      <trkpt lat="48.83679" lon="2.33161">
        <ele>53</ele>
        <time>2013-09-12T20:28:39Z</time>
      </trkpt>
      <trkpt lat="48.83659" lon="2.33161">
        <ele>47</ele>
        <time>2013-09-12T20:28:44Z</time>
      </trkpt>
      <trkpt lat="48.83644" lon="2.33164">
        <ele>50</ele>
        <time>2013-09-12T20:28:49Z</time>
      </trkpt>
      <trkpt lat="48.83636" lon="2.33166">
        <ele>53</ele>
        <time>2013-09-12T20:28:52Z</time>
      </trkpt>
      <trkpt lat="48.8363" lon="2.33169">
        <ele>57</ele>
        <time>2013-09-12T20:28:54Z</time>
      </trkpt>
      <trkpt lat="48.83625" lon="2.33171">
        <ele>57</ele>
        <time>2013-09-12T20:28:56Z</time>
      </trkpt>
      <trkpt lat="48.83616" lon="2.33171">
        <ele>63</ele>
        <time>2013-09-12T20:28:58Z</time>
      </trkpt>
      <trkpt lat="48.83574" lon="2.33168">
        <ele>55</ele>
        <time>2013-09-12T20:29:10Z</time>
      </trkpt>
      <trkpt lat="48.83567" lon="2.33169">
        <ele>53</ele>
        <time>2013-09-12T20:29:12Z</time>
      </trkpt>
      <trkpt lat="48.83548" lon="2.33177">
        <ele>57</ele>
        <time>2013-09-12T20:29:18Z</time>
      </trkpt>
      <trkpt lat="48.83542" lon="2.33181">
        <ele>61</ele>
        <time>2013-09-12T20:29:20Z</time>
      </trkpt>
      <trkpt lat="48.83534" lon="2.33185">
        <ele>60</ele>
        <time>2013-09-12T20:29:23Z</time>
      </trkpt>
      <trkpt lat="48.83525" lon="2.33188">
        <ele>71</ele>
        <time>2013-09-12T20:29:26Z</time>
      </trkpt>
      <trkpt lat="48.83506" lon="2.33193">
        <ele>68</ele>
        <time>2013-09-12T20:29:32Z</time>
      </trkpt>
      <trkpt lat="48.83487" lon="2.33202">
        <ele>57</ele>
        <time>2013-09-12T20:29:39Z</time>
      </trkpt>
      <trkpt lat="48.83484" lon="2.33209">
        <ele>54</ele>
        <time>2013-09-12T20:29:42Z</time>
      </trkpt>
      <trkpt lat="48.83479" lon="2.3322">
        <ele>45</ele>
        <time>2013-09-12T20:29:47Z</time>
      </trkpt>
      <trkpt lat="48.83474" lon="2.33233">
        <ele>53</ele>
        <time>2013-09-12T20:29:51Z</time>
      </trkpt>
      <trkpt lat="48.83474" lon="2.33243">
        <ele>47</ele>
        <time>2013-09-12T20:29:53Z</time>
      </trkpt>
      <trkpt lat="48.83473" lon="2.33253">
        <ele>48</ele>
        <time>2013-09-12T20:29:55Z</time>
      </trkpt>
      <trkpt lat="48.83467" lon="2.33277">
        <ele>49</ele>
        <time>2013-09-12T20:30:01Z</time>
      </trkpt>
      <trkpt lat="48.83464" lon="2.33285">
        <ele>50</ele>
        <time>2013-09-12T20:30:04Z</time>
      </trkpt>
      <trkpt lat="48.83458" lon="2.33295">
        <ele>51</ele>
        <time>2013-09-12T20:30:09Z</time>
      </trkpt>
      <trkpt lat="48.83453" lon="2.33299">
        <ele>57</ele>
        <time>2013-09-12T20:30:11Z</time>
      </trkpt>
      <trkpt lat="48.83436" lon="2.33314">
        <ele>59</ele>
        <time>2013-09-12T20:30:19Z</time>
      </trkpt>
      <trkpt lat="48.83434" lon="2.33322">
        <ele>58</ele>
        <time>2013-09-12T20:30:22Z</time>
      </trkpt>
      <trkpt lat="48.83433" lon="2.33331">
        <ele>52</ele>
        <time>2013-09-12T20:30:25Z</time>
      </trkpt>
      <trkpt lat="48.83432" lon="2.33346">
        <ele>42</ele>
        <time>2013-09-12T20:30:30Z</time>
      </trkpt>
      <trkpt lat="48.83434" lon="2.33354">
        <ele>56</ele>
        <time>2013-09-12T20:30:36Z</time>
      </trkpt>
      <trkpt lat="48.8345" lon="2.33365">
        <ele>54</ele>
        <time>2013-09-12T20:30:41Z</time>
      </trkpt>
      <trkpt lat="48.83453" lon="2.33364">
        <ele>73</ele>
        <time>2013-09-12T20:30:47Z</time>
      </trkpt>
      <trkpt lat="48.83451" lon="2.33357">
        <ele>89</ele>
        <time>2013-09-12T20:30:56Z</time>
      </trkpt>
      <trkpt lat="48.83445" lon="2.33353">
        <ele>80</ele>
        <time>2013-09-12T20:31:00Z</time>
      </trkpt>
      <trkpt lat="48.83438" lon="2.3335">
        <ele>75</ele>
        <time>2013-09-12T20:31:03Z</time>
      </trkpt>
      <trkpt lat="48.83425" lon="2.33343">
        <ele>45</ele>
        <time>2013-09-12T20:31:40Z</time>
      </trkpt>
      <trkpt lat="48.83426" lon="2.33344">
        <ele>57</ele>
        <time>2013-09-12T20:31:49Z</time>
      </trkpt>
      <trkpt lat="48.8343" lon="2.33333">
        <ele>60</ele>
        <time>2013-09-12T20:31:56Z</time>
      </trkpt>
      <trkpt lat="48.83435" lon="2.33328">
        <ele>66</ele>
        <time>2013-09-12T20:31:58Z</time>
      </trkpt>
      <trkpt lat="48.8345" lon="2.33312">
        <ele>61</ele>
        <time>2013-09-12T20:32:04Z</time>
      </trkpt>
      <trkpt lat="48.83454" lon="2.33306">
        <ele>65</ele>
        <time>2013-09-12T20:32:07Z</time>
      </trkpt>
      <trkpt lat="48.83459" lon="2.33303">
        <ele>65</ele>
        <time>2013-09-12T20:32:11Z</time>
      </trkpt>
      <trkpt lat="48.83463" lon="2.33298">
        <ele>66</ele>
        <time>2013-09-12T20:32:16Z</time>
      </trkpt>
      <trkpt lat="48.83469" lon="2.3329">
        <ele>50</ele>
        <time>2013-09-12T20:32:22Z</time>
      </trkpt>
      <trkpt lat="48.83661" lon="2.33466">
        <ele>47</ele>
        <time>2013-09-12T20:33:36Z</time>
      </trkpt>
      <trkpt lat="48.83719" lon="2.33536">
        <ele>61</ele>
        <time>2013-09-12T20:33:57Z</time>
      </trkpt>
      <trkpt lat="48.83704" lon="2.33576">
        <ele>45</ele>
        <time>2013-09-12T20:34:22Z</time>
      </trkpt>
      <trkpt lat="48.83743" lon="2.3356">
        <ele>45</ele>
        <time>2013-09-12T20:34:26Z</time>
      </trkpt>
      <trkpt lat="48.83756" lon="2.33622">
        <ele>45</ele>
        <time>2013-09-12T20:34:37Z</time>
      </trkpt>
      <trkpt lat="48.83826" lon="2.33643">
        <ele>46</ele>
        <time>2013-09-12T20:34:46Z</time>
      </trkpt>
      <trkpt lat="48.83833" lon="2.33644">
        <ele>47</ele>
        <time>2013-09-12T20:34:49Z</time>
      </trkpt>
      <trkpt lat="48.83836" lon="2.3365">
        <ele>48</ele>
        <time>2013-09-12T20:34:51Z</time>
      </trkpt>
      <trkpt lat="48.8384" lon="2.33658">
        <ele>45</ele>
        <time>2013-09-12T20:34:53Z</time>
      </trkpt>
      <trkpt lat="48.83841" lon="2.33668">
        <ele>46</ele>
        <time>2013-09-12T20:34:55Z</time>
      </trkpt>
      <trkpt lat="48.83845" lon="2.33673">
        <ele>49</ele>
        <time>2013-09-12T20:34:57Z</time>
      </trkpt>
      <trkpt lat="48.83851" lon="2.33677">
        <ele>46</ele>
        <time>2013-09-12T20:35:00Z</time>
      </trkpt>
      <trkpt lat="48.83869" lon="2.33689">
        <ele>45</ele>
        <time>2013-09-12T20:35:07Z</time>
      </trkpt>
      <trkpt lat="48.83875" lon="2.33691">
        <ele>46</ele>
        <time>2013-09-12T20:35:09Z</time>
      </trkpt>
      <trkpt lat="48.83885" lon="2.33696">
        <ele>47</ele>
        <time>2013-09-12T20:35:12Z</time>
      </trkpt>
      <trkpt lat="48.83889" lon="2.33702">
        <ele>44</ele>
        <time>2013-09-12T20:35:14Z</time>
      </trkpt>
      <trkpt lat="48.83896" lon="2.33713">
        <ele>45</ele>
        <time>2013-09-12T20:35:17Z</time>
      </trkpt>
      <trkpt lat="48.8391" lon="2.33731">
        <ele>44</ele>
        <time>2013-09-12T20:35:22Z</time>
      </trkpt>
      <trkpt lat="48.83915" lon="2.33734">
        <ele>44</ele>
        <time>2013-09-12T20:35:24Z</time>
      </trkpt>
      <trkpt lat="48.83921" lon="2.33738">
        <ele>50</ele>
        <time>2013-09-12T20:35:26Z</time>
      </trkpt>
      <trkpt lat="48.83927" lon="2.33735">
        <ele>48</ele>
        <time>2013-09-12T20:35:28Z</time>
      </trkpt>
      <trkpt lat="48.8393" lon="2.33727">
        <ele>49</ele>
        <time>2013-09-12T20:35:31Z</time>
      </trkpt>
      <trkpt lat="48.83934" lon="2.33718">
        <ele>50</ele>
        <time>2013-09-12T20:35:34Z</time>
      </trkpt>
      <trkpt lat="48.83935" lon="2.33708">
        <ele>49</ele>
        <time>2013-09-12T20:35:37Z</time>
      </trkpt>
      <trkpt lat="48.8394" lon="2.33691">
        <ele>54</ele>
        <time>2013-09-12T20:35:43Z</time>
      </trkpt>
      <trkpt lat="48.83949" lon="2.33695">
        <ele>51</ele>
        <time>2013-09-12T20:35:55Z</time>
      </trkpt>
      <trkpt lat="48.83954" lon="2.33702">
        <ele>51</ele>
        <time>2013-09-12T20:35:58Z</time>
      </trkpt>
      <trkpt lat="48.83959" lon="2.33707">
        <ele>56</ele>
        <time>2013-09-12T20:36:03Z</time>
      </trkpt>
      <trkpt lat="48.83965" lon="2.33708">
        <ele>57</ele>
        <time>2013-09-12T20:36:06Z</time>
      </trkpt>
      <trkpt lat="48.8397" lon="2.33699">
        <ele>63</ele>
        <time>2013-09-12T20:36:10Z</time>
      </trkpt>
      <trkpt lat="48.83978" lon="2.33698">
        <ele>68</ele>
        <time>2013-09-12T20:36:14Z</time>
      </trkpt>
      <trkpt lat="48.83983" lon="2.33699">
        <ele>68</ele>
        <time>2013-09-12T20:36:16Z</time>
      </trkpt>
      <trkpt lat="48.83989" lon="2.33702">
        <ele>68</ele>
        <time>2013-09-12T20:36:18Z</time>
      </trkpt>
      <trkpt lat="48.84008" lon="2.33708">
        <ele>52</ele>
        <time>2013-09-12T20:36:24Z</time>
      </trkpt>
      <trkpt lat="48.84025" lon="2.3372">
        <ele>61</ele>
        <time>2013-09-12T20:36:30Z</time>
      </trkpt>
      <trkpt lat="48.8403" lon="2.33729">
        <ele>56</ele>
        <time>2013-09-12T20:36:33Z</time>
      </trkpt>
      <trkpt lat="48.84035" lon="2.33734">
        <ele>50</ele>
        <time>2013-09-12T20:36:35Z</time>
      </trkpt>
      <trkpt lat="48.84046" lon="2.33741">
        <ele>47</ele>
        <time>2013-09-12T20:36:39Z</time>
      </trkpt>
      <trkpt lat="48.84052" lon="2.33743">
        <ele>43</ele>
        <time>2013-09-12T20:36:41Z</time>
      </trkpt>
      <trkpt lat="48.84063" lon="2.33745">
        <ele>47</ele>
        <time>2013-09-12T20:36:44Z</time>
      </trkpt>
      <trkpt lat="48.84078" lon="2.33744">
        <ele>47</ele>
        <time>2013-09-12T20:36:49Z</time>
      </trkpt>
      <trkpt lat="48.84092" lon="2.33732">
        <ele>47</ele>
        <time>2013-09-12T20:36:57Z</time>
      </trkpt>
      <trkpt lat="48.84109" lon="2.33731">
        <ele>46</ele>
        <time>2013-09-12T20:37:03Z</time>
      </trkpt>
      <trkpt lat="48.84168" lon="2.3379">
        <ele>46</ele>
        <time>2013-09-12T20:37:37Z</time>
      </trkpt>
      <trkpt lat="48.84105" lon="2.33646">
        <ele>44</ele>
        <time>2013-09-12T20:38:21Z</time>
      </trkpt>
      <trkpt lat="48.84128" lon="2.33697">
        <ele>53</ele>
        <time>2013-09-12T20:38:32Z</time>
      </trkpt>
      <trkpt lat="48.84173" lon="2.33763">
        <ele>45</ele>
        <time>2013-09-12T20:39:26Z</time>
      </trkpt>
      <trkpt lat="48.84167" lon="2.33836">
        <ele>48</ele>
        <time>2013-09-12T20:39:38Z</time>
      </trkpt>
      <trkpt lat="48.84169" lon="2.33896">
        <ele>96</ele>
        <time>2013-09-12T20:39:46Z</time>
      </trkpt>
      <trkpt lat="48.84187" lon="2.3393">
        <ele>165</ele>
        <time>2013-09-12T20:39:53Z</time>
      </trkpt>
      <trkpt lat="48.84185" lon="2.33927">
        <ele>148</ele>
        <time>2013-09-12T20:39:58Z</time>
      </trkpt>
      <trkpt lat="48.84205" lon="2.33739">
        <ele>39</ele>
        <time>2013-09-12T20:40:28Z</time>
      </trkpt>
      <trkpt lat="48.84195" lon="2.33752">
        <ele>47</ele>
        <time>2013-09-12T20:41:02Z</time>
      </trkpt>
      <trkpt lat="48.84191" lon="2.33758">
        <ele>47</ele>
        <time>2013-09-12T20:41:04Z</time>
      </trkpt>
      <trkpt lat="48.84184" lon="2.3377">
        <ele>47</ele>
        <time>2013-09-12T20:41:07Z</time>
      </trkpt>
      <trkpt lat="48.84181" lon="2.33777">
        <ele>47</ele>
        <time>2013-09-12T20:41:10Z</time>
      </trkpt>
      <trkpt lat="48.84185" lon="2.33784">
        <ele>46</ele>
        <time>2013-09-12T20:41:28Z</time>
      </trkpt>
      <trkpt lat="48.84188" lon="2.33791">
        <ele>46</ele>
        <time>2013-09-12T20:41:31Z</time>
      </trkpt>
      <trkpt lat="48.84183" lon="2.33769">
        <ele>53</ele>
        <time>2013-09-12T20:42:22Z</time>
      </trkpt>
      <trkpt lat="48.84176" lon="2.33769">
        <ele>50</ele>
        <time>2013-09-12T20:42:28Z</time>
      </trkpt>
      <trkpt lat="48.84171" lon="2.3377">
        <ele>59</ele>
        <time>2013-09-12T20:42:31Z</time>
      </trkpt>
      <trkpt lat="48.84186" lon="2.33777">
        <ele>48</ele>
        <time>2013-09-12T20:43:19Z</time>
      </trkpt>
      <trkpt lat="48.84239" lon="2.33803">
        <ele>58</ele>
        <time>2013-09-12T20:43:30Z</time>
      </trkpt>
      <trkpt lat="48.84261" lon="2.33819">
        <ele>50</ele>
        <time>2013-09-12T20:43:33Z</time>
      </trkpt>
      <trkpt lat="48.84309" lon="2.33859">
        <ele>44</ele>
        <time>2013-09-12T20:43:41Z</time>
      </trkpt>
      <trkpt lat="48.84322" lon="2.33875">
        <ele>45</ele>
        <time>2013-09-12T20:43:46Z</time>
      </trkpt>
      <trkpt lat="48.84338" lon="2.33889">
        <ele>43</ele>
        <time>2013-09-12T20:43:52Z</time>
      </trkpt>
      <trkpt lat="48.84351" lon="2.33897">
        <ele>46</ele>
        <time>2013-09-12T20:43:57Z</time>
      </trkpt>
      <trkpt lat="48.84401" lon="2.33922">
        <ele>45</ele>
        <time>2013-09-12T20:44:16Z</time>
      </trkpt>
      <trkpt lat="48.84409" lon="2.33923">
        <ele>47</ele>
        <time>2013-09-12T20:44:19Z</time>
      </trkpt>
      <trkpt lat="48.84415" lon="2.33927">
        <ele>43</ele>
        <time>2013-09-12T20:44:22Z</time>
      </trkpt>
      <trkpt lat="48.84422" lon="2.33929">
        <ele>50</ele>
        <time>2013-09-12T20:44:26Z</time>
      </trkpt>
      <trkpt lat="48.84427" lon="2.33928">
        <ele>55</ele>
        <time>2013-09-12T20:44:27Z</time>
      </trkpt>
      <trkpt lat="48.84433" lon="2.33928">
        <ele>46</ele>
        <time>2013-09-12T20:44:30Z</time>
      </trkpt>
      <trkpt lat="48.84448" lon="2.33932">
        <ele>44</ele>
        <time>2013-09-12T20:44:36Z</time>
      </trkpt>
      <trkpt lat="48.84454" lon="2.33938">
        <ele>46</ele>
        <time>2013-09-12T20:44:38Z</time>
      </trkpt>
      <trkpt lat="48.8446" lon="2.33941">
        <ele>43</ele>
        <time>2013-09-12T20:44:40Z</time>
      </trkpt>
      <trkpt lat="48.84466" lon="2.33944">
        <ele>45</ele>
        <time>2013-09-12T20:44:42Z</time>
      </trkpt>
      <trkpt lat="48.84476" lon="2.33949">
        <ele>45</ele>
        <time>2013-09-12T20:44:45Z</time>
      </trkpt>
      <trkpt lat="48.84482" lon="2.33954">
        <ele>46</ele>
        <time>2013-09-12T20:44:47Z</time>
      </trkpt>
      <trkpt lat="48.845" lon="2.33971">
        <ele>45</ele>
        <time>2013-09-12T20:44:53Z</time>
      </trkpt>
      <trkpt lat="48.84623" lon="2.3405">
        <ele>55</ele>
        <time>2013-09-12T20:45:29Z</time>
      </trkpt>
      <trkpt lat="48.84625" lon="2.34048">
        <ele>42</ele>
        <time>2013-09-12T20:45:30Z</time>
      </trkpt>
      <trkpt lat="48.84662" lon="2.34122">
        <ele>56</ele>
        <time>2013-09-12T20:45:46Z</time>
      </trkpt>
      <trkpt lat="48.84667" lon="2.34096">
        <ele>74</ele>
        <time>2013-09-12T20:45:49Z</time>
      </trkpt>
      <trkpt lat="48.84673" lon="2.34094">
        <ele>76</ele>
        <time>2013-09-12T20:45:53Z</time>
      </trkpt>
      <trkpt lat="48.84677" lon="2.34092">
        <ele>75</ele>
        <time>2013-09-12T20:45:55Z</time>
      </trkpt>
      <trkpt lat="48.84683" lon="2.34092">
        <ele>71</ele>
        <time>2013-09-12T20:45:57Z</time>
      </trkpt>
      <trkpt lat="48.84689" lon="2.34092">
        <ele>65</ele>
        <time>2013-09-12T20:45:59Z</time>
      </trkpt>
      <trkpt lat="48.84707" lon="2.34095">
        <ele>64</ele>
        <time>2013-09-12T20:46:05Z</time>
      </trkpt>
      <trkpt lat="48.84713" lon="2.34098">
        <ele>61</ele>
        <time>2013-09-12T20:46:08Z</time>
      </trkpt>
      <trkpt lat="48.84717" lon="2.34103">
        <ele>59</ele>
        <time>2013-09-12T20:46:09Z</time>
      </trkpt>
      <trkpt lat="48.84721" lon="2.34109">
        <ele>58</ele>
        <time>2013-09-12T20:46:11Z</time>
      </trkpt>
      <trkpt lat="48.84729" lon="2.34119">
        <ele>48</ele>
        <time>2013-09-12T20:46:16Z</time>
      </trkpt>
      <trkpt lat="48.84729" lon="2.34129">
        <ele>59</ele>
        <time>2013-09-12T20:46:23Z</time>
      </trkpt>
      <trkpt lat="48.84728" lon="2.34155">
        <ele>62</ele>
        <time>2013-09-12T20:46:31Z</time>
      </trkpt>
      <trkpt lat="48.84724" lon="2.34162">
        <ele>64</ele>
        <time>2013-09-12T20:46:34Z</time>
      </trkpt>
      <trkpt lat="48.84724" lon="2.34172">
        <ele>64</ele>
        <time>2013-09-12T20:46:37Z</time>
      </trkpt>
      <trkpt lat="48.84725" lon="2.3418">
        <ele>62</ele>
        <time>2013-09-12T20:46:39Z</time>
      </trkpt>
      <trkpt lat="48.84729" lon="2.34151">
        <ele>50</ele>
        <time>2013-09-12T20:50:39Z</time>
      </trkpt>
      <trkpt lat="48.84728" lon="2.34124">
        <ele>47</ele>
        <time>2013-09-12T20:50:43Z</time>
      </trkpt>
      <trkpt lat="48.84727" lon="2.34118">
        <ele>50</ele>
        <time>2013-09-12T20:51:37Z</time>
      </trkpt>
      <trkpt lat="48.84731" lon="2.34124">
        <ele>50</ele>
        <time>2013-09-12T20:52:21Z</time>
      </trkpt>
      <trkpt lat="48.84734" lon="2.3413">
        <ele>50</ele>
        <time>2013-09-12T20:52:51Z</time>
      </trkpt>
      <trkpt lat="48.84741" lon="2.3411">
        <ele>56</ele>
        <time>2013-09-12T20:54:44Z</time>
      </trkpt>
      <trkpt lat="48.84746" lon="2.3412">
        <ele>47</ele>
        <time>2013-09-12T20:56:22Z</time>
      </trkpt>
      <trkpt lat="48.8474" lon="2.34121">
        <ele>47</ele>
        <time>2013-09-12T20:58:51Z</time>
      </trkpt>
      <trkpt lat="48.84741" lon="2.34132">
        <ele>45</ele>
        <time>2013-09-12T20:59:27Z</time>
      </trkpt>
      <trkpt lat="48.84741" lon="2.34143">
        <ele>44</ele>
        <time>2013-09-12T20:59:30Z</time>
      </trkpt>
      <trkpt lat="48.84737" lon="2.34149">
        <ele>43</ele>
        <time>2013-09-12T20:59:33Z</time>
      </trkpt>
      <trkpt lat="48.84727" lon="2.34155">
        <ele>42</ele>
        <time>2013-09-12T20:59:43Z</time>
      </trkpt>
      <trkpt lat="48.84728" lon="2.34147">
        <ele>49</ele>
        <time>2013-09-12T21:00:06Z</time>
      </trkpt>
      <trkpt lat="48.84722" lon="2.34148">
        <ele>55</ele>
        <time>2013-09-12T21:00:09Z</time>
      </trkpt>
      <trkpt lat="48.84716" lon="2.34155">
        <ele>56</ele>
        <time>2013-09-12T21:00:12Z</time>
      </trkpt>
      <trkpt lat="48.84712" lon="2.34164">
        <ele>53</ele>
        <time>2013-09-12T21:00:14Z</time>
      </trkpt>
      <trkpt lat="48.84709" lon="2.34173">
        <ele>51</ele>
        <time>2013-09-12T21:00:16Z</time>
      </trkpt>
      <trkpt lat="48.84705" lon="2.34177">
        <ele>53</ele>
        <time>2013-09-12T21:00:19Z</time>
      </trkpt>
      <trkpt lat="48.84699" lon="2.34186">
        <ele>45</ele>
        <time>2013-09-12T21:00:26Z</time>
      </trkpt>
      <trkpt lat="48.84698" lon="2.34197">
        <ele>48</ele>
        <time>2013-09-12T21:00:29Z</time>
      </trkpt>
      <trkpt lat="48.84695" lon="2.34225">
        <ele>45</ele>
        <time>2013-09-12T21:00:36Z</time>
      </trkpt>
      <trkpt lat="48.84695" lon="2.34233">
        <ele>48</ele>
        <time>2013-09-12T21:00:38Z</time>
      </trkpt>
      <trkpt lat="48.84698" lon="2.34251">
        <ele>52</ele>
        <time>2013-09-12T21:00:43Z</time>
      </trkpt>
      <trkpt lat="48.84701" lon="2.34259">
        <ele>66</ele>
        <time>2013-09-12T21:00:45Z</time>
      </trkpt>
      <trkpt lat="48.84704" lon="2.34269">
        <ele>63</ele>
        <time>2013-09-12T21:00:47Z</time>
      </trkpt>
      <trkpt lat="48.84698" lon="2.34278">
        <ele>57</ele>
        <time>2013-09-12T21:00:51Z</time>
      </trkpt>
      <trkpt lat="48.84693" lon="2.34287">
        <ele>54</ele>
        <time>2013-09-12T21:00:54Z</time>
      </trkpt>
      <trkpt lat="48.8469" lon="2.34295">
        <ele>61</ele>
        <time>2013-09-12T21:00:56Z</time>
      </trkpt>
      <trkpt lat="48.84688" lon="2.34305">
        <ele>62</ele>
        <time>2013-09-12T21:01:00Z</time>
      </trkpt>
      <trkpt lat="48.84676" lon="2.34327">
        <ele>61</ele>
        <time>2013-09-12T21:01:10Z</time>
      </trkpt>
      <trkpt lat="48.84671" lon="2.34332">
        <ele>57</ele>
        <time>2013-09-12T21:01:12Z</time>
      </trkpt>
      <trkpt lat="48.84667" lon="2.3434">
        <ele>67</ele>
        <time>2013-09-12T21:01:16Z</time>
      </trkpt>
      <trkpt lat="48.84663" lon="2.34351">
        <ele>81</ele>
        <time>2013-09-12T21:01:19Z</time>
      </trkpt>
      <trkpt lat="48.84659" lon="2.34361">
        <ele>81</ele>
        <time>2013-09-12T21:01:22Z</time>
      </trkpt>
      <trkpt lat="48.84657" lon="2.34372">
        <ele>83</ele>
        <time>2013-09-12T21:01:25Z</time>
      </trkpt>
      <trkpt lat="48.84656" lon="2.34384">
        <ele>63</ele>
        <time>2013-09-12T21:01:28Z</time>
      </trkpt>
      <trkpt lat="48.84655" lon="2.34395">
        <ele>72</ele>
        <time>2013-09-12T21:01:30Z</time>
      </trkpt>
      <trkpt lat="48.84652" lon="2.34408">
        <ele>56</ele>
        <time>2013-09-12T21:01:33Z</time>
      </trkpt>
      <trkpt lat="48.84649" lon="2.34418">
        <ele>52</ele>
        <time>2013-09-12T21:01:35Z</time>
      </trkpt>
      <trkpt lat="48.84642" lon="2.34432">
        <ele>49</ele>
        <time>2013-09-12T21:01:38Z</time>
      </trkpt>
      <trkpt lat="48.84637" lon="2.34441">
        <ele>45</ele>
        <time>2013-09-12T21:01:41Z</time>
      </trkpt>
      <trkpt lat="48.84631" lon="2.3445">
        <ele>46</ele>
        <time>2013-09-12T21:01:44Z</time>
      </trkpt>
      <trkpt lat="48.84625" lon="2.34453">
        <ele>46</ele>
        <time>2013-09-12T21:01:47Z</time>
      </trkpt>
      <trkpt lat="48.84617" lon="2.3446">
        <ele>45</ele>
        <time>2013-09-12T21:01:51Z</time>
      </trkpt>
      <trkpt lat="48.84606" lon="2.34466">
        <ele>44</ele>
        <time>2013-09-12T21:01:56Z</time>
      </trkpt>
      <trkpt lat="48.84601" lon="2.34462">
        <ele>45</ele>
        <time>2013-09-12T21:01:59Z</time>
      </trkpt>
      <trkpt lat="48.84591" lon="2.34459">
        <ele>47</ele>
        <time>2013-09-12T21:02:12Z</time>
      </trkpt>
      <trkpt lat="48.84554" lon="2.34566">
        <ele>46</ele>
        <time>2013-09-12T21:02:36Z</time>
      </trkpt>
      <trkpt lat="48.84557" lon="2.34601">
        <ele>41</ele>
        <time>2013-09-12T21:02:42Z</time>
      </trkpt>
      <trkpt lat="48.84557" lon="2.34614">
        <ele>46</ele>
        <time>2013-09-12T21:02:44Z</time>
      </trkpt>
      <trkpt lat="48.84554" lon="2.34624">
        <ele>46</ele>
        <time>2013-09-12T21:02:47Z</time>
      </trkpt>
      <trkpt lat="48.8455" lon="2.34634">
        <ele>46</ele>
        <time>2013-09-12T21:02:49Z</time>
      </trkpt>
      <trkpt lat="48.8454" lon="2.34659">
        <ele>44</ele>
        <time>2013-09-12T21:02:54Z</time>
      </trkpt>
      <trkpt lat="48.84537" lon="2.34669">
        <ele>44</ele>
        <time>2013-09-12T21:02:56Z</time>
      </trkpt>
      <trkpt lat="48.84537" lon="2.34678">
        <ele>48</ele>
        <time>2013-09-12T21:02:59Z</time>
      </trkpt>
      <trkpt lat="48.8454" lon="2.34687">
        <ele>55</ele>
        <time>2013-09-12T21:03:02Z</time>
      </trkpt>
      <trkpt lat="48.84546" lon="2.34693">
        <ele>54</ele>
        <time>2013-09-12T21:03:05Z</time>
      </trkpt>
      <trkpt lat="48.84553" lon="2.34695">
        <ele>59</ele>
        <time>2013-09-12T21:03:07Z</time>
      </trkpt>
      <trkpt lat="48.84572" lon="2.34701">
        <ele>47</ele>
        <time>2013-09-12T21:03:13Z</time>
      </trkpt>
      <trkpt lat="48.84579" lon="2.34699">
        <ele>46</ele>
        <time>2013-09-12T21:03:15Z</time>
      </trkpt>
      <trkpt lat="48.84586" lon="2.34701">
        <ele>47</ele>
        <time>2013-09-12T21:03:17Z</time>
      </trkpt>
      <trkpt lat="48.84593" lon="2.34704">
        <ele>47</ele>
        <time>2013-09-12T21:03:19Z</time>
      </trkpt>
      <trkpt lat="48.84633" lon="2.34722">
        <ele>45</ele>
        <time>2013-09-12T21:03:29Z</time>
      </trkpt>
      <trkpt lat="48.84638" lon="2.34727">
        <ele>46</ele>
        <time>2013-09-12T21:03:31Z</time>
      </trkpt>
      <trkpt lat="48.84642" lon="2.34734">
        <ele>44</ele>
        <time>2013-09-12T21:03:34Z</time>
      </trkpt>
      <trkpt lat="48.84642" lon="2.34744">
        <ele>44</ele>
        <time>2013-09-12T21:03:37Z</time>
      </trkpt>
      <trkpt lat="48.84641" lon="2.34753">
        <ele>46</ele>
        <time>2013-09-12T21:03:39Z</time>
      </trkpt>
      <trkpt lat="48.84633" lon="2.34881">
        <ele>49</ele>
        <time>2013-09-12T21:04:21Z</time>
      </trkpt>
      <trkpt lat="48.84619" lon="2.34903">
        <ele>48</ele>
        <time>2013-09-12T21:04:25Z</time>
      </trkpt>
      <trkpt lat="48.84613" lon="2.34908">
        <ele>47</ele>
        <time>2013-09-12T21:04:27Z</time>
      </trkpt>
      <trkpt lat="48.84612" lon="2.34916">
        <ele>50</ele>
        <time>2013-09-12T21:04:30Z</time>
      </trkpt>
      <trkpt lat="48.84613" lon="2.34925">
        <ele>47</ele>
        <time>2013-09-12T21:04:34Z</time>
      </trkpt>
      <trkpt lat="48.84611" lon="2.34935">
        <ele>46</ele>
        <time>2013-09-12T21:04:36Z</time>
      </trkpt>
      <trkpt lat="48.846" lon="2.34994">
        <ele>46</ele>
        <time>2013-09-12T21:04:45Z</time>
      </trkpt>
      <trkpt lat="48.84598" lon="2.35008">
        <ele>46</ele>
        <time>2013-09-12T21:04:47Z</time>
      </trkpt>
      <trkpt lat="48.84594" lon="2.35031">
        <ele>48</ele>
        <time>2013-09-12T21:04:50Z</time>
      </trkpt>
      <trkpt lat="48.8459" lon="2.35044">
        <ele>51</ele>
        <time>2013-09-12T21:04:52Z</time>
      </trkpt>
      <trkpt lat="48.84587" lon="2.35062">
        <ele>50</ele>
        <time>2013-09-12T21:05:01Z</time>
      </trkpt>
      <trkpt lat="48.84591" lon="2.35071">
        <ele>49</ele>
        <time>2013-09-12T21:05:06Z</time>
      </trkpt>
      <trkpt lat="48.84605" lon="2.35101">
        <ele>47</ele>
        <time>2013-09-12T21:05:11Z</time>
      </trkpt>
      <trkpt lat="48.84609" lon="2.35107">
        <ele>45</ele>
        <time>2013-09-12T21:05:12Z</time>
      </trkpt>
      <trkpt lat="48.84626" lon="2.3513">
        <ele>35</ele>
        <time>2013-09-12T21:05:15Z</time>
      </trkpt>
      <trkpt lat="48.84643" lon="2.35152">
        <ele>35</ele>
        <time>2013-09-12T21:05:18Z</time>
      </trkpt>
      <trkpt lat="48.84648" lon="2.3516">
        <ele>32</ele>
        <time>2013-09-12T21:05:19Z</time>
      </trkpt>
      <trkpt lat="48.84661" lon="2.3518">
        <ele>32</ele>
        <time>2013-09-12T21:05:22Z</time>
      </trkpt>
      <trkpt lat="48.84665" lon="2.35185">
        <ele>32</ele>
        <time>2013-09-12T21:05:23Z</time>
      </trkpt>
      <trkpt lat="48.8472" lon="2.35252">
        <ele>26</ele>
        <time>2013-09-12T21:05:32Z</time>
      </trkpt>
      <trkpt lat="48.84736" lon="2.35275">
        <ele>27</ele>
        <time>2013-09-12T21:05:35Z</time>
      </trkpt>
      <trkpt lat="48.84737" lon="2.35283">
        <ele>28</ele>
        <time>2013-09-12T21:05:36Z</time>
      </trkpt>
      <trkpt lat="48.8474" lon="2.35312">
        <ele>32</ele>
        <time>2013-09-12T21:05:40Z</time>
      </trkpt>
      <trkpt lat="48.84737" lon="2.35323">
        <ele>37</ele>
        <time>2013-09-12T21:05:42Z</time>
      </trkpt>
      <trkpt lat="48.84741" lon="2.35341">
        <ele>23</ele>
        <time>2013-09-12T21:06:09Z</time>
      </trkpt>
      <trkpt lat="48.84748" lon="2.35346">
        <ele>30</ele>
        <time>2013-09-12T21:06:11Z</time>
      </trkpt>
      <trkpt lat="48.84757" lon="2.35356">
        <ele>46</ele>
        <time>2013-09-12T21:06:16Z</time>
      </trkpt>
      <trkpt lat="48.84767" lon="2.35364">
        <ele>36</ele>
        <time>2013-09-12T21:06:20Z</time>
      </trkpt>
      <trkpt lat="48.84775" lon="2.35368">
        <ele>27</ele>
        <time>2013-09-12T21:06:23Z</time>
      </trkpt>
      <trkpt lat="48.84779" lon="2.35374">
        <ele>23</ele>
        <time>2013-09-12T21:06:26Z</time>
      </trkpt>
      <trkpt lat="48.84812" lon="2.35422">
        <ele>29</ele>
        <time>2013-09-12T21:06:45Z</time>
      </trkpt>
      <trkpt lat="48.8482" lon="2.35433">
        <ele>28</ele>
        <time>2013-09-12T21:06:51Z</time>
      </trkpt>
      <trkpt lat="48.84837" lon="2.35457">
        <ele>30</ele>
        <time>2013-09-12T21:07:02Z</time>
      </trkpt>
      <trkpt lat="48.84842" lon="2.3547">
        <ele>27</ele>
        <time>2013-09-12T21:07:07Z</time>
      </trkpt>
      <trkpt lat="48.84851" lon="2.35484">
        <ele>24</ele>
        <time>2013-09-12T21:07:13Z</time>
      </trkpt>
      <trkpt lat="48.84857" lon="2.35497">
        <ele>26</ele>
        <time>2013-09-12T21:07:20Z</time>
      </trkpt>
      <trkpt lat="48.84862" lon="2.35509">
        <ele>25</ele>
        <time>2013-09-12T21:07:27Z</time>
      </trkpt>
      <trkpt lat="48.8487" lon="2.35519">
        <ele>38</ele>
        <time>2013-09-12T21:07:34Z</time>
      </trkpt>
      <trkpt lat="48.8488" lon="2.35533">
        <ele>32</ele>
        <time>2013-09-12T21:07:39Z</time>
      </trkpt>
      <trkpt lat="48.84892" lon="2.35555">
        <ele>39</ele>
        <time>2013-09-12T21:07:47Z</time>
      </trkpt>
      <trkpt lat="48.84896" lon="2.3556">
        <ele>38</ele>
        <time>2013-09-12T21:07:49Z</time>
      </trkpt>
      <trkpt lat="48.84912" lon="2.35581">
        <ele>31</ele>
        <time>2013-09-12T21:07:57Z</time>
      </trkpt>
      <trkpt lat="48.84923" lon="2.35599">
        <ele>24</ele>
        <time>2013-09-12T21:08:09Z</time>
      </trkpt>
      <trkpt lat="48.8492" lon="2.35605">
        <ele>35</ele>
        <time>2013-09-12T21:08:12Z</time>
      </trkpt>
      <trkpt lat="48.84914" lon="2.35619">
        <ele>34</ele>
        <time>2013-09-12T21:08:17Z</time>
      </trkpt>
      <trkpt lat="48.84913" lon="2.3563">
        <ele>38</ele>
        <time>2013-09-12T21:08:19Z</time>
      </trkpt>
      <trkpt lat="48.84912" lon="2.35648">
        <ele>38</ele>
        <time>2013-09-12T21:08:22Z</time>
      </trkpt>
      <trkpt lat="48.84912" lon="2.35657">
        <ele>33</ele>
        <time>2013-09-12T21:08:25Z</time>
      </trkpt>
      <trkpt lat="48.84913" lon="2.35662">
        <ele>31</ele>
        <time>2013-09-12T21:08:26Z</time>
      </trkpt>
      <trkpt lat="48.84915" lon="2.35669">
        <ele>30</ele>
        <time>2013-09-12T21:08:27Z</time>
      </trkpt>
      <trkpt lat="48.8492" lon="2.35679">
        <ele>34</ele>
        <time>2013-09-12T21:08:29Z</time>
      </trkpt>
      <trkpt lat="48.84918" lon="2.35696">
        <ele>46</ele>
        <time>2013-09-12T21:08:45Z</time>
      </trkpt>
      <trkpt lat="48.84925" lon="2.35706">
        <ele>34</ele>
        <time>2013-09-12T21:08:58Z</time>
      </trkpt>
      <trkpt lat="48.84934" lon="2.35714">
        <ele>46</ele>
        <time>2013-09-12T21:09:05Z</time>
      </trkpt>
      <trkpt lat="48.84943" lon="2.35716">
        <ele>35</ele>
        <time>2013-09-12T21:09:09Z</time>
      </trkpt>
      <trkpt lat="48.84947" lon="2.35722">
        <ele>37</ele>
        <time>2013-09-12T21:09:12Z</time>
      </trkpt>
      <trkpt lat="48.84949" lon="2.35731">
        <ele>39</ele>
        <time>2013-09-12T21:09:14Z</time>
      </trkpt>
      <trkpt lat="48.84952" lon="2.35739">
        <ele>38</ele>
        <time>2013-09-12T21:09:15Z</time>
      </trkpt>
      <trkpt lat="48.84955" lon="2.35754">
        <ele>38</ele>
        <time>2013-09-12T21:09:17Z</time>
      </trkpt>
      <trkpt lat="48.84961" lon="2.3578">
        <ele>34</ele>
        <time>2013-09-12T21:09:21Z</time>
      </trkpt>
      <trkpt lat="48.84963" lon="2.35785">
        <ele>30</ele>
        <time>2013-09-12T21:09:22Z</time>
      </trkpt>
      <trkpt lat="48.84968" lon="2.35798">
        <ele>35</ele>
        <time>2013-09-12T21:09:25Z</time>
      </trkpt>
      <trkpt lat="48.84968" lon="2.35803">
        <ele>36</ele>
        <time>2013-09-12T21:09:26Z</time>
      </trkpt>
      <trkpt lat="48.84972" lon="2.35813">
        <ele>36</ele>
        <time>2013-09-12T21:09:28Z</time>
      </trkpt>
      <trkpt lat="48.84974" lon="2.35818">
        <ele>34</ele>
        <time>2013-09-12T21:09:29Z</time>
      </trkpt>
      <trkpt lat="48.8498" lon="2.3583">
        <ele>30</ele>
        <time>2013-09-12T21:09:31Z</time>
      </trkpt>
      <trkpt lat="48.84983" lon="2.35841">
        <ele>30</ele>
        <time>2013-09-12T21:09:33Z</time>
      </trkpt>
      <trkpt lat="48.84988" lon="2.35858">
        <ele>32</ele>
        <time>2013-09-12T21:09:36Z</time>
      </trkpt>
      <trkpt lat="48.8499" lon="2.35865">
        <ele>34</ele>
        <time>2013-09-12T21:09:37Z</time>
      </trkpt>
      <trkpt lat="48.84996" lon="2.35882">
        <ele>36</ele>
        <time>2013-09-12T21:09:40Z</time>
      </trkpt>
      <trkpt lat="48.84998" lon="2.35888">
        <ele>34</ele>
        <time>2013-09-12T21:09:41Z</time>
      </trkpt>
      <trkpt lat="48.85003" lon="2.35905">
        <ele>31</ele>
        <time>2013-09-12T21:09:44Z</time>
      </trkpt>
      <trkpt lat="48.85007" lon="2.35915">
        <ele>30</ele>
        <time>2013-09-12T21:09:46Z</time>
      </trkpt>
      <trkpt lat="48.85014" lon="2.35935">
        <ele>30</ele>
        <time>2013-09-12T21:09:50Z</time>
      </trkpt>
      <trkpt lat="48.85034" lon="2.35994">
        <ele>29</ele>
        <time>2013-09-12T21:10:03Z</time>
      </trkpt>
      <trkpt lat="48.85038" lon="2.36013">
        <ele>28</ele>
        <time>2013-09-12T21:10:06Z</time>
      </trkpt>
      <trkpt lat="48.85047" lon="2.36045">
        <ele>30</ele>
        <time>2013-09-12T21:10:11Z</time>
      </trkpt>
      <trkpt lat="48.85049" lon="2.36051">
        <ele>31</ele>
        <time>2013-09-12T21:10:12Z</time>
      </trkpt>
      <trkpt lat="48.85056" lon="2.36073">
        <ele>33</ele>
        <time>2013-09-12T21:10:16Z</time>
      </trkpt>
      <trkpt lat="48.85061" lon="2.3609">
        <ele>32</ele>
        <time>2013-09-12T21:10:20Z</time>
      </trkpt>
      <trkpt lat="48.85065" lon="2.36104">
        <ele>33</ele>
        <time>2013-09-12T21:10:23Z</time>
      </trkpt>
      <trkpt lat="48.85066" lon="2.36108">
        <ele>33</ele>
        <time>2013-09-12T21:10:24Z</time>
      </trkpt>
      <trkpt lat="48.85073" lon="2.36127">
        <ele>36</ele>
        <time>2013-09-12T21:10:29Z</time>
      </trkpt>
      <trkpt lat="48.85074" lon="2.36135">
        <ele>33</ele>
        <time>2013-09-12T21:10:31Z</time>
      </trkpt>
      <trkpt lat="48.85079" lon="2.36145">
        <ele>30</ele>
        <time>2013-09-12T21:10:34Z</time>
      </trkpt>
      <trkpt lat="48.85092" lon="2.36174">
        <ele>26</ele>
        <time>2013-09-12T21:10:39Z</time>
      </trkpt>
      <trkpt lat="48.85093" lon="2.36181">
        <ele>20</ele>
        <time>2013-09-12T21:10:40Z</time>
      </trkpt>
      <trkpt lat="48.85097" lon="2.36197">
        <ele>30</ele>
        <time>2013-09-12T21:10:42Z</time>
      </trkpt>
      <trkpt lat="48.85095" lon="2.36209">
        <ele>27</ele>
        <time>2013-09-12T21:10:44Z</time>
      </trkpt>
      <trkpt lat="48.85097" lon="2.36222">
        <ele>31</ele>
        <time>2013-09-12T21:10:46Z</time>
      </trkpt>
      <trkpt lat="48.851" lon="2.36245">
        <ele>31</ele>
        <time>2013-09-12T21:10:50Z</time>
      </trkpt>
      <trkpt lat="48.85101" lon="2.36252">
        <ele>33</ele>
        <time>2013-09-12T21:10:51Z</time>
      </trkpt>
      <trkpt lat="48.85104" lon="2.36257">
        <ele>30</ele>
        <time>2013-09-12T21:10:52Z</time>
      </trkpt>
      <trkpt lat="48.85105" lon="2.3626">
        <ele>32</ele>
        <time>2013-09-12T21:10:53Z</time>
      </trkpt>
      <trkpt lat="48.85107" lon="2.36263">
        <ele>31</ele>
        <time>2013-09-12T21:10:54Z</time>
      </trkpt>
      <trkpt lat="48.8511" lon="2.36272">
        <ele>34</ele>
        <time>2013-09-12T21:10:56Z</time>
      </trkpt>
      <trkpt lat="48.85112" lon="2.36283">
        <ele>35</ele>
        <time>2013-09-12T21:10:58Z</time>
      </trkpt>
      <trkpt lat="48.85118" lon="2.36313">
        <ele>30</ele>
        <time>2013-09-12T21:11:04Z</time>
      </trkpt>
      <trkpt lat="48.85121" lon="2.36323">
        <ele>28</ele>
        <time>2013-09-12T21:11:06Z</time>
      </trkpt>
      <trkpt lat="48.85123" lon="2.36334">
        <ele>37</ele>
        <time>2013-09-12T21:11:08Z</time>
      </trkpt>
      <trkpt lat="48.85126" lon="2.3634">
        <ele>37</ele>
        <time>2013-09-12T21:11:09Z</time>
      </trkpt>
      <trkpt lat="48.85138" lon="2.36367">
        <ele>34</ele>
        <time>2013-09-12T21:11:14Z</time>
      </trkpt>
      <trkpt lat="48.85141" lon="2.36376">
        <ele>39</ele>
        <time>2013-09-12T21:11:16Z</time>
      </trkpt>
      <trkpt lat="48.85149" lon="2.36402">
        <ele>37</ele>
        <time>2013-09-12T21:11:21Z</time>
      </trkpt>
      <trkpt lat="48.85152" lon="2.36416">
        <ele>36</ele>
        <time>2013-09-12T21:11:24Z</time>
      </trkpt>
      <trkpt lat="48.85153" lon="2.36427">
        <ele>30</ele>
        <time>2013-09-12T21:11:26Z</time>
      </trkpt>
      <trkpt lat="48.85159" lon="2.36434">
        <ele>26</ele>
        <time>2013-09-12T21:11:28Z</time>
      </trkpt>
      <trkpt lat="48.85163" lon="2.36443">
        <ele>28</ele>
        <time>2013-09-12T21:11:30Z</time>
      </trkpt>
      <trkpt lat="48.85166" lon="2.36452">
        <ele>23</ele>
        <time>2013-09-12T21:11:33Z</time>
      </trkpt>
      <trkpt lat="48.85174" lon="2.36479">
        <ele>27</ele>
        <time>2013-09-12T21:11:40Z</time>
      </trkpt>
      <trkpt lat="48.85177" lon="2.36487">
        <ele>33</ele>
        <time>2013-09-12T21:11:42Z</time>
      </trkpt>
      <trkpt lat="48.85185" lon="2.36509">
        <ele>31</ele>
        <time>2013-09-12T21:11:48Z</time>
      </trkpt>
      <trkpt lat="48.85194" lon="2.36536">
        <ele>43</ele>
        <time>2013-09-12T21:11:56Z</time>
      </trkpt>
      <trkpt lat="48.85196" lon="2.36548">
        <ele>44</ele>
        <time>2013-09-12T21:11:59Z</time>
      </trkpt>
      <trkpt lat="48.85198" lon="2.36557">
        <ele>44</ele>
        <time>2013-09-12T21:12:01Z</time>
      </trkpt>
      <trkpt lat="48.852" lon="2.36571">
        <ele>44</ele>
        <time>2013-09-12T21:12:05Z</time>
      </trkpt>
      <trkpt lat="48.85201" lon="2.36581">
        <ele>38</ele>
        <time>2013-09-12T21:12:07Z</time>
      </trkpt>
      <trkpt lat="48.85204" lon="2.36604">
        <ele>42</ele>
        <time>2013-09-12T21:12:11Z</time>
      </trkpt>
      <trkpt lat="48.85207" lon="2.36614">
        <ele>39</ele>
        <time>2013-09-12T21:12:13Z</time>
      </trkpt>
      <trkpt lat="48.85216" lon="2.36642">
        <ele>37</ele>
        <time>2013-09-12T21:12:18Z</time>
      </trkpt>
      <trkpt lat="48.85225" lon="2.36664">
        <ele>35</ele>
        <time>2013-09-12T21:12:24Z</time>
      </trkpt>
      <trkpt lat="48.85231" lon="2.36669">
        <ele>29</ele>
        <time>2013-09-12T21:12:26Z</time>
      </trkpt>
      <trkpt lat="48.85234" lon="2.36676">
        <ele>32</ele>
        <time>2013-09-12T21:12:28Z</time>
      </trkpt>
      <trkpt lat="48.85244" lon="2.36702">
        <ele>29</ele>
        <time>2013-09-12T21:12:35Z</time>
      </trkpt>
      <trkpt lat="48.85245" lon="2.36709">
        <ele>30</ele>
        <time>2013-09-12T21:12:37Z</time>
      </trkpt>
      <trkpt lat="48.85248" lon="2.36718">
        <ele>30</ele>
        <time>2013-09-12T21:12:39Z</time>
      </trkpt>
      <trkpt lat="48.85251" lon="2.36728">
        <ele>28</ele>
        <time>2013-09-12T21:12:42Z</time>
      </trkpt>
      <trkpt lat="48.85252" lon="2.36736">
        <ele>27</ele>
        <time>2013-09-12T21:12:44Z</time>
      </trkpt>
      <trkpt lat="48.85254" lon="2.36746">
        <ele>26</ele>
        <time>2013-09-12T21:12:47Z</time>
      </trkpt>
      <trkpt lat="48.85259" lon="2.36778">
        <ele>28</ele>
        <time>2013-09-12T21:12:55Z</time>
      </trkpt>
      <trkpt lat="48.8526" lon="2.36788">
        <ele>24</ele>
        <time>2013-09-12T21:12:59Z</time>
      </trkpt>
      <trkpt lat="48.85263" lon="2.36795">
        <ele>28</ele>
        <time>2013-09-12T21:13:03Z</time>
      </trkpt>
      <trkpt lat="48.85266" lon="2.36804">
        <ele>33</ele>
        <time>2013-09-12T21:13:06Z</time>
      </trkpt>
      <trkpt lat="48.8527" lon="2.36811">
        <ele>25</ele>
        <time>2013-09-12T21:13:10Z</time>
      </trkpt>
      <trkpt lat="48.85275" lon="2.36815">
        <ele>28</ele>
        <time>2013-09-12T21:13:13Z</time>
      </trkpt>
      <trkpt lat="48.85275" lon="2.36816">
        <ele>31</ele>
        <time>2013-09-12T21:13:15Z</time>
      </trkpt>
      <trkpt lat="48.85277" lon="2.36819">
        <ele>31</ele>
        <time>2013-09-12T21:13:30Z</time>
      </trkpt>
      <trkpt lat="48.85285" lon="2.36821">
        <ele>30</ele>
        <time>2013-09-12T21:13:33Z</time>
      </trkpt>
      <trkpt lat="48.85297" lon="2.36825">
        <ele>27</ele>
        <time>2013-09-12T21:13:38Z</time>
      </trkpt>
      <trkpt lat="48.85303" lon="2.36825">
        <ele>28</ele>
        <time>2013-09-12T21:13:40Z</time>
      </trkpt>
      <trkpt lat="48.85317" lon="2.36826">
        <ele>24</ele>
        <time>2013-09-12T21:13:45Z</time>
      </trkpt>
      <trkpt lat="48.85319" lon="2.36823">
        <ele>28</ele>
        <time>2013-09-12T21:13:46Z</time>
      </trkpt>
      <trkpt lat="48.85324" lon="2.36827">
        <ele>35</ele>
        <time>2013-09-12T21:14:15Z</time>
      </trkpt>
      <trkpt lat="48.85325" lon="2.36835">
        <ele>37</ele>
        <time>2013-09-12T21:14:17Z</time>
      </trkpt>
      <trkpt lat="48.85328" lon="2.36841">
        <ele>37</ele>
        <time>2013-09-12T21:14:25Z</time>
      </trkpt>
      <trkpt lat="48.85332" lon="2.36845">
        <ele>35</ele>
        <time>2013-09-12T21:14:28Z</time>
      </trkpt>
      <trkpt lat="48.85339" lon="2.36844">
        <ele>37</ele>
        <time>2013-09-12T21:14:33Z</time>
      </trkpt>
      <trkpt lat="48.85346" lon="2.36833">
        <ele>31</ele>
        <time>2013-09-12T21:14:36Z</time>
      </trkpt>
      <trkpt lat="48.85354" lon="2.36837">
        <ele>23</ele>
        <time>2013-09-12T21:14:42Z</time>
      </trkpt>
      <trkpt lat="48.85358" lon="2.3684">
        <ele>27</ele>
        <time>2013-09-12T21:14:45Z</time>
      </trkpt>
      <trkpt lat="48.85361" lon="2.36848">
        <ele>25</ele>
        <time>2013-09-12T21:14:54Z</time>
      </trkpt>
      <trkpt lat="48.85356" lon="2.3685">
        <ele>42</ele>
        <time>2013-09-12T21:15:08Z</time>
      </trkpt>
      <trkpt lat="48.85361" lon="2.36853">
        <ele>39</ele>
        <time>2013-09-12T21:15:18Z</time>
      </trkpt>
      <trkpt lat="48.85371" lon="2.36852">
        <ele>37</ele>
        <time>2013-09-12T21:15:22Z</time>
      </trkpt>
      <trkpt lat="48.85377" lon="2.36856">
        <ele>31</ele>
        <time>2013-09-12T21:15:24Z</time>
      </trkpt>
      <trkpt lat="48.85385" lon="2.36863">
        <ele>30</ele>
        <time>2013-09-12T21:15:27Z</time>
      </trkpt>
      <trkpt lat="48.85386" lon="2.36869">
        <ele>32</ele>
        <time>2013-09-12T21:15:29Z</time>
      </trkpt>
      <trkpt lat="48.8538" lon="2.36869">
        <ele>33</ele>
        <time>2013-09-12T21:15:50Z</time>
      </trkpt>
      <trkpt lat="48.85376" lon="2.36876">
        <ele>36</ele>
        <time>2013-09-12T21:15:53Z</time>
      </trkpt>
      <trkpt lat="48.85372" lon="2.36884">
        <ele>38</ele>
        <time>2013-09-12T21:15:56Z</time>
      </trkpt>
      <trkpt lat="48.85375" lon="2.36893">
        <ele>40</ele>
        <time>2013-09-12T21:15:59Z</time>
      </trkpt>
      <trkpt lat="48.85376" lon="2.36894">
        <ele>40</ele>
        <time>2013-09-12T21:16:00Z</time>
      </trkpt>
      <trkpt lat="48.85376" lon="2.36899">
        <ele>37</ele>
        <time>2013-09-12T21:16:02Z</time>
      </trkpt>
      <trkpt lat="48.85374" lon="2.36908">
        <ele>29</ele>
        <time>2013-09-12T21:16:18Z</time>
      </trkpt>
      <trkpt lat="48.85372" lon="2.36916">
        <ele>39</ele>
        <time>2013-09-12T21:16:20Z</time>
      </trkpt>
      <trkpt lat="48.85368" lon="2.36922">
        <ele>39</ele>
        <time>2013-09-12T21:16:24Z</time>
      </trkpt>
      <trkpt lat="48.85364" lon="2.3693">
        <ele>36</ele>
        <time>2013-09-12T21:16:27Z</time>
      </trkpt>
      <trkpt lat="48.85364" lon="2.36939">
        <ele>34</ele>
        <time>2013-09-12T21:16:30Z</time>
      </trkpt>
      <trkpt lat="48.85365" lon="2.36947">
        <ele>35</ele>
        <time>2013-09-12T21:16:32Z</time>
      </trkpt>
      <trkpt lat="48.85365" lon="2.36952">
        <ele>33</ele>
        <time>2013-09-12T21:16:34Z</time>
      </trkpt>
      <trkpt lat="48.85366" lon="2.3696">
        <ele>36</ele>
        <time>2013-09-12T21:16:46Z</time>
      </trkpt>
      <trkpt lat="48.85366" lon="2.36971">
        <ele>33</ele>
        <time>2013-09-12T21:16:50Z</time>
      </trkpt>
      <trkpt lat="48.85362" lon="2.36977">
        <ele>37</ele>
        <time>2013-09-12T21:16:53Z</time>
      </trkpt>
      <trkpt lat="48.8536" lon="2.36981">
        <ele>31</ele>
        <time>2013-09-12T21:16:56Z</time>
      </trkpt>
      <trkpt lat="48.85357" lon="2.36984">
        <ele>32</ele>
        <time>2013-09-12T21:16:58Z</time>
      </trkpt>
      <trkpt lat="48.85349" lon="2.36996">
        <ele>35</ele>
        <time>2013-09-12T21:17:03Z</time>
      </trkpt>
      <trkpt lat="48.85345" lon="2.37004">
        <ele>35</ele>
        <time>2013-09-12T21:17:05Z</time>
      </trkpt>
      <trkpt lat="48.85342" lon="2.3701">
        <ele>33</ele>
        <time>2013-09-12T21:17:07Z</time>
      </trkpt>
      <trkpt lat="48.85343" lon="2.37017">
        <ele>31</ele>
        <time>2013-09-12T21:17:09Z</time>
      </trkpt>
      <trkpt lat="48.85345" lon="2.37026">
        <ele>29</ele>
        <time>2013-09-12T21:17:12Z</time>
      </trkpt>
      <trkpt lat="48.85348" lon="2.3704">
        <ele>31</ele>
        <time>2013-09-12T21:17:16Z</time>
      </trkpt>
      <trkpt lat="48.85345" lon="2.37048">
        <ele>41</ele>
        <time>2013-09-12T21:17:23Z</time>
      </trkpt>
      <trkpt lat="48.85339" lon="2.3705">
        <ele>39</ele>
        <time>2013-09-12T21:17:27Z</time>
      </trkpt>
      <trkpt lat="48.85335" lon="2.37042">
        <ele>43</ele>
        <time>2013-09-12T21:17:29Z</time>
      </trkpt>
      <trkpt lat="48.85329" lon="2.37026">
        <ele>50</ele>
        <time>2013-09-12T21:17:46Z</time>
      </trkpt>
      <trkpt lat="48.85332" lon="2.37041">
        <ele>51</ele>
        <time>2013-09-12T21:17:59Z</time>
      </trkpt>
      <trkpt lat="48.85339" lon="2.37048">
        <ele>47</ele>
        <time>2013-09-12T21:18:02Z</time>
      </trkpt>
      <trkpt lat="48.85335" lon="2.37042">
        <ele>50</ele>
        <time>2013-09-12T21:18:36Z</time>
      </trkpt>
      <trkpt lat="48.8533" lon="2.37041">
        <ele>55</ele>
        <time>2013-09-12T21:18:43Z</time>
      </trkpt>
      <trkpt lat="48.85329" lon="2.37033">
        <ele>52</ele>
        <time>2013-09-12T21:19:12Z</time>
      </trkpt>
      <trkpt lat="48.85336" lon="2.37034">
        <ele>43</ele>
        <time>2013-09-12T21:19:43Z</time>
      </trkpt>
      <trkpt lat="48.85347" lon="2.37037">
        <ele>37</ele>
        <time>2013-09-12T21:19:50Z</time>
      </trkpt>
      <trkpt lat="48.85354" lon="2.3704">
        <ele>49</ele>
        <time>2013-09-12T21:19:53Z</time>
      </trkpt>
      <trkpt lat="48.8536" lon="2.37046">
        <ele>52</ele>
        <time>2013-09-12T21:19:54Z</time>
      </trkpt>
      <trkpt lat="48.85379" lon="2.37065">
        <ele>48</ele>
        <time>2013-09-12T21:19:59Z</time>
      </trkpt>
      <trkpt lat="48.85384" lon="2.37069">
        <ele>49</ele>
        <time>2013-09-12T21:20:00Z</time>
      </trkpt>
      <trkpt lat="48.854" lon="2.37082">
        <ele>56</ele>
        <time>2013-09-12T21:20:04Z</time>
      </trkpt>
      <trkpt lat="48.85406" lon="2.37084">
        <ele>55</ele>
        <time>2013-09-12T21:20:05Z</time>
      </trkpt>
      <trkpt lat="48.85415" lon="2.3709">
        <ele>55</ele>
        <time>2013-09-12T21:20:07Z</time>
      </trkpt>
      <trkpt lat="48.85434" lon="2.37102">
        <ele>44</ele>
        <time>2013-09-12T21:20:11Z</time>
      </trkpt>
      <trkpt lat="48.8544" lon="2.37112">
        <ele>45</ele>
        <time>2013-09-12T21:20:13Z</time>
      </trkpt>
      <trkpt lat="48.85445" lon="2.37124">
        <ele>42</ele>
        <time>2013-09-12T21:20:15Z</time>
      </trkpt>
      <trkpt lat="48.85446" lon="2.37137">
        <ele>35</ele>
        <time>2013-09-12T21:20:17Z</time>
      </trkpt>
      <trkpt lat="48.85448" lon="2.37152">
        <ele>34</ele>
        <time>2013-09-12T21:20:19Z</time>
      </trkpt>
      <trkpt lat="48.85448" lon="2.37164">
        <ele>34</ele>
        <time>2013-09-12T21:20:21Z</time>
      </trkpt>
      <trkpt lat="48.85451" lon="2.37173">
        <ele>36</ele>
        <time>2013-09-12T21:20:23Z</time>
      </trkpt>
      <trkpt lat="48.85453" lon="2.37181">
        <ele>37</ele>
        <time>2013-09-12T21:20:25Z</time>
      </trkpt>
      <trkpt lat="48.85458" lon="2.37196">
        <ele>40</ele>
        <time>2013-09-12T21:20:28Z</time>
      </trkpt>
      <trkpt lat="48.85463" lon="2.37209">
        <ele>35</ele>
        <time>2013-09-12T21:20:31Z</time>
      </trkpt>
      <trkpt lat="48.85484" lon="2.37256">
        <ele>36</ele>
        <time>2013-09-12T21:20:44Z</time>
      </trkpt>
      <trkpt lat="48.85483" lon="2.37271">
        <ele>35</ele>
        <time>2013-09-12T21:20:47Z</time>
      </trkpt>
      <trkpt lat="48.85482" lon="2.37281">
        <ele>43</ele>
        <time>2013-09-12T21:20:49Z</time>
      </trkpt>
      <trkpt lat="48.85483" lon="2.37288">
        <ele>41</ele>
        <time>2013-09-12T21:20:51Z</time>
      </trkpt>
      <trkpt lat="48.85484" lon="2.37298">
        <ele>44</ele>
        <time>2013-09-12T21:20:53Z</time>
      </trkpt>
      <trkpt lat="48.85489" lon="2.37308">
        <ele>42</ele>
        <time>2013-09-12T21:20:55Z</time>
      </trkpt>
      <trkpt lat="48.85503" lon="2.37332">
        <ele>30</ele>
        <time>2013-09-12T21:21:01Z</time>
      </trkpt>
      <trkpt lat="48.85505" lon="2.37347">
        <ele>25</ele>
        <time>2013-09-12T21:21:03Z</time>
      </trkpt>
      <trkpt lat="48.85507" lon="2.37354">
        <ele>22</ele>
        <time>2013-09-12T21:21:04Z</time>
      </trkpt>
      <trkpt lat="48.8551" lon="2.3736">
        <ele>24</ele>
        <time>2013-09-12T21:21:05Z</time>
      </trkpt>
      <trkpt lat="48.85524" lon="2.37383">
        <ele>24</ele>
        <time>2013-09-12T21:21:10Z</time>
      </trkpt>
      <trkpt lat="48.85533" lon="2.37398">
        <ele>24</ele>
        <time>2013-09-12T21:21:14Z</time>
      </trkpt>
      <trkpt lat="48.85536" lon="2.37405">
        <ele>32</ele>
        <time>2013-09-12T21:21:17Z</time>
      </trkpt>
      <trkpt lat="48.85543" lon="2.37418">
        <ele>40</ele>
        <time>2013-09-12T21:21:20Z</time>
      </trkpt>
      <trkpt lat="48.85547" lon="2.37424">
        <ele>40</ele>
        <time>2013-09-12T21:21:22Z</time>
      </trkpt>
      <trkpt lat="48.8555" lon="2.37431">
        <ele>40</ele>
        <time>2013-09-12T21:21:24Z</time>
      </trkpt>
      <trkpt lat="48.85551" lon="2.37439">
        <ele>41</ele>
        <time>2013-09-12T21:21:26Z</time>
      </trkpt>
      <trkpt lat="48.85553" lon="2.37447">
        <ele>37</ele>
        <time>2013-09-12T21:21:30Z</time>
      </trkpt>
      <trkpt lat="48.85557" lon="2.37454">
        <ele>43</ele>
        <time>2013-09-12T21:21:34Z</time>
      </trkpt>
      <trkpt lat="48.85563" lon="2.37472">
        <ele>33</ele>
        <time>2013-09-12T21:21:47Z</time>
      </trkpt>
      <trkpt lat="48.85564" lon="2.37479">
        <ele>37</ele>
        <time>2013-09-12T21:21:49Z</time>
      </trkpt>
      <trkpt lat="48.85568" lon="2.37494">
        <ele>36</ele>
        <time>2013-09-12T21:21:54Z</time>
      </trkpt>
      <trkpt lat="48.85571" lon="2.37502">
        <ele>33</ele>
        <time>2013-09-12T21:21:57Z</time>
      </trkpt>
      <trkpt lat="48.85576" lon="2.37508">
        <ele>30</ele>
        <time>2013-09-12T21:21:59Z</time>
      </trkpt>
      <trkpt lat="48.8559" lon="2.37526">
        <ele>36</ele>
        <time>2013-09-12T21:22:07Z</time>
      </trkpt>
      <trkpt lat="48.85596" lon="2.37529">
        <ele>36</ele>
        <time>2013-09-12T21:22:11Z</time>
      </trkpt>
      <trkpt lat="48.85599" lon="2.37539">
        <ele>43</ele>
        <time>2013-09-12T21:22:31Z</time>
      </trkpt>
      <trkpt lat="48.85603" lon="2.37548">
        <ele>40</ele>
        <time>2013-09-12T21:22:32Z</time>
      </trkpt>
      <trkpt lat="48.85608" lon="2.3756">
        <ele>46</ele>
        <time>2013-09-12T21:22:34Z</time>
      </trkpt>
      <trkpt lat="48.85613" lon="2.37574">
        <ele>49</ele>
        <time>2013-09-12T21:22:37Z</time>
      </trkpt>
      <trkpt lat="48.8562" lon="2.37603">
        <ele>47</ele>
        <time>2013-09-12T21:22:41Z</time>
      </trkpt>
      <trkpt lat="48.85623" lon="2.37611">
        <ele>45</ele>
        <time>2013-09-12T21:22:43Z</time>
      </trkpt>
      <trkpt lat="48.85627" lon="2.37626">
        <ele>50</ele>
        <time>2013-09-12T21:22:44Z</time>
      </trkpt>
      <trkpt lat="48.85629" lon="2.37649">
        <ele>44</ele>
        <time>2013-09-12T21:22:47Z</time>
      </trkpt>
      <trkpt lat="48.85628" lon="2.37657">
        <ele>42</ele>
        <time>2013-09-12T21:22:48Z</time>
      </trkpt>
      <trkpt lat="48.85636" lon="2.37672">
        <ele>38</ele>
        <time>2013-09-12T21:22:51Z</time>
      </trkpt>
      <trkpt lat="48.85642" lon="2.37689">
        <ele>30</ele>
        <time>2013-09-12T21:22:54Z</time>
      </trkpt>
      <trkpt lat="48.85645" lon="2.37699">
        <ele>29</ele>
        <time>2013-09-12T21:22:56Z</time>
      </trkpt>
      <trkpt lat="48.85656" lon="2.37727">
        <ele>30</ele>
        <time>2013-09-12T21:23:03Z</time>
      </trkpt>
      <trkpt lat="48.85658" lon="2.37735">
        <ele>32</ele>
        <time>2013-09-12T21:23:05Z</time>
      </trkpt>
      <trkpt lat="48.85658" lon="2.37745">
        <ele>31</ele>
        <time>2013-09-12T21:23:07Z</time>
      </trkpt>
      <trkpt lat="48.85659" lon="2.37777">
        <ele>33</ele>
        <time>2013-09-12T21:23:14Z</time>
      </trkpt>
      <trkpt lat="48.8566" lon="2.37785">
        <ele>43</ele>
        <time>2013-09-12T21:23:17Z</time>
      </trkpt>
      <trkpt lat="48.85666" lon="2.37817">
        <ele>35</ele>
        <time>2013-09-12T21:23:28Z</time>
      </trkpt>
      <trkpt lat="48.8567" lon="2.37825">
        <ele>34</ele>
        <time>2013-09-12T21:23:30Z</time>
      </trkpt>
      <trkpt lat="48.85681" lon="2.37855">
        <ele>38</ele>
        <time>2013-09-12T21:23:35Z</time>
      </trkpt>
      <trkpt lat="48.85689" lon="2.37869">
        <ele>36</ele>
        <time>2013-09-12T21:23:36Z</time>
      </trkpt>
      <trkpt lat="48.85693" lon="2.37873">
        <ele>33</ele>
        <time>2013-09-12T21:23:37Z</time>
      </trkpt>
      <trkpt lat="48.85697" lon="2.37884">
        <ele>37</ele>
        <time>2013-09-12T21:23:39Z</time>
      </trkpt>
      <trkpt lat="48.85703" lon="2.37895">
        <ele>35</ele>
        <time>2013-09-12T21:23:41Z</time>
      </trkpt>
      <trkpt lat="48.85709" lon="2.37905">
        <ele>37</ele>
        <time>2013-09-12T21:23:43Z</time>
      </trkpt>
      <trkpt lat="48.85713" lon="2.37913">
        <ele>36</ele>
        <time>2013-09-12T21:23:45Z</time>
      </trkpt>
      <trkpt lat="48.85715" lon="2.3792">
        <ele>40</ele>
        <time>2013-09-12T21:23:47Z</time>
      </trkpt>
      <trkpt lat="48.85719" lon="2.37929">
        <ele>33</ele>
        <time>2013-09-12T21:23:49Z</time>
      </trkpt>
      <trkpt lat="48.85725" lon="2.37937">
        <ele>31</ele>
        <time>2013-09-12T21:23:52Z</time>
      </trkpt>
      <trkpt lat="48.85729" lon="2.37945">
        <ele>31</ele>
        <time>2013-09-12T21:23:55Z</time>
      </trkpt>
      <trkpt lat="48.85735" lon="2.37949">
        <ele>31</ele>
        <time>2013-09-12T21:23:58Z</time>
      </trkpt>
      <trkpt lat="48.8575" lon="2.3796">
        <ele>30</ele>
        <time>2013-09-12T21:24:04Z</time>
      </trkpt>
      <trkpt lat="48.85753" lon="2.37962">
        <ele>31</ele>
        <time>2013-09-12T21:24:05Z</time>
      </trkpt>
      <trkpt lat="48.85759" lon="2.37966">
        <ele>30</ele>
        <time>2013-09-12T21:24:07Z</time>
      </trkpt>
      <trkpt lat="48.85763" lon="2.37971">
        <ele>36</ele>
        <time>2013-09-12T21:24:09Z</time>
      </trkpt>
      <trkpt lat="48.85767" lon="2.37979">
        <ele>33</ele>
        <time>2013-09-12T21:24:11Z</time>
      </trkpt>
      <trkpt lat="48.85771" lon="2.37985">
        <ele>33</ele>
        <time>2013-09-12T21:24:13Z</time>
      </trkpt>
      <trkpt lat="48.85777" lon="2.37989">
        <ele>31</ele>
        <time>2013-09-12T21:24:15Z</time>
      </trkpt>
      <trkpt lat="48.8579" lon="2.37999">
        <ele>25</ele>
        <time>2013-09-12T21:24:20Z</time>
      </trkpt>
      <trkpt lat="48.85792" lon="2.38">
        <ele>26</ele>
        <time>2013-09-12T21:24:21Z</time>
      </trkpt>
      <trkpt lat="48.85798" lon="2.38003">
        <ele>25</ele>
        <time>2013-09-12T21:24:24Z</time>
      </trkpt>
      <trkpt lat="48.85802" lon="2.3801">
        <ele>27</ele>
        <time>2013-09-12T21:24:27Z</time>
      </trkpt>
      <trkpt lat="48.85807" lon="2.38016">
        <ele>23</ele>
        <time>2013-09-12T21:24:31Z</time>
      </trkpt>
      <trkpt lat="48.85805" lon="2.38015">
        <ele>22</ele>
        <time>2013-09-12T21:24:39Z</time>
      </trkpt>
      <trkpt lat="48.85804" lon="2.38024">
        <ele>34</ele>
        <time>2013-09-12T21:24:53Z</time>
      </trkpt>
      <trkpt lat="48.85801" lon="2.38028">
        <ele>36</ele>
        <time>2013-09-12T21:24:56Z</time>
      </trkpt>
      <trkpt lat="48.85801" lon="2.3804">
        <ele>31</ele>
        <time>2013-09-12T21:25:11Z</time>
      </trkpt>
      <trkpt lat="48.85798" lon="2.38052">
        <ele>34</ele>
        <time>2013-09-12T21:25:15Z</time>
      </trkpt>
      <trkpt lat="48.85794" lon="2.38057">
        <ele>39</ele>
        <time>2013-09-12T21:25:18Z</time>
      </trkpt>
      <trkpt lat="48.85793" lon="2.38063">
        <ele>37</ele>
        <time>2013-09-12T21:25:20Z</time>
      </trkpt>
      <trkpt lat="48.85792" lon="2.38067">
        <ele>38</ele>
        <time>2013-09-12T21:25:21Z</time>
      </trkpt>
      <trkpt lat="48.85793" lon="2.38073">
        <ele>37</ele>
        <time>2013-09-12T21:25:23Z</time>
      </trkpt>
      <trkpt lat="48.85793" lon="2.38079">
        <ele>36</ele>
        <time>2013-09-12T21:25:25Z</time>
      </trkpt>
      <trkpt lat="48.85793" lon="2.38083">
        <ele>38</ele>
        <time>2013-09-12T21:25:26Z</time>
      </trkpt>
      <trkpt lat="48.85792" lon="2.38087">
        <ele>39</ele>
        <time>2013-09-12T21:25:27Z</time>
      </trkpt>
      <trkpt lat="48.85794" lon="2.38111">
        <ele>35</ele>
        <time>2013-09-12T21:25:33Z</time>
      </trkpt>
      <trkpt lat="48.85796" lon="2.38119">
        <ele>33</ele>
        <time>2013-09-12T21:25:36Z</time>
      </trkpt>
      <trkpt lat="48.85796" lon="2.38124">
        <ele>38</ele>
        <time>2013-09-12T21:25:38Z</time>
      </trkpt>
      <trkpt lat="48.85798" lon="2.38128">
        <ele>37</ele>
        <time>2013-09-12T21:25:40Z</time>
      </trkpt>
      <trkpt lat="48.85801" lon="2.38137">
        <ele>37</ele>
        <time>2013-09-12T21:25:43Z</time>
      </trkpt>
      <trkpt lat="48.85806" lon="2.38156">
        <ele>34</ele>
        <time>2013-09-12T21:25:49Z</time>
      </trkpt>
      <trkpt lat="48.85833" lon="2.38271">
        <ele>43</ele>
        <time>2013-09-12T21:26:19Z</time>
      </trkpt>
      <trkpt lat="48.85838" lon="2.383">
        <ele>46</ele>
        <time>2013-09-12T21:26:26Z</time>
      </trkpt>
      <trkpt lat="48.85844" lon="2.3833">
        <ele>40</ele>
        <time>2013-09-12T21:26:33Z</time>
      </trkpt>
      <trkpt lat="48.85844" lon="2.38339">
        <ele>42</ele>
        <time>2013-09-12T21:26:35Z</time>
      </trkpt>
      <trkpt lat="48.85846" lon="2.38351">
        <ele>41</ele>
        <time>2013-09-12T21:26:38Z</time>
      </trkpt>
      <trkpt lat="48.85848" lon="2.38359">
        <ele>44</ele>
        <time>2013-09-12T21:26:40Z</time>
      </trkpt>
      <trkpt lat="48.85851" lon="2.38367">
        <ele>52</ele>
        <time>2013-09-12T21:26:48Z</time>
      </trkpt>
      <trkpt lat="48.85854" lon="2.38379">
        <ele>56</ele>
        <time>2013-09-12T21:26:52Z</time>
      </trkpt>
      <trkpt lat="48.85858" lon="2.38384">
        <ele>54</ele>
        <time>2013-09-12T21:26:54Z</time>
      </trkpt>
      <trkpt lat="48.8586" lon="2.38392">
        <ele>45</ele>
        <time>2013-09-12T21:26:56Z</time>
      </trkpt>
      <trkpt lat="48.85867" lon="2.38403">
        <ele>46</ele>
        <time>2013-09-12T21:26:59Z</time>
      </trkpt>
      <trkpt lat="48.85869" lon="2.38412">
        <ele>46</ele>
        <time>2013-09-12T21:27:01Z</time>
      </trkpt>
      <trkpt lat="48.85871" lon="2.38426">
        <ele>43</ele>
        <time>2013-09-12T21:27:07Z</time>
      </trkpt>
      <trkpt lat="48.85874" lon="2.38435">
        <ele>37</ele>
        <time>2013-09-12T21:27:10Z</time>
      </trkpt>
      <trkpt lat="48.85877" lon="2.3844">
        <ele>44</ele>
        <time>2013-09-12T21:27:13Z</time>
      </trkpt>
      <trkpt lat="48.85879" lon="2.38446">
        <ele>45</ele>
        <time>2013-09-12T21:27:16Z</time>
      </trkpt>
      <trkpt lat="48.85882" lon="2.38454">
        <ele>47</ele>
        <time>2013-09-12T21:27:20Z</time>
      </trkpt>
      <trkpt lat="48.85885" lon="2.38463">
        <ele>45</ele>
        <time>2013-09-12T21:27:43Z</time>
      </trkpt>
      <trkpt lat="48.85887" lon="2.38474">
        <ele>43</ele>
        <time>2013-09-12T21:27:47Z</time>
      </trkpt>
      <trkpt lat="48.85887" lon="2.38486">
        <ele>36</ele>
        <time>2013-09-12T21:27:48Z</time>
      </trkpt>
      <trkpt lat="48.85889" lon="2.38493">
        <ele>34</ele>
        <time>2013-09-12T21:27:50Z</time>
      </trkpt>
      <trkpt lat="48.85894" lon="2.38522">
        <ele>41</ele>
        <time>2013-09-12T21:27:59Z</time>
      </trkpt>
      <trkpt lat="48.85896" lon="2.3853">
        <ele>43</ele>
        <time>2013-09-12T21:28:01Z</time>
      </trkpt>
      <trkpt lat="48.85903" lon="2.38558">
        <ele>47</ele>
        <time>2013-09-12T21:28:12Z</time>
      </trkpt>
      <trkpt lat="48.85906" lon="2.38566">
        <ele>46</ele>
        <time>2013-09-12T21:28:15Z</time>
      </trkpt>
      <trkpt lat="48.85908" lon="2.38575">
        <ele>46</ele>
        <time>2013-09-12T21:28:18Z</time>
      </trkpt>
      <trkpt lat="48.8591" lon="2.38583">
        <ele>47</ele>
        <time>2013-09-12T21:28:20Z</time>
      </trkpt>
      <trkpt lat="48.85913" lon="2.38591">
        <ele>51</ele>
        <time>2013-09-12T21:28:23Z</time>
      </trkpt>
      <trkpt lat="48.85918" lon="2.38601">
        <ele>46</ele>
        <time>2013-09-12T21:28:26Z</time>
      </trkpt>
      <trkpt lat="48.85922" lon="2.38612">
        <ele>54</ele>
        <time>2013-09-12T21:28:29Z</time>
      </trkpt>
      <trkpt lat="48.85923" lon="2.38621">
        <ele>45</ele>
        <time>2013-09-12T21:28:32Z</time>
      </trkpt>
      <trkpt lat="48.85926" lon="2.38638">
        <ele>56</ele>
        <time>2013-09-12T21:28:39Z</time>
      </trkpt>
      <trkpt lat="48.85928" lon="2.38645">
        <ele>57</ele>
        <time>2013-09-12T21:28:42Z</time>
      </trkpt>
      <trkpt lat="48.85929" lon="2.38655">
        <ele>58</ele>
        <time>2013-09-12T21:28:45Z</time>
      </trkpt>
      <trkpt lat="48.8593" lon="2.38665">
        <ele>58</ele>
        <time>2013-09-12T21:28:48Z</time>
      </trkpt>
      <trkpt lat="48.8593" lon="2.38675">
        <ele>60</ele>
        <time>2013-09-12T21:28:51Z</time>
      </trkpt>
      <trkpt lat="48.85931" lon="2.38676">
        <ele>59</ele>
        <time>2013-09-12T21:28:53Z</time>
      </trkpt>
      <trkpt lat="48.8593" lon="2.38687">
        <ele>62</ele>
        <time>2013-09-12T21:28:56Z</time>
      </trkpt>
      <trkpt lat="48.85931" lon="2.38695">
        <ele>56</ele>
        <time>2013-09-12T21:28:58Z</time>
      </trkpt>
      <trkpt lat="48.85935" lon="2.38705">
        <ele>50</ele>
        <time>2013-09-12T21:29:00Z</time>
      </trkpt>
      <trkpt lat="48.85947" lon="2.38727">
        <ele>49</ele>
        <time>2013-09-12T21:29:07Z</time>
      </trkpt>
      <trkpt lat="48.8595" lon="2.38733">
        <ele>49</ele>
        <time>2013-09-12T21:29:10Z</time>
      </trkpt>
      <trkpt lat="48.85952" lon="2.38738">
        <ele>50</ele>
        <time>2013-09-12T21:29:12Z</time>
      </trkpt>
      <trkpt lat="48.85955" lon="2.38746">
        <ele>52</ele>
        <time>2013-09-12T21:29:15Z</time>
      </trkpt>
      <trkpt lat="48.85957" lon="2.38756">
        <ele>58</ele>
        <time>2013-09-12T21:29:19Z</time>
      </trkpt>
      <trkpt lat="48.85961" lon="2.38773">
        <ele>56</ele>
        <time>2013-09-12T21:29:24Z</time>
      </trkpt>
      <trkpt lat="48.85968" lon="2.388">
        <ele>64</ele>
        <time>2013-09-12T21:29:31Z</time>
      </trkpt>
      <trkpt lat="48.85967" lon="2.38812">
        <ele>63</ele>
        <time>2013-09-12T21:29:34Z</time>
      </trkpt>
      <trkpt lat="48.85969" lon="2.38837">
        <ele>62</ele>
        <time>2013-09-12T21:29:43Z</time>
      </trkpt>
      <trkpt lat="48.85971" lon="2.38845">
        <ele>60</ele>
        <time>2013-09-12T21:29:47Z</time>
      </trkpt>
      <trkpt lat="48.85974" lon="2.38853">
        <ele>62</ele>
        <time>2013-09-12T21:29:50Z</time>
      </trkpt>
      <trkpt lat="48.85974" lon="2.38855">
        <ele>61</ele>
        <time>2013-09-12T21:29:51Z</time>
      </trkpt>
      <trkpt lat="48.85979" lon="2.38866">
        <ele>56</ele>
        <time>2013-09-12T21:29:55Z</time>
      </trkpt>
      <trkpt lat="48.85984" lon="2.38871">
        <ele>59</ele>
        <time>2013-09-12T21:29:57Z</time>
      </trkpt>
      <trkpt lat="48.85989" lon="2.38872">
        <ele>49</ele>
        <time>2013-09-12T21:30:02Z</time>
      </trkpt>
      <trkpt lat="48.85994" lon="2.38871">
        <ele>51</ele>
        <time>2013-09-12T21:30:06Z</time>
      </trkpt>
      <trkpt lat="48.85992" lon="2.38878">
        <ele>56</ele>
        <time>2013-09-12T21:30:28Z</time>
      </trkpt>
      <trkpt lat="48.85997" lon="2.38875">
        <ele>57</ele>
        <time>2013-09-12T21:30:31Z</time>
      </trkpt>
      <trkpt lat="48.86002" lon="2.38876">
        <ele>55</ele>
        <time>2013-09-12T21:30:34Z</time>
      </trkpt>
      <trkpt lat="48.86008" lon="2.38875">
        <ele>58</ele>
        <time>2013-09-12T21:30:37Z</time>
      </trkpt>
      <trkpt lat="48.86027" lon="2.38872">
        <ele>57</ele>
        <time>2013-09-12T21:30:46Z</time>
      </trkpt>
      <trkpt lat="48.86035" lon="2.38869">
        <ele>60</ele>
        <time>2013-09-12T21:30:49Z</time>
      </trkpt>
      <trkpt lat="48.86054" lon="2.38859">
        <ele>63</ele>
        <time>2013-09-12T21:30:56Z</time>
      </trkpt>
      <trkpt lat="48.86059" lon="2.38856">
        <ele>64</ele>
        <time>2013-09-12T21:30:58Z</time>
      </trkpt>
      <trkpt lat="48.86067" lon="2.38853">
        <ele>60</ele>
        <time>2013-09-12T21:31:01Z</time>
      </trkpt>
      <trkpt lat="48.86079" lon="2.38847">
        <ele>65</ele>
        <time>2013-09-12T21:31:05Z</time>
      </trkpt>
      <trkpt lat="48.86098" lon="2.38838">
        <ele>50</ele>
        <time>2013-09-12T21:31:13Z</time>
      </trkpt>
      <trkpt lat="48.86104" lon="2.38834">
        <ele>48</ele>
        <time>2013-09-12T21:31:16Z</time>
      </trkpt>
      <trkpt lat="48.86109" lon="2.38832">
        <ele>52</ele>
        <time>2013-09-12T21:31:18Z</time>
      </trkpt>
      <trkpt lat="48.86111" lon="2.38832">
        <ele>54</ele>
        <time>2013-09-12T21:31:19Z</time>
      </trkpt>
      <trkpt lat="48.86117" lon="2.38829">
        <ele>53</ele>
        <time>2013-09-12T21:31:22Z</time>
      </trkpt>
      <trkpt lat="48.86136" lon="2.3882">
        <ele>54</ele>
        <time>2013-09-12T21:31:30Z</time>
      </trkpt>
      <trkpt lat="48.86139" lon="2.38819">
        <ele>55</ele>
        <time>2013-09-12T21:31:31Z</time>
      </trkpt>
      <trkpt lat="48.8615" lon="2.38815">
        <ele>49</ele>
        <time>2013-09-12T21:31:35Z</time>
      </trkpt>
      <trkpt lat="48.86156" lon="2.38811">
        <ele>53</ele>
        <time>2013-09-12T21:31:38Z</time>
      </trkpt>
      <trkpt lat="48.86167" lon="2.38807">
        <ele>52</ele>
        <time>2013-09-12T21:31:40Z</time>
      </trkpt>
      <trkpt lat="48.86173" lon="2.38803">
        <ele>53</ele>
        <time>2013-09-12T21:31:42Z</time>
      </trkpt>
      <trkpt lat="48.86184" lon="2.38798">
        <ele>55</ele>
        <time>2013-09-12T21:31:46Z</time>
      </trkpt>
      <trkpt lat="48.86204" lon="2.38788">
        <ele>55</ele>
        <time>2013-09-12T21:31:53Z</time>
      </trkpt>
      <trkpt lat="48.86224" lon="2.38782">
        <ele>57</ele>
        <time>2013-09-12T21:32:00Z</time>
      </trkpt>
      <trkpt lat="48.86229" lon="2.38778">
        <ele>61</ele>
        <time>2013-09-12T21:32:02Z</time>
      </trkpt>
      <trkpt lat="48.86234" lon="2.38776">
        <ele>62</ele>
        <time>2013-09-12T21:32:04Z</time>
      </trkpt>
      <trkpt lat="48.86253" lon="2.38765">
        <ele>55</ele>
        <time>2013-09-12T21:32:12Z</time>
      </trkpt>
      <trkpt lat="48.86258" lon="2.38763">
        <ele>52</ele>
        <time>2013-09-12T21:32:14Z</time>
      </trkpt>
      <trkpt lat="48.86265" lon="2.38763">
        <ele>51</ele>
        <time>2013-09-12T21:32:17Z</time>
      </trkpt>
      <trkpt lat="48.86268" lon="2.3876">
        <ele>52</ele>
        <time>2013-09-12T21:32:25Z</time>
      </trkpt>
      <trkpt lat="48.86273" lon="2.38763">
        <ele>58</ele>
        <time>2013-09-12T21:32:35Z</time>
      </trkpt>
      <trkpt lat="48.86278" lon="2.38765">
        <ele>57</ele>
        <time>2013-09-12T21:32:37Z</time>
      </trkpt>
      <trkpt lat="48.86283" lon="2.38768">
        <ele>57</ele>
        <time>2013-09-12T21:32:39Z</time>
      </trkpt>
      <trkpt lat="48.86289" lon="2.38771">
        <ele>51</ele>
        <time>2013-09-12T21:32:42Z</time>
      </trkpt>
      <trkpt lat="48.86294" lon="2.38768">
        <ele>55</ele>
        <time>2013-09-12T21:32:45Z</time>
      </trkpt>
      <trkpt lat="48.86298" lon="2.38762">
        <ele>63</ele>
        <time>2013-09-12T21:32:47Z</time>
      </trkpt>
      <trkpt lat="48.86307" lon="2.38748">
        <ele>64</ele>
        <time>2013-09-12T21:32:51Z</time>
      </trkpt>
      <trkpt lat="48.86321" lon="2.38725">
        <ele>57</ele>
        <time>2013-09-12T21:32:58Z</time>
      </trkpt>
      <trkpt lat="48.86323" lon="2.38718">
        <ele>61</ele>
        <time>2013-09-12T21:33:00Z</time>
      </trkpt>
      <trkpt lat="48.86329" lon="2.38711">
        <ele>60</ele>
        <time>2013-09-12T21:33:02Z</time>
      </trkpt>
      <trkpt lat="48.86342" lon="2.38692">
        <ele>54</ele>
        <time>2013-09-12T21:33:10Z</time>
      </trkpt>
      <trkpt lat="48.86348" lon="2.38687">
        <ele>51</ele>
        <time>2013-09-12T21:33:13Z</time>
      </trkpt>
      <trkpt lat="48.86353" lon="2.38681">
        <ele>54</ele>
        <time>2013-09-12T21:33:15Z</time>
      </trkpt>
      <trkpt lat="48.86358" lon="2.38674">
        <ele>54</ele>
        <time>2013-09-12T21:33:17Z</time>
      </trkpt>
      <trkpt lat="48.86363" lon="2.38665">
        <ele>55</ele>
        <time>2013-09-12T21:33:19Z</time>
      </trkpt>
      <trkpt lat="48.86368" lon="2.38659">
        <ele>54</ele>
        <time>2013-09-12T21:33:21Z</time>
      </trkpt>
      <trkpt lat="48.86383" lon="2.38639">
        <ele>55</ele>
        <time>2013-09-12T21:33:29Z</time>
      </trkpt>
      <trkpt lat="48.86388" lon="2.38634">
        <ele>56</ele>
        <time>2013-09-12T21:33:31Z</time>
      </trkpt>
      <trkpt lat="48.86392" lon="2.38629">
        <ele>55</ele>
        <time>2013-09-12T21:33:33Z</time>
      </trkpt>
      <trkpt lat="48.86398" lon="2.38624">
        <ele>54</ele>
        <time>2013-09-12T21:33:35Z</time>
      </trkpt>
      <trkpt lat="48.86445" lon="2.38575">
        <ele>41</ele>
        <time>2013-09-12T21:33:53Z</time>
      </trkpt>
      <trkpt lat="48.8645" lon="2.38568">
        <ele>42</ele>
        <time>2013-09-12T21:33:56Z</time>
      </trkpt>
      <trkpt lat="48.86454" lon="2.38561">
        <ele>50</ele>
        <time>2013-09-12T21:33:59Z</time>
      </trkpt>
      <trkpt lat="48.86459" lon="2.38553">
        <ele>51</ele>
        <time>2013-09-12T21:34:02Z</time>
      </trkpt>
      <trkpt lat="48.86465" lon="2.38548">
        <ele>47</ele>
        <time>2013-09-12T21:34:04Z</time>
      </trkpt>
      <trkpt lat="48.86483" lon="2.38527">
        <ele>46</ele>
        <time>2013-09-12T21:34:10Z</time>
      </trkpt>
      <trkpt lat="48.86489" lon="2.38518">
        <ele>46</ele>
        <time>2013-09-12T21:34:12Z</time>
      </trkpt>
      <trkpt lat="48.86495" lon="2.38511">
        <ele>50</ele>
        <time>2013-09-12T21:34:14Z</time>
      </trkpt>
      <trkpt lat="48.86504" lon="2.38503">
        <ele>56</ele>
        <time>2013-09-12T21:34:17Z</time>
      </trkpt>
      <trkpt lat="48.86514" lon="2.38491">
        <ele>55</ele>
        <time>2013-09-12T21:34:21Z</time>
      </trkpt>
      <trkpt lat="48.8652" lon="2.38483">
        <ele>52</ele>
        <time>2013-09-12T21:34:24Z</time>
      </trkpt>
      <trkpt lat="48.86524" lon="2.38479">
        <ele>54</ele>
        <time>2013-09-12T21:34:26Z</time>
      </trkpt>
      <trkpt lat="48.86542" lon="2.38464">
        <ele>61</ele>
        <time>2013-09-12T21:34:33Z</time>
      </trkpt>
      <trkpt lat="48.8656" lon="2.38446">
        <ele>55</ele>
        <time>2013-09-12T21:34:40Z</time>
      </trkpt>
      <trkpt lat="48.86596" lon="2.38408">
        <ele>47</ele>
        <time>2013-09-12T21:34:50Z</time>
      </trkpt>
      <trkpt lat="48.86603" lon="2.38398">
        <ele>45</ele>
        <time>2013-09-12T21:34:52Z</time>
      </trkpt>
      <trkpt lat="48.86608" lon="2.38393">
        <ele>50</ele>
        <time>2013-09-12T21:34:54Z</time>
      </trkpt>
      <trkpt lat="48.86616" lon="2.38382">
        <ele>55</ele>
        <time>2013-09-12T21:34:58Z</time>
      </trkpt>
      <trkpt lat="48.86628" lon="2.38368">
        <ele>56</ele>
        <time>2013-09-12T21:35:05Z</time>
      </trkpt>
      <trkpt lat="48.86635" lon="2.38362">
        <ele>59</ele>
        <time>2013-09-12T21:35:10Z</time>
      </trkpt>
      <trkpt lat="48.86642" lon="2.38358">
        <ele>59</ele>
        <time>2013-09-12T21:35:13Z</time>
      </trkpt>
      <trkpt lat="48.86651" lon="2.3835">
        <ele>56</ele>
        <time>2013-09-12T21:35:16Z</time>
      </trkpt>
      <trkpt lat="48.8666" lon="2.38344">
        <ele>57</ele>
        <time>2013-09-12T21:35:19Z</time>
      </trkpt>
      <trkpt lat="48.86665" lon="2.38342">
        <ele>61</ele>
        <time>2013-09-12T21:35:21Z</time>
      </trkpt>
      <trkpt lat="48.8667" lon="2.38341">
        <ele>60</ele>
        <time>2013-09-12T21:35:23Z</time>
      </trkpt>
      <trkpt lat="48.86676" lon="2.38341">
        <ele>63</ele>
        <time>2013-09-12T21:35:25Z</time>
      </trkpt>
      <trkpt lat="48.86682" lon="2.3834">
        <ele>60</ele>
        <time>2013-09-12T21:35:27Z</time>
      </trkpt>
      <trkpt lat="48.86683" lon="2.38339">
        <ele>58</ele>
        <time>2013-09-12T21:35:28Z</time>
      </trkpt>
      <trkpt lat="48.86686" lon="2.38337">
        <ele>59</ele>
        <time>2013-09-12T21:35:29Z</time>
      </trkpt>
      <trkpt lat="48.86699" lon="2.38326">
        <ele>57</ele>
        <time>2013-09-12T21:35:35Z</time>
      </trkpt>
      <trkpt lat="48.86705" lon="2.38325">
        <ele>56</ele>
        <time>2013-09-12T21:35:39Z</time>
      </trkpt>
      <trkpt lat="48.86712" lon="2.38323">
        <ele>56</ele>
        <time>2013-09-12T21:35:42Z</time>
      </trkpt>
      <trkpt lat="48.86718" lon="2.38317">
        <ele>58</ele>
        <time>2013-09-12T21:35:44Z</time>
      </trkpt>
      <trkpt lat="48.86722" lon="2.38311">
        <ele>48</ele>
        <time>2013-09-12T21:35:46Z</time>
      </trkpt>
      <trkpt lat="48.86724" lon="2.38308">
        <ele>50</ele>
        <time>2013-09-12T21:35:47Z</time>
      </trkpt>
      <trkpt lat="48.86728" lon="2.38302">
        <ele>48</ele>
        <time>2013-09-12T21:35:49Z</time>
      </trkpt>
      <trkpt lat="48.86729" lon="2.38299">
        <ele>52</ele>
        <time>2013-09-12T21:35:50Z</time>
      </trkpt>
      <trkpt lat="48.86731" lon="2.38296">
        <ele>51</ele>
        <time>2013-09-12T21:35:51Z</time>
      </trkpt>
      <trkpt lat="48.8674" lon="2.38281">
        <ele>54</ele>
        <time>2013-09-12T21:35:55Z</time>
      </trkpt>
      <trkpt lat="48.86754" lon="2.38258">
        <ele>59</ele>
        <time>2013-09-12T21:36:02Z</time>
      </trkpt>
      <trkpt lat="48.86761" lon="2.38252">
        <ele>58</ele>
        <time>2013-09-12T21:36:05Z</time>
      </trkpt>
      <trkpt lat="48.86767" lon="2.38246">
        <ele>57</ele>
        <time>2013-09-12T21:36:07Z</time>
      </trkpt>
      <trkpt lat="48.86772" lon="2.38239">
        <ele>57</ele>
        <time>2013-09-12T21:36:09Z</time>
      </trkpt>
      <trkpt lat="48.86802" lon="2.382">
        <ele>55</ele>
        <time>2013-09-12T21:36:22Z</time>
      </trkpt>
      <trkpt lat="48.86806" lon="2.38195">
        <ele>56</ele>
        <time>2013-09-12T21:36:24Z</time>
      </trkpt>
      <trkpt lat="48.86823" lon="2.38175">
        <ele>59</ele>
        <time>2013-09-12T21:36:31Z</time>
      </trkpt>
      <trkpt lat="48.86826" lon="2.38169">
        <ele>58</ele>
        <time>2013-09-12T21:36:33Z</time>
      </trkpt>
      <trkpt lat="48.8683" lon="2.38164">
        <ele>56</ele>
        <time>2013-09-12T21:36:35Z</time>
      </trkpt>
      <trkpt lat="48.86834" lon="2.38157">
        <ele>60</ele>
        <time>2013-09-12T21:36:37Z</time>
      </trkpt>
      <trkpt lat="48.86848" lon="2.38135">
        <ele>59</ele>
        <time>2013-09-12T21:36:45Z</time>
      </trkpt>
      <trkpt lat="48.86851" lon="2.38127">
        <ele>58</ele>
        <time>2013-09-12T21:36:48Z</time>
      </trkpt>
      <trkpt lat="48.86857" lon="2.38119">
        <ele>56</ele>
        <time>2013-09-12T21:36:51Z</time>
      </trkpt>
      <trkpt lat="48.86865" lon="2.3811">
        <ele>54</ele>
        <time>2013-09-12T21:36:54Z</time>
      </trkpt>
      <trkpt lat="48.86882" lon="2.38096">
        <ele>62</ele>
        <time>2013-09-12T21:37:02Z</time>
      </trkpt>
      <trkpt lat="48.86887" lon="2.38093">
        <ele>57</ele>
        <time>2013-09-12T21:37:04Z</time>
      </trkpt>
      <trkpt lat="48.86892" lon="2.38087">
        <ele>47</ele>
        <time>2013-09-12T21:37:07Z</time>
      </trkpt>
      <trkpt lat="48.86895" lon="2.3808">
        <ele>50</ele>
        <time>2013-09-12T21:37:08Z</time>
      </trkpt>
      <trkpt lat="48.86899" lon="2.38069">
        <ele>54</ele>
        <time>2013-09-12T21:37:10Z</time>
      </trkpt>
      <trkpt lat="48.86903" lon="2.38062">
        <ele>53</ele>
        <time>2013-09-12T21:37:12Z</time>
      </trkpt>
      <trkpt lat="48.86905" lon="2.38059">
        <ele>54</ele>
        <time>2013-09-12T21:37:13Z</time>
      </trkpt>
      <trkpt lat="48.86914" lon="2.38048">
        <ele>58</ele>
        <time>2013-09-12T21:37:18Z</time>
      </trkpt>
      <trkpt lat="48.86925" lon="2.38032">
        <ele>51</ele>
        <time>2013-09-12T21:37:23Z</time>
      </trkpt>
      <trkpt lat="48.8693" lon="2.38022">
        <ele>56</ele>
        <time>2013-09-12T21:37:26Z</time>
      </trkpt>
      <trkpt lat="48.86936" lon="2.38014">
        <ele>59</ele>
        <time>2013-09-12T21:37:28Z</time>
      </trkpt>
      <trkpt lat="48.86954" lon="2.37993">
        <ele>61</ele>
        <time>2013-09-12T21:37:33Z</time>
      </trkpt>
      <trkpt lat="48.8696" lon="2.37985">
        <ele>56</ele>
        <time>2013-09-12T21:37:35Z</time>
      </trkpt>
      <trkpt lat="48.86975" lon="2.37968">
        <ele>57</ele>
        <time>2013-09-12T21:37:40Z</time>
      </trkpt>
      <trkpt lat="48.86981" lon="2.37963">
        <ele>57</ele>
        <time>2013-09-12T21:37:42Z</time>
      </trkpt>
      <trkpt lat="48.86987" lon="2.37956">
        <ele>59</ele>
        <time>2013-09-12T21:37:44Z</time>
      </trkpt>
      <trkpt lat="48.86993" lon="2.37951">
        <ele>61</ele>
        <time>2013-09-12T21:37:46Z</time>
      </trkpt>
      <trkpt lat="48.87007" lon="2.37937">
        <ele>65</ele>
        <time>2013-09-12T21:37:50Z</time>
      </trkpt>
      <trkpt lat="48.87012" lon="2.37927">
        <ele>61</ele>
        <time>2013-09-12T21:37:52Z</time>
      </trkpt>
      <trkpt lat="48.87016" lon="2.37919">
        <ele>57</ele>
        <time>2013-09-12T21:37:54Z</time>
      </trkpt>
      <trkpt lat="48.87021" lon="2.37912">
        <ele>59</ele>
        <time>2013-09-12T21:37:56Z</time>
      </trkpt>
      <trkpt lat="48.87037" lon="2.37889">
        <ele>63</ele>
        <time>2013-09-12T21:38:01Z</time>
      </trkpt>
      <trkpt lat="48.87042" lon="2.37879">
        <ele>60</ele>
        <time>2013-09-12T21:38:03Z</time>
      </trkpt>
      <trkpt lat="48.87048" lon="2.37872">
        <ele>57</ele>
        <time>2013-09-12T21:38:05Z</time>
      </trkpt>
      <trkpt lat="48.87116" lon="2.37794">
        <ele>63</ele>
        <time>2013-09-12T21:38:30Z</time>
      </trkpt>
      <trkpt lat="48.8714" lon="2.37769">
        <ele>66</ele>
        <time>2013-09-12T21:38:38Z</time>
      </trkpt>
      <trkpt lat="48.87159" lon="2.37754">
        <ele>56</ele>
        <time>2013-09-12T21:38:44Z</time>
      </trkpt>
      <trkpt lat="48.87176" lon="2.37738">
        <ele>70</ele>
        <time>2013-09-12T21:39:01Z</time>
      </trkpt>
      <trkpt lat="48.8718" lon="2.37733">
        <ele>75</ele>
        <time>2013-09-12T21:39:04Z</time>
      </trkpt>
      <trkpt lat="48.87188" lon="2.37734">
        <ele>64</ele>
        <time>2013-09-12T21:39:09Z</time>
      </trkpt>
      <trkpt lat="48.87195" lon="2.37732">
        <ele>65</ele>
        <time>2013-09-12T21:39:14Z</time>
      </trkpt>
      <trkpt lat="48.872" lon="2.37727">
        <ele>69</ele>
        <time>2013-09-12T21:39:18Z</time>
      </trkpt>
      <trkpt lat="48.87204" lon="2.37714">
        <ele>76</ele>
        <time>2013-09-12T21:39:20Z</time>
      </trkpt>
      <trkpt lat="48.87205" lon="2.37705">
        <ele>72</ele>
        <time>2013-09-12T21:39:22Z</time>
      </trkpt>
      <trkpt lat="48.87211" lon="2.37699">
        <ele>61</ele>
        <time>2013-09-12T21:39:26Z</time>
      </trkpt>
      <trkpt lat="48.87215" lon="2.37695">
        <ele>58</ele>
        <time>2013-09-12T21:39:28Z</time>
      </trkpt>
      <trkpt lat="48.87224" lon="2.3769">
        <ele>67</ele>
        <time>2013-09-12T21:39:34Z</time>
      </trkpt>
      <trkpt lat="48.87229" lon="2.3769">
        <ele>72</ele>
        <time>2013-09-12T21:39:38Z</time>
      </trkpt>
      <trkpt lat="48.8723" lon="2.37689">
        <ele>74</ele>
        <time>2013-09-12T21:39:39Z</time>
      </trkpt>
      <trkpt lat="48.87234" lon="2.37684">
        <ele>72</ele>
        <time>2013-09-12T21:39:41Z</time>
      </trkpt>
      <trkpt lat="48.87239" lon="2.37678">
        <ele>71</ele>
        <time>2013-09-12T21:39:44Z</time>
      </trkpt>
      <trkpt lat="48.87246" lon="2.3767">
        <ele>72</ele>
        <time>2013-09-12T21:39:47Z</time>
      </trkpt>
      <trkpt lat="48.87253" lon="2.37665">
        <ele>76</ele>
        <time>2013-09-12T21:39:49Z</time>
      </trkpt>
      <trkpt lat="48.87272" lon="2.37651">
        <ele>68</ele>
        <time>2013-09-12T21:39:54Z</time>
      </trkpt>
      <trkpt lat="48.87278" lon="2.37644">
        <ele>63</ele>
        <time>2013-09-12T21:39:56Z</time>
      </trkpt>
      <trkpt lat="48.87283" lon="2.37636">
        <ele>60</ele>
        <time>2013-09-12T21:39:58Z</time>
      </trkpt>
      <trkpt lat="48.87297" lon="2.37616">
        <ele>75</ele>
        <time>2013-09-12T21:40:05Z</time>
      </trkpt>
      <trkpt lat="48.87304" lon="2.37612">
        <ele>74</ele>
        <time>2013-09-12T21:40:08Z</time>
      </trkpt>
      <trkpt lat="48.87308" lon="2.37608">
        <ele>75</ele>
        <time>2013-09-12T21:40:09Z</time>
      </trkpt>
      <trkpt lat="48.87313" lon="2.37605">
        <ele>77</ele>
        <time>2013-09-12T21:40:11Z</time>
      </trkpt>
      <trkpt lat="48.87317" lon="2.376">
        <ele>79</ele>
        <time>2013-09-12T21:40:13Z</time>
      </trkpt>
      <trkpt lat="48.87325" lon="2.37592">
        <ele>80</ele>
        <time>2013-09-12T21:40:17Z</time>
      </trkpt>
      <trkpt lat="48.87332" lon="2.37581">
        <ele>81</ele>
        <time>2013-09-12T21:40:21Z</time>
      </trkpt>
      <trkpt lat="48.87347" lon="2.37562">
        <ele>77</ele>
        <time>2013-09-12T21:40:27Z</time>
      </trkpt>
      <trkpt lat="48.87353" lon="2.37558">
        <ele>77</ele>
        <time>2013-09-12T21:40:30Z</time>
      </trkpt>
      <trkpt lat="48.87358" lon="2.37553">
        <ele>83</ele>
        <time>2013-09-12T21:40:31Z</time>
      </trkpt>
      <trkpt lat="48.8736" lon="2.37547">
        <ele>69</ele>
        <time>2013-09-12T21:40:41Z</time>
      </trkpt>
      <trkpt lat="48.87364" lon="2.37538">
        <ele>60</ele>
        <time>2013-09-12T21:40:49Z</time>
      </trkpt>
      <trkpt lat="48.87367" lon="2.37536">
        <ele>63</ele>
        <time>2013-09-12T21:40:50Z</time>
      </trkpt>
      <trkpt lat="48.87372" lon="2.37533">
        <ele>64</ele>
        <time>2013-09-12T21:40:54Z</time>
      </trkpt>
      <trkpt lat="48.87378" lon="2.37532">
        <ele>62</ele>
        <time>2013-09-12T21:40:57Z</time>
      </trkpt>
      <trkpt lat="48.87383" lon="2.37526">
        <ele>68</ele>
        <time>2013-09-12T21:41:00Z</time>
      </trkpt>
      <trkpt lat="48.87386" lon="2.37519">
        <ele>70</ele>
        <time>2013-09-12T21:41:02Z</time>
      </trkpt>
      <trkpt lat="48.87388" lon="2.3751">
        <ele>61</ele>
        <time>2013-09-12T21:41:06Z</time>
      </trkpt>
      <trkpt lat="48.8739" lon="2.37502">
        <ele>69</ele>
        <time>2013-09-12T21:41:08Z</time>
      </trkpt>
      <trkpt lat="48.87393" lon="2.37493">
        <ele>62</ele>
        <time>2013-09-12T21:41:11Z</time>
      </trkpt>
      <trkpt lat="48.87399" lon="2.37486">
        <ele>70</ele>
        <time>2013-09-12T21:41:14Z</time>
      </trkpt>
      <trkpt lat="48.87431" lon="2.37448">
        <ele>62</ele>
        <time>2013-09-12T21:41:27Z</time>
      </trkpt>
      <trkpt lat="48.87436" lon="2.37442">
        <ele>61</ele>
        <time>2013-09-12T21:41:29Z</time>
      </trkpt>
      <trkpt lat="48.87449" lon="2.37424">
        <ele>66</ele>
        <time>2013-09-12T21:41:35Z</time>
      </trkpt>
      <trkpt lat="48.87455" lon="2.3742">
        <ele>60</ele>
        <time>2013-09-12T21:41:37Z</time>
      </trkpt>
      <trkpt lat="48.8746" lon="2.37414">
        <ele>63</ele>
        <time>2013-09-12T21:41:40Z</time>
      </trkpt>
      <trkpt lat="48.87477" lon="2.37394">
        <ele>53</ele>
        <time>2013-09-12T21:41:48Z</time>
      </trkpt>
      <trkpt lat="48.87482" lon="2.3739">
        <ele>51</ele>
        <time>2013-09-12T21:41:50Z</time>
      </trkpt>
      <trkpt lat="48.87499" lon="2.37374">
        <ele>62</ele>
        <time>2013-09-12T21:41:56Z</time>
      </trkpt>
      <trkpt lat="48.8751" lon="2.37361">
        <ele>76</ele>
        <time>2013-09-12T21:42:01Z</time>
      </trkpt>
      <trkpt lat="48.87516" lon="2.37353">
        <ele>78</ele>
        <time>2013-09-12T21:42:02Z</time>
      </trkpt>
      <trkpt lat="48.87529" lon="2.37337">
        <ele>66</ele>
        <time>2013-09-12T21:42:06Z</time>
      </trkpt>
      <trkpt lat="48.87547" lon="2.37316">
        <ele>78</ele>
        <time>2013-09-12T21:42:11Z</time>
      </trkpt>
      <trkpt lat="48.87565" lon="2.373">
        <ele>77</ele>
        <time>2013-09-12T21:42:13Z</time>
      </trkpt>
      <trkpt lat="48.87579" lon="2.3727">
        <ele>108</ele>
        <time>2013-09-12T21:42:18Z</time>
      </trkpt>
      <trkpt lat="48.87597" lon="2.37243">
        <ele>115</ele>
        <time>2013-09-12T21:42:23Z</time>
      </trkpt>
      <trkpt lat="48.87605" lon="2.37228">
        <ele>120</ele>
        <time>2013-09-12T21:42:26Z</time>
      </trkpt>
      <trkpt lat="48.87619" lon="2.37212">
        <ele>107</ele>
        <time>2013-09-12T21:42:29Z</time>
      </trkpt>
      <trkpt lat="48.87624" lon="2.37207">
        <ele>105</ele>
        <time>2013-09-12T21:42:30Z</time>
      </trkpt>
      <trkpt lat="48.87682" lon="2.3716">
        <ele>81</ele>
        <time>2013-09-12T21:42:40Z</time>
      </trkpt>
      <trkpt lat="48.87687" lon="2.37155">
        <ele>84</ele>
        <time>2013-09-12T21:42:41Z</time>
      </trkpt>
      <trkpt lat="48.87723" lon="2.37119">
        <ele>74</ele>
        <time>2013-09-12T21:42:49Z</time>
      </trkpt>
      <trkpt lat="48.87728" lon="2.37115">
        <ele>69</ele>
        <time>2013-09-12T21:42:50Z</time>
      </trkpt>
      <trkpt lat="48.87746" lon="2.37097">
        <ele>60</ele>
        <time>2013-09-12T21:42:54Z</time>
      </trkpt>
      <trkpt lat="48.87761" lon="2.37078">
        <ele>57</ele>
        <time>2013-09-12T21:43:00Z</time>
      </trkpt>
      <trkpt lat="48.87766" lon="2.37082">
        <ele>51</ele>
        <time>2013-09-12T21:43:07Z</time>
      </trkpt>
      <trkpt lat="48.87771" lon="2.37084">
        <ele>53</ele>
        <time>2013-09-12T21:43:09Z</time>
      </trkpt>
      <trkpt lat="48.87777" lon="2.37085">
        <ele>56</ele>
        <time>2013-09-12T21:43:11Z</time>
      </trkpt>
      <trkpt lat="48.87788" lon="2.37089">
        <ele>55</ele>
        <time>2013-09-12T21:43:16Z</time>
      </trkpt>
      <trkpt lat="48.87795" lon="2.37093">
        <ele>47</ele>
        <time>2013-09-12T21:43:19Z</time>
      </trkpt>
      <trkpt lat="48.87804" lon="2.37097">
        <ele>46</ele>
        <time>2013-09-12T21:43:32Z</time>
      </trkpt>
      <trkpt lat="48.87809" lon="2.37096">
        <ele>49</ele>
        <time>2013-09-12T21:43:35Z</time>
      </trkpt>
      <trkpt lat="48.87821" lon="2.37092">
        <ele>48</ele>
        <time>2013-09-12T21:43:43Z</time>
      </trkpt>
      <trkpt lat="48.87827" lon="2.37088">
        <ele>51</ele>
        <time>2013-09-12T21:43:45Z</time>
      </trkpt>
      <trkpt lat="48.87839" lon="2.37082">
        <ele>48</ele>
        <time>2013-09-12T21:43:50Z</time>
      </trkpt>
      <trkpt lat="48.87845" lon="2.3708">
        <ele>50</ele>
        <time>2013-09-12T21:43:52Z</time>
      </trkpt>
      <trkpt lat="48.8785" lon="2.37073">
        <ele>45</ele>
        <time>2013-09-12T21:43:54Z</time>
      </trkpt>
      <trkpt lat="48.87854" lon="2.37064">
        <ele>46</ele>
        <time>2013-09-12T21:43:56Z</time>
      </trkpt>
      <trkpt lat="48.8786" lon="2.37061">
        <ele>45</ele>
        <time>2013-09-12T21:43:58Z</time>
      </trkpt>
      <trkpt lat="48.87874" lon="2.37062">
        <ele>46</ele>
        <time>2013-09-12T21:44:02Z</time>
      </trkpt>
      <trkpt lat="48.87911" lon="2.37064">
        <ele>47</ele>
        <time>2013-09-12T21:44:10Z</time>
      </trkpt>
      <trkpt lat="48.87927" lon="2.37067">
        <ele>45</ele>
        <time>2013-09-12T21:44:13Z</time>
      </trkpt>
      <trkpt lat="48.87936" lon="2.37067">
        <ele>46</ele>
        <time>2013-09-12T21:44:15Z</time>
      </trkpt>
      <trkpt lat="48.87955" lon="2.37063">
        <ele>42</ele>
        <time>2013-09-12T21:44:19Z</time>
      </trkpt>
      <trkpt lat="48.87979" lon="2.37064">
        <ele>34</ele>
        <time>2013-09-12T21:44:23Z</time>
      </trkpt>
      <trkpt lat="48.87987" lon="2.37069">
        <ele>39</ele>
        <time>2013-09-12T21:44:25Z</time>
      </trkpt>
      <trkpt lat="48.87998" lon="2.37079">
        <ele>41</ele>
        <time>2013-09-12T21:44:29Z</time>
      </trkpt>
      <trkpt lat="48.88009" lon="2.37086">
        <ele>40</ele>
        <time>2013-09-12T21:44:32Z</time>
      </trkpt>
      <trkpt lat="48.88015" lon="2.37087">
        <ele>37</ele>
        <time>2013-09-12T21:44:34Z</time>
      </trkpt>
      <trkpt lat="48.88024" lon="2.37085">
        <ele>48</ele>
        <time>2013-09-12T21:44:36Z</time>
      </trkpt>
      <trkpt lat="48.88028" lon="2.37081">
        <ele>47</ele>
        <time>2013-09-12T21:44:37Z</time>
      </trkpt>
      <trkpt lat="48.88035" lon="2.37077">
        <ele>51</ele>
        <time>2013-09-12T21:44:39Z</time>
      </trkpt>
      <trkpt lat="48.8804" lon="2.37072">
        <ele>48</ele>
        <time>2013-09-12T21:44:40Z</time>
      </trkpt>
      <trkpt lat="48.88047" lon="2.37068">
        <ele>43</ele>
        <time>2013-09-12T21:44:42Z</time>
      </trkpt>
      <trkpt lat="48.88055" lon="2.37064">
        <ele>43</ele>
        <time>2013-09-12T21:44:44Z</time>
      </trkpt>
      <trkpt lat="48.88068" lon="2.3706">
        <ele>48</ele>
        <time>2013-09-12T21:44:48Z</time>
      </trkpt>
      <trkpt lat="48.88076" lon="2.3706">
        <ele>45</ele>
        <time>2013-09-12T21:44:50Z</time>
      </trkpt>
      <trkpt lat="48.88083" lon="2.37061">
        <ele>46</ele>
        <time>2013-09-12T21:44:52Z</time>
      </trkpt>
      <trkpt lat="48.88103" lon="2.37062">
        <ele>46</ele>
        <time>2013-09-12T21:44:58Z</time>
      </trkpt>
      <trkpt lat="48.88111" lon="2.3706">
        <ele>47</ele>
        <time>2013-09-12T21:45:00Z</time>
      </trkpt>
      <trkpt lat="48.88117" lon="2.3706">
        <ele>46</ele>
        <time>2013-09-12T21:45:02Z</time>
      </trkpt>
      <trkpt lat="48.88124" lon="2.37061">
        <ele>45</ele>
        <time>2013-09-12T21:45:04Z</time>
      </trkpt>
      <trkpt lat="48.8813" lon="2.37063">
        <ele>49</ele>
        <time>2013-09-12T21:45:06Z</time>
      </trkpt>
      <trkpt lat="48.88149" lon="2.37069">
        <ele>57</ele>
        <time>2013-09-12T21:45:12Z</time>
      </trkpt>
      <trkpt lat="48.88159" lon="2.37065">
        <ele>56</ele>
        <time>2013-09-12T21:45:14Z</time>
      </trkpt>
      <trkpt lat="48.88178" lon="2.3706">
        <ele>49</ele>
        <time>2013-09-12T21:45:19Z</time>
      </trkpt>
      <trkpt lat="48.88196" lon="2.37051">
        <ele>53</ele>
        <time>2013-09-12T21:45:25Z</time>
      </trkpt>
      <trkpt lat="48.88197" lon="2.37048">
        <ele>50</ele>
        <time>2013-09-12T21:45:26Z</time>
      </trkpt>
      <trkpt lat="48.88216" lon="2.37045">
        <ele>59</ele>
        <time>2013-09-12T21:45:36Z</time>
      </trkpt>
      <trkpt lat="48.88223" lon="2.37045">
        <ele>62</ele>
        <time>2013-09-12T21:45:39Z</time>
      </trkpt>
      <trkpt lat="48.88231" lon="2.37047">
        <ele>59</ele>
        <time>2013-09-12T21:45:43Z</time>
      </trkpt>
      <trkpt lat="48.88237" lon="2.37048">
        <ele>51</ele>
        <time>2013-09-12T21:45:48Z</time>
      </trkpt>
      <trkpt lat="48.88243" lon="2.37046">
        <ele>48</ele>
        <time>2013-09-12T21:45:54Z</time>
      </trkpt>
      <trkpt lat="48.88249" lon="2.37045">
        <ele>52</ele>
        <time>2013-09-12T21:45:57Z</time>
      </trkpt>
      <trkpt lat="48.88255" lon="2.37043">
        <ele>60</ele>
        <time>2013-09-12T21:46:00Z</time>
      </trkpt>
      <trkpt lat="48.88261" lon="2.37046">
        <ele>54</ele>
        <time>2013-09-12T21:46:05Z</time>
      </trkpt>
      <trkpt lat="48.88271" lon="2.37052">
        <ele>52</ele>
        <time>2013-09-12T21:46:11Z</time>
      </trkpt>
      <trkpt lat="48.88277" lon="2.37053">
        <ele>59</ele>
        <time>2013-09-12T21:46:15Z</time>
      </trkpt>
      <trkpt lat="48.88284" lon="2.37052">
        <ele>52</ele>
        <time>2013-09-12T21:46:18Z</time>
      </trkpt>
      <trkpt lat="48.88291" lon="2.37054">
        <ele>49</ele>
        <time>2013-09-12T21:46:21Z</time>
      </trkpt>
      <trkpt lat="48.88296" lon="2.37046">
        <ele>47</ele>
        <time>2013-09-12T21:46:24Z</time>
      </trkpt>
      <trkpt lat="48.883" lon="2.37036">
        <ele>44</ele>
        <time>2013-09-12T21:46:26Z</time>
      </trkpt>
      <trkpt lat="48.88306" lon="2.37027">
        <ele>50</ele>
        <time>2013-09-12T21:46:28Z</time>
      </trkpt>
      <trkpt lat="48.88314" lon="2.3702">
        <ele>49</ele>
        <time>2013-09-12T21:46:30Z</time>
      </trkpt>
      <trkpt lat="48.88322" lon="2.37015">
        <ele>49</ele>
        <time>2013-09-12T21:46:32Z</time>
      </trkpt>
      <trkpt lat="48.88341" lon="2.37008">
        <ele>41</ele>
        <time>2013-09-12T21:46:37Z</time>
      </trkpt>
      <trkpt lat="48.88362" lon="2.37001">
        <ele>40</ele>
        <time>2013-09-12T21:46:40Z</time>
      </trkpt>
      <trkpt lat="48.88368" lon="2.36996">
        <ele>43</ele>
        <time>2013-09-12T21:46:41Z</time>
      </trkpt>
      <trkpt lat="48.88377" lon="2.36985">
        <ele>44</ele>
        <time>2013-09-12T21:46:43Z</time>
      </trkpt>
      <trkpt lat="48.88379" lon="2.36978">
        <ele>45</ele>
        <time>2013-09-12T21:46:44Z</time>
      </trkpt>
      <trkpt lat="48.88387" lon="2.36951">
        <ele>45</ele>
        <time>2013-09-12T21:46:48Z</time>
      </trkpt>
      <trkpt lat="48.8839" lon="2.36941">
        <ele>45</ele>
        <time>2013-09-12T21:46:50Z</time>
      </trkpt>
      <trkpt lat="48.88393" lon="2.36934">
        <ele>49</ele>
        <time>2013-09-12T21:46:52Z</time>
      </trkpt>
      <trkpt lat="48.88397" lon="2.36929">
        <ele>49</ele>
        <time>2013-09-12T21:46:54Z</time>
      </trkpt>
      <trkpt lat="48.88401" lon="2.36921">
        <ele>44</ele>
        <time>2013-09-12T21:46:58Z</time>
      </trkpt>
      <trkpt lat="48.88407" lon="2.3692">
        <ele>47</ele>
        <time>2013-09-12T21:47:01Z</time>
      </trkpt>
      <trkpt lat="48.88408" lon="2.36919">
        <ele>51</ele>
        <time>2013-09-12T21:47:02Z</time>
      </trkpt>
      <trkpt lat="48.88413" lon="2.36919">
        <ele>53</ele>
        <time>2013-09-12T21:47:04Z</time>
      </trkpt>
      <trkpt lat="48.88421" lon="2.36922">
        <ele>53</ele>
        <time>2013-09-12T21:47:07Z</time>
      </trkpt>
      <trkpt lat="48.88424" lon="2.36928">
        <ele>57</ele>
        <time>2013-09-12T21:47:10Z</time>
      </trkpt>
      <trkpt lat="48.88425" lon="2.36938">
        <ele>54</ele>
        <time>2013-09-12T21:47:13Z</time>
      </trkpt>
      <trkpt lat="48.88429" lon="2.36963">
        <ele>53</ele>
        <time>2013-09-12T21:47:18Z</time>
      </trkpt>
      <trkpt lat="48.88436" lon="2.36986">
        <ele>52</ele>
        <time>2013-09-12T21:47:24Z</time>
      </trkpt>
      <trkpt lat="48.88444" lon="2.3701">
        <ele>43</ele>
        <time>2013-09-12T21:47:28Z</time>
      </trkpt>
      <trkpt lat="48.88447" lon="2.37018">
        <ele>41</ele>
        <time>2013-09-12T21:47:30Z</time>
      </trkpt>
      <trkpt lat="48.8845" lon="2.37025">
        <ele>36</ele>
        <time>2013-09-12T21:47:32Z</time>
      </trkpt>
      <trkpt lat="48.88454" lon="2.37031">
        <ele>36</ele>
        <time>2013-09-12T21:47:34Z</time>
      </trkpt>
      <trkpt lat="48.88459" lon="2.37041">
        <ele>32</ele>
        <time>2013-09-12T21:47:38Z</time>
      </trkpt>
      <trkpt lat="48.88459" lon="2.37051">
        <ele>35</ele>
        <time>2013-09-12T21:47:41Z</time>
      </trkpt>
      <trkpt lat="48.8846" lon="2.37061">
        <ele>32</ele>
        <time>2013-09-12T21:47:44Z</time>
      </trkpt>
      <trkpt lat="48.88466" lon="2.37088">
        <ele>48</ele>
        <time>2013-09-12T21:47:51Z</time>
      </trkpt>
      <trkpt lat="48.8847" lon="2.37097">
        <ele>47</ele>
        <time>2013-09-12T21:47:53Z</time>
      </trkpt>
      <trkpt lat="48.88477" lon="2.37104">
        <ele>47</ele>
        <time>2013-09-12T21:47:55Z</time>
      </trkpt>
      <trkpt lat="48.88485" lon="2.37107">
        <ele>54</ele>
        <time>2013-09-12T21:47:57Z</time>
      </trkpt>
      <trkpt lat="48.88494" lon="2.37113">
        <ele>61</ele>
        <time>2013-09-12T21:47:59Z</time>
      </trkpt>
      <trkpt lat="48.88508" lon="2.37126">
        <ele>61</ele>
        <time>2013-09-12T21:48:02Z</time>
      </trkpt>
      <trkpt lat="48.88515" lon="2.37135">
        <ele>67</ele>
        <time>2013-09-12T21:48:04Z</time>
      </trkpt>
      <trkpt lat="48.88524" lon="2.37149">
        <ele>53</ele>
        <time>2013-09-12T21:48:07Z</time>
      </trkpt>
      <trkpt lat="48.88531" lon="2.37164">
        <ele>57</ele>
        <time>2013-09-12T21:48:10Z</time>
      </trkpt>
      <trkpt lat="48.88531" lon="2.37178">
        <ele>52</ele>
        <time>2013-09-12T21:48:12Z</time>
      </trkpt>
      <trkpt lat="48.88531" lon="2.37188">
        <ele>53</ele>
        <time>2013-09-12T21:48:14Z</time>
      </trkpt>
      <trkpt lat="48.88534" lon="2.37201">
        <ele>51</ele>
        <time>2013-09-12T21:48:16Z</time>
      </trkpt>
      <trkpt lat="48.88539" lon="2.37219">
        <ele>47</ele>
        <time>2013-09-12T21:48:20Z</time>
      </trkpt>
      <trkpt lat="48.88543" lon="2.37229">
        <ele>47</ele>
        <time>2013-09-12T21:48:21Z</time>
      </trkpt>
      <trkpt lat="48.88549" lon="2.37237">
        <ele>48</ele>
        <time>2013-09-12T21:48:24Z</time>
      </trkpt>
      <trkpt lat="48.88553" lon="2.37247">
        <ele>44</ele>
        <time>2013-09-12T21:48:25Z</time>
      </trkpt>
      <trkpt lat="48.88565" lon="2.37272">
        <ele>48</ele>
        <time>2013-09-12T21:48:30Z</time>
      </trkpt>
      <trkpt lat="48.8857" lon="2.37281">
        <ele>49</ele>
        <time>2013-09-12T21:48:32Z</time>
      </trkpt>
      <trkpt lat="48.88579" lon="2.373">
        <ele>46</ele>
        <time>2013-09-12T21:48:37Z</time>
      </trkpt>
      <trkpt lat="48.88606" lon="2.37358">
        <ele>48</ele>
        <time>2013-09-12T21:48:47Z</time>
      </trkpt>
      <trkpt lat="48.88613" lon="2.37367">
        <ele>48</ele>
        <time>2013-09-12T21:48:49Z</time>
      </trkpt>
      <trkpt lat="48.88618" lon="2.37376">
        <ele>44</ele>
        <time>2013-09-12T21:48:51Z</time>
      </trkpt>
      <trkpt lat="48.88628" lon="2.37389">
        <ele>45</ele>
        <time>2013-09-12T21:48:54Z</time>
      </trkpt>
      <trkpt lat="48.88646" lon="2.37418">
        <ele>44</ele>
        <time>2013-09-12T21:49:01Z</time>
      </trkpt>
      <trkpt lat="48.88651" lon="2.37429">
        <ele>45</ele>
        <time>2013-09-12T21:49:03Z</time>
      </trkpt>
      <trkpt lat="48.88654" lon="2.37439">
        <ele>45</ele>
        <time>2013-09-12T21:49:05Z</time>
      </trkpt>
      <trkpt lat="48.88661" lon="2.37456">
        <ele>45</ele>
        <time>2013-09-12T21:49:08Z</time>
      </trkpt>
      <trkpt lat="48.88685" lon="2.37508">
        <ele>51</ele>
        <time>2013-09-12T21:49:18Z</time>
      </trkpt>
      <trkpt lat="48.88691" lon="2.3752">
        <ele>50</ele>
        <time>2013-09-12T21:49:20Z</time>
      </trkpt>
      <trkpt lat="48.88717" lon="2.37571">
        <ele>51</ele>
        <time>2013-09-12T21:49:31Z</time>
      </trkpt>
      <trkpt lat="48.88721" lon="2.37582">
        <ele>52</ele>
        <time>2013-09-12T21:49:33Z</time>
      </trkpt>
      <trkpt lat="48.88726" lon="2.37592">
        <ele>51</ele>
        <time>2013-09-12T21:49:35Z</time>
      </trkpt>
      <trkpt lat="48.88728" lon="2.37603">
        <ele>50</ele>
        <time>2013-09-12T21:49:37Z</time>
      </trkpt>
      <trkpt lat="48.88731" lon="2.3761">
        <ele>52</ele>
        <time>2013-09-12T21:49:39Z</time>
      </trkpt>
      <trkpt lat="48.88741" lon="2.37637">
        <ele>55</ele>
        <time>2013-09-12T21:49:45Z</time>
      </trkpt>
      <trkpt lat="48.88745" lon="2.37645">
        <ele>63</ele>
        <time>2013-09-12T21:49:47Z</time>
      </trkpt>
      <trkpt lat="48.88783" lon="2.37712">
        <ele>40</ele>
        <time>2013-09-12T21:50:05Z</time>
      </trkpt>
      <trkpt lat="48.88787" lon="2.37718">
        <ele>41</ele>
        <time>2013-09-12T21:50:07Z</time>
      </trkpt>
      <trkpt lat="48.88798" lon="2.37741">
        <ele>36</ele>
        <time>2013-09-12T21:50:15Z</time>
      </trkpt>
      <trkpt lat="48.88802" lon="2.37751">
        <ele>38</ele>
        <time>2013-09-12T21:50:17Z</time>
      </trkpt>
      <trkpt lat="48.88806" lon="2.3776">
        <ele>48</ele>
        <time>2013-09-12T21:50:19Z</time>
      </trkpt>
      <trkpt lat="48.88811" lon="2.37769">
        <ele>51</ele>
        <time>2013-09-12T21:50:21Z</time>
      </trkpt>
      <trkpt lat="48.88823" lon="2.37791">
        <ele>44</ele>
        <time>2013-09-12T21:50:26Z</time>
      </trkpt>
      <trkpt lat="48.88828" lon="2.378">
        <ele>40</ele>
        <time>2013-09-12T21:50:28Z</time>
      </trkpt>
      <trkpt lat="48.88834" lon="2.37808">
        <ele>39</ele>
        <time>2013-09-12T21:50:30Z</time>
      </trkpt>
      <trkpt lat="48.88847" lon="2.37827">
        <ele>44</ele>
        <time>2013-09-12T21:50:35Z</time>
      </trkpt>
      <trkpt lat="48.8885" lon="2.37835">
        <ele>42</ele>
        <time>2013-09-12T21:50:37Z</time>
      </trkpt>
      <trkpt lat="48.88861" lon="2.37859">
        <ele>44</ele>
        <time>2013-09-12T21:50:43Z</time>
      </trkpt>
      <trkpt lat="48.88865" lon="2.37866">
        <ele>43</ele>
        <time>2013-09-12T21:50:45Z</time>
      </trkpt>
      <trkpt lat="48.88867" lon="2.37877">
        <ele>43</ele>
        <time>2013-09-12T21:50:48Z</time>
      </trkpt>
      <trkpt lat="48.88872" lon="2.37893">
        <ele>47</ele>
        <time>2013-09-12T21:50:53Z</time>
      </trkpt>
      <trkpt lat="48.88869" lon="2.379">
        <ele>49</ele>
        <time>2013-09-12T21:50:57Z</time>
      </trkpt>
      <trkpt lat="48.88864" lon="2.37906">
        <ele>47</ele>
        <time>2013-09-12T21:51:01Z</time>
      </trkpt>
      <trkpt lat="48.88855" lon="2.37915">
        <ele>45</ele>
        <time>2013-09-12T21:51:05Z</time>
      </trkpt>
      <trkpt lat="48.88851" lon="2.37925">
        <ele>44</ele>
        <time>2013-09-12T21:51:08Z</time>
      </trkpt>
      <trkpt lat="48.88856" lon="2.37936">
        <ele>49</ele>
        <time>2013-09-12T21:51:10Z</time>
      </trkpt>
      <trkpt lat="48.88866" lon="2.37961">
        <ele>47</ele>
        <time>2013-09-12T21:51:15Z</time>
      </trkpt>
      <trkpt lat="48.88872" lon="2.37972">
        <ele>50</ele>
        <time>2013-09-12T21:51:17Z</time>
      </trkpt>
      <trkpt lat="48.8888" lon="2.37988">
        <ele>49</ele>
        <time>2013-09-12T21:51:20Z</time>
      </trkpt>
      <trkpt lat="48.88884" lon="2.37998">
        <ele>51</ele>
        <time>2013-09-12T21:51:22Z</time>
      </trkpt>
      <trkpt lat="48.88886" lon="2.38003">
        <ele>48</ele>
        <time>2013-09-12T21:51:23Z</time>
      </trkpt>
      <trkpt lat="48.88888" lon="2.38008">
        <ele>48</ele>
        <time>2013-09-12T21:51:24Z</time>
      </trkpt>
      <trkpt lat="48.88899" lon="2.38029">
        <ele>51</ele>
        <time>2013-09-12T21:51:28Z</time>
      </trkpt>
      <trkpt lat="48.88903" lon="2.38035">
        <ele>52</ele>
        <time>2013-09-12T21:51:30Z</time>
      </trkpt>
      <trkpt lat="48.88926" lon="2.38083">
        <ele>44</ele>
        <time>2013-09-12T21:51:39Z</time>
      </trkpt>
      <trkpt lat="48.88931" lon="2.38094">
        <ele>52</ele>
        <time>2013-09-12T21:51:41Z</time>
      </trkpt>
      <trkpt lat="48.88976" lon="2.38192">
        <ele>48</ele>
        <time>2013-09-12T21:51:57Z</time>
      </trkpt>
      <trkpt lat="48.88983" lon="2.38204">
        <ele>54</ele>
        <time>2013-09-12T21:51:59Z</time>
      </trkpt>
      <trkpt lat="48.89011" lon="2.38249">
        <ele>46</ele>
        <time>2013-09-12T21:52:07Z</time>
      </trkpt>
      <trkpt lat="48.89015" lon="2.38253">
        <ele>45</ele>
        <time>2013-09-12T21:52:08Z</time>
      </trkpt>
      <trkpt lat="48.8902" lon="2.38261">
        <ele>46</ele>
        <time>2013-09-12T21:52:10Z</time>
      </trkpt>
      <trkpt lat="48.89025" lon="2.3827">
        <ele>47</ele>
        <time>2013-09-12T21:52:12Z</time>
      </trkpt>
      <trkpt lat="48.89036" lon="2.38295">
        <ele>57</ele>
        <time>2013-09-12T21:52:17Z</time>
      </trkpt>
      <trkpt lat="48.89059" lon="2.38349">
        <ele>52</ele>
        <time>2013-09-12T21:52:28Z</time>
      </trkpt>
      <trkpt lat="48.89065" lon="2.3836">
        <ele>53</ele>
        <time>2013-09-12T21:52:30Z</time>
      </trkpt>
      <trkpt lat="48.89072" lon="2.38375">
        <ele>51</ele>
        <time>2013-09-12T21:52:33Z</time>
      </trkpt>
      <trkpt lat="48.89103" lon="2.38437">
        <ele>55</ele>
        <time>2013-09-12T21:52:46Z</time>
      </trkpt>
      <trkpt lat="48.89108" lon="2.38444">
        <ele>55</ele>
        <time>2013-09-12T21:52:48Z</time>
      </trkpt>
      <trkpt lat="48.89112" lon="2.3845">
        <ele>51</ele>
        <time>2013-09-12T21:52:51Z</time>
      </trkpt>
      <trkpt lat="48.89119" lon="2.38462">
        <ele>52</ele>
        <time>2013-09-12T21:52:53Z</time>
      </trkpt>
      <trkpt lat="48.89128" lon="2.38482">
        <ele>55</ele>
        <time>2013-09-12T21:52:57Z</time>
      </trkpt>
      <trkpt lat="48.89132" lon="2.38493">
        <ele>55</ele>
        <time>2013-09-12T21:52:59Z</time>
      </trkpt>
      <trkpt lat="48.89134" lon="2.38499">
        <ele>48</ele>
        <time>2013-09-12T21:53:00Z</time>
      </trkpt>
      <trkpt lat="48.89143" lon="2.38517">
        <ele>48</ele>
        <time>2013-09-12T21:53:04Z</time>
      </trkpt>
      <trkpt lat="48.89152" lon="2.38533">
        <ele>51</ele>
        <time>2013-09-12T21:53:07Z</time>
      </trkpt>
      <trkpt lat="48.89156" lon="2.38538">
        <ele>51</ele>
        <time>2013-09-12T21:53:08Z</time>
      </trkpt>
      <trkpt lat="48.89161" lon="2.38539">
        <ele>50</ele>
        <time>2013-09-12T21:53:09Z</time>
      </trkpt>
      <trkpt lat="48.8917" lon="2.3854">
        <ele>52</ele>
        <time>2013-09-12T21:53:11Z</time>
      </trkpt>
      <trkpt lat="48.89175" lon="2.38539">
        <ele>48</ele>
        <time>2013-09-12T21:53:12Z</time>
      </trkpt>
      <trkpt lat="48.89181" lon="2.38538">
        <ele>48</ele>
        <time>2013-09-12T21:53:13Z</time>
      </trkpt>
      <trkpt lat="48.892" lon="2.38537">
        <ele>44</ele>
        <time>2013-09-12T21:53:17Z</time>
      </trkpt>
      <trkpt lat="48.89209" lon="2.38538">
        <ele>43</ele>
        <time>2013-09-12T21:53:19Z</time>
      </trkpt>
      <trkpt lat="48.89215" lon="2.38541">
        <ele>46</ele>
        <time>2013-09-12T21:53:20Z</time>
      </trkpt>
      <trkpt lat="48.89227" lon="2.38547">
        <ele>49</ele>
        <time>2013-09-12T21:53:22Z</time>
      </trkpt>
      <trkpt lat="48.89233" lon="2.38551">
        <ele>47</ele>
        <time>2013-09-12T21:53:23Z</time>
      </trkpt>
      <trkpt lat="48.89238" lon="2.38556">
        <ele>47</ele>
        <time>2013-09-12T21:53:24Z</time>
      </trkpt>
      <trkpt lat="48.89258" lon="2.38566">
        <ele>49</ele>
        <time>2013-09-12T21:53:28Z</time>
      </trkpt>
      <trkpt lat="48.89264" lon="2.38564">
        <ele>46</ele>
        <time>2013-09-12T21:53:29Z</time>
      </trkpt>
      <trkpt lat="48.8927" lon="2.38561">
        <ele>45</ele>
        <time>2013-09-12T21:53:30Z</time>
      </trkpt>
      <trkpt lat="48.89289" lon="2.3855">
        <ele>45</ele>
        <time>2013-09-12T21:53:33Z</time>
      </trkpt>
      <trkpt lat="48.89301" lon="2.38542">
        <ele>46</ele>
        <time>2013-09-12T21:53:35Z</time>
      </trkpt>
      <trkpt lat="48.89356" lon="2.38505">
        <ele>54</ele>
        <time>2013-09-12T21:53:45Z</time>
      </trkpt>
      <trkpt lat="48.89361" lon="2.38502">
        <ele>51</ele>
        <time>2013-09-12T21:53:46Z</time>
      </trkpt>
      <trkpt lat="48.89384" lon="2.38489">
        <ele>51</ele>
        <time>2013-09-12T21:53:50Z</time>
      </trkpt>
      <trkpt lat="48.8939" lon="2.38485">
        <ele>51</ele>
        <time>2013-09-12T21:53:51Z</time>
      </trkpt>
      <trkpt lat="48.89411" lon="2.38471">
        <ele>50</ele>
        <time>2013-09-12T21:53:55Z</time>
      </trkpt>
      <trkpt lat="48.89416" lon="2.38466">
        <ele>51</ele>
        <time>2013-09-12T21:53:56Z</time>
      </trkpt>
      <trkpt lat="48.89427" lon="2.38456">
        <ele>51</ele>
        <time>2013-09-12T21:53:58Z</time>
      </trkpt>
      <trkpt lat="48.89441" lon="2.38448">
        <ele>48</ele>
        <time>2013-09-12T21:54:00Z</time>
      </trkpt>
      <trkpt lat="48.89497" lon="2.38413">
        <ele>47</ele>
        <time>2013-09-12T21:54:10Z</time>
      </trkpt>
      <trkpt lat="48.89508" lon="2.38408">
        <ele>46</ele>
        <time>2013-09-12T21:54:12Z</time>
      </trkpt>
      <trkpt lat="48.8954" lon="2.3839">
        <ele>40</ele>
        <time>2013-09-12T21:54:18Z</time>
      </trkpt>
      <trkpt lat="48.89545" lon="2.38387">
        <ele>43</ele>
        <time>2013-09-12T21:54:19Z</time>
      </trkpt>
      <trkpt lat="48.89554" lon="2.38381">
        <ele>43</ele>
        <time>2013-09-12T21:54:21Z</time>
      </trkpt>
      <trkpt lat="48.89562" lon="2.38377">
        <ele>40</ele>
        <time>2013-09-12T21:54:23Z</time>
      </trkpt>
      <trkpt lat="48.89579" lon="2.38371">
        <ele>41</ele>
        <time>2013-09-12T21:54:31Z</time>
      </trkpt>
      <trkpt lat="48.89583" lon="2.38377">
        <ele>39</ele>
        <time>2013-09-12T21:54:32Z</time>
      </trkpt>
      <trkpt lat="48.89585" lon="2.38381">
        <ele>43</ele>
        <time>2013-09-12T21:54:33Z</time>
      </trkpt>
      <trkpt lat="48.89586" lon="2.38383">
        <ele>42</ele>
        <time>2013-09-12T21:54:34Z</time>
      </trkpt>
      <trkpt lat="48.89589" lon="2.38389">
        <ele>45</ele>
        <time>2013-09-12T21:54:36Z</time>
      </trkpt>
      <trkpt lat="48.89596" lon="2.38401">
        <ele>46</ele>
        <time>2013-09-12T21:54:40Z</time>
      </trkpt>
      <trkpt lat="48.89599" lon="2.38406">
        <ele>46</ele>
        <time>2013-09-12T21:54:42Z</time>
      </trkpt>
      <trkpt lat="48.8962" lon="2.38438">
        <ele>44</ele>
        <time>2013-09-12T21:54:53Z</time>
      </trkpt>
      <trkpt lat="48.89623" lon="2.38441">
        <ele>45</ele>
        <time>2013-09-12T21:54:54Z</time>
      </trkpt>
      <trkpt lat="48.89628" lon="2.38446">
        <ele>41</ele>
        <time>2013-09-12T21:54:56Z</time>
      </trkpt>
      <trkpt lat="48.89632" lon="2.38449">
        <ele>39</ele>
        <time>2013-09-12T21:54:57Z</time>
      </trkpt>
      <trkpt lat="48.89634" lon="2.38451">
        <ele>41</ele>
        <time>2013-09-12T21:54:58Z</time>
      </trkpt>
      <trkpt lat="48.89639" lon="2.38455">
        <ele>43</ele>
        <time>2013-09-12T21:55:00Z</time>
      </trkpt>
      <trkpt lat="48.89645" lon="2.3846">
        <ele>43</ele>
        <time>2013-09-12T21:55:02Z</time>
      </trkpt>
      <trkpt lat="48.89651" lon="2.38468">
        <ele>42</ele>
        <time>2013-09-12T21:55:04Z</time>
      </trkpt>
      <trkpt lat="48.89667" lon="2.38487">
        <ele>36</ele>
        <time>2013-09-12T21:55:08Z</time>
      </trkpt>
      <trkpt lat="48.89672" lon="2.38491">
        <ele>35</ele>
        <time>2013-09-12T21:55:09Z</time>
      </trkpt>
      <trkpt lat="48.89708" lon="2.38529">
        <ele>30</ele>
        <time>2013-09-12T21:55:18Z</time>
      </trkpt>
      <trkpt lat="48.89712" lon="2.38535">
        <ele>28</ele>
        <time>2013-09-12T21:55:19Z</time>
      </trkpt>
      <trkpt lat="48.89715" lon="2.38542">
        <ele>25</ele>
        <time>2013-09-12T21:55:20Z</time>
      </trkpt>
      <trkpt lat="48.89723" lon="2.38553">
        <ele>23</ele>
        <time>2013-09-12T21:55:22Z</time>
      </trkpt>
      <trkpt lat="48.8973" lon="2.38559">
        <ele>22</ele>
        <time>2013-09-12T21:55:25Z</time>
      </trkpt>
      <trkpt lat="48.89736" lon="2.38563">
        <ele>32</ele>
        <time>2013-09-12T21:55:26Z</time>
      </trkpt>
      <trkpt lat="48.8974" lon="2.38569">
        <ele>35</ele>
        <time>2013-09-12T21:55:28Z</time>
      </trkpt>
      <trkpt lat="48.89747" lon="2.38585">
        <ele>39</ele>
        <time>2013-09-12T21:55:34Z</time>
      </trkpt>
      <trkpt lat="48.89752" lon="2.38589">
        <ele>43</ele>
        <time>2013-09-12T21:55:36Z</time>
      </trkpt>
      <trkpt lat="48.89758" lon="2.38595">
        <ele>43</ele>
        <time>2013-09-12T21:55:38Z</time>
      </trkpt>
      <trkpt lat="48.89779" lon="2.38617">
        <ele>31</ele>
        <time>2013-09-12T21:55:51Z</time>
      </trkpt>
      <trkpt lat="48.89786" lon="2.38626">
        <ele>39</ele>
        <time>2013-09-12T21:55:52Z</time>
      </trkpt>
      <trkpt lat="48.89792" lon="2.38632">
        <ele>39</ele>
        <time>2013-09-12T21:55:53Z</time>
      </trkpt>
      <trkpt lat="48.89826" lon="2.38665">
        <ele>49</ele>
        <time>2013-09-12T21:55:59Z</time>
      </trkpt>
      <trkpt lat="48.89833" lon="2.38675">
        <ele>49</ele>
        <time>2013-09-12T21:56:01Z</time>
      </trkpt>
      <trkpt lat="48.8985" lon="2.38699">
        <ele>43</ele>
        <time>2013-09-12T21:56:05Z</time>
      </trkpt>
      <trkpt lat="48.89855" lon="2.38705">
        <ele>43</ele>
        <time>2013-09-12T21:56:06Z</time>
      </trkpt>
      <trkpt lat="48.89878" lon="2.3873">
        <ele>44</ele>
        <time>2013-09-12T21:56:11Z</time>
      </trkpt>
      <trkpt lat="48.89883" lon="2.38734">
        <ele>41</ele>
        <time>2013-09-12T21:56:12Z</time>
      </trkpt>
      <trkpt lat="48.89924" lon="2.38772">
        <ele>39</ele>
        <time>2013-09-12T21:56:22Z</time>
      </trkpt>
      <trkpt lat="48.89937" lon="2.38781">
        <ele>37</ele>
        <time>2013-09-12T21:56:26Z</time>
      </trkpt>
      <trkpt lat="48.89943" lon="2.38784">
        <ele>41</ele>
        <time>2013-09-12T21:56:28Z</time>
      </trkpt>
      <trkpt lat="48.89948" lon="2.38788">
        <ele>44</ele>
        <time>2013-09-12T21:56:30Z</time>
      </trkpt>
      <trkpt lat="48.89952" lon="2.38795">
        <ele>43</ele>
        <time>2013-09-12T21:56:32Z</time>
      </trkpt>
      <trkpt lat="48.89963" lon="2.38807">
        <ele>41</ele>
        <time>2013-09-12T21:56:37Z</time>
      </trkpt>
      <trkpt lat="48.89967" lon="2.38813">
        <ele>41</ele>
        <time>2013-09-12T21:57:01Z</time>
      </trkpt>
      <trkpt lat="48.89968" lon="2.38816">
        <ele>40</ele>
        <time>2013-09-12T21:57:05Z</time>
      </trkpt>
      <trkpt lat="48.89973" lon="2.38825">
        <ele>42</ele>
        <time>2013-09-12T21:57:09Z</time>
      </trkpt>
      <trkpt lat="48.89977" lon="2.38827">
        <ele>42</ele>
        <time>2013-09-12T21:57:10Z</time>
      </trkpt>
      <trkpt lat="48.8998" lon="2.38829">
        <ele>39</ele>
        <time>2013-09-12T21:57:11Z</time>
      </trkpt>
      <trkpt lat="48.89991" lon="2.38833">
        <ele>42</ele>
        <time>2013-09-12T21:57:15Z</time>
      </trkpt>
      <trkpt lat="48.89994" lon="2.38836">
        <ele>42</ele>
        <time>2013-09-12T21:57:17Z</time>
      </trkpt>
      <trkpt lat="48.9" lon="2.38843">
        <ele>45</ele>
        <time>2013-09-12T21:57:21Z</time>
      </trkpt>
      <trkpt lat="48.90009" lon="2.38849">
        <ele>45</ele>
        <time>2013-09-12T21:57:26Z</time>
      </trkpt>
      <trkpt lat="48.90014" lon="2.38863">
        <ele>39</ele>
        <time>2013-09-12T21:57:32Z</time>
      </trkpt>
      <trkpt lat="48.90017" lon="2.38877">
        <ele>34</ele>
        <time>2013-09-12T21:57:38Z</time>
      </trkpt>
      <trkpt lat="48.90023" lon="2.3888">
        <ele>38</ele>
        <time>2013-09-12T21:57:47Z</time>
      </trkpt>
      <trkpt lat="48.90029" lon="2.38882">
        <ele>45</ele>
        <time>2013-09-12T21:57:50Z</time>
      </trkpt>
      <trkpt lat="48.90035" lon="2.38884">
        <ele>43</ele>
        <time>2013-09-12T21:57:52Z</time>
      </trkpt>
      <trkpt lat="48.90057" lon="2.38891">
        <ele>41</ele>
        <time>2013-09-12T21:57:59Z</time>
      </trkpt>
      <trkpt lat="48.9007" lon="2.389">
        <ele>36</ele>
        <time>2013-09-12T21:58:03Z</time>
      </trkpt>
      <trkpt lat="48.90072" lon="2.38911">
        <ele>40</ele>
        <time>2013-09-12T21:58:05Z</time>
      </trkpt>
      <trkpt lat="48.90075" lon="2.38918">
        <ele>44</ele>
        <time>2013-09-12T21:58:07Z</time>
      </trkpt>
      <trkpt lat="48.90078" lon="2.3893">
        <ele>44</ele>
        <time>2013-09-12T21:58:10Z</time>
      </trkpt>
      <trkpt lat="48.90084" lon="2.38937">
        <ele>49</ele>
        <time>2013-09-12T21:58:12Z</time>
      </trkpt>
      <trkpt lat="48.90102" lon="2.38955">
        <ele>39</ele>
        <time>2013-09-12T21:58:17Z</time>
      </trkpt>
      <trkpt lat="48.90108" lon="2.3896">
        <ele>39</ele>
        <time>2013-09-12T21:58:19Z</time>
      </trkpt>
      <trkpt lat="48.90114" lon="2.38964">
        <ele>36</ele>
        <time>2013-09-12T21:58:21Z</time>
      </trkpt>
      <trkpt lat="48.90118" lon="2.38965">
        <ele>40</ele>
        <time>2013-09-12T21:58:23Z</time>
      </trkpt>
      <trkpt lat="48.90121" lon="2.38965">
        <ele>41</ele>
        <time>2013-09-12T21:58:24Z</time>
      </trkpt>
      <trkpt lat="48.90125" lon="2.38964">
        <ele>41</ele>
        <time>2013-09-12T21:58:26Z</time>
      </trkpt>
      <trkpt lat="48.90129" lon="2.3896">
        <ele>38</ele>
        <time>2013-09-12T21:58:30Z</time>
      </trkpt>
      <trkpt lat="48.90136" lon="2.38952">
        <ele>49</ele>
        <time>2013-09-12T21:58:39Z</time>
      </trkpt>
      <trkpt lat="48.90141" lon="2.38954">
        <ele>49</ele>
        <time>2013-09-12T21:58:42Z</time>
      </trkpt>
      <trkpt lat="48.90149" lon="2.38956">
        <ele>54</ele>
        <time>2013-09-12T21:58:45Z</time>
      </trkpt>
      <trkpt lat="48.90154" lon="2.38959">
        <ele>51</ele>
        <time>2013-09-12T21:58:47Z</time>
      </trkpt>
      <trkpt lat="48.90168" lon="2.38971">
        <ele>52</ele>
        <time>2013-09-12T21:58:53Z</time>
      </trkpt>
      <trkpt lat="48.90171" lon="2.38978">
        <ele>52</ele>
        <time>2013-09-12T21:58:55Z</time>
      </trkpt>
      <trkpt lat="48.90176" lon="2.38986">
        <ele>55</ele>
        <time>2013-09-12T21:58:58Z</time>
      </trkpt>
      <trkpt lat="48.90187" lon="2.39001">
        <ele>55</ele>
        <time>2013-09-12T21:59:04Z</time>
      </trkpt>
      <trkpt lat="48.90201" lon="2.39018">
        <ele>49</ele>
        <time>2013-09-12T21:59:10Z</time>
      </trkpt>
      <trkpt lat="48.90216" lon="2.39034">
        <ele>43</ele>
        <time>2013-09-12T21:59:15Z</time>
      </trkpt>
      <trkpt lat="48.90222" lon="2.39039">
        <ele>44</ele>
        <time>2013-09-12T21:59:17Z</time>
      </trkpt>
      <trkpt lat="48.90226" lon="2.39043">
        <ele>46</ele>
        <time>2013-09-12T21:59:19Z</time>
      </trkpt>
      <trkpt lat="48.90231" lon="2.39047">
        <ele>47</ele>
        <time>2013-09-12T21:59:21Z</time>
      </trkpt>
      <trkpt lat="48.90241" lon="2.39057">
        <ele>45</ele>
        <time>2013-09-12T21:59:25Z</time>
      </trkpt>
      <trkpt lat="48.90255" lon="2.39074">
        <ele>46</ele>
        <time>2013-09-12T21:59:31Z</time>
      </trkpt>
      <trkpt lat="48.9026" lon="2.39078">
        <ele>47</ele>
        <time>2013-09-12T21:59:33Z</time>
      </trkpt>
      <trkpt lat="48.90264" lon="2.39083">
        <ele>52</ele>
        <time>2013-09-12T21:59:35Z</time>
      </trkpt>
      <trkpt lat="48.9027" lon="2.39092">
        <ele>55</ele>
        <time>2013-09-12T21:59:39Z</time>
      </trkpt>
      <trkpt lat="48.90284" lon="2.39114">
        <ele>51</ele>
        <time>2013-09-12T21:59:49Z</time>
      </trkpt>
      <trkpt lat="48.90291" lon="2.39117">
        <ele>54</ele>
        <time>2013-09-12T21:59:52Z</time>
      </trkpt>
      <trkpt lat="48.90295" lon="2.39121">
        <ele>52</ele>
        <time>2013-09-12T21:59:54Z</time>
      </trkpt>
      <trkpt lat="48.90299" lon="2.39127">
        <ele>51</ele>
        <time>2013-09-12T21:59:56Z</time>
      </trkpt>
      <trkpt lat="48.90308" lon="2.39136">
        <ele>44</ele>
        <time>2013-09-12T21:59:59Z</time>
      </trkpt>
      <trkpt lat="48.90315" lon="2.39141">
        <ele>41</ele>
        <time>2013-09-12T22:00:02Z</time>
      </trkpt>
      <trkpt lat="48.9033" lon="2.39154">
        <ele>41</ele>
        <time>2013-09-12T22:00:07Z</time>
      </trkpt>
      <trkpt lat="48.90337" lon="2.39158">
        <ele>41</ele>
        <time>2013-09-12T22:00:08Z</time>
      </trkpt>
      <trkpt lat="48.90347" lon="2.39167">
        <ele>45</ele>
        <time>2013-09-12T22:00:12Z</time>
      </trkpt>
      <trkpt lat="48.90361" lon="2.39181">
        <ele>42</ele>
        <time>2013-09-12T22:00:20Z</time>
      </trkpt>
      <trkpt lat="48.90365" lon="2.39184">
        <ele>42</ele>
        <time>2013-09-12T22:00:22Z</time>
      </trkpt>
      <trkpt lat="48.90376" lon="2.39189">
        <ele>41</ele>
        <time>2013-09-12T22:00:30Z</time>
      </trkpt>
      <trkpt lat="48.90386" lon="2.39191">
        <ele>46</ele>
        <time>2013-09-12T22:00:35Z</time>
      </trkpt>
      <trkpt lat="48.90391" lon="2.39186">
        <ele>46</ele>
        <time>2013-09-12T22:00:37Z</time>
      </trkpt>
      <trkpt lat="48.90407" lon="2.39172">
        <ele>51</ele>
        <time>2013-09-12T22:00:43Z</time>
      </trkpt>
      <trkpt lat="48.90413" lon="2.39165">
        <ele>49</ele>
        <time>2013-09-12T22:00:45Z</time>
      </trkpt>
      <trkpt lat="48.90429" lon="2.39147">
        <ele>53</ele>
        <time>2013-09-12T22:00:50Z</time>
      </trkpt>
      <trkpt lat="48.90437" lon="2.3914">
        <ele>53</ele>
        <time>2013-09-12T22:00:52Z</time>
      </trkpt>
      <trkpt lat="48.90456" lon="2.3912">
        <ele>54</ele>
        <time>2013-09-12T22:00:57Z</time>
      </trkpt>
      <trkpt lat="48.90461" lon="2.39115">
        <ele>52</ele>
        <time>2013-09-12T22:00:58Z</time>
      </trkpt>
      <trkpt lat="48.9048" lon="2.39095">
        <ele>49</ele>
        <time>2013-09-12T22:01:02Z</time>
      </trkpt>
      <trkpt lat="48.90485" lon="2.39091">
        <ele>45</ele>
        <time>2013-09-12T22:01:03Z</time>
      </trkpt>
      <trkpt lat="48.90547" lon="2.39032">
        <ele>49</ele>
        <time>2013-09-12T22:01:16Z</time>
      </trkpt>
      <trkpt lat="48.90583" lon="2.38994">
        <ele>38</ele>
        <time>2013-09-12T22:01:25Z</time>
      </trkpt>
      <trkpt lat="48.9059" lon="2.38989">
        <ele>40</ele>
        <time>2013-09-12T22:01:27Z</time>
      </trkpt>
      <trkpt lat="48.90597" lon="2.38984">
        <ele>44</ele>
        <time>2013-09-12T22:01:30Z</time>
      </trkpt>
      <trkpt lat="48.90605" lon="2.38979">
        <ele>45</ele>
        <time>2013-09-12T22:01:33Z</time>
      </trkpt>
      <trkpt lat="48.9061" lon="2.38974">
        <ele>46</ele>
        <time>2013-09-12T22:01:36Z</time>
      </trkpt>
      <trkpt lat="48.90617" lon="2.38972">
        <ele>51</ele>
        <time>2013-09-12T22:01:38Z</time>
      </trkpt>
      <trkpt lat="48.90627" lon="2.3897">
        <ele>49</ele>
        <time>2013-09-12T22:01:40Z</time>
      </trkpt>
      <trkpt lat="48.9063" lon="2.38967">
        <ele>45</ele>
        <time>2013-09-12T22:01:42Z</time>
      </trkpt>
      <trkpt lat="48.90637" lon="2.3896">
        <ele>47</ele>
        <time>2013-09-12T22:01:43Z</time>
      </trkpt>
      <trkpt lat="48.9065" lon="2.38949">
        <ele>40</ele>
        <time>2013-09-12T22:01:47Z</time>
      </trkpt>
      <trkpt lat="48.90668" lon="2.38933">
        <ele>42</ele>
        <time>2013-09-12T22:01:53Z</time>
      </trkpt>
      <trkpt lat="48.90674" lon="2.38925">
        <ele>40</ele>
        <time>2013-09-12T22:01:55Z</time>
      </trkpt>
      <trkpt lat="48.90681" lon="2.38919">
        <ele>40</ele>
        <time>2013-09-12T22:01:57Z</time>
      </trkpt>
      <trkpt lat="48.90718" lon="2.38882">
        <ele>37</ele>
        <time>2013-09-12T22:02:08Z</time>
      </trkpt>
      <trkpt lat="48.90727" lon="2.38878">
        <ele>39</ele>
        <time>2013-09-12T22:02:11Z</time>
      </trkpt>
      <trkpt lat="48.90732" lon="2.38876">
        <ele>37</ele>
        <time>2013-09-12T22:02:13Z</time>
      </trkpt>
      <trkpt lat="48.90736" lon="2.38871">
        <ele>36</ele>
        <time>2013-09-12T22:02:15Z</time>
      </trkpt>
      <trkpt lat="48.90782" lon="2.38815">
        <ele>39</ele>
        <time>2013-09-12T22:02:33Z</time>
      </trkpt>
      <trkpt lat="48.90787" lon="2.38811">
        <ele>30</ele>
        <time>2013-09-12T22:02:35Z</time>
      </trkpt>
      <trkpt lat="48.90807" lon="2.38801">
        <ele>24</ele>
        <time>2013-09-12T22:02:44Z</time>
      </trkpt>
      <trkpt lat="48.90813" lon="2.38803">
        <ele>25</ele>
        <time>2013-09-12T22:02:46Z</time>
      </trkpt>
      <trkpt lat="48.90825" lon="2.38804">
        <ele>38</ele>
        <time>2013-09-12T22:02:49Z</time>
      </trkpt>
      <trkpt lat="48.90832" lon="2.38804">
        <ele>37</ele>
        <time>2013-09-12T22:02:51Z</time>
      </trkpt>
      <trkpt lat="48.90847" lon="2.38804">
        <ele>33</ele>
        <time>2013-09-12T22:02:55Z</time>
      </trkpt>
      <trkpt lat="48.90851" lon="2.38804">
        <ele>33</ele>
        <time>2013-09-12T22:02:56Z</time>
      </trkpt>
      <trkpt lat="48.90876" lon="2.38807">
        <ele>44</ele>
        <time>2013-09-12T22:03:09Z</time>
      </trkpt>
      <trkpt lat="48.90883" lon="2.38811">
        <ele>43</ele>
        <time>2013-09-12T22:03:12Z</time>
      </trkpt>
      <trkpt lat="48.90886" lon="2.38813">
        <ele>44</ele>
        <time>2013-09-12T22:03:14Z</time>
      </trkpt>
      <trkpt lat="48.90891" lon="2.38813">
        <ele>48</ele>
        <time>2013-09-12T22:03:18Z</time>
      </trkpt>
      <trkpt lat="48.90896" lon="2.38808">
        <ele>41</ele>
        <time>2013-09-12T22:03:23Z</time>
      </trkpt>
      <trkpt lat="48.90904" lon="2.38805">
        <ele>44</ele>
        <time>2013-09-12T22:03:26Z</time>
      </trkpt>
      <trkpt lat="48.90911" lon="2.38804">
        <ele>42</ele>
        <time>2013-09-12T22:03:28Z</time>
      </trkpt>
      <trkpt lat="48.90913" lon="2.38753">
        <ele>45</ele>
        <time>2013-09-12T22:04:23Z</time>
      </trkpt>
      <trkpt lat="48.90966" lon="2.3868">
        <ele>45</ele>
        <time>2013-09-12T22:05:58Z</time>
      </trkpt>
      <trkpt lat="48.90924" lon="2.38735">
        <ele>37</ele>
        <time>2013-09-12T22:06:09Z</time>
      </trkpt>
      <trkpt lat="48.90924" lon="2.38735">
        <ele>34</ele>
        <time>2013-09-12T22:07:33Z</time>
      </trkpt>
    </trkseg>
  </trk>
</gpx>